<?xml version="1.0" encoding="UTF-8" standalone="no" ?>
<gpx xmlns="http://www.topografix.com/GPX/1/1" xmlns:xsi="http://www.w3.org/2001/XMLSchema-instance" xsi:schemaLocation="http://www.topografix.com/GPX/1/1 http://www.topografix.com/GPX/1/1/gpx.xsd" version="1.1" creator="VisuGPX - https://www.visugpx.com">
  <metadata>
    <name>Sortie vélo dans l'après-midi</name>
  </metadata>
  <trk>
    <name><![CDATA[Sortie vélo dans l'après-midi_1]]></name>
    <trkseg>
      <trkpt lat="43.58666" lon="1.32225">
        <ele>237</ele>
        <time>2023-10-31T13:08:50Z</time>
      </trkpt>
      <trkpt lat="43.58666" lon="1.32225">
        <ele>185.4</ele>
        <time>2023-10-31T13:09:20Z</time>
      </trkpt>
      <trkpt lat="43.58666" lon="1.32225">
        <ele>185.8</ele>
        <time>2023-10-31T13:09:39Z</time>
      </trkpt>
      <trkpt lat="43.58688" lon="1.32243">
        <ele>185.4</ele>
        <time>2023-10-31T13:09:43Z</time>
      </trkpt>
      <trkpt lat="43.58678" lon="1.32219">
        <ele>185.4</ele>
        <time>2023-10-31T13:09:50Z</time>
      </trkpt>
      <trkpt lat="43.58678" lon="1.32215">
        <ele>185.4</ele>
        <time>2023-10-31T13:09:51Z</time>
      </trkpt>
      <trkpt lat="43.58679" lon="1.32198">
        <ele>185.4</ele>
        <time>2023-10-31T13:09:57Z</time>
      </trkpt>
      <trkpt lat="43.58681" lon="1.3217">
        <ele>185.6</ele>
        <time>2023-10-31T13:10:03Z</time>
      </trkpt>
      <trkpt lat="43.58682" lon="1.32142">
        <ele>186</ele>
        <time>2023-10-31T13:10:08Z</time>
      </trkpt>
      <trkpt lat="43.58685" lon="1.32104">
        <ele>186</ele>
        <time>2023-10-31T13:10:14Z</time>
      </trkpt>
      <trkpt lat="43.58686" lon="1.32053">
        <ele>185.8</ele>
        <time>2023-10-31T13:10:21Z</time>
      </trkpt>
      <trkpt lat="43.58684" lon="1.32006">
        <ele>185.4</ele>
        <time>2023-10-31T13:10:27Z</time>
      </trkpt>
      <trkpt lat="43.58677" lon="1.3198">
        <ele>185.6</ele>
        <time>2023-10-31T13:10:31Z</time>
      </trkpt>
      <trkpt lat="43.58675" lon="1.31977">
        <ele>185.6</ele>
        <time>2023-10-31T13:10:32Z</time>
      </trkpt>
      <trkpt lat="43.58672" lon="1.31972">
        <ele>185.4</ele>
        <time>2023-10-31T13:10:33Z</time>
      </trkpt>
      <trkpt lat="43.58666" lon="1.31964">
        <ele>185.6</ele>
        <time>2023-10-31T13:10:35Z</time>
      </trkpt>
      <trkpt lat="43.58663" lon="1.31959">
        <ele>186</ele>
        <time>2023-10-31T13:10:36Z</time>
      </trkpt>
      <trkpt lat="43.58663" lon="1.31954">
        <ele>186</ele>
        <time>2023-10-31T13:10:37Z</time>
      </trkpt>
      <trkpt lat="43.58666" lon="1.31946">
        <ele>186.4</ele>
        <time>2023-10-31T13:10:39Z</time>
      </trkpt>
      <trkpt lat="43.58671" lon="1.31941">
        <ele>186.4</ele>
        <time>2023-10-31T13:10:42Z</time>
      </trkpt>
      <trkpt lat="43.58672" lon="1.3194">
        <ele>186.6</ele>
        <time>2023-10-31T13:10:43Z</time>
      </trkpt>
      <trkpt lat="43.58676" lon="1.3194">
        <ele>186.6</ele>
        <time>2023-10-31T13:10:45Z</time>
      </trkpt>
      <trkpt lat="43.58678" lon="1.31937">
        <ele>186.6</ele>
        <time>2023-10-31T13:10:46Z</time>
      </trkpt>
      <trkpt lat="43.58679" lon="1.31932">
        <ele>186.8</ele>
        <time>2023-10-31T13:10:47Z</time>
      </trkpt>
      <trkpt lat="43.58677" lon="1.31921">
        <ele>186.8</ele>
        <time>2023-10-31T13:10:49Z</time>
      </trkpt>
      <trkpt lat="43.58672" lon="1.31895">
        <ele>186.4</ele>
        <time>2023-10-31T13:10:53Z</time>
      </trkpt>
      <trkpt lat="43.5867" lon="1.31874">
        <ele>186.4</ele>
        <time>2023-10-31T13:10:56Z</time>
      </trkpt>
      <trkpt lat="43.58669" lon="1.31861">
        <ele>186.6</ele>
        <time>2023-10-31T13:10:58Z</time>
      </trkpt>
      <trkpt lat="43.58668" lon="1.3185">
        <ele>186.6</ele>
        <time>2023-10-31T13:11:00Z</time>
      </trkpt>
      <trkpt lat="43.58662" lon="1.31837">
        <ele>186.8</ele>
        <time>2023-10-31T13:11:02Z</time>
      </trkpt>
      <trkpt lat="43.58661" lon="1.31831">
        <ele>187</ele>
        <time>2023-10-31T13:11:03Z</time>
      </trkpt>
      <trkpt lat="43.58658" lon="1.31816">
        <ele>187.2</ele>
        <time>2023-10-31T13:11:05Z</time>
      </trkpt>
      <trkpt lat="43.58651" lon="1.31771">
        <ele>187.4</ele>
        <time>2023-10-31T13:11:11Z</time>
      </trkpt>
      <trkpt lat="43.58646" lon="1.31741">
        <ele>187.8</ele>
        <time>2023-10-31T13:11:15Z</time>
      </trkpt>
      <trkpt lat="43.58647" lon="1.31727">
        <ele>187.8</ele>
        <time>2023-10-31T13:11:17Z</time>
      </trkpt>
      <trkpt lat="43.58653" lon="1.317">
        <ele>188</ele>
        <time>2023-10-31T13:11:21Z</time>
      </trkpt>
      <trkpt lat="43.58654" lon="1.31694">
        <ele>188</ele>
        <time>2023-10-31T13:11:22Z</time>
      </trkpt>
      <trkpt lat="43.58654" lon="1.3169">
        <ele>188</ele>
        <time>2023-10-31T13:11:23Z</time>
      </trkpt>
      <trkpt lat="43.58653" lon="1.31687">
        <ele>188</ele>
        <time>2023-10-31T13:11:24Z</time>
      </trkpt>
      <trkpt lat="43.58647" lon="1.31684">
        <ele>188.2</ele>
        <time>2023-10-31T13:11:26Z</time>
      </trkpt>
      <trkpt lat="43.58642" lon="1.31682">
        <ele>188.2</ele>
        <time>2023-10-31T13:11:28Z</time>
      </trkpt>
      <trkpt lat="43.5864" lon="1.31678">
        <ele>188.2</ele>
        <time>2023-10-31T13:11:29Z</time>
      </trkpt>
      <trkpt lat="43.58637" lon="1.31646">
        <ele>188.2</ele>
        <time>2023-10-31T13:11:34Z</time>
      </trkpt>
      <trkpt lat="43.58633" lon="1.316">
        <ele>188</ele>
        <time>2023-10-31T13:11:40Z</time>
      </trkpt>
      <trkpt lat="43.58626" lon="1.31542">
        <ele>188</ele>
        <time>2023-10-31T13:11:47Z</time>
      </trkpt>
      <trkpt lat="43.58619" lon="1.31475">
        <ele>188.2</ele>
        <time>2023-10-31T13:11:55Z</time>
      </trkpt>
      <trkpt lat="43.58611" lon="1.314">
        <ele>188.6</ele>
        <time>2023-10-31T13:12:04Z</time>
      </trkpt>
      <trkpt lat="43.58607" lon="1.31359">
        <ele>189</ele>
        <time>2023-10-31T13:12:09Z</time>
      </trkpt>
      <trkpt lat="43.58606" lon="1.31351">
        <ele>189</ele>
        <time>2023-10-31T13:12:10Z</time>
      </trkpt>
      <trkpt lat="43.58606" lon="1.31343">
        <ele>189.2</ele>
        <time>2023-10-31T13:12:11Z</time>
      </trkpt>
      <trkpt lat="43.58606" lon="1.31309">
        <ele>189.2</ele>
        <time>2023-10-31T13:12:15Z</time>
      </trkpt>
      <trkpt lat="43.58606" lon="1.31292">
        <ele>189.2</ele>
        <time>2023-10-31T13:12:17Z</time>
      </trkpt>
      <trkpt lat="43.58602" lon="1.3124">
        <ele>189.2</ele>
        <time>2023-10-31T13:12:23Z</time>
      </trkpt>
      <trkpt lat="43.586" lon="1.31232">
        <ele>189.2</ele>
        <time>2023-10-31T13:12:24Z</time>
      </trkpt>
      <trkpt lat="43.5858" lon="1.31186">
        <ele>188.6</ele>
        <time>2023-10-31T13:12:30Z</time>
      </trkpt>
      <trkpt lat="43.58566" lon="1.31161">
        <ele>188.4</ele>
        <time>2023-10-31T13:12:34Z</time>
      </trkpt>
      <trkpt lat="43.58558" lon="1.31156">
        <ele>188.4</ele>
        <time>2023-10-31T13:12:36Z</time>
      </trkpt>
      <trkpt lat="43.5855" lon="1.31153">
        <ele>188.4</ele>
        <time>2023-10-31T13:12:38Z</time>
      </trkpt>
      <trkpt lat="43.58544" lon="1.31143">
        <ele>188.4</ele>
        <time>2023-10-31T13:12:40Z</time>
      </trkpt>
      <trkpt lat="43.58532" lon="1.31116">
        <ele>188.4</ele>
        <time>2023-10-31T13:12:44Z</time>
      </trkpt>
      <trkpt lat="43.58522" lon="1.31094">
        <ele>188.4</ele>
        <time>2023-10-31T13:12:47Z</time>
      </trkpt>
      <trkpt lat="43.58512" lon="1.31073">
        <ele>188.6</ele>
        <time>2023-10-31T13:12:50Z</time>
      </trkpt>
      <trkpt lat="43.58484" lon="1.31017">
        <ele>189</ele>
        <time>2023-10-31T13:12:58Z</time>
      </trkpt>
      <trkpt lat="43.58449" lon="1.30955">
        <ele>189.8</ele>
        <time>2023-10-31T13:13:07Z</time>
      </trkpt>
      <trkpt lat="43.58433" lon="1.30927">
        <ele>190.2</ele>
        <time>2023-10-31T13:13:11Z</time>
      </trkpt>
      <trkpt lat="43.5842" lon="1.30905">
        <ele>190.4</ele>
        <time>2023-10-31T13:13:14Z</time>
      </trkpt>
      <trkpt lat="43.58387" lon="1.30846">
        <ele>190.2</ele>
        <time>2023-10-31T13:13:22Z</time>
      </trkpt>
      <trkpt lat="43.58383" lon="1.30838">
        <ele>190.2</ele>
        <time>2023-10-31T13:13:23Z</time>
      </trkpt>
      <trkpt lat="43.58361" lon="1.30794">
        <ele>190.4</ele>
        <time>2023-10-31T13:13:29Z</time>
      </trkpt>
      <trkpt lat="43.58338" lon="1.30733">
        <ele>190.6</ele>
        <time>2023-10-31T13:13:37Z</time>
      </trkpt>
      <trkpt lat="43.58316" lon="1.30671">
        <ele>190.6</ele>
        <time>2023-10-31T13:13:45Z</time>
      </trkpt>
      <trkpt lat="43.58292" lon="1.30609">
        <ele>190.6</ele>
        <time>2023-10-31T13:13:53Z</time>
      </trkpt>
      <trkpt lat="43.58274" lon="1.30573">
        <ele>190.6</ele>
        <time>2023-10-31T13:13:59Z</time>
      </trkpt>
      <trkpt lat="43.58266" lon="1.30559">
        <ele>190.6</ele>
        <time>2023-10-31T13:14:01Z</time>
      </trkpt>
      <trkpt lat="43.58232" lon="1.30494">
        <ele>190.8</ele>
        <time>2023-10-31T13:14:10Z</time>
      </trkpt>
      <trkpt lat="43.58224" lon="1.3048">
        <ele>190.8</ele>
        <time>2023-10-31T13:14:12Z</time>
      </trkpt>
      <trkpt lat="43.58206" lon="1.30445">
        <ele>190.8</ele>
        <time>2023-10-31T13:14:18Z</time>
      </trkpt>
      <trkpt lat="43.58195" lon="1.30424">
        <ele>190.8</ele>
        <time>2023-10-31T13:14:23Z</time>
      </trkpt>
      <trkpt lat="43.58179" lon="1.30389">
        <ele>190.8</ele>
        <time>2023-10-31T13:14:29Z</time>
      </trkpt>
      <trkpt lat="43.58164" lon="1.30344">
        <ele>190.8</ele>
        <time>2023-10-31T13:14:35Z</time>
      </trkpt>
      <trkpt lat="43.5816" lon="1.30328">
        <ele>190.8</ele>
        <time>2023-10-31T13:14:37Z</time>
      </trkpt>
      <trkpt lat="43.58157" lon="1.30312">
        <ele>191</ele>
        <time>2023-10-31T13:14:39Z</time>
      </trkpt>
      <trkpt lat="43.58155" lon="1.30305">
        <ele>191</ele>
        <time>2023-10-31T13:14:40Z</time>
      </trkpt>
      <trkpt lat="43.5814" lon="1.30273">
        <ele>191</ele>
        <time>2023-10-31T13:14:45Z</time>
      </trkpt>
      <trkpt lat="43.58134" lon="1.30261">
        <ele>191</ele>
        <time>2023-10-31T13:14:47Z</time>
      </trkpt>
      <trkpt lat="43.5813" lon="1.30258">
        <ele>191</ele>
        <time>2023-10-31T13:14:48Z</time>
      </trkpt>
      <trkpt lat="43.58126" lon="1.30256">
        <ele>191</ele>
        <time>2023-10-31T13:14:49Z</time>
      </trkpt>
      <trkpt lat="43.58123" lon="1.30247">
        <ele>191.2</ele>
        <time>2023-10-31T13:14:51Z</time>
      </trkpt>
      <trkpt lat="43.58125" lon="1.30243">
        <ele>191.2</ele>
        <time>2023-10-31T13:14:52Z</time>
      </trkpt>
      <trkpt lat="43.58128" lon="1.30231">
        <ele>191.4</ele>
        <time>2023-10-31T13:14:54Z</time>
      </trkpt>
      <trkpt lat="43.58126" lon="1.30217">
        <ele>191.4</ele>
        <time>2023-10-31T13:14:56Z</time>
      </trkpt>
      <trkpt lat="43.58124" lon="1.30204">
        <ele>191.4</ele>
        <time>2023-10-31T13:14:58Z</time>
      </trkpt>
      <trkpt lat="43.58121" lon="1.30158">
        <ele>191.4</ele>
        <time>2023-10-31T13:15:04Z</time>
      </trkpt>
      <trkpt lat="43.58124" lon="1.30092">
        <ele>191.4</ele>
        <time>2023-10-31T13:15:12Z</time>
      </trkpt>
      <trkpt lat="43.58132" lon="1.30026">
        <ele>191.6</ele>
        <time>2023-10-31T13:15:20Z</time>
      </trkpt>
      <trkpt lat="43.58136" lon="1.29969">
        <ele>191.6</ele>
        <time>2023-10-31T13:15:27Z</time>
      </trkpt>
      <trkpt lat="43.58138" lon="1.29915">
        <ele>191.8</ele>
        <time>2023-10-31T13:15:34Z</time>
      </trkpt>
      <trkpt lat="43.5814" lon="1.29855">
        <ele>191.6</ele>
        <time>2023-10-31T13:15:41Z</time>
      </trkpt>
      <trkpt lat="43.58141" lon="1.29812">
        <ele>191.2</ele>
        <time>2023-10-31T13:15:46Z</time>
      </trkpt>
      <trkpt lat="43.58141" lon="1.29795">
        <ele>191</ele>
        <time>2023-10-31T13:15:48Z</time>
      </trkpt>
      <trkpt lat="43.5814" lon="1.29758">
        <ele>191</ele>
        <time>2023-10-31T13:15:53Z</time>
      </trkpt>
      <trkpt lat="43.58139" lon="1.2975">
        <ele>191</ele>
        <time>2023-10-31T13:15:54Z</time>
      </trkpt>
      <trkpt lat="43.58139" lon="1.29742">
        <ele>191</ele>
        <time>2023-10-31T13:15:55Z</time>
      </trkpt>
      <trkpt lat="43.58143" lon="1.2972">
        <ele>191.2</ele>
        <time>2023-10-31T13:15:58Z</time>
      </trkpt>
      <trkpt lat="43.58152" lon="1.29665">
        <ele>191.2</ele>
        <time>2023-10-31T13:16:05Z</time>
      </trkpt>
      <trkpt lat="43.58156" lon="1.29587">
        <ele>191.2</ele>
        <time>2023-10-31T13:16:14Z</time>
      </trkpt>
      <trkpt lat="43.58156" lon="1.29578">
        <ele>191.2</ele>
        <time>2023-10-31T13:16:15Z</time>
      </trkpt>
      <trkpt lat="43.58158" lon="1.29498">
        <ele>191.4</ele>
        <time>2023-10-31T13:16:24Z</time>
      </trkpt>
      <trkpt lat="43.58157" lon="1.29479">
        <ele>191.4</ele>
        <time>2023-10-31T13:16:26Z</time>
      </trkpt>
      <trkpt lat="43.5815" lon="1.29402">
        <ele>192</ele>
        <time>2023-10-31T13:16:35Z</time>
      </trkpt>
      <trkpt lat="43.58139" lon="1.29329">
        <ele>192</ele>
        <time>2023-10-31T13:16:43Z</time>
      </trkpt>
      <trkpt lat="43.58136" lon="1.2931">
        <ele>191.8</ele>
        <time>2023-10-31T13:16:45Z</time>
      </trkpt>
      <trkpt lat="43.58123" lon="1.29253">
        <ele>191.6</ele>
        <time>2023-10-31T13:16:52Z</time>
      </trkpt>
      <trkpt lat="43.58121" lon="1.29243">
        <ele>191.6</ele>
        <time>2023-10-31T13:16:53Z</time>
      </trkpt>
      <trkpt lat="43.58115" lon="1.29201">
        <ele>192</ele>
        <time>2023-10-31T13:16:58Z</time>
      </trkpt>
      <trkpt lat="43.58101" lon="1.29137">
        <ele>192.2</ele>
        <time>2023-10-31T13:17:06Z</time>
      </trkpt>
      <trkpt lat="43.58098" lon="1.29122">
        <ele>192.2</ele>
        <time>2023-10-31T13:17:08Z</time>
      </trkpt>
      <trkpt lat="43.58096" lon="1.29095">
        <ele>192.2</ele>
        <time>2023-10-31T13:17:11Z</time>
      </trkpt>
      <trkpt lat="43.58089" lon="1.2903">
        <ele>192.2</ele>
        <time>2023-10-31T13:17:19Z</time>
      </trkpt>
      <trkpt lat="43.58088" lon="1.29014">
        <ele>192</ele>
        <time>2023-10-31T13:17:23Z</time>
      </trkpt>
      <trkpt lat="43.58089" lon="1.29013">
        <ele>192.2</ele>
        <time>2023-10-31T13:17:24Z</time>
      </trkpt>
      <trkpt lat="43.58089" lon="1.29011">
        <ele>192.2</ele>
        <time>2023-10-31T13:17:27Z</time>
      </trkpt>
      <trkpt lat="43.58092" lon="1.29007">
        <ele>192.6</ele>
        <time>2023-10-31T13:17:33Z</time>
      </trkpt>
      <trkpt lat="43.58093" lon="1.29004">
        <ele>192.6</ele>
        <time>2023-10-31T13:17:34Z</time>
      </trkpt>
      <trkpt lat="43.58093" lon="1.29">
        <ele>192.6</ele>
        <time>2023-10-31T13:17:35Z</time>
      </trkpt>
      <trkpt lat="43.58091" lon="1.28997">
        <ele>192.6</ele>
        <time>2023-10-31T13:17:36Z</time>
      </trkpt>
      <trkpt lat="43.58087" lon="1.28987">
        <ele>192.4</ele>
        <time>2023-10-31T13:17:38Z</time>
      </trkpt>
      <trkpt lat="43.58084" lon="1.28972">
        <ele>192.4</ele>
        <time>2023-10-31T13:17:40Z</time>
      </trkpt>
      <trkpt lat="43.58079" lon="1.28927">
        <ele>192.2</ele>
        <time>2023-10-31T13:17:46Z</time>
      </trkpt>
      <trkpt lat="43.58071" lon="1.28851">
        <ele>192</ele>
        <time>2023-10-31T13:17:55Z</time>
      </trkpt>
      <trkpt lat="43.58063" lon="1.28797">
        <ele>192</ele>
        <time>2023-10-31T13:18:01Z</time>
      </trkpt>
      <trkpt lat="43.58046" lon="1.28741">
        <ele>192.2</ele>
        <time>2023-10-31T13:18:08Z</time>
      </trkpt>
      <trkpt lat="43.58017" lon="1.2868">
        <ele>192.8</ele>
        <time>2023-10-31T13:18:16Z</time>
      </trkpt>
      <trkpt lat="43.58001" lon="1.28651">
        <ele>193</ele>
        <time>2023-10-31T13:18:20Z</time>
      </trkpt>
      <trkpt lat="43.57992" lon="1.28639">
        <ele>193</ele>
        <time>2023-10-31T13:18:22Z</time>
      </trkpt>
      <trkpt lat="43.57986" lon="1.28632">
        <ele>193</ele>
        <time>2023-10-31T13:18:23Z</time>
      </trkpt>
      <trkpt lat="43.57972" lon="1.28604">
        <ele>193</ele>
        <time>2023-10-31T13:18:27Z</time>
      </trkpt>
      <trkpt lat="43.57939" lon="1.28549">
        <ele>193.2</ele>
        <time>2023-10-31T13:18:35Z</time>
      </trkpt>
      <trkpt lat="43.57936" lon="1.28544">
        <ele>193.2</ele>
        <time>2023-10-31T13:18:36Z</time>
      </trkpt>
      <trkpt lat="43.57933" lon="1.28536">
        <ele>193.2</ele>
        <time>2023-10-31T13:18:38Z</time>
      </trkpt>
      <trkpt lat="43.57928" lon="1.28521">
        <ele>193.2</ele>
        <time>2023-10-31T13:18:42Z</time>
      </trkpt>
      <trkpt lat="43.57927" lon="1.28517">
        <ele>193.2</ele>
        <time>2023-10-31T13:18:43Z</time>
      </trkpt>
      <trkpt lat="43.57923" lon="1.28494">
        <ele>193.4</ele>
        <time>2023-10-31T13:18:46Z</time>
      </trkpt>
      <trkpt lat="43.57916" lon="1.28439">
        <ele>193.4</ele>
        <time>2023-10-31T13:18:53Z</time>
      </trkpt>
      <trkpt lat="43.57912" lon="1.28411">
        <ele>193.4</ele>
        <time>2023-10-31T13:18:56Z</time>
      </trkpt>
      <trkpt lat="43.5791" lon="1.28384">
        <ele>193.4</ele>
        <time>2023-10-31T13:18:59Z</time>
      </trkpt>
      <trkpt lat="43.57907" lon="1.28366">
        <ele>193.4</ele>
        <time>2023-10-31T13:19:01Z</time>
      </trkpt>
      <trkpt lat="43.57898" lon="1.28292">
        <ele>193.4</ele>
        <time>2023-10-31T13:19:09Z</time>
      </trkpt>
      <trkpt lat="43.57888" lon="1.28218">
        <ele>193.6</ele>
        <time>2023-10-31T13:19:17Z</time>
      </trkpt>
      <trkpt lat="43.57886" lon="1.28207">
        <ele>193.6</ele>
        <time>2023-10-31T13:19:18Z</time>
      </trkpt>
      <trkpt lat="43.57879" lon="1.28147">
        <ele>193.4</ele>
        <time>2023-10-31T13:19:25Z</time>
      </trkpt>
      <trkpt lat="43.57869" lon="1.28072">
        <ele>193.4</ele>
        <time>2023-10-31T13:19:33Z</time>
      </trkpt>
      <trkpt lat="43.57867" lon="1.28056">
        <ele>193.4</ele>
        <time>2023-10-31T13:19:35Z</time>
      </trkpt>
      <trkpt lat="43.57867" lon="1.28047">
        <ele>193.4</ele>
        <time>2023-10-31T13:19:36Z</time>
      </trkpt>
      <trkpt lat="43.57869" lon="1.28029">
        <ele>193.4</ele>
        <time>2023-10-31T13:19:38Z</time>
      </trkpt>
      <trkpt lat="43.57871" lon="1.2802">
        <ele>193.4</ele>
        <time>2023-10-31T13:19:39Z</time>
      </trkpt>
      <trkpt lat="43.57888" lon="1.27949">
        <ele>193.4</ele>
        <time>2023-10-31T13:19:47Z</time>
      </trkpt>
      <trkpt lat="43.5789" lon="1.2794">
        <ele>193.4</ele>
        <time>2023-10-31T13:19:48Z</time>
      </trkpt>
      <trkpt lat="43.57902" lon="1.27867">
        <ele>193.2</ele>
        <time>2023-10-31T13:19:56Z</time>
      </trkpt>
      <trkpt lat="43.57903" lon="1.27861">
        <ele>193.4</ele>
        <time>2023-10-31T13:19:57Z</time>
      </trkpt>
      <trkpt lat="43.57913" lon="1.2779">
        <ele>193.6</ele>
        <time>2023-10-31T13:20:05Z</time>
      </trkpt>
      <trkpt lat="43.57914" lon="1.27783">
        <ele>193.6</ele>
        <time>2023-10-31T13:20:06Z</time>
      </trkpt>
      <trkpt lat="43.57925" lon="1.27711">
        <ele>193.8</ele>
        <time>2023-10-31T13:20:14Z</time>
      </trkpt>
      <trkpt lat="43.57928" lon="1.27695">
        <ele>193.8</ele>
        <time>2023-10-31T13:20:16Z</time>
      </trkpt>
      <trkpt lat="43.57941" lon="1.27624">
        <ele>193.8</ele>
        <time>2023-10-31T13:20:24Z</time>
      </trkpt>
      <trkpt lat="43.57953" lon="1.27549">
        <ele>193.8</ele>
        <time>2023-10-31T13:20:32Z</time>
      </trkpt>
      <trkpt lat="43.57956" lon="1.27534">
        <ele>193.6</ele>
        <time>2023-10-31T13:20:34Z</time>
      </trkpt>
      <trkpt lat="43.57957" lon="1.27523">
        <ele>193.6</ele>
        <time>2023-10-31T13:20:35Z</time>
      </trkpt>
      <trkpt lat="43.57966" lon="1.27458">
        <ele>193.6</ele>
        <time>2023-10-31T13:20:42Z</time>
      </trkpt>
      <trkpt lat="43.57977" lon="1.27379">
        <ele>193.8</ele>
        <time>2023-10-31T13:20:51Z</time>
      </trkpt>
      <trkpt lat="43.57978" lon="1.2737">
        <ele>193.8</ele>
        <time>2023-10-31T13:20:52Z</time>
      </trkpt>
      <trkpt lat="43.57984" lon="1.27325">
        <ele>194.2</ele>
        <time>2023-10-31T13:20:58Z</time>
      </trkpt>
      <trkpt lat="43.57986" lon="1.2731">
        <ele>194.6</ele>
        <time>2023-10-31T13:21:02Z</time>
      </trkpt>
      <trkpt lat="43.57986" lon="1.27308">
        <ele>194.8</ele>
        <time>2023-10-31T13:21:03Z</time>
      </trkpt>
      <trkpt lat="43.57986" lon="1.27303">
        <ele>194.8</ele>
        <time>2023-10-31T13:21:06Z</time>
      </trkpt>
      <trkpt lat="43.57984" lon="1.273">
        <ele>194.8</ele>
        <time>2023-10-31T13:21:07Z</time>
      </trkpt>
      <trkpt lat="43.57981" lon="1.27298">
        <ele>195</ele>
        <time>2023-10-31T13:21:08Z</time>
      </trkpt>
      <trkpt lat="43.57974" lon="1.27295">
        <ele>195</ele>
        <time>2023-10-31T13:21:10Z</time>
      </trkpt>
      <trkpt lat="43.57969" lon="1.27295">
        <ele>195</ele>
        <time>2023-10-31T13:21:11Z</time>
      </trkpt>
      <trkpt lat="43.57937" lon="1.27288">
        <ele>195.2</ele>
        <time>2023-10-31T13:21:17Z</time>
      </trkpt>
      <trkpt lat="43.57895" lon="1.2728">
        <ele>195.2</ele>
        <time>2023-10-31T13:21:24Z</time>
      </trkpt>
      <trkpt lat="43.57852" lon="1.27272">
        <ele>195.2</ele>
        <time>2023-10-31T13:21:31Z</time>
      </trkpt>
      <trkpt lat="43.57795" lon="1.27261">
        <ele>195.6</ele>
        <time>2023-10-31T13:21:40Z</time>
      </trkpt>
      <trkpt lat="43.57789" lon="1.2726">
        <ele>195.6</ele>
        <time>2023-10-31T13:21:41Z</time>
      </trkpt>
      <trkpt lat="43.57768" lon="1.27255">
        <ele>195.6</ele>
        <time>2023-10-31T13:21:45Z</time>
      </trkpt>
      <trkpt lat="43.57765" lon="1.27254">
        <ele>195.6</ele>
        <time>2023-10-31T13:21:46Z</time>
      </trkpt>
      <trkpt lat="43.5776" lon="1.2725">
        <ele>195.6</ele>
        <time>2023-10-31T13:21:49Z</time>
      </trkpt>
      <trkpt lat="43.5776" lon="1.27249">
        <ele>195.6</ele>
        <time>2023-10-31T13:21:50Z</time>
      </trkpt>
      <trkpt lat="43.57754" lon="1.27242">
        <ele>195.4</ele>
        <time>2023-10-31T13:21:54Z</time>
      </trkpt>
      <trkpt lat="43.57745" lon="1.2723">
        <ele>195.4</ele>
        <time>2023-10-31T13:21:57Z</time>
      </trkpt>
      <trkpt lat="43.57743" lon="1.27223">
        <ele>195.4</ele>
        <time>2023-10-31T13:21:58Z</time>
      </trkpt>
      <trkpt lat="43.57734" lon="1.27189">
        <ele>194.8</ele>
        <time>2023-10-31T13:22:02Z</time>
      </trkpt>
      <trkpt lat="43.57724" lon="1.27172">
        <ele>194.2</ele>
        <time>2023-10-31T13:22:04Z</time>
      </trkpt>
      <trkpt lat="43.57718" lon="1.27164">
        <ele>194.2</ele>
        <time>2023-10-31T13:22:05Z</time>
      </trkpt>
      <trkpt lat="43.57702" lon="1.27148">
        <ele>193.4</ele>
        <time>2023-10-31T13:22:07Z</time>
      </trkpt>
      <trkpt lat="43.57684" lon="1.27133">
        <ele>192</ele>
        <time>2023-10-31T13:22:09Z</time>
      </trkpt>
      <trkpt lat="43.57665" lon="1.27116">
        <ele>190.4</ele>
        <time>2023-10-31T13:22:11Z</time>
      </trkpt>
      <trkpt lat="43.57646" lon="1.27099">
        <ele>188.4</ele>
        <time>2023-10-31T13:22:13Z</time>
      </trkpt>
      <trkpt lat="43.57627" lon="1.27081">
        <ele>186.8</ele>
        <time>2023-10-31T13:22:15Z</time>
      </trkpt>
      <trkpt lat="43.57616" lon="1.27056">
        <ele>184.4</ele>
        <time>2023-10-31T13:22:17Z</time>
      </trkpt>
      <trkpt lat="43.57615" lon="1.27041">
        <ele>183.4</ele>
        <time>2023-10-31T13:22:18Z</time>
      </trkpt>
      <trkpt lat="43.57616" lon="1.27025">
        <ele>182.6</ele>
        <time>2023-10-31T13:22:19Z</time>
      </trkpt>
      <trkpt lat="43.57619" lon="1.2701">
        <ele>181.6</ele>
        <time>2023-10-31T13:22:20Z</time>
      </trkpt>
      <trkpt lat="43.57624" lon="1.26997">
        <ele>181</ele>
        <time>2023-10-31T13:22:21Z</time>
      </trkpt>
      <trkpt lat="43.5763" lon="1.26984">
        <ele>179.8</ele>
        <time>2023-10-31T13:22:22Z</time>
      </trkpt>
      <trkpt lat="43.57642" lon="1.26959">
        <ele>178.2</ele>
        <time>2023-10-31T13:22:24Z</time>
      </trkpt>
      <trkpt lat="43.57648" lon="1.26947">
        <ele>177</ele>
        <time>2023-10-31T13:22:25Z</time>
      </trkpt>
      <trkpt lat="43.57663" lon="1.26915">
        <ele>175.8</ele>
        <time>2023-10-31T13:22:28Z</time>
      </trkpt>
      <trkpt lat="43.57666" lon="1.26907">
        <ele>175.8</ele>
        <time>2023-10-31T13:22:29Z</time>
      </trkpt>
      <trkpt lat="43.57672" lon="1.2689">
        <ele>175.4</ele>
        <time>2023-10-31T13:22:31Z</time>
      </trkpt>
      <trkpt lat="43.57674" lon="1.26882">
        <ele>175</ele>
        <time>2023-10-31T13:22:32Z</time>
      </trkpt>
      <trkpt lat="43.57674" lon="1.26864">
        <ele>174.6</ele>
        <time>2023-10-31T13:22:34Z</time>
      </trkpt>
      <trkpt lat="43.57668" lon="1.26848">
        <ele>174.4</ele>
        <time>2023-10-31T13:22:36Z</time>
      </trkpt>
      <trkpt lat="43.57667" lon="1.26838">
        <ele>174.4</ele>
        <time>2023-10-31T13:22:37Z</time>
      </trkpt>
      <trkpt lat="43.57668" lon="1.26829">
        <ele>174.2</ele>
        <time>2023-10-31T13:22:38Z</time>
      </trkpt>
      <trkpt lat="43.57675" lon="1.26802">
        <ele>173.8</ele>
        <time>2023-10-31T13:22:41Z</time>
      </trkpt>
      <trkpt lat="43.57675" lon="1.26757">
        <ele>173.4</ele>
        <time>2023-10-31T13:22:46Z</time>
      </trkpt>
      <trkpt lat="43.5767" lon="1.26679">
        <ele>173.4</ele>
        <time>2023-10-31T13:22:55Z</time>
      </trkpt>
      <trkpt lat="43.57668" lon="1.26655">
        <ele>173.4</ele>
        <time>2023-10-31T13:22:58Z</time>
      </trkpt>
      <trkpt lat="43.57667" lon="1.26623">
        <ele>174.4</ele>
        <time>2023-10-31T13:23:02Z</time>
      </trkpt>
      <trkpt lat="43.57666" lon="1.26599">
        <ele>174.8</ele>
        <time>2023-10-31T13:23:05Z</time>
      </trkpt>
      <trkpt lat="43.57666" lon="1.26568">
        <ele>175.6</ele>
        <time>2023-10-31T13:23:09Z</time>
      </trkpt>
      <trkpt lat="43.57665" lon="1.26537">
        <ele>176</ele>
        <time>2023-10-31T13:23:13Z</time>
      </trkpt>
      <trkpt lat="43.57664" lon="1.26498">
        <ele>176.6</ele>
        <time>2023-10-31T13:23:18Z</time>
      </trkpt>
      <trkpt lat="43.57664" lon="1.26475">
        <ele>177.4</ele>
        <time>2023-10-31T13:23:21Z</time>
      </trkpt>
      <trkpt lat="43.57663" lon="1.2646">
        <ele>177.8</ele>
        <time>2023-10-31T13:23:23Z</time>
      </trkpt>
      <trkpt lat="43.57661" lon="1.26388">
        <ele>178.8</ele>
        <time>2023-10-31T13:23:33Z</time>
      </trkpt>
      <trkpt lat="43.57659" lon="1.26309">
        <ele>180</ele>
        <time>2023-10-31T13:23:44Z</time>
      </trkpt>
      <trkpt lat="43.57658" lon="1.26301">
        <ele>180.2</ele>
        <time>2023-10-31T13:23:45Z</time>
      </trkpt>
      <trkpt lat="43.57657" lon="1.2624">
        <ele>180.8</ele>
        <time>2023-10-31T13:23:53Z</time>
      </trkpt>
      <trkpt lat="43.57656" lon="1.26168">
        <ele>181</ele>
        <time>2023-10-31T13:24:02Z</time>
      </trkpt>
      <trkpt lat="43.57656" lon="1.26152">
        <ele>181.4</ele>
        <time>2023-10-31T13:24:04Z</time>
      </trkpt>
      <trkpt lat="43.57654" lon="1.26097">
        <ele>181.6</ele>
        <time>2023-10-31T13:24:11Z</time>
      </trkpt>
      <trkpt lat="43.57654" lon="1.26036">
        <ele>182</ele>
        <time>2023-10-31T13:24:19Z</time>
      </trkpt>
      <trkpt lat="43.57654" lon="1.26022">
        <ele>182.4</ele>
        <time>2023-10-31T13:24:21Z</time>
      </trkpt>
      <trkpt lat="43.57653" lon="1.25969">
        <ele>182.8</ele>
        <time>2023-10-31T13:24:28Z</time>
      </trkpt>
      <trkpt lat="43.57652" lon="1.25923">
        <ele>183.6</ele>
        <time>2023-10-31T13:24:34Z</time>
      </trkpt>
      <trkpt lat="43.57652" lon="1.25903">
        <ele>184.4</ele>
        <time>2023-10-31T13:24:37Z</time>
      </trkpt>
      <trkpt lat="43.5765" lon="1.25877">
        <ele>184.8</ele>
        <time>2023-10-31T13:24:41Z</time>
      </trkpt>
      <trkpt lat="43.57647" lon="1.25866">
        <ele>185.4</ele>
        <time>2023-10-31T13:24:43Z</time>
      </trkpt>
      <trkpt lat="43.57644" lon="1.25855">
        <ele>185.6</ele>
        <time>2023-10-31T13:24:45Z</time>
      </trkpt>
      <trkpt lat="43.5764" lon="1.25838">
        <ele>186.8</ele>
        <time>2023-10-31T13:24:48Z</time>
      </trkpt>
      <trkpt lat="43.57636" lon="1.25823">
        <ele>188</ele>
        <time>2023-10-31T13:24:51Z</time>
      </trkpt>
      <trkpt lat="43.57635" lon="1.25818">
        <ele>188.2</ele>
        <time>2023-10-31T13:24:52Z</time>
      </trkpt>
      <trkpt lat="43.57633" lon="1.25808">
        <ele>189</ele>
        <time>2023-10-31T13:24:54Z</time>
      </trkpt>
      <trkpt lat="43.57629" lon="1.25793">
        <ele>190</ele>
        <time>2023-10-31T13:24:57Z</time>
      </trkpt>
      <trkpt lat="43.57629" lon="1.25788">
        <ele>190.4</ele>
        <time>2023-10-31T13:24:58Z</time>
      </trkpt>
      <trkpt lat="43.57625" lon="1.25766">
        <ele>191.4</ele>
        <time>2023-10-31T13:25:02Z</time>
      </trkpt>
      <trkpt lat="43.57623" lon="1.2575">
        <ele>192.2</ele>
        <time>2023-10-31T13:25:05Z</time>
      </trkpt>
      <trkpt lat="43.57622" lon="1.25744">
        <ele>192.4</ele>
        <time>2023-10-31T13:25:06Z</time>
      </trkpt>
      <trkpt lat="43.57617" lon="1.25716">
        <ele>193.6</ele>
        <time>2023-10-31T13:25:11Z</time>
      </trkpt>
      <trkpt lat="43.57617" lon="1.2571">
        <ele>193.8</ele>
        <time>2023-10-31T13:25:12Z</time>
      </trkpt>
      <trkpt lat="43.57615" lon="1.25697">
        <ele>194</ele>
        <time>2023-10-31T13:25:14Z</time>
      </trkpt>
      <trkpt lat="43.5761" lon="1.25686">
        <ele>194.2</ele>
        <time>2023-10-31T13:25:16Z</time>
      </trkpt>
      <trkpt lat="43.57607" lon="1.25683">
        <ele>194.4</ele>
        <time>2023-10-31T13:25:17Z</time>
      </trkpt>
      <trkpt lat="43.57602" lon="1.25681">
        <ele>194.6</ele>
        <time>2023-10-31T13:25:18Z</time>
      </trkpt>
      <trkpt lat="43.57598" lon="1.2568">
        <ele>194.6</ele>
        <time>2023-10-31T13:25:19Z</time>
      </trkpt>
      <trkpt lat="43.57593" lon="1.25677">
        <ele>194.6</ele>
        <time>2023-10-31T13:25:20Z</time>
      </trkpt>
      <trkpt lat="43.5759" lon="1.25673">
        <ele>194.8</ele>
        <time>2023-10-31T13:25:21Z</time>
      </trkpt>
      <trkpt lat="43.57565" lon="1.25632">
        <ele>195</ele>
        <time>2023-10-31T13:25:29Z</time>
      </trkpt>
      <trkpt lat="43.57535" lon="1.2558">
        <ele>195.2</ele>
        <time>2023-10-31T13:25:38Z</time>
      </trkpt>
      <trkpt lat="43.57502" lon="1.25518">
        <ele>195.4</ele>
        <time>2023-10-31T13:25:47Z</time>
      </trkpt>
      <trkpt lat="43.57471" lon="1.25455">
        <ele>195.2</ele>
        <time>2023-10-31T13:25:55Z</time>
      </trkpt>
      <trkpt lat="43.57439" lon="1.25391">
        <ele>195</ele>
        <time>2023-10-31T13:26:03Z</time>
      </trkpt>
      <trkpt lat="43.57435" lon="1.25383">
        <ele>195</ele>
        <time>2023-10-31T13:26:04Z</time>
      </trkpt>
      <trkpt lat="43.57402" lon="1.25316">
        <ele>195.6</ele>
        <time>2023-10-31T13:26:12Z</time>
      </trkpt>
      <trkpt lat="43.57389" lon="1.25291">
        <ele>195.6</ele>
        <time>2023-10-31T13:26:15Z</time>
      </trkpt>
      <trkpt lat="43.57385" lon="1.25282">
        <ele>195.6</ele>
        <time>2023-10-31T13:26:16Z</time>
      </trkpt>
      <trkpt lat="43.57355" lon="1.25219">
        <ele>195.4</ele>
        <time>2023-10-31T13:26:23Z</time>
      </trkpt>
      <trkpt lat="43.57348" lon="1.252">
        <ele>195.4</ele>
        <time>2023-10-31T13:26:25Z</time>
      </trkpt>
      <trkpt lat="43.57329" lon="1.2513">
        <ele>195.2</ele>
        <time>2023-10-31T13:26:32Z</time>
      </trkpt>
      <trkpt lat="43.57327" lon="1.25119">
        <ele>195.2</ele>
        <time>2023-10-31T13:26:33Z</time>
      </trkpt>
      <trkpt lat="43.57311" lon="1.25072">
        <ele>195.4</ele>
        <time>2023-10-31T13:26:38Z</time>
      </trkpt>
      <trkpt lat="43.57307" lon="1.25064">
        <ele>195.4</ele>
        <time>2023-10-31T13:26:39Z</time>
      </trkpt>
      <trkpt lat="43.57286" lon="1.25035">
        <ele>195.4</ele>
        <time>2023-10-31T13:26:43Z</time>
      </trkpt>
      <trkpt lat="43.5728" lon="1.25029">
        <ele>195.4</ele>
        <time>2023-10-31T13:26:44Z</time>
      </trkpt>
      <trkpt lat="43.57235" lon="1.24994">
        <ele>195.8</ele>
        <time>2023-10-31T13:26:51Z</time>
      </trkpt>
      <trkpt lat="43.57207" lon="1.24963">
        <ele>196</ele>
        <time>2023-10-31T13:26:56Z</time>
      </trkpt>
      <trkpt lat="43.57202" lon="1.24956">
        <ele>196</ele>
        <time>2023-10-31T13:26:57Z</time>
      </trkpt>
      <trkpt lat="43.57168" lon="1.24895">
        <ele>196</ele>
        <time>2023-10-31T13:27:05Z</time>
      </trkpt>
      <trkpt lat="43.57151" lon="1.24863">
        <ele>196.4</ele>
        <time>2023-10-31T13:27:09Z</time>
      </trkpt>
      <trkpt lat="43.57113" lon="1.24803">
        <ele>196.6</ele>
        <time>2023-10-31T13:27:17Z</time>
      </trkpt>
      <trkpt lat="43.57108" lon="1.24796">
        <ele>196.6</ele>
        <time>2023-10-31T13:27:18Z</time>
      </trkpt>
      <trkpt lat="43.57068" lon="1.24741">
        <ele>196.4</ele>
        <time>2023-10-31T13:27:26Z</time>
      </trkpt>
      <trkpt lat="43.57049" lon="1.24713">
        <ele>196.4</ele>
        <time>2023-10-31T13:27:30Z</time>
      </trkpt>
      <trkpt lat="43.57032" lon="1.24674">
        <ele>196.6</ele>
        <time>2023-10-31T13:27:35Z</time>
      </trkpt>
      <trkpt lat="43.57018" lon="1.24603">
        <ele>197.2</ele>
        <time>2023-10-31T13:27:43Z</time>
      </trkpt>
      <trkpt lat="43.57019" lon="1.24584">
        <ele>197.4</ele>
        <time>2023-10-31T13:27:45Z</time>
      </trkpt>
      <trkpt lat="43.57022" lon="1.24576">
        <ele>197.4</ele>
        <time>2023-10-31T13:27:46Z</time>
      </trkpt>
      <trkpt lat="43.57027" lon="1.24559">
        <ele>197.4</ele>
        <time>2023-10-31T13:27:48Z</time>
      </trkpt>
      <trkpt lat="43.57026" lon="1.24541">
        <ele>197.4</ele>
        <time>2023-10-31T13:27:50Z</time>
      </trkpt>
      <trkpt lat="43.57019" lon="1.24526">
        <ele>197.2</ele>
        <time>2023-10-31T13:27:52Z</time>
      </trkpt>
      <trkpt lat="43.57013" lon="1.2452">
        <ele>197.2</ele>
        <time>2023-10-31T13:27:53Z</time>
      </trkpt>
      <trkpt lat="43.57002" lon="1.24509">
        <ele>197.2</ele>
        <time>2023-10-31T13:27:55Z</time>
      </trkpt>
      <trkpt lat="43.56993" lon="1.24493">
        <ele>197</ele>
        <time>2023-10-31T13:27:57Z</time>
      </trkpt>
      <trkpt lat="43.56972" lon="1.2443">
        <ele>196.8</ele>
        <time>2023-10-31T13:28:04Z</time>
      </trkpt>
      <trkpt lat="43.56948" lon="1.24359">
        <ele>197.2</ele>
        <time>2023-10-31T13:28:12Z</time>
      </trkpt>
      <trkpt lat="43.56932" lon="1.24298">
        <ele>197.2</ele>
        <time>2023-10-31T13:28:19Z</time>
      </trkpt>
      <trkpt lat="43.56926" lon="1.24233">
        <ele>197.2</ele>
        <time>2023-10-31T13:28:26Z</time>
      </trkpt>
      <trkpt lat="43.56929" lon="1.24159">
        <ele>197.4</ele>
        <time>2023-10-31T13:28:34Z</time>
      </trkpt>
      <trkpt lat="43.56935" lon="1.24076">
        <ele>197.8</ele>
        <time>2023-10-31T13:28:43Z</time>
      </trkpt>
      <trkpt lat="43.56937" lon="1.24039">
        <ele>197.6</ele>
        <time>2023-10-31T13:28:47Z</time>
      </trkpt>
      <trkpt lat="43.56945" lon="1.23965">
        <ele>197.4</ele>
        <time>2023-10-31T13:28:55Z</time>
      </trkpt>
      <trkpt lat="43.56948" lon="1.23947">
        <ele>197.4</ele>
        <time>2023-10-31T13:28:57Z</time>
      </trkpt>
      <trkpt lat="43.56965" lon="1.23874">
        <ele>197.2</ele>
        <time>2023-10-31T13:29:05Z</time>
      </trkpt>
      <trkpt lat="43.56968" lon="1.23865">
        <ele>197.2</ele>
        <time>2023-10-31T13:29:06Z</time>
      </trkpt>
      <trkpt lat="43.56984" lon="1.2379">
        <ele>197.2</ele>
        <time>2023-10-31T13:29:14Z</time>
      </trkpt>
      <trkpt lat="43.56983" lon="1.2374">
        <ele>197.4</ele>
        <time>2023-10-31T13:29:19Z</time>
      </trkpt>
      <trkpt lat="43.5697" lon="1.23671">
        <ele>197.4</ele>
        <time>2023-10-31T13:29:26Z</time>
      </trkpt>
      <trkpt lat="43.56958" lon="1.23605">
        <ele>197.6</ele>
        <time>2023-10-31T13:29:33Z</time>
      </trkpt>
      <trkpt lat="43.56953" lon="1.23578">
        <ele>198</ele>
        <time>2023-10-31T13:29:36Z</time>
      </trkpt>
      <trkpt lat="43.56943" lon="1.23525">
        <ele>198.2</ele>
        <time>2023-10-31T13:29:42Z</time>
      </trkpt>
      <trkpt lat="43.56931" lon="1.23452">
        <ele>199</ele>
        <time>2023-10-31T13:29:50Z</time>
      </trkpt>
      <trkpt lat="43.56931" lon="1.23443">
        <ele>199.2</ele>
        <time>2023-10-31T13:29:51Z</time>
      </trkpt>
      <trkpt lat="43.56928" lon="1.23401">
        <ele>199.6</ele>
        <time>2023-10-31T13:29:56Z</time>
      </trkpt>
      <trkpt lat="43.56926" lon="1.23384">
        <ele>200.2</ele>
        <time>2023-10-31T13:29:58Z</time>
      </trkpt>
      <trkpt lat="43.56925" lon="1.2336">
        <ele>200.6</ele>
        <time>2023-10-31T13:30:01Z</time>
      </trkpt>
      <trkpt lat="43.56921" lon="1.23337">
        <ele>200.8</ele>
        <time>2023-10-31T13:30:04Z</time>
      </trkpt>
      <trkpt lat="43.56914" lon="1.23325">
        <ele>201</ele>
        <time>2023-10-31T13:30:06Z</time>
      </trkpt>
      <trkpt lat="43.56903" lon="1.23321">
        <ele>201.2</ele>
        <time>2023-10-31T13:30:08Z</time>
      </trkpt>
      <trkpt lat="43.56897" lon="1.23322">
        <ele>201.2</ele>
        <time>2023-10-31T13:30:09Z</time>
      </trkpt>
      <trkpt lat="43.5685" lon="1.23334">
        <ele>201.8</ele>
        <time>2023-10-31T13:30:16Z</time>
      </trkpt>
      <trkpt lat="43.56812" lon="1.23342">
        <ele>201.6</ele>
        <time>2023-10-31T13:30:21Z</time>
      </trkpt>
      <trkpt lat="43.56765" lon="1.23346">
        <ele>200.2</ele>
        <time>2023-10-31T13:30:27Z</time>
      </trkpt>
      <trkpt lat="43.56703" lon="1.23349">
        <ele>199.6</ele>
        <time>2023-10-31T13:30:35Z</time>
      </trkpt>
      <trkpt lat="43.56695" lon="1.23349">
        <ele>199.6</ele>
        <time>2023-10-31T13:30:36Z</time>
      </trkpt>
      <trkpt lat="43.56648" lon="1.2335">
        <ele>199</ele>
        <time>2023-10-31T13:30:41Z</time>
      </trkpt>
      <trkpt lat="43.56613" lon="1.23353">
        <ele>197.6</ele>
        <time>2023-10-31T13:30:44Z</time>
      </trkpt>
      <trkpt lat="43.56587" lon="1.23356">
        <ele>196.6</ele>
        <time>2023-10-31T13:30:46Z</time>
      </trkpt>
      <trkpt lat="43.56577" lon="1.23357">
        <ele>194.6</ele>
        <time>2023-10-31T13:30:47Z</time>
      </trkpt>
      <trkpt lat="43.56564" lon="1.23358">
        <ele>192.6</ele>
        <time>2023-10-31T13:30:48Z</time>
      </trkpt>
      <trkpt lat="43.56536" lon="1.23357">
        <ele>189.8</ele>
        <time>2023-10-31T13:30:50Z</time>
      </trkpt>
      <trkpt lat="43.56512" lon="1.23354">
        <ele>187.4</ele>
        <time>2023-10-31T13:30:52Z</time>
      </trkpt>
      <trkpt lat="43.56491" lon="1.2335">
        <ele>185.6</ele>
        <time>2023-10-31T13:30:54Z</time>
      </trkpt>
      <trkpt lat="43.56481" lon="1.23348">
        <ele>185</ele>
        <time>2023-10-31T13:30:55Z</time>
      </trkpt>
      <trkpt lat="43.56435" lon="1.23336">
        <ele>184.6</ele>
        <time>2023-10-31T13:31:00Z</time>
      </trkpt>
      <trkpt lat="43.5639" lon="1.23323">
        <ele>184.8</ele>
        <time>2023-10-31T13:31:06Z</time>
      </trkpt>
      <trkpt lat="43.56376" lon="1.2332">
        <ele>185.2</ele>
        <time>2023-10-31T13:31:08Z</time>
      </trkpt>
      <trkpt lat="43.5636" lon="1.23322">
        <ele>185.8</ele>
        <time>2023-10-31T13:31:10Z</time>
      </trkpt>
      <trkpt lat="43.56313" lon="1.23325">
        <ele>186</ele>
        <time>2023-10-31T13:31:16Z</time>
      </trkpt>
      <trkpt lat="43.56277" lon="1.23313">
        <ele>186.2</ele>
        <time>2023-10-31T13:31:21Z</time>
      </trkpt>
      <trkpt lat="43.56254" lon="1.23305">
        <ele>186.8</ele>
        <time>2023-10-31T13:31:25Z</time>
      </trkpt>
      <trkpt lat="43.56244" lon="1.23302">
        <ele>187</ele>
        <time>2023-10-31T13:31:27Z</time>
      </trkpt>
      <trkpt lat="43.56235" lon="1.233">
        <ele>187.6</ele>
        <time>2023-10-31T13:31:29Z</time>
      </trkpt>
      <trkpt lat="43.5623" lon="1.23299">
        <ele>188</ele>
        <time>2023-10-31T13:31:30Z</time>
      </trkpt>
      <trkpt lat="43.56218" lon="1.23296">
        <ele>189.2</ele>
        <time>2023-10-31T13:31:33Z</time>
      </trkpt>
      <trkpt lat="43.56204" lon="1.23292">
        <ele>190.4</ele>
        <time>2023-10-31T13:31:37Z</time>
      </trkpt>
      <trkpt lat="43.562" lon="1.2329">
        <ele>191</ele>
        <time>2023-10-31T13:31:38Z</time>
      </trkpt>
      <trkpt lat="43.56196" lon="1.23288">
        <ele>191.6</ele>
        <time>2023-10-31T13:31:39Z</time>
      </trkpt>
      <trkpt lat="43.56184" lon="1.23279">
        <ele>193.2</ele>
        <time>2023-10-31T13:31:43Z</time>
      </trkpt>
      <trkpt lat="43.56182" lon="1.23278">
        <ele>193.4</ele>
        <time>2023-10-31T13:31:44Z</time>
      </trkpt>
      <trkpt lat="43.56176" lon="1.23273">
        <ele>194.4</ele>
        <time>2023-10-31T13:31:46Z</time>
      </trkpt>
      <trkpt lat="43.56173" lon="1.23271">
        <ele>195</ele>
        <time>2023-10-31T13:31:47Z</time>
      </trkpt>
      <trkpt lat="43.56171" lon="1.23268">
        <ele>196</ele>
        <time>2023-10-31T13:31:48Z</time>
      </trkpt>
      <trkpt lat="43.56164" lon="1.23262">
        <ele>197</ele>
        <time>2023-10-31T13:31:50Z</time>
      </trkpt>
      <trkpt lat="43.56151" lon="1.23247">
        <ele>198.2</ele>
        <time>2023-10-31T13:31:54Z</time>
      </trkpt>
      <trkpt lat="43.56145" lon="1.2324">
        <ele>198.8</ele>
        <time>2023-10-31T13:31:56Z</time>
      </trkpt>
      <trkpt lat="43.56139" lon="1.23231">
        <ele>199.4</ele>
        <time>2023-10-31T13:31:58Z</time>
      </trkpt>
      <trkpt lat="43.56127" lon="1.23215">
        <ele>200.4</ele>
        <time>2023-10-31T13:32:02Z</time>
      </trkpt>
      <trkpt lat="43.56124" lon="1.23211">
        <ele>200.6</ele>
        <time>2023-10-31T13:32:03Z</time>
      </trkpt>
      <trkpt lat="43.5611" lon="1.23194">
        <ele>201.6</ele>
        <time>2023-10-31T13:32:08Z</time>
      </trkpt>
      <trkpt lat="43.561" lon="1.23182">
        <ele>202.4</ele>
        <time>2023-10-31T13:32:11Z</time>
      </trkpt>
      <trkpt lat="43.56098" lon="1.23178">
        <ele>202.4</ele>
        <time>2023-10-31T13:32:12Z</time>
      </trkpt>
      <trkpt lat="43.56095" lon="1.23172">
        <ele>202.6</ele>
        <time>2023-10-31T13:32:13Z</time>
      </trkpt>
      <trkpt lat="43.56094" lon="1.23161">
        <ele>203</ele>
        <time>2023-10-31T13:32:15Z</time>
      </trkpt>
      <trkpt lat="43.56095" lon="1.23155">
        <ele>203</ele>
        <time>2023-10-31T13:32:16Z</time>
      </trkpt>
      <trkpt lat="43.56102" lon="1.23137">
        <ele>203.2</ele>
        <time>2023-10-31T13:32:19Z</time>
      </trkpt>
      <trkpt lat="43.56122" lon="1.23092">
        <ele>202.8</ele>
        <time>2023-10-31T13:32:26Z</time>
      </trkpt>
      <trkpt lat="43.56148" lon="1.23027">
        <ele>202.4</ele>
        <time>2023-10-31T13:32:35Z</time>
      </trkpt>
      <trkpt lat="43.56165" lon="1.22953">
        <ele>202.2</ele>
        <time>2023-10-31T13:32:44Z</time>
      </trkpt>
      <trkpt lat="43.56178" lon="1.22877">
        <ele>202.2</ele>
        <time>2023-10-31T13:32:53Z</time>
      </trkpt>
      <trkpt lat="43.56181" lon="1.2286">
        <ele>202.2</ele>
        <time>2023-10-31T13:32:55Z</time>
      </trkpt>
      <trkpt lat="43.56194" lon="1.22783">
        <ele>202.2</ele>
        <time>2023-10-31T13:33:04Z</time>
      </trkpt>
      <trkpt lat="43.56197" lon="1.22759">
        <ele>202.2</ele>
        <time>2023-10-31T13:33:07Z</time>
      </trkpt>
      <trkpt lat="43.56209" lon="1.22685">
        <ele>202.6</ele>
        <time>2023-10-31T13:33:16Z</time>
      </trkpt>
      <trkpt lat="43.5622" lon="1.22609">
        <ele>202.4</ele>
        <time>2023-10-31T13:33:25Z</time>
      </trkpt>
      <trkpt lat="43.56221" lon="1.226">
        <ele>202.4</ele>
        <time>2023-10-31T13:33:26Z</time>
      </trkpt>
      <trkpt lat="43.56233" lon="1.22518">
        <ele>202.2</ele>
        <time>2023-10-31T13:33:35Z</time>
      </trkpt>
      <trkpt lat="43.56234" lon="1.2251">
        <ele>202.2</ele>
        <time>2023-10-31T13:33:36Z</time>
      </trkpt>
      <trkpt lat="43.56245" lon="1.22432">
        <ele>202.4</ele>
        <time>2023-10-31T13:33:45Z</time>
      </trkpt>
      <trkpt lat="43.56255" lon="1.22363">
        <ele>202.4</ele>
        <time>2023-10-31T13:33:53Z</time>
      </trkpt>
      <trkpt lat="43.56262" lon="1.22317">
        <ele>202.6</ele>
        <time>2023-10-31T13:33:58Z</time>
      </trkpt>
      <trkpt lat="43.56265" lon="1.22289">
        <ele>202.4</ele>
        <time>2023-10-31T13:34:01Z</time>
      </trkpt>
      <trkpt lat="43.56272" lon="1.22218">
        <ele>202</ele>
        <time>2023-10-31T13:34:09Z</time>
      </trkpt>
      <trkpt lat="43.56274" lon="1.22191">
        <ele>201.8</ele>
        <time>2023-10-31T13:34:12Z</time>
      </trkpt>
      <trkpt lat="43.56278" lon="1.22141">
        <ele>201.4</ele>
        <time>2023-10-31T13:34:17Z</time>
      </trkpt>
      <trkpt lat="43.56282" lon="1.22071">
        <ele>200.8</ele>
        <time>2023-10-31T13:34:24Z</time>
      </trkpt>
      <trkpt lat="43.56282" lon="1.22061">
        <ele>200.6</ele>
        <time>2023-10-31T13:34:25Z</time>
      </trkpt>
      <trkpt lat="43.56282" lon="1.22014">
        <ele>199.6</ele>
        <time>2023-10-31T13:34:29Z</time>
      </trkpt>
      <trkpt lat="43.56282" lon="1.22002">
        <ele>199.2</ele>
        <time>2023-10-31T13:34:30Z</time>
      </trkpt>
      <trkpt lat="43.56279" lon="1.21965">
        <ele>198</ele>
        <time>2023-10-31T13:34:33Z</time>
      </trkpt>
      <trkpt lat="43.56276" lon="1.21942">
        <ele>197.2</ele>
        <time>2023-10-31T13:34:35Z</time>
      </trkpt>
      <trkpt lat="43.56274" lon="1.21931">
        <ele>196.4</ele>
        <time>2023-10-31T13:34:36Z</time>
      </trkpt>
      <trkpt lat="43.56268" lon="1.21911">
        <ele>195.4</ele>
        <time>2023-10-31T13:34:38Z</time>
      </trkpt>
      <trkpt lat="43.56263" lon="1.21891">
        <ele>194.8</ele>
        <time>2023-10-31T13:34:40Z</time>
      </trkpt>
      <trkpt lat="43.56244" lon="1.21841">
        <ele>194.6</ele>
        <time>2023-10-31T13:34:46Z</time>
      </trkpt>
      <trkpt lat="43.56243" lon="1.21825">
        <ele>194.6</ele>
        <time>2023-10-31T13:34:48Z</time>
      </trkpt>
      <trkpt lat="43.56246" lon="1.21818">
        <ele>194.6</ele>
        <time>2023-10-31T13:34:49Z</time>
      </trkpt>
      <trkpt lat="43.5625" lon="1.21812">
        <ele>194.4</ele>
        <time>2023-10-31T13:34:50Z</time>
      </trkpt>
      <trkpt lat="43.56262" lon="1.21802">
        <ele>194.4</ele>
        <time>2023-10-31T13:34:52Z</time>
      </trkpt>
      <trkpt lat="43.56269" lon="1.21797">
        <ele>194.2</ele>
        <time>2023-10-31T13:34:53Z</time>
      </trkpt>
      <trkpt lat="43.56305" lon="1.21771">
        <ele>192.8</ele>
        <time>2023-10-31T13:34:58Z</time>
      </trkpt>
      <trkpt lat="43.56313" lon="1.21767">
        <ele>192.2</ele>
        <time>2023-10-31T13:34:59Z</time>
      </trkpt>
      <trkpt lat="43.56321" lon="1.21766">
        <ele>191.6</ele>
        <time>2023-10-31T13:35:00Z</time>
      </trkpt>
      <trkpt lat="43.56327" lon="1.21767">
        <ele>191.4</ele>
        <time>2023-10-31T13:35:01Z</time>
      </trkpt>
      <trkpt lat="43.56346" lon="1.21772">
        <ele>191.2</ele>
        <time>2023-10-31T13:35:04Z</time>
      </trkpt>
      <trkpt lat="43.56351" lon="1.21773">
        <ele>191.2</ele>
        <time>2023-10-31T13:35:05Z</time>
      </trkpt>
      <trkpt lat="43.56357" lon="1.21772">
        <ele>191.2</ele>
        <time>2023-10-31T13:35:06Z</time>
      </trkpt>
      <trkpt lat="43.5637" lon="1.21762">
        <ele>191.2</ele>
        <time>2023-10-31T13:35:08Z</time>
      </trkpt>
      <trkpt lat="43.56375" lon="1.21744">
        <ele>191.2</ele>
        <time>2023-10-31T13:35:10Z</time>
      </trkpt>
      <trkpt lat="43.56376" lon="1.21737">
        <ele>191.2</ele>
        <time>2023-10-31T13:35:11Z</time>
      </trkpt>
      <trkpt lat="43.56383" lon="1.21688">
        <ele>191.4</ele>
        <time>2023-10-31T13:35:17Z</time>
      </trkpt>
      <trkpt lat="43.56385" lon="1.21673">
        <ele>193</ele>
        <time>2023-10-31T13:35:20Z</time>
      </trkpt>
      <trkpt lat="43.56387" lon="1.21662">
        <ele>194</ele>
        <time>2023-10-31T13:35:22Z</time>
      </trkpt>
      <trkpt lat="43.56389" lon="1.2165">
        <ele>195.6</ele>
        <time>2023-10-31T13:35:25Z</time>
      </trkpt>
      <trkpt lat="43.56389" lon="1.21646">
        <ele>196</ele>
        <time>2023-10-31T13:35:26Z</time>
      </trkpt>
      <trkpt lat="43.5639" lon="1.21643">
        <ele>196.8</ele>
        <time>2023-10-31T13:35:27Z</time>
      </trkpt>
      <trkpt lat="43.56391" lon="1.21633">
        <ele>198</ele>
        <time>2023-10-31T13:35:30Z</time>
      </trkpt>
      <trkpt lat="43.56391" lon="1.21629">
        <ele>198.2</ele>
        <time>2023-10-31T13:35:31Z</time>
      </trkpt>
      <trkpt lat="43.56392" lon="1.21615">
        <ele>199.6</ele>
        <time>2023-10-31T13:35:34Z</time>
      </trkpt>
      <trkpt lat="43.56391" lon="1.21599">
        <ele>200.8</ele>
        <time>2023-10-31T13:35:37Z</time>
      </trkpt>
      <trkpt lat="43.56389" lon="1.21576">
        <ele>202</ele>
        <time>2023-10-31T13:35:41Z</time>
      </trkpt>
      <trkpt lat="43.56385" lon="1.2156">
        <ele>202.8</ele>
        <time>2023-10-31T13:35:44Z</time>
      </trkpt>
      <trkpt lat="43.56384" lon="1.21555">
        <ele>203</ele>
        <time>2023-10-31T13:35:45Z</time>
      </trkpt>
      <trkpt lat="43.56383" lon="1.21526">
        <ele>203.8</ele>
        <time>2023-10-31T13:35:50Z</time>
      </trkpt>
      <trkpt lat="43.56384" lon="1.21521">
        <ele>204.2</ele>
        <time>2023-10-31T13:35:51Z</time>
      </trkpt>
      <trkpt lat="43.56385" lon="1.21481">
        <ele>205</ele>
        <time>2023-10-31T13:35:58Z</time>
      </trkpt>
      <trkpt lat="43.56384" lon="1.21471">
        <ele>205.2</ele>
        <time>2023-10-31T13:36:00Z</time>
      </trkpt>
      <trkpt lat="43.56378" lon="1.21465">
        <ele>205.4</ele>
        <time>2023-10-31T13:36:02Z</time>
      </trkpt>
      <trkpt lat="43.56359" lon="1.21455">
        <ele>205.6</ele>
        <time>2023-10-31T13:36:06Z</time>
      </trkpt>
      <trkpt lat="43.56348" lon="1.21446">
        <ele>205.6</ele>
        <time>2023-10-31T13:36:08Z</time>
      </trkpt>
      <trkpt lat="43.56335" lon="1.21428">
        <ele>205.6</ele>
        <time>2023-10-31T13:36:11Z</time>
      </trkpt>
      <trkpt lat="43.56308" lon="1.21389">
        <ele>205.4</ele>
        <time>2023-10-31T13:36:17Z</time>
      </trkpt>
      <trkpt lat="43.5627" lon="1.21349">
        <ele>205.4</ele>
        <time>2023-10-31T13:36:24Z</time>
      </trkpt>
      <trkpt lat="43.56228" lon="1.21311">
        <ele>205</ele>
        <time>2023-10-31T13:36:31Z</time>
      </trkpt>
      <trkpt lat="43.56183" lon="1.2128">
        <ele>204.6</ele>
        <time>2023-10-31T13:36:38Z</time>
      </trkpt>
      <trkpt lat="43.56148" lon="1.21265">
        <ele>204.4</ele>
        <time>2023-10-31T13:36:43Z</time>
      </trkpt>
      <trkpt lat="43.5614" lon="1.21265">
        <ele>204.2</ele>
        <time>2023-10-31T13:36:44Z</time>
      </trkpt>
      <trkpt lat="43.56131" lon="1.21266">
        <ele>204.2</ele>
        <time>2023-10-31T13:36:45Z</time>
      </trkpt>
      <trkpt lat="43.56119" lon="1.21272">
        <ele>204</ele>
        <time>2023-10-31T13:36:47Z</time>
      </trkpt>
      <trkpt lat="43.56107" lon="1.21287">
        <ele>204</ele>
        <time>2023-10-31T13:36:49Z</time>
      </trkpt>
      <trkpt lat="43.56102" lon="1.21296">
        <ele>203.8</ele>
        <time>2023-10-31T13:36:50Z</time>
      </trkpt>
      <trkpt lat="43.56083" lon="1.21327">
        <ele>203</ele>
        <time>2023-10-31T13:36:53Z</time>
      </trkpt>
      <trkpt lat="43.56074" lon="1.21341">
        <ele>202.6</ele>
        <time>2023-10-31T13:36:54Z</time>
      </trkpt>
      <trkpt lat="43.56066" lon="1.21353">
        <ele>201.6</ele>
        <time>2023-10-31T13:36:55Z</time>
      </trkpt>
      <trkpt lat="43.56053" lon="1.21375">
        <ele>200.2</ele>
        <time>2023-10-31T13:36:57Z</time>
      </trkpt>
      <trkpt lat="43.56046" lon="1.21387">
        <ele>199</ele>
        <time>2023-10-31T13:36:58Z</time>
      </trkpt>
      <trkpt lat="43.56038" lon="1.21399">
        <ele>198</ele>
        <time>2023-10-31T13:36:59Z</time>
      </trkpt>
      <trkpt lat="43.56029" lon="1.21408">
        <ele>196.8</ele>
        <time>2023-10-31T13:37:00Z</time>
      </trkpt>
      <trkpt lat="43.5602" lon="1.21415">
        <ele>196.4</ele>
        <time>2023-10-31T13:37:01Z</time>
      </trkpt>
      <trkpt lat="43.56011" lon="1.2142">
        <ele>195.6</ele>
        <time>2023-10-31T13:37:02Z</time>
      </trkpt>
      <trkpt lat="43.56001" lon="1.2142">
        <ele>195</ele>
        <time>2023-10-31T13:37:03Z</time>
      </trkpt>
      <trkpt lat="43.5599" lon="1.21418">
        <ele>194.4</ele>
        <time>2023-10-31T13:37:04Z</time>
      </trkpt>
      <trkpt lat="43.55983" lon="1.21413">
        <ele>194</ele>
        <time>2023-10-31T13:37:05Z</time>
      </trkpt>
      <trkpt lat="43.55966" lon="1.21399">
        <ele>192.8</ele>
        <time>2023-10-31T13:37:07Z</time>
      </trkpt>
      <trkpt lat="43.55925" lon="1.21345">
        <ele>192.2</ele>
        <time>2023-10-31T13:37:14Z</time>
      </trkpt>
      <trkpt lat="43.55899" lon="1.21297">
        <ele>192.8</ele>
        <time>2023-10-31T13:37:20Z</time>
      </trkpt>
      <trkpt lat="43.55892" lon="1.21282">
        <ele>193.2</ele>
        <time>2023-10-31T13:37:22Z</time>
      </trkpt>
      <trkpt lat="43.55882" lon="1.21265">
        <ele>194.2</ele>
        <time>2023-10-31T13:37:25Z</time>
      </trkpt>
      <trkpt lat="43.55873" lon="1.21248">
        <ele>195.4</ele>
        <time>2023-10-31T13:37:28Z</time>
      </trkpt>
      <trkpt lat="43.55871" lon="1.21242">
        <ele>195.4</ele>
        <time>2023-10-31T13:37:29Z</time>
      </trkpt>
      <trkpt lat="43.55867" lon="1.21235">
        <ele>195.8</ele>
        <time>2023-10-31T13:37:30Z</time>
      </trkpt>
      <trkpt lat="43.55862" lon="1.21226">
        <ele>196.6</ele>
        <time>2023-10-31T13:37:32Z</time>
      </trkpt>
      <trkpt lat="43.55856" lon="1.21215">
        <ele>197.4</ele>
        <time>2023-10-31T13:37:34Z</time>
      </trkpt>
      <trkpt lat="43.55854" lon="1.21209">
        <ele>198</ele>
        <time>2023-10-31T13:37:35Z</time>
      </trkpt>
      <trkpt lat="43.55849" lon="1.21199">
        <ele>198.8</ele>
        <time>2023-10-31T13:37:37Z</time>
      </trkpt>
      <trkpt lat="43.55845" lon="1.21191">
        <ele>199.2</ele>
        <time>2023-10-31T13:37:39Z</time>
      </trkpt>
      <trkpt lat="43.55836" lon="1.21178">
        <ele>200.4</ele>
        <time>2023-10-31T13:37:42Z</time>
      </trkpt>
      <trkpt lat="43.55823" lon="1.21158">
        <ele>201.4</ele>
        <time>2023-10-31T13:37:46Z</time>
      </trkpt>
      <trkpt lat="43.55821" lon="1.21153">
        <ele>201.6</ele>
        <time>2023-10-31T13:37:47Z</time>
      </trkpt>
      <trkpt lat="43.55817" lon="1.21148">
        <ele>201.8</ele>
        <time>2023-10-31T13:37:48Z</time>
      </trkpt>
      <trkpt lat="43.55814" lon="1.21143">
        <ele>202</ele>
        <time>2023-10-31T13:37:49Z</time>
      </trkpt>
      <trkpt lat="43.55789" lon="1.211">
        <ele>202.6</ele>
        <time>2023-10-31T13:37:56Z</time>
      </trkpt>
      <trkpt lat="43.55785" lon="1.21094">
        <ele>202.6</ele>
        <time>2023-10-31T13:37:57Z</time>
      </trkpt>
      <trkpt lat="43.55751" lon="1.21046">
        <ele>203.4</ele>
        <time>2023-10-31T13:38:06Z</time>
      </trkpt>
      <trkpt lat="43.55744" lon="1.21035">
        <ele>203.6</ele>
        <time>2023-10-31T13:38:08Z</time>
      </trkpt>
      <trkpt lat="43.55724" lon="1.20998">
        <ele>204.6</ele>
        <time>2023-10-31T13:38:14Z</time>
      </trkpt>
      <trkpt lat="43.55714" lon="1.20968">
        <ele>204.8</ele>
        <time>2023-10-31T13:38:18Z</time>
      </trkpt>
      <trkpt lat="43.55706" lon="1.20939">
        <ele>205.2</ele>
        <time>2023-10-31T13:38:22Z</time>
      </trkpt>
      <trkpt lat="43.55687" lon="1.20878">
        <ele>205.6</ele>
        <time>2023-10-31T13:38:31Z</time>
      </trkpt>
      <trkpt lat="43.55684" lon="1.2087">
        <ele>205.8</ele>
        <time>2023-10-31T13:38:32Z</time>
      </trkpt>
      <trkpt lat="43.55672" lon="1.20843">
        <ele>206</ele>
        <time>2023-10-31T13:38:36Z</time>
      </trkpt>
      <trkpt lat="43.55666" lon="1.2083">
        <ele>206.2</ele>
        <time>2023-10-31T13:38:38Z</time>
      </trkpt>
      <trkpt lat="43.55646" lon="1.20789">
        <ele>207</ele>
        <time>2023-10-31T13:38:44Z</time>
      </trkpt>
      <trkpt lat="43.55636" lon="1.20768">
        <ele>207.2</ele>
        <time>2023-10-31T13:38:47Z</time>
      </trkpt>
      <trkpt lat="43.556" lon="1.2071">
        <ele>207.2</ele>
        <time>2023-10-31T13:38:56Z</time>
      </trkpt>
      <trkpt lat="43.55565" lon="1.20668">
        <ele>207.2</ele>
        <time>2023-10-31T13:39:03Z</time>
      </trkpt>
      <trkpt lat="43.55517" lon="1.20626">
        <ele>206.6</ele>
        <time>2023-10-31T13:39:11Z</time>
      </trkpt>
      <trkpt lat="43.55512" lon="1.20619">
        <ele>206.4</ele>
        <time>2023-10-31T13:39:12Z</time>
      </trkpt>
      <trkpt lat="43.55494" lon="1.2059">
        <ele>206.2</ele>
        <time>2023-10-31T13:39:16Z</time>
      </trkpt>
      <trkpt lat="43.55486" lon="1.20574">
        <ele>206</ele>
        <time>2023-10-31T13:39:18Z</time>
      </trkpt>
      <trkpt lat="43.55455" lon="1.20514">
        <ele>205.8</ele>
        <time>2023-10-31T13:39:26Z</time>
      </trkpt>
      <trkpt lat="43.55433" lon="1.20464">
        <ele>206.4</ele>
        <time>2023-10-31T13:39:33Z</time>
      </trkpt>
      <trkpt lat="43.55415" lon="1.20393">
        <ele>204.2</ele>
        <time>2023-10-31T13:39:42Z</time>
      </trkpt>
      <trkpt lat="43.554" lon="1.20317">
        <ele>207</ele>
        <time>2023-10-31T13:39:51Z</time>
      </trkpt>
      <trkpt lat="43.55398" lon="1.20308">
        <ele>207</ele>
        <time>2023-10-31T13:39:52Z</time>
      </trkpt>
      <trkpt lat="43.55397" lon="1.20299">
        <ele>207.2</ele>
        <time>2023-10-31T13:39:53Z</time>
      </trkpt>
      <trkpt lat="43.55384" lon="1.20229">
        <ele>207</ele>
        <time>2023-10-31T13:40:01Z</time>
      </trkpt>
      <trkpt lat="43.5537" lon="1.20151">
        <ele>207</ele>
        <time>2023-10-31T13:40:10Z</time>
      </trkpt>
      <trkpt lat="43.55362" lon="1.20074">
        <ele>207.2</ele>
        <time>2023-10-31T13:40:19Z</time>
      </trkpt>
      <trkpt lat="43.55359" lon="1.20057">
        <ele>207</ele>
        <time>2023-10-31T13:40:21Z</time>
      </trkpt>
      <trkpt lat="43.55349" lon="1.19994">
        <ele>207</ele>
        <time>2023-10-31T13:40:28Z</time>
      </trkpt>
      <trkpt lat="43.55347" lon="1.19929">
        <ele>207</ele>
        <time>2023-10-31T13:40:35Z</time>
      </trkpt>
      <trkpt lat="43.55345" lon="1.19873">
        <ele>207</ele>
        <time>2023-10-31T13:40:41Z</time>
      </trkpt>
      <trkpt lat="43.55344" lon="1.19805">
        <ele>207.2</ele>
        <time>2023-10-31T13:40:48Z</time>
      </trkpt>
      <trkpt lat="43.55343" lon="1.19738">
        <ele>207.2</ele>
        <time>2023-10-31T13:40:55Z</time>
      </trkpt>
      <trkpt lat="43.55339" lon="1.19662">
        <ele>207.2</ele>
        <time>2023-10-31T13:41:03Z</time>
      </trkpt>
      <trkpt lat="43.55337" lon="1.19652">
        <ele>207</ele>
        <time>2023-10-31T13:41:04Z</time>
      </trkpt>
      <trkpt lat="43.55331" lon="1.19617">
        <ele>206.8</ele>
        <time>2023-10-31T13:41:07Z</time>
      </trkpt>
      <trkpt lat="43.55326" lon="1.19606">
        <ele>206.6</ele>
        <time>2023-10-31T13:41:08Z</time>
      </trkpt>
      <trkpt lat="43.55319" lon="1.19597">
        <ele>206</ele>
        <time>2023-10-31T13:41:09Z</time>
      </trkpt>
      <trkpt lat="43.55303" lon="1.19582">
        <ele>205.4</ele>
        <time>2023-10-31T13:41:11Z</time>
      </trkpt>
      <trkpt lat="43.55294" lon="1.19572">
        <ele>204.4</ele>
        <time>2023-10-31T13:41:12Z</time>
      </trkpt>
      <trkpt lat="43.55279" lon="1.19552">
        <ele>202.2</ele>
        <time>2023-10-31T13:41:14Z</time>
      </trkpt>
      <trkpt lat="43.55273" lon="1.19541">
        <ele>201.6</ele>
        <time>2023-10-31T13:41:15Z</time>
      </trkpt>
      <trkpt lat="43.55269" lon="1.19529">
        <ele>200.8</ele>
        <time>2023-10-31T13:41:16Z</time>
      </trkpt>
      <trkpt lat="43.55267" lon="1.19516">
        <ele>200.6</ele>
        <time>2023-10-31T13:41:17Z</time>
      </trkpt>
      <trkpt lat="43.55266" lon="1.19504">
        <ele>200.2</ele>
        <time>2023-10-31T13:41:18Z</time>
      </trkpt>
      <trkpt lat="43.55266" lon="1.19491">
        <ele>199.6</ele>
        <time>2023-10-31T13:41:19Z</time>
      </trkpt>
      <trkpt lat="43.55266" lon="1.19479">
        <ele>199.4</ele>
        <time>2023-10-31T13:41:20Z</time>
      </trkpt>
      <trkpt lat="43.5527" lon="1.19424">
        <ele>199</ele>
        <time>2023-10-31T13:41:25Z</time>
      </trkpt>
      <trkpt lat="43.55272" lon="1.19362">
        <ele>198.8</ele>
        <time>2023-10-31T13:41:31Z</time>
      </trkpt>
      <trkpt lat="43.55273" lon="1.19312">
        <ele>199.8</ele>
        <time>2023-10-31T13:41:37Z</time>
      </trkpt>
      <trkpt lat="43.55275" lon="1.19295">
        <ele>200.4</ele>
        <time>2023-10-31T13:41:39Z</time>
      </trkpt>
      <trkpt lat="43.55274" lon="1.19288">
        <ele>200.8</ele>
        <time>2023-10-31T13:41:40Z</time>
      </trkpt>
      <trkpt lat="43.55274" lon="1.19275">
        <ele>201.6</ele>
        <time>2023-10-31T13:41:42Z</time>
      </trkpt>
      <trkpt lat="43.55274" lon="1.19267">
        <ele>201.8</ele>
        <time>2023-10-31T13:41:43Z</time>
      </trkpt>
      <trkpt lat="43.55275" lon="1.19255">
        <ele>202.2</ele>
        <time>2023-10-31T13:41:45Z</time>
      </trkpt>
      <trkpt lat="43.55277" lon="1.19249">
        <ele>202.6</ele>
        <time>2023-10-31T13:41:46Z</time>
      </trkpt>
      <trkpt lat="43.55282" lon="1.19238">
        <ele>203.4</ele>
        <time>2023-10-31T13:41:48Z</time>
      </trkpt>
      <trkpt lat="43.55285" lon="1.19226">
        <ele>204</ele>
        <time>2023-10-31T13:41:50Z</time>
      </trkpt>
      <trkpt lat="43.55285" lon="1.19218">
        <ele>204.4</ele>
        <time>2023-10-31T13:41:51Z</time>
      </trkpt>
      <trkpt lat="43.55284" lon="1.19211">
        <ele>204.6</ele>
        <time>2023-10-31T13:41:52Z</time>
      </trkpt>
      <trkpt lat="43.5528" lon="1.19199">
        <ele>205</ele>
        <time>2023-10-31T13:41:54Z</time>
      </trkpt>
      <trkpt lat="43.55278" lon="1.19192">
        <ele>205.6</ele>
        <time>2023-10-31T13:41:55Z</time>
      </trkpt>
      <trkpt lat="43.55272" lon="1.19173">
        <ele>206</ele>
        <time>2023-10-31T13:41:58Z</time>
      </trkpt>
      <trkpt lat="43.5527" lon="1.19159">
        <ele>206</ele>
        <time>2023-10-31T13:42:00Z</time>
      </trkpt>
      <trkpt lat="43.5527" lon="1.19136">
        <ele>206</ele>
        <time>2023-10-31T13:42:03Z</time>
      </trkpt>
      <trkpt lat="43.55264" lon="1.19125">
        <ele>206</ele>
        <time>2023-10-31T13:42:05Z</time>
      </trkpt>
      <trkpt lat="43.55251" lon="1.19121">
        <ele>206</ele>
        <time>2023-10-31T13:42:07Z</time>
      </trkpt>
      <trkpt lat="43.55244" lon="1.19121">
        <ele>205.8</ele>
        <time>2023-10-31T13:42:08Z</time>
      </trkpt>
      <trkpt lat="43.55207" lon="1.19119">
        <ele>205.2</ele>
        <time>2023-10-31T13:42:13Z</time>
      </trkpt>
      <trkpt lat="43.5518" lon="1.19118">
        <ele>204</ele>
        <time>2023-10-31T13:42:16Z</time>
      </trkpt>
      <trkpt lat="43.55156" lon="1.19117">
        <ele>202.6</ele>
        <time>2023-10-31T13:42:19Z</time>
      </trkpt>
      <trkpt lat="43.55148" lon="1.19116">
        <ele>202.2</ele>
        <time>2023-10-31T13:42:20Z</time>
      </trkpt>
      <trkpt lat="43.55126" lon="1.19117">
        <ele>201.6</ele>
        <time>2023-10-31T13:42:23Z</time>
      </trkpt>
      <trkpt lat="43.55112" lon="1.19122">
        <ele>201.4</ele>
        <time>2023-10-31T13:42:25Z</time>
      </trkpt>
      <trkpt lat="43.551" lon="1.19131">
        <ele>201.4</ele>
        <time>2023-10-31T13:42:27Z</time>
      </trkpt>
      <trkpt lat="43.5509" lon="1.19143">
        <ele>201.4</ele>
        <time>2023-10-31T13:42:29Z</time>
      </trkpt>
      <trkpt lat="43.55063" lon="1.1918">
        <ele>202.6</ele>
        <time>2023-10-31T13:42:35Z</time>
      </trkpt>
      <trkpt lat="43.55059" lon="1.19186">
        <ele>202.8</ele>
        <time>2023-10-31T13:42:36Z</time>
      </trkpt>
      <trkpt lat="43.55047" lon="1.19201">
        <ele>203.6</ele>
        <time>2023-10-31T13:42:39Z</time>
      </trkpt>
      <trkpt lat="43.55032" lon="1.19216">
        <ele>204.4</ele>
        <time>2023-10-31T13:42:42Z</time>
      </trkpt>
      <trkpt lat="43.55022" lon="1.19223">
        <ele>205</ele>
        <time>2023-10-31T13:42:44Z</time>
      </trkpt>
      <trkpt lat="43.55" lon="1.19233">
        <ele>206</ele>
        <time>2023-10-31T13:42:48Z</time>
      </trkpt>
      <trkpt lat="43.54994" lon="1.19235">
        <ele>206.2</ele>
        <time>2023-10-31T13:42:49Z</time>
      </trkpt>
      <trkpt lat="43.54952" lon="1.19248">
        <ele>207</ele>
        <time>2023-10-31T13:42:56Z</time>
      </trkpt>
      <trkpt lat="43.54946" lon="1.19248">
        <ele>207.2</ele>
        <time>2023-10-31T13:42:57Z</time>
      </trkpt>
      <trkpt lat="43.54907" lon="1.19243">
        <ele>207.8</ele>
        <time>2023-10-31T13:43:03Z</time>
      </trkpt>
      <trkpt lat="43.54869" lon="1.19226">
        <ele>208</ele>
        <time>2023-10-31T13:43:09Z</time>
      </trkpt>
      <trkpt lat="43.5484" lon="1.19209">
        <ele>208</ele>
        <time>2023-10-31T13:43:14Z</time>
      </trkpt>
      <trkpt lat="43.54823" lon="1.19199">
        <ele>208.2</ele>
        <time>2023-10-31T13:43:17Z</time>
      </trkpt>
      <trkpt lat="43.54766" lon="1.19171">
        <ele>208.6</ele>
        <time>2023-10-31T13:43:26Z</time>
      </trkpt>
      <trkpt lat="43.54741" lon="1.19157">
        <ele>208.6</ele>
        <time>2023-10-31T13:43:30Z</time>
      </trkpt>
      <trkpt lat="43.54731" lon="1.19146">
        <ele>208.6</ele>
        <time>2023-10-31T13:43:32Z</time>
      </trkpt>
      <trkpt lat="43.54725" lon="1.19141">
        <ele>208.6</ele>
        <time>2023-10-31T13:43:33Z</time>
      </trkpt>
      <trkpt lat="43.54713" lon="1.19138">
        <ele>208.6</ele>
        <time>2023-10-31T13:43:35Z</time>
      </trkpt>
      <trkpt lat="43.54699" lon="1.1914">
        <ele>208.6</ele>
        <time>2023-10-31T13:43:37Z</time>
      </trkpt>
      <trkpt lat="43.54671" lon="1.19137">
        <ele>208.6</ele>
        <time>2023-10-31T13:43:41Z</time>
      </trkpt>
      <trkpt lat="43.54614" lon="1.1913">
        <ele>208.6</ele>
        <time>2023-10-31T13:43:49Z</time>
      </trkpt>
      <trkpt lat="43.546" lon="1.19129">
        <ele>208.4</ele>
        <time>2023-10-31T13:43:51Z</time>
      </trkpt>
      <trkpt lat="43.54545" lon="1.19123">
        <ele>208.6</ele>
        <time>2023-10-31T13:43:59Z</time>
      </trkpt>
      <trkpt lat="43.54534" lon="1.19115">
        <ele>208.6</ele>
        <time>2023-10-31T13:44:01Z</time>
      </trkpt>
      <trkpt lat="43.5453" lon="1.19108">
        <ele>208.8</ele>
        <time>2023-10-31T13:44:02Z</time>
      </trkpt>
      <trkpt lat="43.54524" lon="1.19092">
        <ele>208.8</ele>
        <time>2023-10-31T13:44:04Z</time>
      </trkpt>
      <trkpt lat="43.54516" lon="1.19078">
        <ele>209.2</ele>
        <time>2023-10-31T13:44:06Z</time>
      </trkpt>
      <trkpt lat="43.54512" lon="1.1907">
        <ele>209.2</ele>
        <time>2023-10-31T13:44:07Z</time>
      </trkpt>
      <trkpt lat="43.54511" lon="1.19052">
        <ele>209</ele>
        <time>2023-10-31T13:44:09Z</time>
      </trkpt>
      <trkpt lat="43.54525" lon="1.18977">
        <ele>208.6</ele>
        <time>2023-10-31T13:44:17Z</time>
      </trkpt>
      <trkpt lat="43.54541" lon="1.18904">
        <ele>208.4</ele>
        <time>2023-10-31T13:44:25Z</time>
      </trkpt>
      <trkpt lat="43.54548" lon="1.18875">
        <ele>208.6</ele>
        <time>2023-10-31T13:44:28Z</time>
      </trkpt>
      <trkpt lat="43.54564" lon="1.18804">
        <ele>208.4</ele>
        <time>2023-10-31T13:44:36Z</time>
      </trkpt>
      <trkpt lat="43.54571" lon="1.18777">
        <ele>208.6</ele>
        <time>2023-10-31T13:44:39Z</time>
      </trkpt>
      <trkpt lat="43.54589" lon="1.18698">
        <ele>208.8</ele>
        <time>2023-10-31T13:44:48Z</time>
      </trkpt>
      <trkpt lat="43.54596" lon="1.18635">
        <ele>208.8</ele>
        <time>2023-10-31T13:44:55Z</time>
      </trkpt>
      <trkpt lat="43.54601" lon="1.18552">
        <ele>208.4</ele>
        <time>2023-10-31T13:45:04Z</time>
      </trkpt>
      <trkpt lat="43.54605" lon="1.18478">
        <ele>208.6</ele>
        <time>2023-10-31T13:45:12Z</time>
      </trkpt>
      <trkpt lat="43.5461" lon="1.18398">
        <ele>209</ele>
        <time>2023-10-31T13:45:21Z</time>
      </trkpt>
      <trkpt lat="43.54614" lon="1.18365">
        <ele>209.2</ele>
        <time>2023-10-31T13:45:25Z</time>
      </trkpt>
      <trkpt lat="43.54622" lon="1.18324">
        <ele>209.2</ele>
        <time>2023-10-31T13:45:30Z</time>
      </trkpt>
      <trkpt lat="43.54628" lon="1.18299">
        <ele>209.4</ele>
        <time>2023-10-31T13:45:33Z</time>
      </trkpt>
      <trkpt lat="43.54651" lon="1.18228">
        <ele>209.6</ele>
        <time>2023-10-31T13:45:42Z</time>
      </trkpt>
      <trkpt lat="43.54659" lon="1.18205">
        <ele>209.6</ele>
        <time>2023-10-31T13:45:45Z</time>
      </trkpt>
      <trkpt lat="43.54672" lon="1.18174">
        <ele>209.8</ele>
        <time>2023-10-31T13:45:49Z</time>
      </trkpt>
      <trkpt lat="43.54694" lon="1.1811">
        <ele>209.4</ele>
        <time>2023-10-31T13:45:57Z</time>
      </trkpt>
      <trkpt lat="43.54719" lon="1.1804">
        <ele>209.6</ele>
        <time>2023-10-31T13:46:06Z</time>
      </trkpt>
      <trkpt lat="43.54721" lon="1.18032">
        <ele>209.6</ele>
        <time>2023-10-31T13:46:07Z</time>
      </trkpt>
      <trkpt lat="43.54731" lon="1.17977">
        <ele>209.8</ele>
        <time>2023-10-31T13:46:14Z</time>
      </trkpt>
      <trkpt lat="43.54734" lon="1.17905">
        <ele>209.8</ele>
        <time>2023-10-31T13:46:23Z</time>
      </trkpt>
      <trkpt lat="43.5473" lon="1.17834">
        <ele>210.2</ele>
        <time>2023-10-31T13:46:32Z</time>
      </trkpt>
      <trkpt lat="43.5472" lon="1.17761">
        <ele>210.6</ele>
        <time>2023-10-31T13:46:41Z</time>
      </trkpt>
      <trkpt lat="43.54709" lon="1.17684">
        <ele>210.8</ele>
        <time>2023-10-31T13:46:50Z</time>
      </trkpt>
      <trkpt lat="43.54708" lon="1.17676">
        <ele>210.8</ele>
        <time>2023-10-31T13:46:51Z</time>
      </trkpt>
      <trkpt lat="43.54697" lon="1.17599">
        <ele>210.6</ele>
        <time>2023-10-31T13:47:00Z</time>
      </trkpt>
      <trkpt lat="43.54686" lon="1.17522">
        <ele>210.6</ele>
        <time>2023-10-31T13:47:09Z</time>
      </trkpt>
      <trkpt lat="43.54685" lon="1.17505">
        <ele>210.6</ele>
        <time>2023-10-31T13:47:11Z</time>
      </trkpt>
      <trkpt lat="43.54678" lon="1.17429">
        <ele>210.8</ele>
        <time>2023-10-31T13:47:20Z</time>
      </trkpt>
      <trkpt lat="43.54677" lon="1.17421">
        <ele>211</ele>
        <time>2023-10-31T13:47:21Z</time>
      </trkpt>
      <trkpt lat="43.54672" lon="1.17363">
        <ele>211.6</ele>
        <time>2023-10-31T13:47:28Z</time>
      </trkpt>
      <trkpt lat="43.54672" lon="1.17355">
        <ele>211.6</ele>
        <time>2023-10-31T13:47:29Z</time>
      </trkpt>
      <trkpt lat="43.54666" lon="1.17277">
        <ele>211.8</ele>
        <time>2023-10-31T13:47:38Z</time>
      </trkpt>
      <trkpt lat="43.54664" lon="1.17259">
        <ele>212</ele>
        <time>2023-10-31T13:47:40Z</time>
      </trkpt>
      <trkpt lat="43.54656" lon="1.1718">
        <ele>212</ele>
        <time>2023-10-31T13:47:49Z</time>
      </trkpt>
      <trkpt lat="43.54652" lon="1.17153">
        <ele>212</ele>
        <time>2023-10-31T13:47:52Z</time>
      </trkpt>
      <trkpt lat="43.54641" lon="1.17081">
        <ele>212.4</ele>
        <time>2023-10-31T13:48:00Z</time>
      </trkpt>
      <trkpt lat="43.54636" lon="1.17053">
        <ele>212.4</ele>
        <time>2023-10-31T13:48:03Z</time>
      </trkpt>
      <trkpt lat="43.54628" lon="1.17">
        <ele>212.4</ele>
        <time>2023-10-31T13:48:09Z</time>
      </trkpt>
      <trkpt lat="43.54623" lon="1.16965">
        <ele>212.6</ele>
        <time>2023-10-31T13:48:13Z</time>
      </trkpt>
      <trkpt lat="43.54616" lon="1.16922">
        <ele>212.8</ele>
        <time>2023-10-31T13:48:18Z</time>
      </trkpt>
      <trkpt lat="43.54604" lon="1.16843">
        <ele>213</ele>
        <time>2023-10-31T13:48:27Z</time>
      </trkpt>
      <trkpt lat="43.54597" lon="1.16792">
        <ele>213</ele>
        <time>2023-10-31T13:48:33Z</time>
      </trkpt>
      <trkpt lat="43.54595" lon="1.16765">
        <ele>213</ele>
        <time>2023-10-31T13:48:36Z</time>
      </trkpt>
      <trkpt lat="43.54595" lon="1.1672">
        <ele>213</ele>
        <time>2023-10-31T13:48:41Z</time>
      </trkpt>
      <trkpt lat="43.54602" lon="1.16643">
        <ele>213.2</ele>
        <time>2023-10-31T13:48:50Z</time>
      </trkpt>
      <trkpt lat="43.54609" lon="1.16578">
        <ele>213.4</ele>
        <time>2023-10-31T13:48:58Z</time>
      </trkpt>
      <trkpt lat="43.5461" lon="1.1657">
        <ele>213.6</ele>
        <time>2023-10-31T13:48:59Z</time>
      </trkpt>
      <trkpt lat="43.54619" lon="1.16495">
        <ele>214.2</ele>
        <time>2023-10-31T13:49:08Z</time>
      </trkpt>
      <trkpt lat="43.54627" lon="1.16419">
        <ele>214.4</ele>
        <time>2023-10-31T13:49:17Z</time>
      </trkpt>
      <trkpt lat="43.54628" lon="1.16412">
        <ele>214.4</ele>
        <time>2023-10-31T13:49:18Z</time>
      </trkpt>
      <trkpt lat="43.54627" lon="1.16343">
        <ele>214.4</ele>
        <time>2023-10-31T13:49:26Z</time>
      </trkpt>
      <trkpt lat="43.54623" lon="1.16291">
        <ele>214.6</ele>
        <time>2023-10-31T13:49:32Z</time>
      </trkpt>
      <trkpt lat="43.5462" lon="1.16247">
        <ele>214.8</ele>
        <time>2023-10-31T13:49:37Z</time>
      </trkpt>
      <trkpt lat="43.54614" lon="1.16171">
        <ele>215.4</ele>
        <time>2023-10-31T13:49:46Z</time>
      </trkpt>
      <trkpt lat="43.54613" lon="1.16163">
        <ele>215.6</ele>
        <time>2023-10-31T13:49:47Z</time>
      </trkpt>
      <trkpt lat="43.54611" lon="1.1613">
        <ele>215.8</ele>
        <time>2023-10-31T13:49:51Z</time>
      </trkpt>
      <trkpt lat="43.54607" lon="1.16072">
        <ele>216.2</ele>
        <time>2023-10-31T13:49:58Z</time>
      </trkpt>
      <trkpt lat="43.54601" lon="1.15999">
        <ele>216.8</ele>
        <time>2023-10-31T13:50:07Z</time>
      </trkpt>
      <trkpt lat="43.546" lon="1.15984">
        <ele>216.8</ele>
        <time>2023-10-31T13:50:09Z</time>
      </trkpt>
      <trkpt lat="43.54596" lon="1.15912">
        <ele>217.8</ele>
        <time>2023-10-31T13:50:18Z</time>
      </trkpt>
      <trkpt lat="43.54595" lon="1.15896">
        <ele>218</ele>
        <time>2023-10-31T13:50:20Z</time>
      </trkpt>
      <trkpt lat="43.54591" lon="1.15833">
        <ele>218.8</ele>
        <time>2023-10-31T13:50:28Z</time>
      </trkpt>
      <trkpt lat="43.54589" lon="1.15809">
        <ele>219</ele>
        <time>2023-10-31T13:50:31Z</time>
      </trkpt>
      <trkpt lat="43.54587" lon="1.15768">
        <ele>219.6</ele>
        <time>2023-10-31T13:50:36Z</time>
      </trkpt>
      <trkpt lat="43.54586" lon="1.15747">
        <ele>220</ele>
        <time>2023-10-31T13:50:39Z</time>
      </trkpt>
      <trkpt lat="43.54585" lon="1.1573">
        <ele>220.6</ele>
        <time>2023-10-31T13:50:41Z</time>
      </trkpt>
      <trkpt lat="43.54585" lon="1.15708">
        <ele>221</ele>
        <time>2023-10-31T13:50:44Z</time>
      </trkpt>
      <trkpt lat="43.54585" lon="1.15701">
        <ele>221.2</ele>
        <time>2023-10-31T13:50:45Z</time>
      </trkpt>
      <trkpt lat="43.54586" lon="1.15688">
        <ele>221.4</ele>
        <time>2023-10-31T13:50:47Z</time>
      </trkpt>
      <trkpt lat="43.54591" lon="1.15675">
        <ele>222</ele>
        <time>2023-10-31T13:50:49Z</time>
      </trkpt>
      <trkpt lat="43.54601" lon="1.15667">
        <ele>222.2</ele>
        <time>2023-10-31T13:50:51Z</time>
      </trkpt>
      <trkpt lat="43.54605" lon="1.15665">
        <ele>222.4</ele>
        <time>2023-10-31T13:50:52Z</time>
      </trkpt>
      <trkpt lat="43.54613" lon="1.15652">
        <ele>222.4</ele>
        <time>2023-10-31T13:50:54Z</time>
      </trkpt>
      <trkpt lat="43.54614" lon="1.15645">
        <ele>222.4</ele>
        <time>2023-10-31T13:50:55Z</time>
      </trkpt>
      <trkpt lat="43.54614" lon="1.15637">
        <ele>222.6</ele>
        <time>2023-10-31T13:50:56Z</time>
      </trkpt>
      <trkpt lat="43.5461" lon="1.15618">
        <ele>222.6</ele>
        <time>2023-10-31T13:50:59Z</time>
      </trkpt>
      <trkpt lat="43.54607" lon="1.15611">
        <ele>222.8</ele>
        <time>2023-10-31T13:51:00Z</time>
      </trkpt>
      <trkpt lat="43.54604" lon="1.15605">
        <ele>222.8</ele>
        <time>2023-10-31T13:51:01Z</time>
      </trkpt>
      <trkpt lat="43.54594" lon="1.1559">
        <ele>223.4</ele>
        <time>2023-10-31T13:51:04Z</time>
      </trkpt>
      <trkpt lat="43.54592" lon="1.15578">
        <ele>224.2</ele>
        <time>2023-10-31T13:51:06Z</time>
      </trkpt>
      <trkpt lat="43.54592" lon="1.15571">
        <ele>224.4</ele>
        <time>2023-10-31T13:51:07Z</time>
      </trkpt>
      <trkpt lat="43.54592" lon="1.15556">
        <ele>224.6</ele>
        <time>2023-10-31T13:51:09Z</time>
      </trkpt>
      <trkpt lat="43.54594" lon="1.15515">
        <ele>225.8</ele>
        <time>2023-10-31T13:51:15Z</time>
      </trkpt>
      <trkpt lat="43.54595" lon="1.1551">
        <ele>225.8</ele>
        <time>2023-10-31T13:51:16Z</time>
      </trkpt>
      <trkpt lat="43.54597" lon="1.15469">
        <ele>226.8</ele>
        <time>2023-10-31T13:51:22Z</time>
      </trkpt>
      <trkpt lat="43.54597" lon="1.15463">
        <ele>227</ele>
        <time>2023-10-31T13:51:23Z</time>
      </trkpt>
      <trkpt lat="43.54595" lon="1.15413">
        <ele>227.8</ele>
        <time>2023-10-31T13:51:30Z</time>
      </trkpt>
      <trkpt lat="43.54592" lon="1.15353">
        <ele>228</ele>
        <time>2023-10-31T13:51:37Z</time>
      </trkpt>
      <trkpt lat="43.54588" lon="1.15297">
        <ele>226.6</ele>
        <time>2023-10-31T13:51:43Z</time>
      </trkpt>
      <trkpt lat="43.54587" lon="1.15279">
        <ele>226</ele>
        <time>2023-10-31T13:51:45Z</time>
      </trkpt>
      <trkpt lat="43.54585" lon="1.15248">
        <ele>225.4</ele>
        <time>2023-10-31T13:51:48Z</time>
      </trkpt>
      <trkpt lat="43.54582" lon="1.15199">
        <ele>224.4</ele>
        <time>2023-10-31T13:51:53Z</time>
      </trkpt>
      <trkpt lat="43.54581" lon="1.15192">
        <ele>224.2</ele>
        <time>2023-10-31T13:51:54Z</time>
      </trkpt>
      <trkpt lat="43.54578" lon="1.15126">
        <ele>223.2</ele>
        <time>2023-10-31T13:52:01Z</time>
      </trkpt>
      <trkpt lat="43.54579" lon="1.15115">
        <ele>223</ele>
        <time>2023-10-31T13:52:02Z</time>
      </trkpt>
      <trkpt lat="43.54587" lon="1.15084">
        <ele>222.6</ele>
        <time>2023-10-31T13:52:06Z</time>
      </trkpt>
      <trkpt lat="43.54589" lon="1.15073">
        <ele>222.6</ele>
        <time>2023-10-31T13:52:07Z</time>
      </trkpt>
      <trkpt lat="43.54596" lon="1.15038">
        <ele>222.4</ele>
        <time>2023-10-31T13:52:11Z</time>
      </trkpt>
      <trkpt lat="43.546" lon="1.15013">
        <ele>222.2</ele>
        <time>2023-10-31T13:52:14Z</time>
      </trkpt>
      <trkpt lat="43.54603" lon="1.14995">
        <ele>221.8</ele>
        <time>2023-10-31T13:52:16Z</time>
      </trkpt>
      <trkpt lat="43.54604" lon="1.14987">
        <ele>221.8</ele>
        <time>2023-10-31T13:52:17Z</time>
      </trkpt>
      <trkpt lat="43.54606" lon="1.14981">
        <ele>221.6</ele>
        <time>2023-10-31T13:52:18Z</time>
      </trkpt>
      <trkpt lat="43.54616" lon="1.14956">
        <ele>221.6</ele>
        <time>2023-10-31T13:52:21Z</time>
      </trkpt>
      <trkpt lat="43.54642" lon="1.14897">
        <ele>221.6</ele>
        <time>2023-10-31T13:52:29Z</time>
      </trkpt>
      <trkpt lat="43.5465" lon="1.14884">
        <ele>221.6</ele>
        <time>2023-10-31T13:52:31Z</time>
      </trkpt>
      <trkpt lat="43.54653" lon="1.14878">
        <ele>221.6</ele>
        <time>2023-10-31T13:52:32Z</time>
      </trkpt>
      <trkpt lat="43.54668" lon="1.14852">
        <ele>222.6</ele>
        <time>2023-10-31T13:52:36Z</time>
      </trkpt>
      <trkpt lat="43.54683" lon="1.14828">
        <ele>223</ele>
        <time>2023-10-31T13:52:40Z</time>
      </trkpt>
      <trkpt lat="43.54686" lon="1.14821">
        <ele>223.2</ele>
        <time>2023-10-31T13:52:41Z</time>
      </trkpt>
      <trkpt lat="43.54687" lon="1.14815">
        <ele>223.2</ele>
        <time>2023-10-31T13:52:42Z</time>
      </trkpt>
      <trkpt lat="43.54689" lon="1.14796">
        <ele>223.2</ele>
        <time>2023-10-31T13:52:44Z</time>
      </trkpt>
      <trkpt lat="43.54688" lon="1.14778">
        <ele>223.2</ele>
        <time>2023-10-31T13:52:46Z</time>
      </trkpt>
      <trkpt lat="43.54679" lon="1.14709">
        <ele>223</ele>
        <time>2023-10-31T13:52:54Z</time>
      </trkpt>
      <trkpt lat="43.54671" lon="1.14653">
        <ele>223.6</ele>
        <time>2023-10-31T13:53:01Z</time>
      </trkpt>
      <trkpt lat="43.54668" lon="1.14632">
        <ele>224.2</ele>
        <time>2023-10-31T13:53:04Z</time>
      </trkpt>
      <trkpt lat="43.54665" lon="1.1462">
        <ele>224.6</ele>
        <time>2023-10-31T13:53:06Z</time>
      </trkpt>
      <trkpt lat="43.54661" lon="1.14608">
        <ele>224.6</ele>
        <time>2023-10-31T13:53:08Z</time>
      </trkpt>
      <trkpt lat="43.54651" lon="1.14586">
        <ele>225.2</ele>
        <time>2023-10-31T13:53:12Z</time>
      </trkpt>
      <trkpt lat="43.54649" lon="1.14581">
        <ele>225.6</ele>
        <time>2023-10-31T13:53:13Z</time>
      </trkpt>
      <trkpt lat="43.54635" lon="1.14557">
        <ele>226.8</ele>
        <time>2023-10-31T13:53:18Z</time>
      </trkpt>
      <trkpt lat="43.54633" lon="1.14553">
        <ele>226.8</ele>
        <time>2023-10-31T13:53:19Z</time>
      </trkpt>
      <trkpt lat="43.54623" lon="1.14535">
        <ele>227.8</ele>
        <time>2023-10-31T13:53:23Z</time>
      </trkpt>
      <trkpt lat="43.54615" lon="1.14523">
        <ele>228.4</ele>
        <time>2023-10-31T13:53:26Z</time>
      </trkpt>
      <trkpt lat="43.54609" lon="1.14513">
        <ele>229</ele>
        <time>2023-10-31T13:53:29Z</time>
      </trkpt>
      <trkpt lat="43.54597" lon="1.14497">
        <ele>230.4</ele>
        <time>2023-10-31T13:53:34Z</time>
      </trkpt>
      <trkpt lat="43.54586" lon="1.14482">
        <ele>231.6</ele>
        <time>2023-10-31T13:53:39Z</time>
      </trkpt>
      <trkpt lat="43.54577" lon="1.14469">
        <ele>233</ele>
        <time>2023-10-31T13:53:43Z</time>
      </trkpt>
      <trkpt lat="43.54568" lon="1.14447">
        <ele>234</ele>
        <time>2023-10-31T13:53:49Z</time>
      </trkpt>
      <trkpt lat="43.54565" lon="1.14435">
        <ele>234.6</ele>
        <time>2023-10-31T13:53:52Z</time>
      </trkpt>
      <trkpt lat="43.54564" lon="1.1443">
        <ele>235</ele>
        <time>2023-10-31T13:53:53Z</time>
      </trkpt>
      <trkpt lat="43.5456" lon="1.14406">
        <ele>236.2</ele>
        <time>2023-10-31T13:53:59Z</time>
      </trkpt>
      <trkpt lat="43.54558" lon="1.14397">
        <ele>236.6</ele>
        <time>2023-10-31T13:54:01Z</time>
      </trkpt>
      <trkpt lat="43.54554" lon="1.14385">
        <ele>237.4</ele>
        <time>2023-10-31T13:54:04Z</time>
      </trkpt>
      <trkpt lat="43.54549" lon="1.14365">
        <ele>238.4</ele>
        <time>2023-10-31T13:54:09Z</time>
      </trkpt>
      <trkpt lat="43.54548" lon="1.14361">
        <ele>238.6</ele>
        <time>2023-10-31T13:54:10Z</time>
      </trkpt>
      <trkpt lat="43.54544" lon="1.14341">
        <ele>239.6</ele>
        <time>2023-10-31T13:54:15Z</time>
      </trkpt>
      <trkpt lat="43.54539" lon="1.1432">
        <ele>240.4</ele>
        <time>2023-10-31T13:54:20Z</time>
      </trkpt>
      <trkpt lat="43.54538" lon="1.14317">
        <ele>240.6</ele>
        <time>2023-10-31T13:54:21Z</time>
      </trkpt>
      <trkpt lat="43.54533" lon="1.14292">
        <ele>241.8</ele>
        <time>2023-10-31T13:54:27Z</time>
      </trkpt>
      <trkpt lat="43.54529" lon="1.14276">
        <ele>242.6</ele>
        <time>2023-10-31T13:54:31Z</time>
      </trkpt>
      <trkpt lat="43.54528" lon="1.14271">
        <ele>242.8</ele>
        <time>2023-10-31T13:54:32Z</time>
      </trkpt>
      <trkpt lat="43.54521" lon="1.14243">
        <ele>244</ele>
        <time>2023-10-31T13:54:39Z</time>
      </trkpt>
      <trkpt lat="43.54519" lon="1.14235">
        <ele>244.6</ele>
        <time>2023-10-31T13:54:41Z</time>
      </trkpt>
      <trkpt lat="43.54517" lon="1.14223">
        <ele>245.2</ele>
        <time>2023-10-31T13:54:44Z</time>
      </trkpt>
      <trkpt lat="43.54511" lon="1.14198">
        <ele>246.4</ele>
        <time>2023-10-31T13:54:50Z</time>
      </trkpt>
      <trkpt lat="43.54506" lon="1.14174">
        <ele>247.6</ele>
        <time>2023-10-31T13:54:56Z</time>
      </trkpt>
      <trkpt lat="43.54501" lon="1.14153">
        <ele>248.4</ele>
        <time>2023-10-31T13:55:01Z</time>
      </trkpt>
      <trkpt lat="43.545" lon="1.14149">
        <ele>248.8</ele>
        <time>2023-10-31T13:55:02Z</time>
      </trkpt>
      <trkpt lat="43.54493" lon="1.14118">
        <ele>250</ele>
        <time>2023-10-31T13:55:09Z</time>
      </trkpt>
      <trkpt lat="43.54488" lon="1.14096">
        <ele>251</ele>
        <time>2023-10-31T13:55:14Z</time>
      </trkpt>
      <trkpt lat="43.54485" lon="1.1408">
        <ele>251.6</ele>
        <time>2023-10-31T13:55:17Z</time>
      </trkpt>
      <trkpt lat="43.5448" lon="1.1406">
        <ele>252.2</ele>
        <time>2023-10-31T13:55:21Z</time>
      </trkpt>
      <trkpt lat="43.54473" lon="1.14029">
        <ele>253.2</ele>
        <time>2023-10-31T13:55:27Z</time>
      </trkpt>
      <trkpt lat="43.54463" lon="1.13988">
        <ele>253.8</ele>
        <time>2023-10-31T13:55:35Z</time>
      </trkpt>
      <trkpt lat="43.54456" lon="1.13957">
        <ele>254.4</ele>
        <time>2023-10-31T13:55:41Z</time>
      </trkpt>
      <trkpt lat="43.54454" lon="1.13946">
        <ele>254.8</ele>
        <time>2023-10-31T13:55:43Z</time>
      </trkpt>
      <trkpt lat="43.54446" lon="1.13913">
        <ele>255.4</ele>
        <time>2023-10-31T13:55:49Z</time>
      </trkpt>
      <trkpt lat="43.54442" lon="1.13896">
        <ele>256</ele>
        <time>2023-10-31T13:55:52Z</time>
      </trkpt>
      <trkpt lat="43.54439" lon="1.13885">
        <ele>256.4</ele>
        <time>2023-10-31T13:55:54Z</time>
      </trkpt>
      <trkpt lat="43.54426" lon="1.13843">
        <ele>257.2</ele>
        <time>2023-10-31T13:56:01Z</time>
      </trkpt>
      <trkpt lat="43.54412" lon="1.13806">
        <ele>257.2</ele>
        <time>2023-10-31T13:56:06Z</time>
      </trkpt>
      <trkpt lat="43.54384" lon="1.13744">
        <ele>255.8</ele>
        <time>2023-10-31T13:56:14Z</time>
      </trkpt>
      <trkpt lat="43.5438" lon="1.13737">
        <ele>255.4</ele>
        <time>2023-10-31T13:56:15Z</time>
      </trkpt>
      <trkpt lat="43.54365" lon="1.13706">
        <ele>254.2</ele>
        <time>2023-10-31T13:56:19Z</time>
      </trkpt>
      <trkpt lat="43.54336" lon="1.13649">
        <ele>254.8</ele>
        <time>2023-10-31T13:56:27Z</time>
      </trkpt>
      <trkpt lat="43.54314" lon="1.13605">
        <ele>255.6</ele>
        <time>2023-10-31T13:56:34Z</time>
      </trkpt>
      <trkpt lat="43.54308" lon="1.13593">
        <ele>256</ele>
        <time>2023-10-31T13:56:36Z</time>
      </trkpt>
      <trkpt lat="43.543" lon="1.13575">
        <ele>256.6</ele>
        <time>2023-10-31T13:56:39Z</time>
      </trkpt>
      <trkpt lat="43.5429" lon="1.13545">
        <ele>257.2</ele>
        <time>2023-10-31T13:56:44Z</time>
      </trkpt>
      <trkpt lat="43.54289" lon="1.13539">
        <ele>257.4</ele>
        <time>2023-10-31T13:56:45Z</time>
      </trkpt>
      <trkpt lat="43.54287" lon="1.13527">
        <ele>257.6</ele>
        <time>2023-10-31T13:56:47Z</time>
      </trkpt>
      <trkpt lat="43.54285" lon="1.13516">
        <ele>257.8</ele>
        <time>2023-10-31T13:56:49Z</time>
      </trkpt>
      <trkpt lat="43.5428" lon="1.13483">
        <ele>258.8</ele>
        <time>2023-10-31T13:56:55Z</time>
      </trkpt>
      <trkpt lat="43.5428" lon="1.13456">
        <ele>259.8</ele>
        <time>2023-10-31T13:57:00Z</time>
      </trkpt>
      <trkpt lat="43.5428" lon="1.13436">
        <ele>260.6</ele>
        <time>2023-10-31T13:57:04Z</time>
      </trkpt>
      <trkpt lat="43.54279" lon="1.13421">
        <ele>261.2</ele>
        <time>2023-10-31T13:57:07Z</time>
      </trkpt>
      <trkpt lat="43.54279" lon="1.13405">
        <ele>262.2</ele>
        <time>2023-10-31T13:57:10Z</time>
      </trkpt>
      <trkpt lat="43.5428" lon="1.13395">
        <ele>262.6</ele>
        <time>2023-10-31T13:57:12Z</time>
      </trkpt>
      <trkpt lat="43.5428" lon="1.13379">
        <ele>263.4</ele>
        <time>2023-10-31T13:57:15Z</time>
      </trkpt>
      <trkpt lat="43.54282" lon="1.13358">
        <ele>264.4</ele>
        <time>2023-10-31T13:57:19Z</time>
      </trkpt>
      <trkpt lat="43.54283" lon="1.13336">
        <ele>265.4</ele>
        <time>2023-10-31T13:57:23Z</time>
      </trkpt>
      <trkpt lat="43.54283" lon="1.1333">
        <ele>265.6</ele>
        <time>2023-10-31T13:57:24Z</time>
      </trkpt>
      <trkpt lat="43.54284" lon="1.13296">
        <ele>266.6</ele>
        <time>2023-10-31T13:57:30Z</time>
      </trkpt>
      <trkpt lat="43.54285" lon="1.13278">
        <ele>267</ele>
        <time>2023-10-31T13:57:33Z</time>
      </trkpt>
      <trkpt lat="43.54287" lon="1.13235">
        <ele>267.6</ele>
        <time>2023-10-31T13:57:40Z</time>
      </trkpt>
      <trkpt lat="43.54288" lon="1.13205">
        <ele>268</ele>
        <time>2023-10-31T13:57:45Z</time>
      </trkpt>
      <trkpt lat="43.5429" lon="1.13169">
        <ele>268.6</ele>
        <time>2023-10-31T13:57:51Z</time>
      </trkpt>
      <trkpt lat="43.5429" lon="1.13151">
        <ele>269</ele>
        <time>2023-10-31T13:57:54Z</time>
      </trkpt>
      <trkpt lat="43.54291" lon="1.13121">
        <ele>269.8</ele>
        <time>2023-10-31T13:57:59Z</time>
      </trkpt>
      <trkpt lat="43.54292" lon="1.13088">
        <ele>270.4</ele>
        <time>2023-10-31T13:58:04Z</time>
      </trkpt>
      <trkpt lat="43.54293" lon="1.13022">
        <ele>270.6</ele>
        <time>2023-10-31T13:58:13Z</time>
      </trkpt>
      <trkpt lat="43.54294" lon="1.12959">
        <ele>270.4</ele>
        <time>2023-10-31T13:58:21Z</time>
      </trkpt>
      <trkpt lat="43.54291" lon="1.12906">
        <ele>270.4</ele>
        <time>2023-10-31T13:58:28Z</time>
      </trkpt>
      <trkpt lat="43.54281" lon="1.12849">
        <ele>271</ele>
        <time>2023-10-31T13:58:36Z</time>
      </trkpt>
      <trkpt lat="43.54278" lon="1.12835">
        <ele>271.2</ele>
        <time>2023-10-31T13:58:38Z</time>
      </trkpt>
      <trkpt lat="43.54267" lon="1.1277">
        <ele>272.2</ele>
        <time>2023-10-31T13:58:47Z</time>
      </trkpt>
      <trkpt lat="43.54266" lon="1.12763">
        <ele>272.2</ele>
        <time>2023-10-31T13:58:48Z</time>
      </trkpt>
      <trkpt lat="43.54254" lon="1.12708">
        <ele>273</ele>
        <time>2023-10-31T13:58:56Z</time>
      </trkpt>
      <trkpt lat="43.5425" lon="1.12696">
        <ele>273.2</ele>
        <time>2023-10-31T13:58:58Z</time>
      </trkpt>
      <trkpt lat="43.54246" lon="1.12685">
        <ele>273.8</ele>
        <time>2023-10-31T13:59:00Z</time>
      </trkpt>
      <trkpt lat="43.54242" lon="1.12675">
        <ele>274.4</ele>
        <time>2023-10-31T13:59:02Z</time>
      </trkpt>
      <trkpt lat="43.54239" lon="1.1267">
        <ele>274.6</ele>
        <time>2023-10-31T13:59:03Z</time>
      </trkpt>
      <trkpt lat="43.54233" lon="1.12657">
        <ele>275.8</ele>
        <time>2023-10-31T13:59:06Z</time>
      </trkpt>
      <trkpt lat="43.54228" lon="1.12645">
        <ele>276.6</ele>
        <time>2023-10-31T13:59:09Z</time>
      </trkpt>
      <trkpt lat="43.54225" lon="1.12637">
        <ele>277</ele>
        <time>2023-10-31T13:59:11Z</time>
      </trkpt>
      <trkpt lat="43.54219" lon="1.1262">
        <ele>278</ele>
        <time>2023-10-31T13:59:15Z</time>
      </trkpt>
      <trkpt lat="43.54218" lon="1.1261">
        <ele>278.6</ele>
        <time>2023-10-31T13:59:17Z</time>
      </trkpt>
      <trkpt lat="43.54216" lon="1.12598">
        <ele>279.2</ele>
        <time>2023-10-31T13:59:20Z</time>
      </trkpt>
      <trkpt lat="43.54216" lon="1.12578">
        <ele>280.4</ele>
        <time>2023-10-31T13:59:25Z</time>
      </trkpt>
      <trkpt lat="43.54217" lon="1.12561">
        <ele>281.4</ele>
        <time>2023-10-31T13:59:29Z</time>
      </trkpt>
      <trkpt lat="43.54219" lon="1.12545">
        <ele>282.6</ele>
        <time>2023-10-31T13:59:33Z</time>
      </trkpt>
      <trkpt lat="43.54219" lon="1.12541">
        <ele>282.6</ele>
        <time>2023-10-31T13:59:34Z</time>
      </trkpt>
      <trkpt lat="43.5422" lon="1.12526">
        <ele>283.8</ele>
        <time>2023-10-31T13:59:38Z</time>
      </trkpt>
      <trkpt lat="43.54221" lon="1.12511">
        <ele>284.8</ele>
        <time>2023-10-31T13:59:42Z</time>
      </trkpt>
      <trkpt lat="43.54221" lon="1.12501">
        <ele>286</ele>
        <time>2023-10-31T13:59:45Z</time>
      </trkpt>
      <trkpt lat="43.54218" lon="1.12481">
        <ele>286.8</ele>
        <time>2023-10-31T13:59:50Z</time>
      </trkpt>
      <trkpt lat="43.54217" lon="1.12473">
        <ele>287.6</ele>
        <time>2023-10-31T13:59:52Z</time>
      </trkpt>
      <trkpt lat="43.54214" lon="1.12458">
        <ele>288.8</ele>
        <time>2023-10-31T13:59:56Z</time>
      </trkpt>
      <trkpt lat="43.54211" lon="1.12446">
        <ele>289.4</ele>
        <time>2023-10-31T13:59:59Z</time>
      </trkpt>
      <trkpt lat="43.54209" lon="1.12439">
        <ele>290</ele>
        <time>2023-10-31T14:00:01Z</time>
      </trkpt>
      <trkpt lat="43.54205" lon="1.12421">
        <ele>291.2</ele>
        <time>2023-10-31T14:00:06Z</time>
      </trkpt>
      <trkpt lat="43.54204" lon="1.12418">
        <ele>291.4</ele>
        <time>2023-10-31T14:00:07Z</time>
      </trkpt>
      <trkpt lat="43.542" lon="1.12402">
        <ele>292.4</ele>
        <time>2023-10-31T14:00:11Z</time>
      </trkpt>
      <trkpt lat="43.54197" lon="1.12391">
        <ele>293</ele>
        <time>2023-10-31T14:00:14Z</time>
      </trkpt>
      <trkpt lat="43.54195" lon="1.12383">
        <ele>293.4</ele>
        <time>2023-10-31T14:00:16Z</time>
      </trkpt>
      <trkpt lat="43.5419" lon="1.12362">
        <ele>294.8</ele>
        <time>2023-10-31T14:00:22Z</time>
      </trkpt>
      <trkpt lat="43.54188" lon="1.12354">
        <ele>295.2</ele>
        <time>2023-10-31T14:00:24Z</time>
      </trkpt>
      <trkpt lat="43.54185" lon="1.12343">
        <ele>295.8</ele>
        <time>2023-10-31T14:00:27Z</time>
      </trkpt>
      <trkpt lat="43.54179" lon="1.12318">
        <ele>296.8</ele>
        <time>2023-10-31T14:00:33Z</time>
      </trkpt>
      <trkpt lat="43.54178" lon="1.12313">
        <ele>297</ele>
        <time>2023-10-31T14:00:34Z</time>
      </trkpt>
      <trkpt lat="43.54169" lon="1.1228">
        <ele>298.2</ele>
        <time>2023-10-31T14:00:41Z</time>
      </trkpt>
      <trkpt lat="43.54167" lon="1.12274">
        <ele>298.2</ele>
        <time>2023-10-31T14:00:42Z</time>
      </trkpt>
      <trkpt lat="43.54157" lon="1.12236">
        <ele>298.6</ele>
        <time>2023-10-31T14:00:48Z</time>
      </trkpt>
      <trkpt lat="43.54155" lon="1.12229">
        <ele>298.6</ele>
        <time>2023-10-31T14:00:49Z</time>
      </trkpt>
      <trkpt lat="43.54142" lon="1.12194">
        <ele>298.4</ele>
        <time>2023-10-31T14:00:54Z</time>
      </trkpt>
      <trkpt lat="43.54122" lon="1.12136">
        <ele>297.2</ele>
        <time>2023-10-31T14:01:01Z</time>
      </trkpt>
      <trkpt lat="43.54115" lon="1.12119">
        <ele>297.2</ele>
        <time>2023-10-31T14:01:03Z</time>
      </trkpt>
      <trkpt lat="43.54096" lon="1.12068">
        <ele>297</ele>
        <time>2023-10-31T14:01:09Z</time>
      </trkpt>
      <trkpt lat="43.54074" lon="1.12003">
        <ele>297.2</ele>
        <time>2023-10-31T14:01:17Z</time>
      </trkpt>
      <trkpt lat="43.54052" lon="1.11942">
        <ele>297.8</ele>
        <time>2023-10-31T14:01:25Z</time>
      </trkpt>
      <trkpt lat="43.54037" lon="1.11902">
        <ele>298.2</ele>
        <time>2023-10-31T14:01:30Z</time>
      </trkpt>
      <trkpt lat="43.54034" lon="1.11895">
        <ele>298.4</ele>
        <time>2023-10-31T14:01:31Z</time>
      </trkpt>
      <trkpt lat="43.54007" lon="1.11829">
        <ele>298.4</ele>
        <time>2023-10-31T14:01:39Z</time>
      </trkpt>
      <trkpt lat="43.54003" lon="1.11821">
        <ele>298.4</ele>
        <time>2023-10-31T14:01:40Z</time>
      </trkpt>
      <trkpt lat="43.53976" lon="1.11756">
        <ele>298.6</ele>
        <time>2023-10-31T14:01:48Z</time>
      </trkpt>
      <trkpt lat="43.5397" lon="1.11739">
        <ele>298.6</ele>
        <time>2023-10-31T14:01:50Z</time>
      </trkpt>
      <trkpt lat="43.53956" lon="1.117">
        <ele>299.2</ele>
        <time>2023-10-31T14:01:55Z</time>
      </trkpt>
      <trkpt lat="43.53953" lon="1.11693">
        <ele>299.2</ele>
        <time>2023-10-31T14:01:56Z</time>
      </trkpt>
      <trkpt lat="43.53941" lon="1.11657">
        <ele>300.2</ele>
        <time>2023-10-31T14:02:01Z</time>
      </trkpt>
      <trkpt lat="43.53936" lon="1.11641">
        <ele>301</ele>
        <time>2023-10-31T14:02:03Z</time>
      </trkpt>
      <trkpt lat="43.53934" lon="1.11633">
        <ele>301.4</ele>
        <time>2023-10-31T14:02:04Z</time>
      </trkpt>
      <trkpt lat="43.53927" lon="1.11576">
        <ele>302.6</ele>
        <time>2023-10-31T14:02:11Z</time>
      </trkpt>
      <trkpt lat="43.53926" lon="1.11549">
        <ele>302.4</ele>
        <time>2023-10-31T14:02:14Z</time>
      </trkpt>
      <trkpt lat="43.53925" lon="1.11517">
        <ele>302.6</ele>
        <time>2023-10-31T14:02:18Z</time>
      </trkpt>
      <trkpt lat="43.5393" lon="1.11466">
        <ele>303.2</ele>
        <time>2023-10-31T14:02:24Z</time>
      </trkpt>
      <trkpt lat="43.53937" lon="1.11443">
        <ele>303.6</ele>
        <time>2023-10-31T14:02:27Z</time>
      </trkpt>
      <trkpt lat="43.53946" lon="1.11415">
        <ele>304</ele>
        <time>2023-10-31T14:02:31Z</time>
      </trkpt>
      <trkpt lat="43.53954" lon="1.11394">
        <ele>304.8</ele>
        <time>2023-10-31T14:02:34Z</time>
      </trkpt>
      <trkpt lat="43.53974" lon="1.11328">
        <ele>305.4</ele>
        <time>2023-10-31T14:02:42Z</time>
      </trkpt>
      <trkpt lat="43.53995" lon="1.11254">
        <ele>304.4</ele>
        <time>2023-10-31T14:02:50Z</time>
      </trkpt>
      <trkpt lat="43.54017" lon="1.11193">
        <ele>303.6</ele>
        <time>2023-10-31T14:02:57Z</time>
      </trkpt>
      <trkpt lat="43.54038" lon="1.11124">
        <ele>303.8</ele>
        <time>2023-10-31T14:03:05Z</time>
      </trkpt>
      <trkpt lat="43.54045" lon="1.11099">
        <ele>304.2</ele>
        <time>2023-10-31T14:03:08Z</time>
      </trkpt>
      <trkpt lat="43.5405" lon="1.11075">
        <ele>304.8</ele>
        <time>2023-10-31T14:03:11Z</time>
      </trkpt>
      <trkpt lat="43.54052" lon="1.11059">
        <ele>305.2</ele>
        <time>2023-10-31T14:03:13Z</time>
      </trkpt>
      <trkpt lat="43.54053" lon="1.11027">
        <ele>305.6</ele>
        <time>2023-10-31T14:03:17Z</time>
      </trkpt>
      <trkpt lat="43.54053" lon="1.11019">
        <ele>305.8</ele>
        <time>2023-10-31T14:03:18Z</time>
      </trkpt>
      <trkpt lat="43.54052" lon="1.1101">
        <ele>306</ele>
        <time>2023-10-31T14:03:19Z</time>
      </trkpt>
      <trkpt lat="43.54048" lon="1.10978">
        <ele>306.2</ele>
        <time>2023-10-31T14:03:23Z</time>
      </trkpt>
      <trkpt lat="43.54047" lon="1.1097">
        <ele>306.4</ele>
        <time>2023-10-31T14:03:24Z</time>
      </trkpt>
      <trkpt lat="43.54047" lon="1.10962">
        <ele>306.8</ele>
        <time>2023-10-31T14:03:25Z</time>
      </trkpt>
      <trkpt lat="43.54044" lon="1.10937">
        <ele>307.2</ele>
        <time>2023-10-31T14:03:28Z</time>
      </trkpt>
      <trkpt lat="43.54041" lon="1.10922">
        <ele>307.4</ele>
        <time>2023-10-31T14:03:30Z</time>
      </trkpt>
      <trkpt lat="43.54034" lon="1.10905">
        <ele>308</ele>
        <time>2023-10-31T14:03:32Z</time>
      </trkpt>
      <trkpt lat="43.54029" lon="1.10897">
        <ele>308.2</ele>
        <time>2023-10-31T14:03:33Z</time>
      </trkpt>
      <trkpt lat="43.54015" lon="1.10871">
        <ele>308.8</ele>
        <time>2023-10-31T14:03:37Z</time>
      </trkpt>
      <trkpt lat="43.54004" lon="1.10857">
        <ele>309</ele>
        <time>2023-10-31T14:03:39Z</time>
      </trkpt>
      <trkpt lat="43.54" lon="1.1085">
        <ele>309.2</ele>
        <time>2023-10-31T14:03:40Z</time>
      </trkpt>
      <trkpt lat="43.53975" lon="1.10817">
        <ele>310.2</ele>
        <time>2023-10-31T14:03:46Z</time>
      </trkpt>
      <trkpt lat="43.5397" lon="1.10811">
        <ele>310.4</ele>
        <time>2023-10-31T14:03:47Z</time>
      </trkpt>
      <trkpt lat="43.53939" lon="1.10774">
        <ele>310</ele>
        <time>2023-10-31T14:03:53Z</time>
      </trkpt>
      <trkpt lat="43.53901" lon="1.10732">
        <ele>309.8</ele>
        <time>2023-10-31T14:04:00Z</time>
      </trkpt>
      <trkpt lat="43.53895" lon="1.10726">
        <ele>309.8</ele>
        <time>2023-10-31T14:04:01Z</time>
      </trkpt>
      <trkpt lat="43.53863" lon="1.10696">
        <ele>310.4</ele>
        <time>2023-10-31T14:04:07Z</time>
      </trkpt>
      <trkpt lat="43.53827" lon="1.10667">
        <ele>310.6</ele>
        <time>2023-10-31T14:04:14Z</time>
      </trkpt>
      <trkpt lat="43.53811" lon="1.10653">
        <ele>311.2</ele>
        <time>2023-10-31T14:04:17Z</time>
      </trkpt>
      <trkpt lat="43.53791" lon="1.10637">
        <ele>311.8</ele>
        <time>2023-10-31T14:04:21Z</time>
      </trkpt>
      <trkpt lat="43.53757" lon="1.10611">
        <ele>312.4</ele>
        <time>2023-10-31T14:04:27Z</time>
      </trkpt>
      <trkpt lat="43.53745" lon="1.10602">
        <ele>312.4</ele>
        <time>2023-10-31T14:04:29Z</time>
      </trkpt>
      <trkpt lat="43.53696" lon="1.10563">
        <ele>312</ele>
        <time>2023-10-31T14:04:37Z</time>
      </trkpt>
      <trkpt lat="43.53646" lon="1.10521">
        <ele>311.6</ele>
        <time>2023-10-31T14:04:45Z</time>
      </trkpt>
      <trkpt lat="43.53594" lon="1.10478">
        <ele>311.6</ele>
        <time>2023-10-31T14:04:53Z</time>
      </trkpt>
      <trkpt lat="43.53581" lon="1.10467">
        <ele>311.2</ele>
        <time>2023-10-31T14:04:55Z</time>
      </trkpt>
      <trkpt lat="43.53569" lon="1.10455">
        <ele>311.2</ele>
        <time>2023-10-31T14:04:57Z</time>
      </trkpt>
      <trkpt lat="43.53533" lon="1.10417">
        <ele>310.6</ele>
        <time>2023-10-31T14:05:03Z</time>
      </trkpt>
      <trkpt lat="43.53504" lon="1.10363">
        <ele>310.8</ele>
        <time>2023-10-31T14:05:10Z</time>
      </trkpt>
      <trkpt lat="43.53474" lon="1.103">
        <ele>311.8</ele>
        <time>2023-10-31T14:05:18Z</time>
      </trkpt>
      <trkpt lat="43.53468" lon="1.10283">
        <ele>312</ele>
        <time>2023-10-31T14:05:20Z</time>
      </trkpt>
      <trkpt lat="43.53447" lon="1.10216">
        <ele>312</ele>
        <time>2023-10-31T14:05:28Z</time>
      </trkpt>
      <trkpt lat="43.53438" lon="1.10171">
        <ele>312.6</ele>
        <time>2023-10-31T14:05:34Z</time>
      </trkpt>
      <trkpt lat="43.53437" lon="1.10163">
        <ele>312.8</ele>
        <time>2023-10-31T14:05:35Z</time>
      </trkpt>
      <trkpt lat="43.53426" lon="1.10125">
        <ele>313.6</ele>
        <time>2023-10-31T14:05:40Z</time>
      </trkpt>
      <trkpt lat="43.53419" lon="1.10097">
        <ele>313.8</ele>
        <time>2023-10-31T14:05:43Z</time>
      </trkpt>
      <trkpt lat="43.534" lon="1.10025">
        <ele>313</ele>
        <time>2023-10-31T14:05:51Z</time>
      </trkpt>
      <trkpt lat="43.53397" lon="1.10016">
        <ele>313</ele>
        <time>2023-10-31T14:05:52Z</time>
      </trkpt>
      <trkpt lat="43.53384" lon="1.09968">
        <ele>312.6</ele>
        <time>2023-10-31T14:05:57Z</time>
      </trkpt>
      <trkpt lat="43.53377" lon="1.09941">
        <ele>312.4</ele>
        <time>2023-10-31T14:06:00Z</time>
      </trkpt>
      <trkpt lat="43.53361" lon="1.09861">
        <ele>312.8</ele>
        <time>2023-10-31T14:06:09Z</time>
      </trkpt>
      <trkpt lat="43.53345" lon="1.0978">
        <ele>312.6</ele>
        <time>2023-10-31T14:06:18Z</time>
      </trkpt>
      <trkpt lat="43.5333" lon="1.09705">
        <ele>312.4</ele>
        <time>2023-10-31T14:06:26Z</time>
      </trkpt>
      <trkpt lat="43.53327" lon="1.09696">
        <ele>312.4</ele>
        <time>2023-10-31T14:06:27Z</time>
      </trkpt>
      <trkpt lat="43.53307" lon="1.09636">
        <ele>312.4</ele>
        <time>2023-10-31T14:06:34Z</time>
      </trkpt>
      <trkpt lat="43.53286" lon="1.09582">
        <ele>313.2</ele>
        <time>2023-10-31T14:06:41Z</time>
      </trkpt>
      <trkpt lat="43.53263" lon="1.09514">
        <ele>313.4</ele>
        <time>2023-10-31T14:06:49Z</time>
      </trkpt>
      <trkpt lat="43.53258" lon="1.09496">
        <ele>313.4</ele>
        <time>2023-10-31T14:06:51Z</time>
      </trkpt>
      <trkpt lat="43.53238" lon="1.09424">
        <ele>313.2</ele>
        <time>2023-10-31T14:06:59Z</time>
      </trkpt>
      <trkpt lat="43.53233" lon="1.09406">
        <ele>313</ele>
        <time>2023-10-31T14:07:01Z</time>
      </trkpt>
      <trkpt lat="43.53213" lon="1.09333">
        <ele>313.2</ele>
        <time>2023-10-31T14:07:10Z</time>
      </trkpt>
      <trkpt lat="43.53206" lon="1.09309">
        <ele>313.8</ele>
        <time>2023-10-31T14:07:13Z</time>
      </trkpt>
      <trkpt lat="43.53189" lon="1.09256">
        <ele>314.6</ele>
        <time>2023-10-31T14:07:20Z</time>
      </trkpt>
      <trkpt lat="43.53171" lon="1.09182">
        <ele>314.4</ele>
        <time>2023-10-31T14:07:28Z</time>
      </trkpt>
      <trkpt lat="43.53159" lon="1.09113">
        <ele>313.2</ele>
        <time>2023-10-31T14:07:35Z</time>
      </trkpt>
      <trkpt lat="43.53153" lon="1.09066">
        <ele>312.8</ele>
        <time>2023-10-31T14:07:40Z</time>
      </trkpt>
      <trkpt lat="43.53147" lon="1.09029">
        <ele>312.8</ele>
        <time>2023-10-31T14:07:44Z</time>
      </trkpt>
      <trkpt lat="43.53136" lon="1.08957">
        <ele>313</ele>
        <time>2023-10-31T14:07:52Z</time>
      </trkpt>
      <trkpt lat="43.5313" lon="1.08932">
        <ele>313.2</ele>
        <time>2023-10-31T14:07:55Z</time>
      </trkpt>
      <trkpt lat="43.53126" lon="1.08916">
        <ele>313.4</ele>
        <time>2023-10-31T14:07:57Z</time>
      </trkpt>
      <trkpt lat="43.53116" lon="1.08888">
        <ele>313.6</ele>
        <time>2023-10-31T14:08:01Z</time>
      </trkpt>
      <trkpt lat="43.53109" lon="1.08873">
        <ele>313.8</ele>
        <time>2023-10-31T14:08:03Z</time>
      </trkpt>
      <trkpt lat="43.53106" lon="1.08866">
        <ele>313.8</ele>
        <time>2023-10-31T14:08:04Z</time>
      </trkpt>
      <trkpt lat="43.53089" lon="1.08839">
        <ele>313.8</ele>
        <time>2023-10-31T14:08:08Z</time>
      </trkpt>
      <trkpt lat="43.53057" lon="1.08795">
        <ele>313.4</ele>
        <time>2023-10-31T14:08:15Z</time>
      </trkpt>
      <trkpt lat="43.53054" lon="1.08784">
        <ele>312.8</ele>
        <time>2023-10-31T14:08:17Z</time>
      </trkpt>
      <trkpt lat="43.53058" lon="1.08782">
        <ele>312.6</ele>
        <time>2023-10-31T14:08:18Z</time>
      </trkpt>
      <trkpt lat="43.53074" lon="1.08782">
        <ele>312.2</ele>
        <time>2023-10-31T14:08:21Z</time>
      </trkpt>
      <trkpt lat="43.53103" lon="1.08778">
        <ele>311.6</ele>
        <time>2023-10-31T14:08:25Z</time>
      </trkpt>
      <trkpt lat="43.53111" lon="1.08777">
        <ele>311.4</ele>
        <time>2023-10-31T14:08:26Z</time>
      </trkpt>
      <trkpt lat="43.53137" lon="1.08772">
        <ele>310.4</ele>
        <time>2023-10-31T14:08:29Z</time>
      </trkpt>
      <trkpt lat="43.53165" lon="1.08764">
        <ele>309.4</ele>
        <time>2023-10-31T14:08:32Z</time>
      </trkpt>
      <trkpt lat="43.53185" lon="1.08756">
        <ele>308</ele>
        <time>2023-10-31T14:08:34Z</time>
      </trkpt>
      <trkpt lat="43.53194" lon="1.08752">
        <ele>306.8</ele>
        <time>2023-10-31T14:08:35Z</time>
      </trkpt>
      <trkpt lat="43.53212" lon="1.08742">
        <ele>305.4</ele>
        <time>2023-10-31T14:08:37Z</time>
      </trkpt>
      <trkpt lat="43.53224" lon="1.08736">
        <ele>304.8</ele>
        <time>2023-10-31T14:08:38Z</time>
      </trkpt>
      <trkpt lat="43.53234" lon="1.08732">
        <ele>304</ele>
        <time>2023-10-31T14:08:39Z</time>
      </trkpt>
      <trkpt lat="43.53245" lon="1.08731">
        <ele>303.2</ele>
        <time>2023-10-31T14:08:40Z</time>
      </trkpt>
      <trkpt lat="43.53257" lon="1.08733">
        <ele>302.8</ele>
        <time>2023-10-31T14:08:41Z</time>
      </trkpt>
      <trkpt lat="43.53268" lon="1.08736">
        <ele>302.2</ele>
        <time>2023-10-31T14:08:42Z</time>
      </trkpt>
      <trkpt lat="43.53279" lon="1.08741">
        <ele>301.4</ele>
        <time>2023-10-31T14:08:43Z</time>
      </trkpt>
      <trkpt lat="43.53288" lon="1.08746">
        <ele>300.6</ele>
        <time>2023-10-31T14:08:44Z</time>
      </trkpt>
      <trkpt lat="43.533" lon="1.08752">
        <ele>299.8</ele>
        <time>2023-10-31T14:08:45Z</time>
      </trkpt>
      <trkpt lat="43.53311" lon="1.08758">
        <ele>298</ele>
        <time>2023-10-31T14:08:46Z</time>
      </trkpt>
      <trkpt lat="43.53324" lon="1.08766">
        <ele>296.8</ele>
        <time>2023-10-31T14:08:47Z</time>
      </trkpt>
      <trkpt lat="43.53336" lon="1.08772">
        <ele>296.2</ele>
        <time>2023-10-31T14:08:48Z</time>
      </trkpt>
      <trkpt lat="43.53347" lon="1.08777">
        <ele>295.2</ele>
        <time>2023-10-31T14:08:49Z</time>
      </trkpt>
      <trkpt lat="43.53357" lon="1.08782">
        <ele>294.4</ele>
        <time>2023-10-31T14:08:50Z</time>
      </trkpt>
      <trkpt lat="43.53365" lon="1.08788">
        <ele>293.4</ele>
        <time>2023-10-31T14:08:51Z</time>
      </trkpt>
      <trkpt lat="43.53377" lon="1.08797">
        <ele>293</ele>
        <time>2023-10-31T14:08:52Z</time>
      </trkpt>
      <trkpt lat="43.53385" lon="1.08806">
        <ele>292.2</ele>
        <time>2023-10-31T14:08:53Z</time>
      </trkpt>
      <trkpt lat="43.53399" lon="1.08825">
        <ele>291.6</ele>
        <time>2023-10-31T14:08:55Z</time>
      </trkpt>
      <trkpt lat="43.53406" lon="1.08834">
        <ele>291.2</ele>
        <time>2023-10-31T14:08:56Z</time>
      </trkpt>
      <trkpt lat="43.53422" lon="1.08861">
        <ele>291</ele>
        <time>2023-10-31T14:08:59Z</time>
      </trkpt>
      <trkpt lat="43.53452" lon="1.08912">
        <ele>291.6</ele>
        <time>2023-10-31T14:09:05Z</time>
      </trkpt>
      <trkpt lat="43.53469" lon="1.08942">
        <ele>292.6</ele>
        <time>2023-10-31T14:09:09Z</time>
      </trkpt>
      <trkpt lat="43.53478" lon="1.08959">
        <ele>293</ele>
        <time>2023-10-31T14:09:11Z</time>
      </trkpt>
      <trkpt lat="43.53495" lon="1.08991">
        <ele>293.6</ele>
        <time>2023-10-31T14:09:15Z</time>
      </trkpt>
      <trkpt lat="43.53508" lon="1.09024">
        <ele>294</ele>
        <time>2023-10-31T14:09:19Z</time>
      </trkpt>
      <trkpt lat="43.53531" lon="1.09081">
        <ele>294.8</ele>
        <time>2023-10-31T14:09:26Z</time>
      </trkpt>
      <trkpt lat="43.53541" lon="1.09108">
        <ele>294.8</ele>
        <time>2023-10-31T14:09:29Z</time>
      </trkpt>
      <trkpt lat="43.53559" lon="1.09156">
        <ele>294.8</ele>
        <time>2023-10-31T14:09:34Z</time>
      </trkpt>
      <trkpt lat="43.53578" lon="1.09208">
        <ele>293.2</ele>
        <time>2023-10-31T14:09:39Z</time>
      </trkpt>
      <trkpt lat="43.53587" lon="1.09229">
        <ele>292.6</ele>
        <time>2023-10-31T14:09:41Z</time>
      </trkpt>
      <trkpt lat="43.53597" lon="1.0925">
        <ele>292</ele>
        <time>2023-10-31T14:09:43Z</time>
      </trkpt>
      <trkpt lat="43.5361" lon="1.09281">
        <ele>291</ele>
        <time>2023-10-31T14:09:46Z</time>
      </trkpt>
      <trkpt lat="43.53625" lon="1.0931">
        <ele>290.4</ele>
        <time>2023-10-31T14:09:49Z</time>
      </trkpt>
      <trkpt lat="43.5364" lon="1.09337">
        <ele>290.2</ele>
        <time>2023-10-31T14:09:52Z</time>
      </trkpt>
      <trkpt lat="43.53661" lon="1.09369">
        <ele>290</ele>
        <time>2023-10-31T14:09:56Z</time>
      </trkpt>
      <trkpt lat="43.53698" lon="1.09423">
        <ele>290.2</ele>
        <time>2023-10-31T14:10:03Z</time>
      </trkpt>
      <trkpt lat="43.53738" lon="1.09481">
        <ele>290</ele>
        <time>2023-10-31T14:10:10Z</time>
      </trkpt>
      <trkpt lat="43.53744" lon="1.0949">
        <ele>289.8</ele>
        <time>2023-10-31T14:10:11Z</time>
      </trkpt>
      <trkpt lat="43.53756" lon="1.09507">
        <ele>289.2</ele>
        <time>2023-10-31T14:10:13Z</time>
      </trkpt>
      <trkpt lat="43.53773" lon="1.09532">
        <ele>288.4</ele>
        <time>2023-10-31T14:10:16Z</time>
      </trkpt>
      <trkpt lat="43.53796" lon="1.09564">
        <ele>288</ele>
        <time>2023-10-31T14:10:20Z</time>
      </trkpt>
      <trkpt lat="43.53809" lon="1.09579">
        <ele>287.4</ele>
        <time>2023-10-31T14:10:22Z</time>
      </trkpt>
      <trkpt lat="43.53843" lon="1.09616">
        <ele>285.8</ele>
        <time>2023-10-31T14:10:27Z</time>
      </trkpt>
      <trkpt lat="43.5387" lon="1.0963">
        <ele>284.6</ele>
        <time>2023-10-31T14:10:30Z</time>
      </trkpt>
      <trkpt lat="43.53879" lon="1.09634">
        <ele>284.2</ele>
        <time>2023-10-31T14:10:31Z</time>
      </trkpt>
      <trkpt lat="43.53898" lon="1.09642">
        <ele>283.6</ele>
        <time>2023-10-31T14:10:33Z</time>
      </trkpt>
      <trkpt lat="43.53915" lon="1.09649">
        <ele>281.8</ele>
        <time>2023-10-31T14:10:35Z</time>
      </trkpt>
      <trkpt lat="43.53936" lon="1.09657">
        <ele>280.8</ele>
        <time>2023-10-31T14:10:37Z</time>
      </trkpt>
      <trkpt lat="43.53954" lon="1.09664">
        <ele>279.8</ele>
        <time>2023-10-31T14:10:39Z</time>
      </trkpt>
      <trkpt lat="43.53962" lon="1.09667">
        <ele>279.6</ele>
        <time>2023-10-31T14:10:40Z</time>
      </trkpt>
      <trkpt lat="43.53995" lon="1.0968">
        <ele>279</ele>
        <time>2023-10-31T14:10:44Z</time>
      </trkpt>
      <trkpt lat="43.54041" lon="1.09696">
        <ele>278.6</ele>
        <time>2023-10-31T14:10:49Z</time>
      </trkpt>
      <trkpt lat="43.5406" lon="1.09699">
        <ele>278.2</ele>
        <time>2023-10-31T14:10:51Z</time>
      </trkpt>
      <trkpt lat="43.54079" lon="1.09701">
        <ele>277.6</ele>
        <time>2023-10-31T14:10:53Z</time>
      </trkpt>
      <trkpt lat="43.54118" lon="1.09703">
        <ele>276.2</ele>
        <time>2023-10-31T14:10:57Z</time>
      </trkpt>
      <trkpt lat="43.54139" lon="1.09706">
        <ele>275.2</ele>
        <time>2023-10-31T14:10:59Z</time>
      </trkpt>
      <trkpt lat="43.54159" lon="1.09707">
        <ele>274</ele>
        <time>2023-10-31T14:11:01Z</time>
      </trkpt>
      <trkpt lat="43.5418" lon="1.0971">
        <ele>272.8</ele>
        <time>2023-10-31T14:11:03Z</time>
      </trkpt>
      <trkpt lat="43.542" lon="1.09712">
        <ele>271.6</ele>
        <time>2023-10-31T14:11:05Z</time>
      </trkpt>
      <trkpt lat="43.54221" lon="1.09714">
        <ele>270</ele>
        <time>2023-10-31T14:11:07Z</time>
      </trkpt>
      <trkpt lat="43.54252" lon="1.09716">
        <ele>268.8</ele>
        <time>2023-10-31T14:11:10Z</time>
      </trkpt>
      <trkpt lat="43.54283" lon="1.09719">
        <ele>267.4</ele>
        <time>2023-10-31T14:11:13Z</time>
      </trkpt>
      <trkpt lat="43.54304" lon="1.09721">
        <ele>266.2</ele>
        <time>2023-10-31T14:11:15Z</time>
      </trkpt>
      <trkpt lat="43.54325" lon="1.09723">
        <ele>265</ele>
        <time>2023-10-31T14:11:17Z</time>
      </trkpt>
      <trkpt lat="43.54356" lon="1.09725">
        <ele>263.8</ele>
        <time>2023-10-31T14:11:20Z</time>
      </trkpt>
      <trkpt lat="43.54394" lon="1.09728">
        <ele>262.6</ele>
        <time>2023-10-31T14:11:24Z</time>
      </trkpt>
      <trkpt lat="43.54434" lon="1.09732">
        <ele>261.4</ele>
        <time>2023-10-31T14:11:28Z</time>
      </trkpt>
      <trkpt lat="43.54461" lon="1.09735">
        <ele>261.2</ele>
        <time>2023-10-31T14:11:31Z</time>
      </trkpt>
      <trkpt lat="43.54519" lon="1.0974">
        <ele>261.4</ele>
        <time>2023-10-31T14:11:38Z</time>
      </trkpt>
      <trkpt lat="43.54565" lon="1.09744">
        <ele>261.4</ele>
        <time>2023-10-31T14:11:44Z</time>
      </trkpt>
      <trkpt lat="43.546" lon="1.09744">
        <ele>261.6</ele>
        <time>2023-10-31T14:11:49Z</time>
      </trkpt>
      <trkpt lat="43.54638" lon="1.09732">
        <ele>262.2</ele>
        <time>2023-10-31T14:11:55Z</time>
      </trkpt>
      <trkpt lat="43.54686" lon="1.09704">
        <ele>262</ele>
        <time>2023-10-31T14:12:02Z</time>
      </trkpt>
      <trkpt lat="43.54722" lon="1.09679">
        <ele>260.6</ele>
        <time>2023-10-31T14:12:07Z</time>
      </trkpt>
      <trkpt lat="43.54736" lon="1.09668">
        <ele>259.6</ele>
        <time>2023-10-31T14:12:09Z</time>
      </trkpt>
      <trkpt lat="43.54743" lon="1.09663">
        <ele>259.4</ele>
        <time>2023-10-31T14:12:10Z</time>
      </trkpt>
      <trkpt lat="43.54777" lon="1.09639">
        <ele>258.4</ele>
        <time>2023-10-31T14:12:15Z</time>
      </trkpt>
      <trkpt lat="43.54814" lon="1.09617">
        <ele>258</ele>
        <time>2023-10-31T14:12:20Z</time>
      </trkpt>
      <trkpt lat="43.54844" lon="1.09606">
        <ele>257.4</ele>
        <time>2023-10-31T14:12:24Z</time>
      </trkpt>
      <trkpt lat="43.54854" lon="1.09604">
        <ele>257.2</ele>
        <time>2023-10-31T14:12:25Z</time>
      </trkpt>
      <trkpt lat="43.5489" lon="1.09597">
        <ele>256.2</ele>
        <time>2023-10-31T14:12:29Z</time>
      </trkpt>
      <trkpt lat="43.54916" lon="1.09593">
        <ele>254.6</ele>
        <time>2023-10-31T14:12:32Z</time>
      </trkpt>
      <trkpt lat="43.54942" lon="1.09589">
        <ele>253.6</ele>
        <time>2023-10-31T14:12:35Z</time>
      </trkpt>
      <trkpt lat="43.54976" lon="1.09581">
        <ele>252.4</ele>
        <time>2023-10-31T14:12:39Z</time>
      </trkpt>
      <trkpt lat="43.54984" lon="1.09578">
        <ele>252.2</ele>
        <time>2023-10-31T14:12:40Z</time>
      </trkpt>
      <trkpt lat="43.55013" lon="1.09558">
        <ele>251.4</ele>
        <time>2023-10-31T14:12:44Z</time>
      </trkpt>
      <trkpt lat="43.55022" lon="1.09551">
        <ele>251.2</ele>
        <time>2023-10-31T14:12:45Z</time>
      </trkpt>
      <trkpt lat="43.55063" lon="1.09512">
        <ele>250.6</ele>
        <time>2023-10-31T14:12:52Z</time>
      </trkpt>
      <trkpt lat="43.5509" lon="1.09488">
        <ele>250.8</ele>
        <time>2023-10-31T14:12:57Z</time>
      </trkpt>
      <trkpt lat="43.55122" lon="1.09458">
        <ele>252.6</ele>
        <time>2023-10-31T14:13:04Z</time>
      </trkpt>
      <trkpt lat="43.5514" lon="1.09442">
        <ele>254</ele>
        <time>2023-10-31T14:13:08Z</time>
      </trkpt>
      <trkpt lat="43.55154" lon="1.09431">
        <ele>255</ele>
        <time>2023-10-31T14:13:11Z</time>
      </trkpt>
      <trkpt lat="43.5516" lon="1.09426">
        <ele>255</ele>
        <time>2023-10-31T14:13:12Z</time>
      </trkpt>
      <trkpt lat="43.55201" lon="1.0939">
        <ele>255.6</ele>
        <time>2023-10-31T14:13:20Z</time>
      </trkpt>
      <trkpt lat="43.5524" lon="1.09361">
        <ele>255</ele>
        <time>2023-10-31T14:13:26Z</time>
      </trkpt>
      <trkpt lat="43.55268" lon="1.09341">
        <ele>254</ele>
        <time>2023-10-31T14:13:30Z</time>
      </trkpt>
      <trkpt lat="43.55288" lon="1.09327">
        <ele>253</ele>
        <time>2023-10-31T14:13:33Z</time>
      </trkpt>
      <trkpt lat="43.55319" lon="1.09305">
        <ele>252</ele>
        <time>2023-10-31T14:13:38Z</time>
      </trkpt>
      <trkpt lat="43.5533" lon="1.09297">
        <ele>251.8</ele>
        <time>2023-10-31T14:13:40Z</time>
      </trkpt>
      <trkpt lat="43.55369" lon="1.09269">
        <ele>251.4</ele>
        <time>2023-10-31T14:13:47Z</time>
      </trkpt>
      <trkpt lat="43.55389" lon="1.09257">
        <ele>251.6</ele>
        <time>2023-10-31T14:13:51Z</time>
      </trkpt>
      <trkpt lat="43.55405" lon="1.09246">
        <ele>252</ele>
        <time>2023-10-31T14:13:54Z</time>
      </trkpt>
      <trkpt lat="43.55423" lon="1.09233">
        <ele>252.6</ele>
        <time>2023-10-31T14:13:58Z</time>
      </trkpt>
      <trkpt lat="43.55428" lon="1.0923">
        <ele>253</ele>
        <time>2023-10-31T14:13:59Z</time>
      </trkpt>
      <trkpt lat="43.55433" lon="1.09226">
        <ele>253.2</ele>
        <time>2023-10-31T14:14:00Z</time>
      </trkpt>
      <trkpt lat="43.55437" lon="1.09224">
        <ele>253.6</ele>
        <time>2023-10-31T14:14:01Z</time>
      </trkpt>
      <trkpt lat="43.55447" lon="1.09219">
        <ele>254</ele>
        <time>2023-10-31T14:14:03Z</time>
      </trkpt>
      <trkpt lat="43.55467" lon="1.0921">
        <ele>254.8</ele>
        <time>2023-10-31T14:14:07Z</time>
      </trkpt>
      <trkpt lat="43.55473" lon="1.09206">
        <ele>255</ele>
        <time>2023-10-31T14:14:08Z</time>
      </trkpt>
      <trkpt lat="43.55523" lon="1.09179">
        <ele>255.8</ele>
        <time>2023-10-31T14:14:17Z</time>
      </trkpt>
      <trkpt lat="43.55575" lon="1.09152">
        <ele>255.8</ele>
        <time>2023-10-31T14:14:26Z</time>
      </trkpt>
      <trkpt lat="43.55592" lon="1.09143">
        <ele>255.6</ele>
        <time>2023-10-31T14:14:29Z</time>
      </trkpt>
      <trkpt lat="43.55643" lon="1.09116">
        <ele>255.8</ele>
        <time>2023-10-31T14:14:38Z</time>
      </trkpt>
      <trkpt lat="43.55649" lon="1.09113">
        <ele>255.8</ele>
        <time>2023-10-31T14:14:39Z</time>
      </trkpt>
      <trkpt lat="43.5566" lon="1.09107">
        <ele>256.2</ele>
        <time>2023-10-31T14:14:41Z</time>
      </trkpt>
      <trkpt lat="43.55701" lon="1.09087">
        <ele>256.6</ele>
        <time>2023-10-31T14:14:48Z</time>
      </trkpt>
      <trkpt lat="43.55747" lon="1.09062">
        <ele>257.2</ele>
        <time>2023-10-31T14:14:56Z</time>
      </trkpt>
      <trkpt lat="43.55752" lon="1.09059">
        <ele>257.2</ele>
        <time>2023-10-31T14:14:57Z</time>
      </trkpt>
      <trkpt lat="43.55786" lon="1.09044">
        <ele>258.4</ele>
        <time>2023-10-31T14:15:03Z</time>
      </trkpt>
      <trkpt lat="43.55797" lon="1.09043">
        <ele>259</ele>
        <time>2023-10-31T14:15:05Z</time>
      </trkpt>
      <trkpt lat="43.55808" lon="1.09045">
        <ele>259.4</ele>
        <time>2023-10-31T14:15:07Z</time>
      </trkpt>
      <trkpt lat="43.55814" lon="1.09047">
        <ele>260</ele>
        <time>2023-10-31T14:15:08Z</time>
      </trkpt>
      <trkpt lat="43.55819" lon="1.09049">
        <ele>260.2</ele>
        <time>2023-10-31T14:15:09Z</time>
      </trkpt>
      <trkpt lat="43.55823" lon="1.09053">
        <ele>260.4</ele>
        <time>2023-10-31T14:15:10Z</time>
      </trkpt>
      <trkpt lat="43.55838" lon="1.09062">
        <ele>261</ele>
        <time>2023-10-31T14:15:13Z</time>
      </trkpt>
      <trkpt lat="43.55857" lon="1.09077">
        <ele>262.2</ele>
        <time>2023-10-31T14:15:17Z</time>
      </trkpt>
      <trkpt lat="43.55872" lon="1.09087">
        <ele>263</ele>
        <time>2023-10-31T14:15:20Z</time>
      </trkpt>
      <trkpt lat="43.55902" lon="1.09103">
        <ele>263.2</ele>
        <time>2023-10-31T14:15:25Z</time>
      </trkpt>
      <trkpt lat="43.55909" lon="1.09106">
        <ele>263.2</ele>
        <time>2023-10-31T14:15:26Z</time>
      </trkpt>
      <trkpt lat="43.55949" lon="1.09116">
        <ele>263</ele>
        <time>2023-10-31T14:15:32Z</time>
      </trkpt>
      <trkpt lat="43.5598" lon="1.09111">
        <ele>262.8</ele>
        <time>2023-10-31T14:15:37Z</time>
      </trkpt>
      <trkpt lat="43.56019" lon="1.09092">
        <ele>263</ele>
        <time>2023-10-31T14:15:44Z</time>
      </trkpt>
      <trkpt lat="43.5603" lon="1.09085">
        <ele>263.4</ele>
        <time>2023-10-31T14:15:46Z</time>
      </trkpt>
      <trkpt lat="43.56038" lon="1.09078">
        <ele>263.6</ele>
        <time>2023-10-31T14:15:48Z</time>
      </trkpt>
      <trkpt lat="43.56043" lon="1.09073">
        <ele>263.6</ele>
        <time>2023-10-31T14:15:49Z</time>
      </trkpt>
      <trkpt lat="43.56065" lon="1.09039">
        <ele>264.4</ele>
        <time>2023-10-31T14:15:55Z</time>
      </trkpt>
      <trkpt lat="43.56077" lon="1.0901">
        <ele>265.6</ele>
        <time>2023-10-31T14:16:00Z</time>
      </trkpt>
      <trkpt lat="43.56085" lon="1.08992">
        <ele>266.6</ele>
        <time>2023-10-31T14:16:03Z</time>
      </trkpt>
      <trkpt lat="43.56088" lon="1.08986">
        <ele>266.6</ele>
        <time>2023-10-31T14:16:04Z</time>
      </trkpt>
      <trkpt lat="43.56096" lon="1.08968">
        <ele>267.8</ele>
        <time>2023-10-31T14:16:07Z</time>
      </trkpt>
      <trkpt lat="43.56113" lon="1.08932">
        <ele>268.4</ele>
        <time>2023-10-31T14:16:12Z</time>
      </trkpt>
      <trkpt lat="43.56141" lon="1.08873">
        <ele>267.8</ele>
        <time>2023-10-31T14:16:19Z</time>
      </trkpt>
      <trkpt lat="43.56162" lon="1.0883">
        <ele>266.8</ele>
        <time>2023-10-31T14:16:24Z</time>
      </trkpt>
      <trkpt lat="43.56175" lon="1.08802">
        <ele>266.4</ele>
        <time>2023-10-31T14:16:27Z</time>
      </trkpt>
      <trkpt lat="43.5619" lon="1.08776">
        <ele>265.8</ele>
        <time>2023-10-31T14:16:30Z</time>
      </trkpt>
      <trkpt lat="43.56203" lon="1.08762">
        <ele>264.8</ele>
        <time>2023-10-31T14:16:32Z</time>
      </trkpt>
      <trkpt lat="43.5621" lon="1.08756">
        <ele>264.6</ele>
        <time>2023-10-31T14:16:33Z</time>
      </trkpt>
      <trkpt lat="43.56243" lon="1.08729">
        <ele>263.4</ele>
        <time>2023-10-31T14:16:37Z</time>
      </trkpt>
      <trkpt lat="43.56249" lon="1.08724">
        <ele>263.2</ele>
        <time>2023-10-31T14:16:38Z</time>
      </trkpt>
      <trkpt lat="43.56265" lon="1.0871">
        <ele>262</ele>
        <time>2023-10-31T14:16:40Z</time>
      </trkpt>
      <trkpt lat="43.56284" lon="1.08695">
        <ele>260.8</ele>
        <time>2023-10-31T14:16:42Z</time>
      </trkpt>
      <trkpt lat="43.563" lon="1.08681">
        <ele>259.6</ele>
        <time>2023-10-31T14:16:44Z</time>
      </trkpt>
      <trkpt lat="43.56316" lon="1.08664">
        <ele>258.4</ele>
        <time>2023-10-31T14:16:46Z</time>
      </trkpt>
      <trkpt lat="43.5634" lon="1.08634">
        <ele>257</ele>
        <time>2023-10-31T14:16:49Z</time>
      </trkpt>
      <trkpt lat="43.56357" lon="1.0861">
        <ele>255.6</ele>
        <time>2023-10-31T14:16:51Z</time>
      </trkpt>
      <trkpt lat="43.5637" lon="1.0859">
        <ele>254.4</ele>
        <time>2023-10-31T14:16:53Z</time>
      </trkpt>
      <trkpt lat="43.56387" lon="1.08566">
        <ele>253.2</ele>
        <time>2023-10-31T14:16:55Z</time>
      </trkpt>
      <trkpt lat="43.56402" lon="1.08544">
        <ele>251.4</ele>
        <time>2023-10-31T14:16:57Z</time>
      </trkpt>
      <trkpt lat="43.56416" lon="1.08525">
        <ele>250.2</ele>
        <time>2023-10-31T14:16:59Z</time>
      </trkpt>
      <trkpt lat="43.56426" lon="1.08512">
        <ele>249.2</ele>
        <time>2023-10-31T14:17:00Z</time>
      </trkpt>
      <trkpt lat="43.56441" lon="1.08496">
        <ele>247.2</ele>
        <time>2023-10-31T14:17:02Z</time>
      </trkpt>
      <trkpt lat="43.56451" lon="1.08488">
        <ele>246.8</ele>
        <time>2023-10-31T14:17:03Z</time>
      </trkpt>
      <trkpt lat="43.56473" lon="1.08477">
        <ele>246</ele>
        <time>2023-10-31T14:17:05Z</time>
      </trkpt>
      <trkpt lat="43.56515" lon="1.08465">
        <ele>245</ele>
        <time>2023-10-31T14:17:09Z</time>
      </trkpt>
      <trkpt lat="43.56536" lon="1.08461">
        <ele>244.6</ele>
        <time>2023-10-31T14:17:11Z</time>
      </trkpt>
      <trkpt lat="43.56566" lon="1.08454">
        <ele>244</ele>
        <time>2023-10-31T14:17:14Z</time>
      </trkpt>
      <trkpt lat="43.56615" lon="1.08443">
        <ele>243.4</ele>
        <time>2023-10-31T14:17:19Z</time>
      </trkpt>
      <trkpt lat="43.56676" lon="1.08422">
        <ele>242.6</ele>
        <time>2023-10-31T14:17:25Z</time>
      </trkpt>
      <trkpt lat="43.56686" lon="1.08417">
        <ele>242.4</ele>
        <time>2023-10-31T14:17:26Z</time>
      </trkpt>
      <trkpt lat="43.56707" lon="1.08408">
        <ele>241.4</ele>
        <time>2023-10-31T14:17:28Z</time>
      </trkpt>
      <trkpt lat="43.56728" lon="1.08408">
        <ele>240.2</ele>
        <time>2023-10-31T14:17:30Z</time>
      </trkpt>
      <trkpt lat="43.56769" lon="1.0842">
        <ele>239</ele>
        <time>2023-10-31T14:17:34Z</time>
      </trkpt>
      <trkpt lat="43.5678" lon="1.08423">
        <ele>238.6</ele>
        <time>2023-10-31T14:17:35Z</time>
      </trkpt>
      <trkpt lat="43.56801" lon="1.0843">
        <ele>237.6</ele>
        <time>2023-10-31T14:17:37Z</time>
      </trkpt>
      <trkpt lat="43.56843" lon="1.08445">
        <ele>236.8</ele>
        <time>2023-10-31T14:17:41Z</time>
      </trkpt>
      <trkpt lat="43.56865" lon="1.08452">
        <ele>236.4</ele>
        <time>2023-10-31T14:17:43Z</time>
      </trkpt>
      <trkpt lat="43.56895" lon="1.08465">
        <ele>235.6</ele>
        <time>2023-10-31T14:17:46Z</time>
      </trkpt>
      <trkpt lat="43.56913" lon="1.08477">
        <ele>235</ele>
        <time>2023-10-31T14:17:48Z</time>
      </trkpt>
      <trkpt lat="43.56921" lon="1.08484">
        <ele>234.8</ele>
        <time>2023-10-31T14:17:49Z</time>
      </trkpt>
      <trkpt lat="43.56928" lon="1.08491">
        <ele>234.6</ele>
        <time>2023-10-31T14:17:50Z</time>
      </trkpt>
      <trkpt lat="43.56943" lon="1.08508">
        <ele>234.4</ele>
        <time>2023-10-31T14:17:52Z</time>
      </trkpt>
      <trkpt lat="43.56986" lon="1.08561">
        <ele>234.4</ele>
        <time>2023-10-31T14:17:58Z</time>
      </trkpt>
      <trkpt lat="43.56993" lon="1.08571">
        <ele>234.2</ele>
        <time>2023-10-31T14:17:59Z</time>
      </trkpt>
      <trkpt lat="43.57031" lon="1.08628">
        <ele>234.2</ele>
        <time>2023-10-31T14:18:05Z</time>
      </trkpt>
      <trkpt lat="43.57042" lon="1.08646">
        <ele>234.4</ele>
        <time>2023-10-31T14:18:07Z</time>
      </trkpt>
      <trkpt lat="43.57075" lon="1.08695">
        <ele>234.8</ele>
        <time>2023-10-31T14:18:13Z</time>
      </trkpt>
      <trkpt lat="43.57107" lon="1.08739">
        <ele>234.8</ele>
        <time>2023-10-31T14:18:18Z</time>
      </trkpt>
      <trkpt lat="43.57138" lon="1.08776">
        <ele>233.6</ele>
        <time>2023-10-31T14:18:22Z</time>
      </trkpt>
      <trkpt lat="43.57155" lon="1.08793">
        <ele>232.4</ele>
        <time>2023-10-31T14:18:24Z</time>
      </trkpt>
      <trkpt lat="43.57181" lon="1.08815">
        <ele>230.8</ele>
        <time>2023-10-31T14:18:27Z</time>
      </trkpt>
      <trkpt lat="43.57199" lon="1.08826">
        <ele>229.6</ele>
        <time>2023-10-31T14:18:29Z</time>
      </trkpt>
      <trkpt lat="43.57227" lon="1.08838">
        <ele>228.4</ele>
        <time>2023-10-31T14:18:32Z</time>
      </trkpt>
      <trkpt lat="43.57265" lon="1.08855">
        <ele>226.8</ele>
        <time>2023-10-31T14:18:36Z</time>
      </trkpt>
      <trkpt lat="43.57275" lon="1.08859">
        <ele>226.6</ele>
        <time>2023-10-31T14:18:37Z</time>
      </trkpt>
      <trkpt lat="43.57294" lon="1.08867">
        <ele>225.6</ele>
        <time>2023-10-31T14:18:39Z</time>
      </trkpt>
      <trkpt lat="43.5733" lon="1.08876">
        <ele>225.4</ele>
        <time>2023-10-31T14:18:43Z</time>
      </trkpt>
      <trkpt lat="43.57378" lon="1.08882">
        <ele>225.4</ele>
        <time>2023-10-31T14:18:49Z</time>
      </trkpt>
      <trkpt lat="43.57434" lon="1.08884">
        <ele>226.6</ele>
        <time>2023-10-31T14:18:57Z</time>
      </trkpt>
      <trkpt lat="43.57441" lon="1.08883">
        <ele>226.6</ele>
        <time>2023-10-31T14:18:58Z</time>
      </trkpt>
      <trkpt lat="43.57481" lon="1.08874">
        <ele>227.8</ele>
        <time>2023-10-31T14:19:04Z</time>
      </trkpt>
      <trkpt lat="43.57487" lon="1.08872">
        <ele>228</ele>
        <time>2023-10-31T14:19:05Z</time>
      </trkpt>
      <trkpt lat="43.5752" lon="1.08855">
        <ele>228</ele>
        <time>2023-10-31T14:19:10Z</time>
      </trkpt>
      <trkpt lat="43.57568" lon="1.08824">
        <ele>228.2</ele>
        <time>2023-10-31T14:19:18Z</time>
      </trkpt>
      <trkpt lat="43.57599" lon="1.08802">
        <ele>229</ele>
        <time>2023-10-31T14:19:24Z</time>
      </trkpt>
      <trkpt lat="43.57614" lon="1.08792">
        <ele>229.2</ele>
        <time>2023-10-31T14:19:27Z</time>
      </trkpt>
      <trkpt lat="43.57627" lon="1.08782">
        <ele>230</ele>
        <time>2023-10-31T14:19:30Z</time>
      </trkpt>
      <trkpt lat="43.57639" lon="1.08771">
        <ele>231.2</ele>
        <time>2023-10-31T14:19:33Z</time>
      </trkpt>
      <trkpt lat="43.57643" lon="1.08766">
        <ele>231.4</ele>
        <time>2023-10-31T14:19:34Z</time>
      </trkpt>
      <trkpt lat="43.57647" lon="1.08761">
        <ele>231.6</ele>
        <time>2023-10-31T14:19:35Z</time>
      </trkpt>
      <trkpt lat="43.57654" lon="1.08751">
        <ele>232.2</ele>
        <time>2023-10-31T14:19:37Z</time>
      </trkpt>
      <trkpt lat="43.57663" lon="1.08732">
        <ele>232.6</ele>
        <time>2023-10-31T14:19:40Z</time>
      </trkpt>
      <trkpt lat="43.57693" lon="1.08667">
        <ele>232.6</ele>
        <time>2023-10-31T14:19:49Z</time>
      </trkpt>
      <trkpt lat="43.57705" lon="1.08644">
        <ele>232.2</ele>
        <time>2023-10-31T14:19:52Z</time>
      </trkpt>
      <trkpt lat="43.57716" lon="1.08629">
        <ele>231.6</ele>
        <time>2023-10-31T14:19:54Z</time>
      </trkpt>
      <trkpt lat="43.57727" lon="1.08615">
        <ele>231</ele>
        <time>2023-10-31T14:19:56Z</time>
      </trkpt>
      <trkpt lat="43.57753" lon="1.0859">
        <ele>230.4</ele>
        <time>2023-10-31T14:20:00Z</time>
      </trkpt>
      <trkpt lat="43.5776" lon="1.08584">
        <ele>229.8</ele>
        <time>2023-10-31T14:20:01Z</time>
      </trkpt>
      <trkpt lat="43.5778" lon="1.08565">
        <ele>228.6</ele>
        <time>2023-10-31T14:20:04Z</time>
      </trkpt>
      <trkpt lat="43.57808" lon="1.08546">
        <ele>228.2</ele>
        <time>2023-10-31T14:20:08Z</time>
      </trkpt>
      <trkpt lat="43.57824" lon="1.0854">
        <ele>227.8</ele>
        <time>2023-10-31T14:20:10Z</time>
      </trkpt>
      <trkpt lat="43.57839" lon="1.08539">
        <ele>227.6</ele>
        <time>2023-10-31T14:20:12Z</time>
      </trkpt>
      <trkpt lat="43.57886" lon="1.08545">
        <ele>227</ele>
        <time>2023-10-31T14:20:18Z</time>
      </trkpt>
      <trkpt lat="43.57922" lon="1.08548">
        <ele>226.6</ele>
        <time>2023-10-31T14:20:22Z</time>
      </trkpt>
      <trkpt lat="43.57941" lon="1.08551">
        <ele>226</ele>
        <time>2023-10-31T14:20:24Z</time>
      </trkpt>
      <trkpt lat="43.5796" lon="1.08554">
        <ele>225.6</ele>
        <time>2023-10-31T14:20:26Z</time>
      </trkpt>
      <trkpt lat="43.57989" lon="1.08557">
        <ele>224</ele>
        <time>2023-10-31T14:20:29Z</time>
      </trkpt>
      <trkpt lat="43.58016" lon="1.08559">
        <ele>223</ele>
        <time>2023-10-31T14:20:32Z</time>
      </trkpt>
      <trkpt lat="43.58025" lon="1.08558">
        <ele>222</ele>
        <time>2023-10-31T14:20:33Z</time>
      </trkpt>
      <trkpt lat="43.5806" lon="1.0855">
        <ele>221</ele>
        <time>2023-10-31T14:20:37Z</time>
      </trkpt>
      <trkpt lat="43.58099" lon="1.08529">
        <ele>219.6</ele>
        <time>2023-10-31T14:20:42Z</time>
      </trkpt>
      <trkpt lat="43.58136" lon="1.08503">
        <ele>218.6</ele>
        <time>2023-10-31T14:20:47Z</time>
      </trkpt>
      <trkpt lat="43.5817" lon="1.08486">
        <ele>218</ele>
        <time>2023-10-31T14:20:51Z</time>
      </trkpt>
      <trkpt lat="43.58197" lon="1.08478">
        <ele>217.2</ele>
        <time>2023-10-31T14:20:54Z</time>
      </trkpt>
      <trkpt lat="43.58215" lon="1.08476">
        <ele>216.6</ele>
        <time>2023-10-31T14:20:56Z</time>
      </trkpt>
      <trkpt lat="43.58243" lon="1.08476">
        <ele>216</ele>
        <time>2023-10-31T14:20:59Z</time>
      </trkpt>
      <trkpt lat="43.5828" lon="1.08477">
        <ele>215</ele>
        <time>2023-10-31T14:21:03Z</time>
      </trkpt>
      <trkpt lat="43.58298" lon="1.08478">
        <ele>214.6</ele>
        <time>2023-10-31T14:21:05Z</time>
      </trkpt>
      <trkpt lat="43.58341" lon="1.0848">
        <ele>214</ele>
        <time>2023-10-31T14:21:10Z</time>
      </trkpt>
      <trkpt lat="43.5839" lon="1.08483">
        <ele>213.6</ele>
        <time>2023-10-31T14:21:16Z</time>
      </trkpt>
      <trkpt lat="43.58405" lon="1.08482">
        <ele>213.6</ele>
        <time>2023-10-31T14:21:18Z</time>
      </trkpt>
      <trkpt lat="43.5845" lon="1.08471">
        <ele>213.4</ele>
        <time>2023-10-31T14:21:24Z</time>
      </trkpt>
      <trkpt lat="43.58501" lon="1.08451">
        <ele>213</ele>
        <time>2023-10-31T14:21:31Z</time>
      </trkpt>
      <trkpt lat="43.58553" lon="1.08432">
        <ele>212.6</ele>
        <time>2023-10-31T14:21:38Z</time>
      </trkpt>
      <trkpt lat="43.58582" lon="1.08421">
        <ele>212.6</ele>
        <time>2023-10-31T14:21:42Z</time>
      </trkpt>
      <trkpt lat="43.58635" lon="1.08402">
        <ele>212.6</ele>
        <time>2023-10-31T14:21:49Z</time>
      </trkpt>
      <trkpt lat="43.58658" lon="1.08393">
        <ele>212.4</ele>
        <time>2023-10-31T14:21:52Z</time>
      </trkpt>
      <trkpt lat="43.58712" lon="1.08373">
        <ele>211.8</ele>
        <time>2023-10-31T14:21:59Z</time>
      </trkpt>
      <trkpt lat="43.58734" lon="1.08364">
        <ele>211.4</ele>
        <time>2023-10-31T14:22:02Z</time>
      </trkpt>
      <trkpt lat="43.58742" lon="1.0836">
        <ele>211.2</ele>
        <time>2023-10-31T14:22:03Z</time>
      </trkpt>
      <trkpt lat="43.58793" lon="1.08329">
        <ele>210.8</ele>
        <time>2023-10-31T14:22:10Z</time>
      </trkpt>
      <trkpt lat="43.58816" lon="1.08318">
        <ele>210.4</ele>
        <time>2023-10-31T14:22:13Z</time>
      </trkpt>
      <trkpt lat="43.58832" lon="1.08313">
        <ele>210.2</ele>
        <time>2023-10-31T14:22:15Z</time>
      </trkpt>
      <trkpt lat="43.58882" lon="1.083">
        <ele>209.2</ele>
        <time>2023-10-31T14:22:21Z</time>
      </trkpt>
      <trkpt lat="43.58898" lon="1.08296">
        <ele>209</ele>
        <time>2023-10-31T14:22:23Z</time>
      </trkpt>
      <trkpt lat="43.58922" lon="1.0829">
        <ele>208.2</ele>
        <time>2023-10-31T14:22:26Z</time>
      </trkpt>
      <trkpt lat="43.58967" lon="1.08278">
        <ele>207.8</ele>
        <time>2023-10-31T14:22:32Z</time>
      </trkpt>
      <trkpt lat="43.59025" lon="1.08264">
        <ele>207.8</ele>
        <time>2023-10-31T14:22:40Z</time>
      </trkpt>
      <trkpt lat="43.59039" lon="1.0826">
        <ele>207.8</ele>
        <time>2023-10-31T14:22:42Z</time>
      </trkpt>
      <trkpt lat="43.59088" lon="1.08235">
        <ele>208</ele>
        <time>2023-10-31T14:22:49Z</time>
      </trkpt>
      <trkpt lat="43.59135" lon="1.08197">
        <ele>207.4</ele>
        <time>2023-10-31T14:22:56Z</time>
      </trkpt>
      <trkpt lat="43.59153" lon="1.08176">
        <ele>207</ele>
        <time>2023-10-31T14:22:59Z</time>
      </trkpt>
      <trkpt lat="43.5918" lon="1.08147">
        <ele>206.4</ele>
        <time>2023-10-31T14:23:03Z</time>
      </trkpt>
      <trkpt lat="43.59187" lon="1.0814">
        <ele>205.6</ele>
        <time>2023-10-31T14:23:04Z</time>
      </trkpt>
      <trkpt lat="43.59195" lon="1.08134">
        <ele>205.4</ele>
        <time>2023-10-31T14:23:05Z</time>
      </trkpt>
      <trkpt lat="43.59212" lon="1.08124">
        <ele>204.4</ele>
        <time>2023-10-31T14:23:07Z</time>
      </trkpt>
      <trkpt lat="43.5923" lon="1.08116">
        <ele>203</ele>
        <time>2023-10-31T14:23:09Z</time>
      </trkpt>
      <trkpt lat="43.59257" lon="1.08107">
        <ele>201.4</ele>
        <time>2023-10-31T14:23:12Z</time>
      </trkpt>
      <trkpt lat="43.59284" lon="1.08102">
        <ele>200</ele>
        <time>2023-10-31T14:23:15Z</time>
      </trkpt>
      <trkpt lat="43.59311" lon="1.08101">
        <ele>198.4</ele>
        <time>2023-10-31T14:23:18Z</time>
      </trkpt>
      <trkpt lat="43.59346" lon="1.08102">
        <ele>197.4</ele>
        <time>2023-10-31T14:23:22Z</time>
      </trkpt>
      <trkpt lat="43.59397" lon="1.08104">
        <ele>196.4</ele>
        <time>2023-10-31T14:23:28Z</time>
      </trkpt>
      <trkpt lat="43.59452" lon="1.08105">
        <ele>195.8</ele>
        <time>2023-10-31T14:23:35Z</time>
      </trkpt>
      <trkpt lat="43.59498" lon="1.08099">
        <ele>196.4</ele>
        <time>2023-10-31T14:23:41Z</time>
      </trkpt>
      <trkpt lat="43.59536" lon="1.0809">
        <ele>197.2</ele>
        <time>2023-10-31T14:23:47Z</time>
      </trkpt>
      <trkpt lat="43.59555" lon="1.08085">
        <ele>197.6</ele>
        <time>2023-10-31T14:23:50Z</time>
      </trkpt>
      <trkpt lat="43.59572" lon="1.0808">
        <ele>198</ele>
        <time>2023-10-31T14:23:53Z</time>
      </trkpt>
      <trkpt lat="43.59594" lon="1.08076">
        <ele>198.8</ele>
        <time>2023-10-31T14:23:57Z</time>
      </trkpt>
      <trkpt lat="43.59614" lon="1.0807">
        <ele>199.6</ele>
        <time>2023-10-31T14:24:01Z</time>
      </trkpt>
      <trkpt lat="43.59619" lon="1.08069">
        <ele>200.2</ele>
        <time>2023-10-31T14:24:02Z</time>
      </trkpt>
      <trkpt lat="43.59633" lon="1.08067">
        <ele>200.8</ele>
        <time>2023-10-31T14:24:05Z</time>
      </trkpt>
      <trkpt lat="43.59638" lon="1.08066">
        <ele>201</ele>
        <time>2023-10-31T14:24:06Z</time>
      </trkpt>
      <trkpt lat="43.59642" lon="1.08065">
        <ele>201.2</ele>
        <time>2023-10-31T14:24:07Z</time>
      </trkpt>
      <trkpt lat="43.59656" lon="1.08061">
        <ele>202</ele>
        <time>2023-10-31T14:24:11Z</time>
      </trkpt>
      <trkpt lat="43.59664" lon="1.08061">
        <ele>202.6</ele>
        <time>2023-10-31T14:24:13Z</time>
      </trkpt>
      <trkpt lat="43.59681" lon="1.08057">
        <ele>203.6</ele>
        <time>2023-10-31T14:24:17Z</time>
      </trkpt>
      <trkpt lat="43.59688" lon="1.08056">
        <ele>204</ele>
        <time>2023-10-31T14:24:19Z</time>
      </trkpt>
      <trkpt lat="43.59695" lon="1.08053">
        <ele>204.8</ele>
        <time>2023-10-31T14:24:21Z</time>
      </trkpt>
      <trkpt lat="43.59709" lon="1.0805">
        <ele>206</ele>
        <time>2023-10-31T14:24:25Z</time>
      </trkpt>
      <trkpt lat="43.59711" lon="1.08049">
        <ele>206.2</ele>
        <time>2023-10-31T14:24:26Z</time>
      </trkpt>
      <trkpt lat="43.59722" lon="1.08047">
        <ele>207.2</ele>
        <time>2023-10-31T14:24:29Z</time>
      </trkpt>
      <trkpt lat="43.59733" lon="1.08043">
        <ele>208.2</ele>
        <time>2023-10-31T14:24:32Z</time>
      </trkpt>
      <trkpt lat="43.59748" lon="1.0804">
        <ele>209.4</ele>
        <time>2023-10-31T14:24:36Z</time>
      </trkpt>
      <trkpt lat="43.59764" lon="1.08036">
        <ele>210.6</ele>
        <time>2023-10-31T14:24:40Z</time>
      </trkpt>
      <trkpt lat="43.59778" lon="1.08033">
        <ele>212</ele>
        <time>2023-10-31T14:24:44Z</time>
      </trkpt>
      <trkpt lat="43.59791" lon="1.08029">
        <ele>212.8</ele>
        <time>2023-10-31T14:24:48Z</time>
      </trkpt>
      <trkpt lat="43.598" lon="1.08027">
        <ele>213</ele>
        <time>2023-10-31T14:24:50Z</time>
      </trkpt>
      <trkpt lat="43.59814" lon="1.08023">
        <ele>213</ele>
        <time>2023-10-31T14:24:53Z</time>
      </trkpt>
      <trkpt lat="43.59854" lon="1.08014">
        <ele>211.8</ele>
        <time>2023-10-31T14:24:59Z</time>
      </trkpt>
      <trkpt lat="43.59877" lon="1.08008">
        <ele>210.6</ele>
        <time>2023-10-31T14:25:02Z</time>
      </trkpt>
      <trkpt lat="43.59896" lon="1.08004">
        <ele>210</ele>
        <time>2023-10-31T14:25:04Z</time>
      </trkpt>
      <trkpt lat="43.59905" lon="1.08001">
        <ele>209.6</ele>
        <time>2023-10-31T14:25:05Z</time>
      </trkpt>
      <trkpt lat="43.59925" lon="1.07994">
        <ele>207.2</ele>
        <time>2023-10-31T14:25:07Z</time>
      </trkpt>
      <trkpt lat="43.59944" lon="1.07984">
        <ele>206.2</ele>
        <time>2023-10-31T14:25:09Z</time>
      </trkpt>
      <trkpt lat="43.59954" lon="1.07979">
        <ele>206</ele>
        <time>2023-10-31T14:25:10Z</time>
      </trkpt>
      <trkpt lat="43.59965" lon="1.07972">
        <ele>204.8</ele>
        <time>2023-10-31T14:25:11Z</time>
      </trkpt>
      <trkpt lat="43.59983" lon="1.07963">
        <ele>203.2</ele>
        <time>2023-10-31T14:25:13Z</time>
      </trkpt>
      <trkpt lat="43.60006" lon="1.07953">
        <ele>202.6</ele>
        <time>2023-10-31T14:25:15Z</time>
      </trkpt>
      <trkpt lat="43.60017" lon="1.0795">
        <ele>201.2</ele>
        <time>2023-10-31T14:25:16Z</time>
      </trkpt>
      <trkpt lat="43.60037" lon="1.07947">
        <ele>199.4</ele>
        <time>2023-10-31T14:25:18Z</time>
      </trkpt>
      <trkpt lat="43.6005" lon="1.07946">
        <ele>199</ele>
        <time>2023-10-31T14:25:19Z</time>
      </trkpt>
      <trkpt lat="43.60061" lon="1.07945">
        <ele>198</ele>
        <time>2023-10-31T14:25:20Z</time>
      </trkpt>
      <trkpt lat="43.60083" lon="1.07945">
        <ele>196.6</ele>
        <time>2023-10-31T14:25:22Z</time>
      </trkpt>
      <trkpt lat="43.60094" lon="1.07946">
        <ele>195.8</ele>
        <time>2023-10-31T14:25:23Z</time>
      </trkpt>
      <trkpt lat="43.60104" lon="1.07949">
        <ele>195.2</ele>
        <time>2023-10-31T14:25:24Z</time>
      </trkpt>
      <trkpt lat="43.60115" lon="1.07953">
        <ele>194.6</ele>
        <time>2023-10-31T14:25:25Z</time>
      </trkpt>
      <trkpt lat="43.60125" lon="1.07959">
        <ele>194</ele>
        <time>2023-10-31T14:25:26Z</time>
      </trkpt>
      <trkpt lat="43.60143" lon="1.07971">
        <ele>192.8</ele>
        <time>2023-10-31T14:25:28Z</time>
      </trkpt>
      <trkpt lat="43.60176" lon="1.07997">
        <ele>190.6</ele>
        <time>2023-10-31T14:25:31Z</time>
      </trkpt>
      <trkpt lat="43.60195" lon="1.08012">
        <ele>189.4</ele>
        <time>2023-10-31T14:25:33Z</time>
      </trkpt>
      <trkpt lat="43.60206" lon="1.08019">
        <ele>188.8</ele>
        <time>2023-10-31T14:25:34Z</time>
      </trkpt>
      <trkpt lat="43.6022" lon="1.08026">
        <ele>188.4</ele>
        <time>2023-10-31T14:25:35Z</time>
      </trkpt>
      <trkpt lat="43.60232" lon="1.08031">
        <ele>186.6</ele>
        <time>2023-10-31T14:25:36Z</time>
      </trkpt>
      <trkpt lat="43.60244" lon="1.08034">
        <ele>185.6</ele>
        <time>2023-10-31T14:25:37Z</time>
      </trkpt>
      <trkpt lat="43.60257" lon="1.08034">
        <ele>184.4</ele>
        <time>2023-10-31T14:25:38Z</time>
      </trkpt>
      <trkpt lat="43.60269" lon="1.08034">
        <ele>183</ele>
        <time>2023-10-31T14:25:39Z</time>
      </trkpt>
      <trkpt lat="43.60291" lon="1.08031">
        <ele>181.4</ele>
        <time>2023-10-31T14:25:41Z</time>
      </trkpt>
      <trkpt lat="43.60306" lon="1.08028">
        <ele>180.8</ele>
        <time>2023-10-31T14:25:42Z</time>
      </trkpt>
      <trkpt lat="43.60317" lon="1.08022">
        <ele>179.4</ele>
        <time>2023-10-31T14:25:43Z</time>
      </trkpt>
      <trkpt lat="43.60326" lon="1.08014">
        <ele>179</ele>
        <time>2023-10-31T14:25:44Z</time>
      </trkpt>
      <trkpt lat="43.60334" lon="1.08002">
        <ele>177.6</ele>
        <time>2023-10-31T14:25:45Z</time>
      </trkpt>
      <trkpt lat="43.6034" lon="1.0799">
        <ele>176.6</ele>
        <time>2023-10-31T14:25:46Z</time>
      </trkpt>
      <trkpt lat="43.6035" lon="1.07964">
        <ele>175.4</ele>
        <time>2023-10-31T14:25:48Z</time>
      </trkpt>
      <trkpt lat="43.60359" lon="1.07941">
        <ele>174.4</ele>
        <time>2023-10-31T14:25:50Z</time>
      </trkpt>
      <trkpt lat="43.60369" lon="1.07914">
        <ele>173</ele>
        <time>2023-10-31T14:25:52Z</time>
      </trkpt>
      <trkpt lat="43.60374" lon="1.07903">
        <ele>172.8</ele>
        <time>2023-10-31T14:25:53Z</time>
      </trkpt>
      <trkpt lat="43.6038" lon="1.07894">
        <ele>172.4</ele>
        <time>2023-10-31T14:25:54Z</time>
      </trkpt>
      <trkpt lat="43.60388" lon="1.07886">
        <ele>172</ele>
        <time>2023-10-31T14:25:55Z</time>
      </trkpt>
      <trkpt lat="43.60412" lon="1.07867">
        <ele>171</ele>
        <time>2023-10-31T14:25:58Z</time>
      </trkpt>
      <trkpt lat="43.60421" lon="1.07865">
        <ele>170.6</ele>
        <time>2023-10-31T14:25:59Z</time>
      </trkpt>
      <trkpt lat="43.60431" lon="1.07864">
        <ele>170.6</ele>
        <time>2023-10-31T14:26:00Z</time>
      </trkpt>
      <trkpt lat="43.60441" lon="1.07867">
        <ele>170.2</ele>
        <time>2023-10-31T14:26:01Z</time>
      </trkpt>
      <trkpt lat="43.60469" lon="1.07878">
        <ele>169.2</ele>
        <time>2023-10-31T14:26:04Z</time>
      </trkpt>
      <trkpt lat="43.60491" lon="1.07888">
        <ele>168.2</ele>
        <time>2023-10-31T14:26:06Z</time>
      </trkpt>
      <trkpt lat="43.60512" lon="1.07896">
        <ele>167</ele>
        <time>2023-10-31T14:26:08Z</time>
      </trkpt>
      <trkpt lat="43.60522" lon="1.07898">
        <ele>166.2</ele>
        <time>2023-10-31T14:26:09Z</time>
      </trkpt>
      <trkpt lat="43.60533" lon="1.07899">
        <ele>166</ele>
        <time>2023-10-31T14:26:10Z</time>
      </trkpt>
      <trkpt lat="43.60544" lon="1.07899">
        <ele>165.2</ele>
        <time>2023-10-31T14:26:11Z</time>
      </trkpt>
      <trkpt lat="43.60554" lon="1.07896">
        <ele>164.8</ele>
        <time>2023-10-31T14:26:12Z</time>
      </trkpt>
      <trkpt lat="43.60574" lon="1.0789">
        <ele>163.8</ele>
        <time>2023-10-31T14:26:14Z</time>
      </trkpt>
      <trkpt lat="43.60584" lon="1.07888">
        <ele>163</ele>
        <time>2023-10-31T14:26:15Z</time>
      </trkpt>
      <trkpt lat="43.60594" lon="1.07884">
        <ele>162.6</ele>
        <time>2023-10-31T14:26:16Z</time>
      </trkpt>
      <trkpt lat="43.60601" lon="1.07879">
        <ele>161.8</ele>
        <time>2023-10-31T14:26:17Z</time>
      </trkpt>
      <trkpt lat="43.60611" lon="1.0787">
        <ele>161.2</ele>
        <time>2023-10-31T14:26:18Z</time>
      </trkpt>
      <trkpt lat="43.60619" lon="1.07865">
        <ele>161</ele>
        <time>2023-10-31T14:26:19Z</time>
      </trkpt>
      <trkpt lat="43.60628" lon="1.07862">
        <ele>160.6</ele>
        <time>2023-10-31T14:26:20Z</time>
      </trkpt>
      <trkpt lat="43.60637" lon="1.0786">
        <ele>160.4</ele>
        <time>2023-10-31T14:26:21Z</time>
      </trkpt>
      <trkpt lat="43.60644" lon="1.0786">
        <ele>160.2</ele>
        <time>2023-10-31T14:26:22Z</time>
      </trkpt>
      <trkpt lat="43.60663" lon="1.0786">
        <ele>159.8</ele>
        <time>2023-10-31T14:26:24Z</time>
      </trkpt>
      <trkpt lat="43.60691" lon="1.07866">
        <ele>158.8</ele>
        <time>2023-10-31T14:26:27Z</time>
      </trkpt>
      <trkpt lat="43.60709" lon="1.07872">
        <ele>158.2</ele>
        <time>2023-10-31T14:26:29Z</time>
      </trkpt>
      <trkpt lat="43.60728" lon="1.0788">
        <ele>157.8</ele>
        <time>2023-10-31T14:26:31Z</time>
      </trkpt>
      <trkpt lat="43.60762" lon="1.07898">
        <ele>156.6</ele>
        <time>2023-10-31T14:26:35Z</time>
      </trkpt>
      <trkpt lat="43.60789" lon="1.07911">
        <ele>155.4</ele>
        <time>2023-10-31T14:26:38Z</time>
      </trkpt>
      <trkpt lat="43.60817" lon="1.0792">
        <ele>154.2</ele>
        <time>2023-10-31T14:26:41Z</time>
      </trkpt>
      <trkpt lat="43.60846" lon="1.07926">
        <ele>153.2</ele>
        <time>2023-10-31T14:26:44Z</time>
      </trkpt>
      <trkpt lat="43.60874" lon="1.07933">
        <ele>151.6</ele>
        <time>2023-10-31T14:26:47Z</time>
      </trkpt>
      <trkpt lat="43.60892" lon="1.07938">
        <ele>150.8</ele>
        <time>2023-10-31T14:26:49Z</time>
      </trkpt>
      <trkpt lat="43.60899" lon="1.07939">
        <ele>150.4</ele>
        <time>2023-10-31T14:26:50Z</time>
      </trkpt>
      <trkpt lat="43.60917" lon="1.0794">
        <ele>150</ele>
        <time>2023-10-31T14:26:52Z</time>
      </trkpt>
      <trkpt lat="43.60934" lon="1.07942">
        <ele>149.4</ele>
        <time>2023-10-31T14:26:54Z</time>
      </trkpt>
      <trkpt lat="43.60965" lon="1.07943">
        <ele>148.8</ele>
        <time>2023-10-31T14:26:58Z</time>
      </trkpt>
      <trkpt lat="43.61013" lon="1.07942">
        <ele>148.4</ele>
        <time>2023-10-31T14:27:04Z</time>
      </trkpt>
      <trkpt lat="43.61021" lon="1.07945">
        <ele>148.4</ele>
        <time>2023-10-31T14:27:05Z</time>
      </trkpt>
      <trkpt lat="43.61028" lon="1.0795">
        <ele>148.4</ele>
        <time>2023-10-31T14:27:06Z</time>
      </trkpt>
      <trkpt lat="43.61038" lon="1.07962">
        <ele>148.4</ele>
        <time>2023-10-31T14:27:08Z</time>
      </trkpt>
      <trkpt lat="43.61062" lon="1.08004">
        <ele>148.6</ele>
        <time>2023-10-31T14:27:13Z</time>
      </trkpt>
      <trkpt lat="43.61086" lon="1.08025">
        <ele>148.8</ele>
        <time>2023-10-31T14:27:17Z</time>
      </trkpt>
      <trkpt lat="43.6112" lon="1.08051">
        <ele>149</ele>
        <time>2023-10-31T14:27:23Z</time>
      </trkpt>
      <trkpt lat="43.61139" lon="1.08065">
        <ele>150.2</ele>
        <time>2023-10-31T14:27:27Z</time>
      </trkpt>
      <trkpt lat="43.61144" lon="1.08068">
        <ele>150.4</ele>
        <time>2023-10-31T14:27:28Z</time>
      </trkpt>
      <trkpt lat="43.61148" lon="1.08071">
        <ele>151</ele>
        <time>2023-10-31T14:27:29Z</time>
      </trkpt>
      <trkpt lat="43.61152" lon="1.08074">
        <ele>151.2</ele>
        <time>2023-10-31T14:27:30Z</time>
      </trkpt>
      <trkpt lat="43.61156" lon="1.08077">
        <ele>151.8</ele>
        <time>2023-10-31T14:27:31Z</time>
      </trkpt>
      <trkpt lat="43.61165" lon="1.08085">
        <ele>152.8</ele>
        <time>2023-10-31T14:27:34Z</time>
      </trkpt>
      <trkpt lat="43.61171" lon="1.08089">
        <ele>153.2</ele>
        <time>2023-10-31T14:27:36Z</time>
      </trkpt>
      <trkpt lat="43.61174" lon="1.08088">
        <ele>153.4</ele>
        <time>2023-10-31T14:27:37Z</time>
      </trkpt>
      <trkpt lat="43.61177" lon="1.08084">
        <ele>153.8</ele>
        <time>2023-10-31T14:27:38Z</time>
      </trkpt>
      <trkpt lat="43.61184" lon="1.08073">
        <ele>154.2</ele>
        <time>2023-10-31T14:27:40Z</time>
      </trkpt>
      <trkpt lat="43.61207" lon="1.08036">
        <ele>154.4</ele>
        <time>2023-10-31T14:27:45Z</time>
      </trkpt>
      <trkpt lat="43.61235" lon="1.07998">
        <ele>153.4</ele>
        <time>2023-10-31T14:27:50Z</time>
      </trkpt>
      <trkpt lat="43.61248" lon="1.07985">
        <ele>152.8</ele>
        <time>2023-10-31T14:27:52Z</time>
      </trkpt>
      <trkpt lat="43.6128" lon="1.07953">
        <ele>152</ele>
        <time>2023-10-31T14:27:57Z</time>
      </trkpt>
      <trkpt lat="43.61291" lon="1.07942">
        <ele>151.8</ele>
        <time>2023-10-31T14:27:59Z</time>
      </trkpt>
      <trkpt lat="43.61309" lon="1.07923">
        <ele>151.6</ele>
        <time>2023-10-31T14:28:02Z</time>
      </trkpt>
      <trkpt lat="43.61352" lon="1.07876">
        <ele>151</ele>
        <time>2023-10-31T14:28:09Z</time>
      </trkpt>
      <trkpt lat="43.61357" lon="1.07872">
        <ele>150.6</ele>
        <time>2023-10-31T14:28:10Z</time>
      </trkpt>
      <trkpt lat="43.61362" lon="1.07869">
        <ele>150.6</ele>
        <time>2023-10-31T14:28:11Z</time>
      </trkpt>
      <trkpt lat="43.61368" lon="1.07867">
        <ele>150.6</ele>
        <time>2023-10-31T14:28:12Z</time>
      </trkpt>
      <trkpt lat="43.61373" lon="1.07865">
        <ele>150.6</ele>
        <time>2023-10-31T14:28:13Z</time>
      </trkpt>
      <trkpt lat="43.6138" lon="1.07858">
        <ele>150.6</ele>
        <time>2023-10-31T14:28:16Z</time>
      </trkpt>
      <trkpt lat="43.61388" lon="1.07851">
        <ele>151</ele>
        <time>2023-10-31T14:28:20Z</time>
      </trkpt>
      <trkpt lat="43.61391" lon="1.07837">
        <ele>151.2</ele>
        <time>2023-10-31T14:28:23Z</time>
      </trkpt>
      <trkpt lat="43.61392" lon="1.0783">
        <ele>151.2</ele>
        <time>2023-10-31T14:28:24Z</time>
      </trkpt>
      <trkpt lat="43.61395" lon="1.07807">
        <ele>151.2</ele>
        <time>2023-10-31T14:28:27Z</time>
      </trkpt>
      <trkpt lat="43.61396" lon="1.07799">
        <ele>151</ele>
        <time>2023-10-31T14:28:28Z</time>
      </trkpt>
      <trkpt lat="43.61407" lon="1.07718">
        <ele>150.6</ele>
        <time>2023-10-31T14:28:37Z</time>
      </trkpt>
      <trkpt lat="43.61418" lon="1.07642">
        <ele>150.6</ele>
        <time>2023-10-31T14:28:45Z</time>
      </trkpt>
      <trkpt lat="43.61427" lon="1.07574">
        <ele>150.8</ele>
        <time>2023-10-31T14:28:52Z</time>
      </trkpt>
      <trkpt lat="43.61437" lon="1.07496">
        <ele>151</ele>
        <time>2023-10-31T14:29:00Z</time>
      </trkpt>
      <trkpt lat="43.61443" lon="1.07455">
        <ele>151</ele>
        <time>2023-10-31T14:29:04Z</time>
      </trkpt>
      <trkpt lat="43.61451" lon="1.07407">
        <ele>150.6</ele>
        <time>2023-10-31T14:29:09Z</time>
      </trkpt>
      <trkpt lat="43.61455" lon="1.07398">
        <ele>150.6</ele>
        <time>2023-10-31T14:29:10Z</time>
      </trkpt>
      <trkpt lat="43.6146" lon="1.07392">
        <ele>150.4</ele>
        <time>2023-10-31T14:29:11Z</time>
      </trkpt>
      <trkpt lat="43.61466" lon="1.07387">
        <ele>150.4</ele>
        <time>2023-10-31T14:29:12Z</time>
      </trkpt>
      <trkpt lat="43.61473" lon="1.07385">
        <ele>150.4</ele>
        <time>2023-10-31T14:29:13Z</time>
      </trkpt>
      <trkpt lat="43.61504" lon="1.07378">
        <ele>149.8</ele>
        <time>2023-10-31T14:29:17Z</time>
      </trkpt>
      <trkpt lat="43.61512" lon="1.07376">
        <ele>149.6</ele>
        <time>2023-10-31T14:29:18Z</time>
      </trkpt>
      <trkpt lat="43.61544" lon="1.07368">
        <ele>148.4</ele>
        <time>2023-10-31T14:29:22Z</time>
      </trkpt>
      <trkpt lat="43.61575" lon="1.07361">
        <ele>148.2</ele>
        <time>2023-10-31T14:29:26Z</time>
      </trkpt>
      <trkpt lat="43.61628" lon="1.07347">
        <ele>148</ele>
        <time>2023-10-31T14:29:33Z</time>
      </trkpt>
      <trkpt lat="43.61648" lon="1.07342">
        <ele>147.8</ele>
        <time>2023-10-31T14:29:36Z</time>
      </trkpt>
      <trkpt lat="43.61706" lon="1.07328">
        <ele>147.8</ele>
        <time>2023-10-31T14:29:44Z</time>
      </trkpt>
      <trkpt lat="43.61763" lon="1.07313">
        <ele>147.6</ele>
        <time>2023-10-31T14:29:52Z</time>
      </trkpt>
      <trkpt lat="43.61776" lon="1.0731">
        <ele>147.6</ele>
        <time>2023-10-31T14:29:54Z</time>
      </trkpt>
      <trkpt lat="43.61832" lon="1.07295">
        <ele>147.8</ele>
        <time>2023-10-31T14:30:02Z</time>
      </trkpt>
      <trkpt lat="43.61853" lon="1.0729">
        <ele>147.8</ele>
        <time>2023-10-31T14:30:05Z</time>
      </trkpt>
      <trkpt lat="43.61912" lon="1.07275">
        <ele>147.8</ele>
        <time>2023-10-31T14:30:14Z</time>
      </trkpt>
      <trkpt lat="43.6196" lon="1.07263">
        <ele>148.2</ele>
        <time>2023-10-31T14:30:22Z</time>
      </trkpt>
      <trkpt lat="43.61998" lon="1.07253">
        <ele>149.6</ele>
        <time>2023-10-31T14:30:29Z</time>
      </trkpt>
      <trkpt lat="43.62004" lon="1.07252">
        <ele>149.8</ele>
        <time>2023-10-31T14:30:30Z</time>
      </trkpt>
      <trkpt lat="43.62045" lon="1.07241">
        <ele>150</ele>
        <time>2023-10-31T14:30:36Z</time>
      </trkpt>
      <trkpt lat="43.62088" lon="1.07231">
        <ele>148.6</ele>
        <time>2023-10-31T14:30:42Z</time>
      </trkpt>
      <trkpt lat="43.62102" lon="1.07227">
        <ele>148.4</ele>
        <time>2023-10-31T14:30:44Z</time>
      </trkpt>
      <trkpt lat="43.62136" lon="1.0722">
        <ele>148.2</ele>
        <time>2023-10-31T14:30:49Z</time>
      </trkpt>
      <trkpt lat="43.62149" lon="1.07219">
        <ele>148.2</ele>
        <time>2023-10-31T14:30:51Z</time>
      </trkpt>
      <trkpt lat="43.62192" lon="1.07213">
        <ele>148</ele>
        <time>2023-10-31T14:30:57Z</time>
      </trkpt>
      <trkpt lat="43.62199" lon="1.07214">
        <ele>148</ele>
        <time>2023-10-31T14:30:58Z</time>
      </trkpt>
      <trkpt lat="43.62213" lon="1.07219">
        <ele>148</ele>
        <time>2023-10-31T14:31:00Z</time>
      </trkpt>
      <trkpt lat="43.62226" lon="1.0723">
        <ele>147.8</ele>
        <time>2023-10-31T14:31:02Z</time>
      </trkpt>
      <trkpt lat="43.62237" lon="1.07244">
        <ele>147.8</ele>
        <time>2023-10-31T14:31:04Z</time>
      </trkpt>
      <trkpt lat="43.62276" lon="1.07299">
        <ele>147.8</ele>
        <time>2023-10-31T14:31:11Z</time>
      </trkpt>
      <trkpt lat="43.62292" lon="1.07323">
        <ele>147.6</ele>
        <time>2023-10-31T14:31:14Z</time>
      </trkpt>
      <trkpt lat="43.62308" lon="1.07348">
        <ele>147.6</ele>
        <time>2023-10-31T14:31:17Z</time>
      </trkpt>
      <trkpt lat="43.6233" lon="1.07379">
        <ele>147.4</ele>
        <time>2023-10-31T14:31:21Z</time>
      </trkpt>
      <trkpt lat="43.62368" lon="1.07434">
        <ele>147.4</ele>
        <time>2023-10-31T14:31:28Z</time>
      </trkpt>
      <trkpt lat="43.62378" lon="1.07449">
        <ele>147.4</ele>
        <time>2023-10-31T14:31:30Z</time>
      </trkpt>
      <trkpt lat="43.62417" lon="1.07513">
        <ele>147.6</ele>
        <time>2023-10-31T14:31:38Z</time>
      </trkpt>
      <trkpt lat="43.62427" lon="1.07529">
        <ele>147.8</ele>
        <time>2023-10-31T14:31:40Z</time>
      </trkpt>
      <trkpt lat="43.62462" lon="1.07586">
        <ele>148</ele>
        <time>2023-10-31T14:31:47Z</time>
      </trkpt>
      <trkpt lat="43.62471" lon="1.07603">
        <ele>148</ele>
        <time>2023-10-31T14:31:49Z</time>
      </trkpt>
      <trkpt lat="43.62504" lon="1.07672">
        <ele>148.2</ele>
        <time>2023-10-31T14:31:57Z</time>
      </trkpt>
      <trkpt lat="43.62508" lon="1.07681">
        <ele>148.2</ele>
        <time>2023-10-31T14:31:58Z</time>
      </trkpt>
      <trkpt lat="43.62539" lon="1.07728">
        <ele>148.2</ele>
        <time>2023-10-31T14:32:04Z</time>
      </trkpt>
      <trkpt lat="43.62582" lon="1.07779">
        <ele>148</ele>
        <time>2023-10-31T14:32:11Z</time>
      </trkpt>
      <trkpt lat="43.62593" lon="1.07794">
        <ele>147.8</ele>
        <time>2023-10-31T14:32:13Z</time>
      </trkpt>
      <trkpt lat="43.62633" lon="1.07844">
        <ele>147.4</ele>
        <time>2023-10-31T14:32:20Z</time>
      </trkpt>
      <trkpt lat="43.62638" lon="1.07852">
        <ele>147.4</ele>
        <time>2023-10-31T14:32:21Z</time>
      </trkpt>
      <trkpt lat="43.62662" lon="1.07902">
        <ele>147.4</ele>
        <time>2023-10-31T14:32:27Z</time>
      </trkpt>
      <trkpt lat="43.62691" lon="1.07962">
        <ele>148.4</ele>
        <time>2023-10-31T14:32:34Z</time>
      </trkpt>
      <trkpt lat="43.62729" lon="1.08025">
        <ele>148.4</ele>
        <time>2023-10-31T14:32:42Z</time>
      </trkpt>
      <trkpt lat="43.62742" lon="1.08047">
        <ele>148</ele>
        <time>2023-10-31T14:32:45Z</time>
      </trkpt>
      <trkpt lat="43.62774" lon="1.08107">
        <ele>147.8</ele>
        <time>2023-10-31T14:32:52Z</time>
      </trkpt>
      <trkpt lat="43.62779" lon="1.08116">
        <ele>147.8</ele>
        <time>2023-10-31T14:32:53Z</time>
      </trkpt>
      <trkpt lat="43.62814" lon="1.08184">
        <ele>147.8</ele>
        <time>2023-10-31T14:33:01Z</time>
      </trkpt>
      <trkpt lat="43.62822" lon="1.082">
        <ele>148</ele>
        <time>2023-10-31T14:33:03Z</time>
      </trkpt>
      <trkpt lat="43.62857" lon="1.08267">
        <ele>148</ele>
        <time>2023-10-31T14:33:11Z</time>
      </trkpt>
      <trkpt lat="43.62869" lon="1.08292">
        <ele>148</ele>
        <time>2023-10-31T14:33:14Z</time>
      </trkpt>
      <trkpt lat="43.62901" lon="1.08362">
        <ele>148.8</ele>
        <time>2023-10-31T14:33:22Z</time>
      </trkpt>
      <trkpt lat="43.62913" lon="1.08389">
        <ele>149</ele>
        <time>2023-10-31T14:33:25Z</time>
      </trkpt>
      <trkpt lat="43.62941" lon="1.08454">
        <ele>149.4</ele>
        <time>2023-10-31T14:33:32Z</time>
      </trkpt>
      <trkpt lat="43.62946" lon="1.08463">
        <ele>149.4</ele>
        <time>2023-10-31T14:33:33Z</time>
      </trkpt>
      <trkpt lat="43.62977" lon="1.0853">
        <ele>149.4</ele>
        <time>2023-10-31T14:33:40Z</time>
      </trkpt>
      <trkpt lat="43.63016" lon="1.0859">
        <ele>149</ele>
        <time>2023-10-31T14:33:47Z</time>
      </trkpt>
      <trkpt lat="43.63054" lon="1.08648">
        <ele>148.6</ele>
        <time>2023-10-31T14:33:54Z</time>
      </trkpt>
      <trkpt lat="43.63064" lon="1.08663">
        <ele>148.6</ele>
        <time>2023-10-31T14:33:56Z</time>
      </trkpt>
      <trkpt lat="43.63103" lon="1.08721">
        <ele>149</ele>
        <time>2023-10-31T14:34:04Z</time>
      </trkpt>
      <trkpt lat="43.63108" lon="1.08727">
        <ele>149.2</ele>
        <time>2023-10-31T14:34:05Z</time>
      </trkpt>
      <trkpt lat="43.63121" lon="1.08748">
        <ele>150</ele>
        <time>2023-10-31T14:34:08Z</time>
      </trkpt>
      <trkpt lat="43.63147" lon="1.0879">
        <ele>150.4</ele>
        <time>2023-10-31T14:34:14Z</time>
      </trkpt>
      <trkpt lat="43.63164" lon="1.08818">
        <ele>151</ele>
        <time>2023-10-31T14:34:18Z</time>
      </trkpt>
      <trkpt lat="43.63191" lon="1.08868">
        <ele>152.2</ele>
        <time>2023-10-31T14:34:25Z</time>
      </trkpt>
      <trkpt lat="43.63219" lon="1.08928">
        <ele>153.2</ele>
        <time>2023-10-31T14:34:33Z</time>
      </trkpt>
      <trkpt lat="43.63251" lon="1.08992">
        <ele>153.8</ele>
        <time>2023-10-31T14:34:41Z</time>
      </trkpt>
      <trkpt lat="43.63282" lon="1.09057">
        <ele>153</ele>
        <time>2023-10-31T14:34:49Z</time>
      </trkpt>
      <trkpt lat="43.6329" lon="1.09074">
        <ele>152.4</ele>
        <time>2023-10-31T14:34:51Z</time>
      </trkpt>
      <trkpt lat="43.63294" lon="1.09082">
        <ele>152.2</ele>
        <time>2023-10-31T14:34:52Z</time>
      </trkpt>
      <trkpt lat="43.63307" lon="1.09106">
        <ele>151.6</ele>
        <time>2023-10-31T14:34:55Z</time>
      </trkpt>
      <trkpt lat="43.63317" lon="1.09119">
        <ele>151.2</ele>
        <time>2023-10-31T14:34:57Z</time>
      </trkpt>
      <trkpt lat="43.63326" lon="1.09135">
        <ele>151</ele>
        <time>2023-10-31T14:34:59Z</time>
      </trkpt>
      <trkpt lat="43.63336" lon="1.0915">
        <ele>150.8</ele>
        <time>2023-10-31T14:35:01Z</time>
      </trkpt>
      <trkpt lat="43.63343" lon="1.09154">
        <ele>150.8</ele>
        <time>2023-10-31T14:35:02Z</time>
      </trkpt>
      <trkpt lat="43.6335" lon="1.09155">
        <ele>150.6</ele>
        <time>2023-10-31T14:35:03Z</time>
      </trkpt>
      <trkpt lat="43.63364" lon="1.0916">
        <ele>150</ele>
        <time>2023-10-31T14:35:05Z</time>
      </trkpt>
      <trkpt lat="43.63375" lon="1.09173">
        <ele>149.6</ele>
        <time>2023-10-31T14:35:07Z</time>
      </trkpt>
      <trkpt lat="43.6338" lon="1.09179">
        <ele>149.4</ele>
        <time>2023-10-31T14:35:08Z</time>
      </trkpt>
      <trkpt lat="43.63386" lon="1.09184">
        <ele>149.4</ele>
        <time>2023-10-31T14:35:09Z</time>
      </trkpt>
      <trkpt lat="43.634" lon="1.09186">
        <ele>149.2</ele>
        <time>2023-10-31T14:35:11Z</time>
      </trkpt>
      <trkpt lat="43.63407" lon="1.09185">
        <ele>149</ele>
        <time>2023-10-31T14:35:12Z</time>
      </trkpt>
      <trkpt lat="43.63433" lon="1.09173">
        <ele>148.8</ele>
        <time>2023-10-31T14:35:16Z</time>
      </trkpt>
      <trkpt lat="43.63483" lon="1.09145">
        <ele>149.2</ele>
        <time>2023-10-31T14:35:24Z</time>
      </trkpt>
      <trkpt lat="43.63524" lon="1.09118">
        <ele>150</ele>
        <time>2023-10-31T14:35:31Z</time>
      </trkpt>
      <trkpt lat="43.63529" lon="1.09113">
        <ele>150</ele>
        <time>2023-10-31T14:35:32Z</time>
      </trkpt>
      <trkpt lat="43.63555" lon="1.09075">
        <ele>150.8</ele>
        <time>2023-10-31T14:35:38Z</time>
      </trkpt>
      <trkpt lat="43.63567" lon="1.09056">
        <ele>151</ele>
        <time>2023-10-31T14:35:41Z</time>
      </trkpt>
      <trkpt lat="43.63583" lon="1.09032">
        <ele>151.6</ele>
        <time>2023-10-31T14:35:45Z</time>
      </trkpt>
      <trkpt lat="43.63613" lon="1.08985">
        <ele>152</ele>
        <time>2023-10-31T14:35:53Z</time>
      </trkpt>
      <trkpt lat="43.6362" lon="1.08974">
        <ele>152</ele>
        <time>2023-10-31T14:35:55Z</time>
      </trkpt>
      <trkpt lat="43.63654" lon="1.0892">
        <ele>152.2</ele>
        <time>2023-10-31T14:36:04Z</time>
      </trkpt>
      <trkpt lat="43.63689" lon="1.08866">
        <ele>152.2</ele>
        <time>2023-10-31T14:36:13Z</time>
      </trkpt>
      <trkpt lat="43.63725" lon="1.08808">
        <ele>152.6</ele>
        <time>2023-10-31T14:36:23Z</time>
      </trkpt>
      <trkpt lat="43.63754" lon="1.08763">
        <ele>153</ele>
        <time>2023-10-31T14:36:31Z</time>
      </trkpt>
      <trkpt lat="43.63757" lon="1.08759">
        <ele>153.2</ele>
        <time>2023-10-31T14:36:32Z</time>
      </trkpt>
      <trkpt lat="43.63775" lon="1.08729">
        <ele>154.2</ele>
        <time>2023-10-31T14:36:37Z</time>
      </trkpt>
      <trkpt lat="43.63789" lon="1.08708">
        <ele>155</ele>
        <time>2023-10-31T14:36:41Z</time>
      </trkpt>
      <trkpt lat="43.63793" lon="1.08703">
        <ele>155.4</ele>
        <time>2023-10-31T14:36:42Z</time>
      </trkpt>
      <trkpt lat="43.63797" lon="1.08698">
        <ele>155.6</ele>
        <time>2023-10-31T14:36:43Z</time>
      </trkpt>
      <trkpt lat="43.63804" lon="1.08688">
        <ele>156</ele>
        <time>2023-10-31T14:36:45Z</time>
      </trkpt>
      <trkpt lat="43.63813" lon="1.0868">
        <ele>156.2</ele>
        <time>2023-10-31T14:36:47Z</time>
      </trkpt>
      <trkpt lat="43.63824" lon="1.08674">
        <ele>156.4</ele>
        <time>2023-10-31T14:36:49Z</time>
      </trkpt>
      <trkpt lat="43.63847" lon="1.08664">
        <ele>156.6</ele>
        <time>2023-10-31T14:36:53Z</time>
      </trkpt>
      <trkpt lat="43.63897" lon="1.08639">
        <ele>156</ele>
        <time>2023-10-31T14:37:01Z</time>
      </trkpt>
      <trkpt lat="43.63903" lon="1.08634">
        <ele>155.8</ele>
        <time>2023-10-31T14:37:02Z</time>
      </trkpt>
      <trkpt lat="43.6392" lon="1.08617">
        <ele>155.4</ele>
        <time>2023-10-31T14:37:05Z</time>
      </trkpt>
      <trkpt lat="43.63925" lon="1.08611">
        <ele>155.2</ele>
        <time>2023-10-31T14:37:06Z</time>
      </trkpt>
      <trkpt lat="43.63955" lon="1.08562">
        <ele>154.6</ele>
        <time>2023-10-31T14:37:13Z</time>
      </trkpt>
      <trkpt lat="43.63975" lon="1.08526">
        <ele>154.6</ele>
        <time>2023-10-31T14:37:18Z</time>
      </trkpt>
      <trkpt lat="43.63981" lon="1.0852">
        <ele>154.6</ele>
        <time>2023-10-31T14:37:19Z</time>
      </trkpt>
      <trkpt lat="43.63987" lon="1.08515">
        <ele>154.6</ele>
        <time>2023-10-31T14:37:20Z</time>
      </trkpt>
      <trkpt lat="43.63999" lon="1.08511">
        <ele>154.8</ele>
        <time>2023-10-31T14:37:22Z</time>
      </trkpt>
      <trkpt lat="43.64018" lon="1.08513">
        <ele>155</ele>
        <time>2023-10-31T14:37:25Z</time>
      </trkpt>
      <trkpt lat="43.64024" lon="1.08513">
        <ele>155</ele>
        <time>2023-10-31T14:37:26Z</time>
      </trkpt>
      <trkpt lat="43.6403" lon="1.08512">
        <ele>155.2</ele>
        <time>2023-10-31T14:37:27Z</time>
      </trkpt>
      <trkpt lat="43.64051" lon="1.08502">
        <ele>155.4</ele>
        <time>2023-10-31T14:37:31Z</time>
      </trkpt>
      <trkpt lat="43.64075" lon="1.08486">
        <ele>156.2</ele>
        <time>2023-10-31T14:37:37Z</time>
      </trkpt>
      <trkpt lat="43.64078" lon="1.08483">
        <ele>156.4</ele>
        <time>2023-10-31T14:37:38Z</time>
      </trkpt>
      <trkpt lat="43.64096" lon="1.08471">
        <ele>157.6</ele>
        <time>2023-10-31T14:37:43Z</time>
      </trkpt>
      <trkpt lat="43.64099" lon="1.08469">
        <ele>157.8</ele>
        <time>2023-10-31T14:37:44Z</time>
      </trkpt>
      <trkpt lat="43.64111" lon="1.08461">
        <ele>158.8</ele>
        <time>2023-10-31T14:37:48Z</time>
      </trkpt>
      <trkpt lat="43.64121" lon="1.08454">
        <ele>159.8</ele>
        <time>2023-10-31T14:37:51Z</time>
      </trkpt>
      <trkpt lat="43.6413" lon="1.08448">
        <ele>160.4</ele>
        <time>2023-10-31T14:37:54Z</time>
      </trkpt>
      <trkpt lat="43.64135" lon="1.08444">
        <ele>160.8</ele>
        <time>2023-10-31T14:37:56Z</time>
      </trkpt>
      <trkpt lat="43.64152" lon="1.08432">
        <ele>162</ele>
        <time>2023-10-31T14:38:02Z</time>
      </trkpt>
      <trkpt lat="43.64158" lon="1.08428">
        <ele>162.6</ele>
        <time>2023-10-31T14:38:04Z</time>
      </trkpt>
      <trkpt lat="43.64167" lon="1.08422">
        <ele>163.2</ele>
        <time>2023-10-31T14:38:07Z</time>
      </trkpt>
      <trkpt lat="43.64184" lon="1.08411">
        <ele>164.4</ele>
        <time>2023-10-31T14:38:13Z</time>
      </trkpt>
      <trkpt lat="43.64191" lon="1.08405">
        <ele>165.4</ele>
        <time>2023-10-31T14:38:16Z</time>
      </trkpt>
      <trkpt lat="43.64202" lon="1.08397">
        <ele>166.4</ele>
        <time>2023-10-31T14:38:20Z</time>
      </trkpt>
      <trkpt lat="43.6421" lon="1.08391">
        <ele>167.2</ele>
        <time>2023-10-31T14:38:23Z</time>
      </trkpt>
      <trkpt lat="43.64215" lon="1.08387">
        <ele>167.8</ele>
        <time>2023-10-31T14:38:25Z</time>
      </trkpt>
      <trkpt lat="43.64228" lon="1.08377">
        <ele>169</ele>
        <time>2023-10-31T14:38:30Z</time>
      </trkpt>
      <trkpt lat="43.64236" lon="1.08371">
        <ele>169.4</ele>
        <time>2023-10-31T14:38:33Z</time>
      </trkpt>
      <trkpt lat="43.64242" lon="1.08367">
        <ele>170</ele>
        <time>2023-10-31T14:38:35Z</time>
      </trkpt>
      <trkpt lat="43.64254" lon="1.08358">
        <ele>171.2</ele>
        <time>2023-10-31T14:38:39Z</time>
      </trkpt>
      <trkpt lat="43.64259" lon="1.08353">
        <ele>171.8</ele>
        <time>2023-10-31T14:38:41Z</time>
      </trkpt>
      <trkpt lat="43.64264" lon="1.08349">
        <ele>172.2</ele>
        <time>2023-10-31T14:38:43Z</time>
      </trkpt>
      <trkpt lat="43.64277" lon="1.08338">
        <ele>173.6</ele>
        <time>2023-10-31T14:38:48Z</time>
      </trkpt>
      <trkpt lat="43.6429" lon="1.08324">
        <ele>174.6</ele>
        <time>2023-10-31T14:38:53Z</time>
      </trkpt>
      <trkpt lat="43.64295" lon="1.08318">
        <ele>175.2</ele>
        <time>2023-10-31T14:38:55Z</time>
      </trkpt>
      <trkpt lat="43.64302" lon="1.08311">
        <ele>175.8</ele>
        <time>2023-10-31T14:38:58Z</time>
      </trkpt>
      <trkpt lat="43.64314" lon="1.08297">
        <ele>176.8</ele>
        <time>2023-10-31T14:39:03Z</time>
      </trkpt>
      <trkpt lat="43.64326" lon="1.08283">
        <ele>178</ele>
        <time>2023-10-31T14:39:08Z</time>
      </trkpt>
      <trkpt lat="43.64336" lon="1.08273">
        <ele>179.2</ele>
        <time>2023-10-31T14:39:12Z</time>
      </trkpt>
      <trkpt lat="43.64345" lon="1.08263">
        <ele>180.4</ele>
        <time>2023-10-31T14:39:16Z</time>
      </trkpt>
      <trkpt lat="43.64358" lon="1.08253">
        <ele>181.4</ele>
        <time>2023-10-31T14:39:21Z</time>
      </trkpt>
      <trkpt lat="43.64361" lon="1.08251">
        <ele>181.6</ele>
        <time>2023-10-31T14:39:22Z</time>
      </trkpt>
      <trkpt lat="43.64371" lon="1.08245">
        <ele>182.6</ele>
        <time>2023-10-31T14:39:26Z</time>
      </trkpt>
      <trkpt lat="43.64382" lon="1.0824">
        <ele>184</ele>
        <time>2023-10-31T14:39:30Z</time>
      </trkpt>
      <trkpt lat="43.64387" lon="1.08238">
        <ele>184.6</ele>
        <time>2023-10-31T14:39:32Z</time>
      </trkpt>
      <trkpt lat="43.64398" lon="1.08233">
        <ele>185.4</ele>
        <time>2023-10-31T14:39:36Z</time>
      </trkpt>
      <trkpt lat="43.64411" lon="1.08228">
        <ele>186.6</ele>
        <time>2023-10-31T14:39:41Z</time>
      </trkpt>
      <trkpt lat="43.64423" lon="1.08224">
        <ele>187.8</ele>
        <time>2023-10-31T14:39:45Z</time>
      </trkpt>
      <trkpt lat="43.64436" lon="1.08218">
        <ele>189</ele>
        <time>2023-10-31T14:39:50Z</time>
      </trkpt>
      <trkpt lat="43.64439" lon="1.08217">
        <ele>189.4</ele>
        <time>2023-10-31T14:39:51Z</time>
      </trkpt>
      <trkpt lat="43.64445" lon="1.08215">
        <ele>190.2</ele>
        <time>2023-10-31T14:39:53Z</time>
      </trkpt>
      <trkpt lat="43.64456" lon="1.0821">
        <ele>191.4</ele>
        <time>2023-10-31T14:39:57Z</time>
      </trkpt>
      <trkpt lat="43.64462" lon="1.08208">
        <ele>192.2</ele>
        <time>2023-10-31T14:39:59Z</time>
      </trkpt>
      <trkpt lat="43.64465" lon="1.08207">
        <ele>192.6</ele>
        <time>2023-10-31T14:40:00Z</time>
      </trkpt>
      <trkpt lat="43.64481" lon="1.08201">
        <ele>193.8</ele>
        <time>2023-10-31T14:40:05Z</time>
      </trkpt>
      <trkpt lat="43.64498" lon="1.08197">
        <ele>194.6</ele>
        <time>2023-10-31T14:40:09Z</time>
      </trkpt>
      <trkpt lat="43.64502" lon="1.08197">
        <ele>194.8</ele>
        <time>2023-10-31T14:40:10Z</time>
      </trkpt>
      <trkpt lat="43.64529" lon="1.08199">
        <ele>195.2</ele>
        <time>2023-10-31T14:40:16Z</time>
      </trkpt>
      <trkpt lat="43.64568" lon="1.08206">
        <ele>195.6</ele>
        <time>2023-10-31T14:40:24Z</time>
      </trkpt>
      <trkpt lat="43.64587" lon="1.0821">
        <ele>195.8</ele>
        <time>2023-10-31T14:40:28Z</time>
      </trkpt>
      <trkpt lat="43.64613" lon="1.08216">
        <ele>197</ele>
        <time>2023-10-31T14:40:34Z</time>
      </trkpt>
      <trkpt lat="43.64618" lon="1.08216">
        <ele>197</ele>
        <time>2023-10-31T14:40:35Z</time>
      </trkpt>
      <trkpt lat="43.64642" lon="1.0822">
        <ele>197.6</ele>
        <time>2023-10-31T14:40:41Z</time>
      </trkpt>
      <trkpt lat="43.64646" lon="1.08219">
        <ele>197.8</ele>
        <time>2023-10-31T14:40:42Z</time>
      </trkpt>
      <trkpt lat="43.64649" lon="1.08218">
        <ele>197.8</ele>
        <time>2023-10-31T14:40:43Z</time>
      </trkpt>
      <trkpt lat="43.64656" lon="1.08214">
        <ele>198.2</ele>
        <time>2023-10-31T14:40:45Z</time>
      </trkpt>
      <trkpt lat="43.64663" lon="1.08208">
        <ele>198.6</ele>
        <time>2023-10-31T14:40:47Z</time>
      </trkpt>
      <trkpt lat="43.6467" lon="1.08197">
        <ele>199.6</ele>
        <time>2023-10-31T14:40:50Z</time>
      </trkpt>
      <trkpt lat="43.64676" lon="1.08187">
        <ele>200.2</ele>
        <time>2023-10-31T14:40:53Z</time>
      </trkpt>
      <trkpt lat="43.6468" lon="1.08179">
        <ele>200.6</ele>
        <time>2023-10-31T14:40:55Z</time>
      </trkpt>
      <trkpt lat="43.6469" lon="1.0816">
        <ele>202</ele>
        <time>2023-10-31T14:41:00Z</time>
      </trkpt>
      <trkpt lat="43.647" lon="1.08141">
        <ele>203</ele>
        <time>2023-10-31T14:41:05Z</time>
      </trkpt>
      <trkpt lat="43.64706" lon="1.0813">
        <ele>203.8</ele>
        <time>2023-10-31T14:41:08Z</time>
      </trkpt>
      <trkpt lat="43.64708" lon="1.08127">
        <ele>204.2</ele>
        <time>2023-10-31T14:41:09Z</time>
      </trkpt>
      <trkpt lat="43.64717" lon="1.08113">
        <ele>205.4</ele>
        <time>2023-10-31T14:41:13Z</time>
      </trkpt>
      <trkpt lat="43.64728" lon="1.08097">
        <ele>206.4</ele>
        <time>2023-10-31T14:41:18Z</time>
      </trkpt>
      <trkpt lat="43.64744" lon="1.08072">
        <ele>207.8</ele>
        <time>2023-10-31T14:41:25Z</time>
      </trkpt>
      <trkpt lat="43.64747" lon="1.08068">
        <ele>208</ele>
        <time>2023-10-31T14:41:26Z</time>
      </trkpt>
      <trkpt lat="43.64754" lon="1.08058">
        <ele>209</ele>
        <time>2023-10-31T14:41:29Z</time>
      </trkpt>
      <trkpt lat="43.64761" lon="1.08047">
        <ele>210</ele>
        <time>2023-10-31T14:41:32Z</time>
      </trkpt>
      <trkpt lat="43.64769" lon="1.08037">
        <ele>210.8</ele>
        <time>2023-10-31T14:41:35Z</time>
      </trkpt>
      <trkpt lat="43.64771" lon="1.08034">
        <ele>211.2</ele>
        <time>2023-10-31T14:41:36Z</time>
      </trkpt>
      <trkpt lat="43.64783" lon="1.08015">
        <ele>212.2</ele>
        <time>2023-10-31T14:41:41Z</time>
      </trkpt>
      <trkpt lat="43.64788" lon="1.08007">
        <ele>212.6</ele>
        <time>2023-10-31T14:41:43Z</time>
      </trkpt>
      <trkpt lat="43.64799" lon="1.07991">
        <ele>213.4</ele>
        <time>2023-10-31T14:41:47Z</time>
      </trkpt>
      <trkpt lat="43.64811" lon="1.07974">
        <ele>213.8</ele>
        <time>2023-10-31T14:41:51Z</time>
      </trkpt>
      <trkpt lat="43.64839" lon="1.07935">
        <ele>214.2</ele>
        <time>2023-10-31T14:41:59Z</time>
      </trkpt>
      <trkpt lat="43.6487" lon="1.07893">
        <ele>213.6</ele>
        <time>2023-10-31T14:42:06Z</time>
      </trkpt>
      <trkpt lat="43.64896" lon="1.0786">
        <ele>212</ele>
        <time>2023-10-31T14:42:11Z</time>
      </trkpt>
      <trkpt lat="43.64903" lon="1.07854">
        <ele>212</ele>
        <time>2023-10-31T14:42:12Z</time>
      </trkpt>
      <trkpt lat="43.64909" lon="1.07849">
        <ele>211.8</ele>
        <time>2023-10-31T14:42:13Z</time>
      </trkpt>
      <trkpt lat="43.64925" lon="1.0784">
        <ele>211.6</ele>
        <time>2023-10-31T14:42:15Z</time>
      </trkpt>
      <trkpt lat="43.64934" lon="1.07838">
        <ele>211</ele>
        <time>2023-10-31T14:42:16Z</time>
      </trkpt>
      <trkpt lat="43.64944" lon="1.07837">
        <ele>210.8</ele>
        <time>2023-10-31T14:42:17Z</time>
      </trkpt>
      <trkpt lat="43.64962" lon="1.07841">
        <ele>210.2</ele>
        <time>2023-10-31T14:42:19Z</time>
      </trkpt>
      <trkpt lat="43.64971" lon="1.07846">
        <ele>209.2</ele>
        <time>2023-10-31T14:42:20Z</time>
      </trkpt>
      <trkpt lat="43.64986" lon="1.07858">
        <ele>208</ele>
        <time>2023-10-31T14:42:22Z</time>
      </trkpt>
      <trkpt lat="43.64993" lon="1.07865">
        <ele>207.6</ele>
        <time>2023-10-31T14:42:23Z</time>
      </trkpt>
      <trkpt lat="43.65005" lon="1.07878">
        <ele>207</ele>
        <time>2023-10-31T14:42:25Z</time>
      </trkpt>
      <trkpt lat="43.65028" lon="1.07904">
        <ele>206.6</ele>
        <time>2023-10-31T14:42:29Z</time>
      </trkpt>
      <trkpt lat="43.65067" lon="1.07943">
        <ele>207.6</ele>
        <time>2023-10-31T14:42:36Z</time>
      </trkpt>
      <trkpt lat="43.65078" lon="1.07953">
        <ele>207.8</ele>
        <time>2023-10-31T14:42:38Z</time>
      </trkpt>
      <trkpt lat="43.65084" lon="1.07957">
        <ele>208</ele>
        <time>2023-10-31T14:42:39Z</time>
      </trkpt>
      <trkpt lat="43.65104" lon="1.07971">
        <ele>208</ele>
        <time>2023-10-31T14:42:42Z</time>
      </trkpt>
      <trkpt lat="43.65159" lon="1.0801">
        <ele>208.2</ele>
        <time>2023-10-31T14:42:50Z</time>
      </trkpt>
      <trkpt lat="43.65172" lon="1.08019">
        <ele>208.2</ele>
        <time>2023-10-31T14:42:52Z</time>
      </trkpt>
      <trkpt lat="43.65222" lon="1.08055">
        <ele>208.4</ele>
        <time>2023-10-31T14:43:00Z</time>
      </trkpt>
      <trkpt lat="43.65227" lon="1.08058">
        <ele>208.6</ele>
        <time>2023-10-31T14:43:01Z</time>
      </trkpt>
      <trkpt lat="43.65272" lon="1.08088">
        <ele>208.6</ele>
        <time>2023-10-31T14:43:08Z</time>
      </trkpt>
      <trkpt lat="43.6532" lon="1.08118">
        <ele>207.2</ele>
        <time>2023-10-31T14:43:14Z</time>
      </trkpt>
      <trkpt lat="43.65328" lon="1.08124">
        <ele>206.4</ele>
        <time>2023-10-31T14:43:15Z</time>
      </trkpt>
      <trkpt lat="43.65355" lon="1.08141">
        <ele>205</ele>
        <time>2023-10-31T14:43:18Z</time>
      </trkpt>
      <trkpt lat="43.65382" lon="1.08159">
        <ele>203.8</ele>
        <time>2023-10-31T14:43:21Z</time>
      </trkpt>
      <trkpt lat="43.65391" lon="1.08165">
        <ele>203</ele>
        <time>2023-10-31T14:43:22Z</time>
      </trkpt>
      <trkpt lat="43.65401" lon="1.0817">
        <ele>202.6</ele>
        <time>2023-10-31T14:43:23Z</time>
      </trkpt>
      <trkpt lat="43.6541" lon="1.08173">
        <ele>201.8</ele>
        <time>2023-10-31T14:43:24Z</time>
      </trkpt>
      <trkpt lat="43.6542" lon="1.08175">
        <ele>201.4</ele>
        <time>2023-10-31T14:43:25Z</time>
      </trkpt>
      <trkpt lat="43.6543" lon="1.08176">
        <ele>201.4</ele>
        <time>2023-10-31T14:43:26Z</time>
      </trkpt>
      <trkpt lat="43.65449" lon="1.08175">
        <ele>200</ele>
        <time>2023-10-31T14:43:28Z</time>
      </trkpt>
      <trkpt lat="43.65485" lon="1.08169">
        <ele>198.4</ele>
        <time>2023-10-31T14:43:32Z</time>
      </trkpt>
      <trkpt lat="43.65501" lon="1.08167">
        <ele>197.4</ele>
        <time>2023-10-31T14:43:34Z</time>
      </trkpt>
      <trkpt lat="43.6552" lon="1.08167">
        <ele>196.8</ele>
        <time>2023-10-31T14:43:36Z</time>
      </trkpt>
      <trkpt lat="43.65529" lon="1.08168">
        <ele>196.8</ele>
        <time>2023-10-31T14:43:37Z</time>
      </trkpt>
      <trkpt lat="43.65537" lon="1.08172">
        <ele>196.6</ele>
        <time>2023-10-31T14:43:38Z</time>
      </trkpt>
      <trkpt lat="43.65543" lon="1.08178">
        <ele>196.4</ele>
        <time>2023-10-31T14:43:39Z</time>
      </trkpt>
      <trkpt lat="43.65549" lon="1.08185">
        <ele>196.2</ele>
        <time>2023-10-31T14:43:40Z</time>
      </trkpt>
      <trkpt lat="43.65573" lon="1.08224">
        <ele>195.6</ele>
        <time>2023-10-31T14:43:44Z</time>
      </trkpt>
      <trkpt lat="43.65579" lon="1.08234">
        <ele>195.2</ele>
        <time>2023-10-31T14:43:45Z</time>
      </trkpt>
      <trkpt lat="43.65592" lon="1.08255">
        <ele>194</ele>
        <time>2023-10-31T14:43:47Z</time>
      </trkpt>
      <trkpt lat="43.65612" lon="1.08288">
        <ele>192.8</ele>
        <time>2023-10-31T14:43:50Z</time>
      </trkpt>
      <trkpt lat="43.65633" lon="1.08323">
        <ele>191.2</ele>
        <time>2023-10-31T14:43:53Z</time>
      </trkpt>
      <trkpt lat="43.65648" lon="1.08347">
        <ele>189.4</ele>
        <time>2023-10-31T14:43:55Z</time>
      </trkpt>
      <trkpt lat="43.65656" lon="1.08359">
        <ele>189</ele>
        <time>2023-10-31T14:43:56Z</time>
      </trkpt>
      <trkpt lat="43.65664" lon="1.08372">
        <ele>187.8</ele>
        <time>2023-10-31T14:43:57Z</time>
      </trkpt>
      <trkpt lat="43.6568" lon="1.08397">
        <ele>185.8</ele>
        <time>2023-10-31T14:43:59Z</time>
      </trkpt>
      <trkpt lat="43.65697" lon="1.08422">
        <ele>184.2</ele>
        <time>2023-10-31T14:44:01Z</time>
      </trkpt>
      <trkpt lat="43.65719" lon="1.08436">
        <ele>182.4</ele>
        <time>2023-10-31T14:44:03Z</time>
      </trkpt>
      <trkpt lat="43.65731" lon="1.08439">
        <ele>180.4</ele>
        <time>2023-10-31T14:44:04Z</time>
      </trkpt>
      <trkpt lat="43.65743" lon="1.08442">
        <ele>179.6</ele>
        <time>2023-10-31T14:44:05Z</time>
      </trkpt>
      <trkpt lat="43.65755" lon="1.08444">
        <ele>178</ele>
        <time>2023-10-31T14:44:06Z</time>
      </trkpt>
      <trkpt lat="43.65778" lon="1.0845">
        <ele>176.8</ele>
        <time>2023-10-31T14:44:08Z</time>
      </trkpt>
      <trkpt lat="43.65787" lon="1.08452">
        <ele>176.2</ele>
        <time>2023-10-31T14:44:09Z</time>
      </trkpt>
      <trkpt lat="43.65798" lon="1.08455">
        <ele>175</ele>
        <time>2023-10-31T14:44:10Z</time>
      </trkpt>
      <trkpt lat="43.65822" lon="1.08461">
        <ele>173.8</ele>
        <time>2023-10-31T14:44:12Z</time>
      </trkpt>
      <trkpt lat="43.65842" lon="1.08469">
        <ele>173.2</ele>
        <time>2023-10-31T14:44:14Z</time>
      </trkpt>
      <trkpt lat="43.65852" lon="1.08475">
        <ele>172.8</ele>
        <time>2023-10-31T14:44:15Z</time>
      </trkpt>
      <trkpt lat="43.6586" lon="1.08483">
        <ele>172.6</ele>
        <time>2023-10-31T14:44:16Z</time>
      </trkpt>
      <trkpt lat="43.65875" lon="1.08502">
        <ele>171.4</ele>
        <time>2023-10-31T14:44:18Z</time>
      </trkpt>
      <trkpt lat="43.65899" lon="1.08536">
        <ele>170</ele>
        <time>2023-10-31T14:44:22Z</time>
      </trkpt>
      <trkpt lat="43.65905" lon="1.08544">
        <ele>170</ele>
        <time>2023-10-31T14:44:23Z</time>
      </trkpt>
      <trkpt lat="43.6594" lon="1.0859">
        <ele>169.6</ele>
        <time>2023-10-31T14:44:29Z</time>
      </trkpt>
      <trkpt lat="43.65963" lon="1.08621">
        <ele>170.8</ele>
        <time>2023-10-31T14:44:34Z</time>
      </trkpt>
      <trkpt lat="43.65972" lon="1.08632">
        <ele>171.4</ele>
        <time>2023-10-31T14:44:36Z</time>
      </trkpt>
      <trkpt lat="43.6598" lon="1.08642">
        <ele>172.4</ele>
        <time>2023-10-31T14:44:38Z</time>
      </trkpt>
      <trkpt lat="43.65992" lon="1.08656">
        <ele>173.6</ele>
        <time>2023-10-31T14:44:41Z</time>
      </trkpt>
      <trkpt lat="43.66008" lon="1.08675">
        <ele>174.6</ele>
        <time>2023-10-31T14:44:45Z</time>
      </trkpt>
      <trkpt lat="43.66022" lon="1.08691">
        <ele>175.2</ele>
        <time>2023-10-31T14:44:48Z</time>
      </trkpt>
      <trkpt lat="43.66032" lon="1.08703">
        <ele>175.4</ele>
        <time>2023-10-31T14:44:50Z</time>
      </trkpt>
      <trkpt lat="43.66043" lon="1.08718">
        <ele>175.4</ele>
        <time>2023-10-31T14:44:52Z</time>
      </trkpt>
      <trkpt lat="43.66082" lon="1.08766">
        <ele>174.4</ele>
        <time>2023-10-31T14:44:59Z</time>
      </trkpt>
      <trkpt lat="43.66106" lon="1.08795">
        <ele>173.4</ele>
        <time>2023-10-31T14:45:03Z</time>
      </trkpt>
      <trkpt lat="43.66124" lon="1.08818">
        <ele>173</ele>
        <time>2023-10-31T14:45:06Z</time>
      </trkpt>
      <trkpt lat="43.6615" lon="1.08849">
        <ele>171.8</ele>
        <time>2023-10-31T14:45:10Z</time>
      </trkpt>
      <trkpt lat="43.66164" lon="1.08866">
        <ele>170.6</ele>
        <time>2023-10-31T14:45:12Z</time>
      </trkpt>
      <trkpt lat="43.66176" lon="1.08881">
        <ele>169.6</ele>
        <time>2023-10-31T14:45:14Z</time>
      </trkpt>
      <trkpt lat="43.66185" lon="1.08891">
        <ele>169.2</ele>
        <time>2023-10-31T14:45:15Z</time>
      </trkpt>
      <trkpt lat="43.66207" lon="1.08918">
        <ele>168</ele>
        <time>2023-10-31T14:45:18Z</time>
      </trkpt>
      <trkpt lat="43.66222" lon="1.08936">
        <ele>166.4</ele>
        <time>2023-10-31T14:45:20Z</time>
      </trkpt>
      <trkpt lat="43.66236" lon="1.08954">
        <ele>165.6</ele>
        <time>2023-10-31T14:45:22Z</time>
      </trkpt>
      <trkpt lat="43.66251" lon="1.08972">
        <ele>164.8</ele>
        <time>2023-10-31T14:45:24Z</time>
      </trkpt>
      <trkpt lat="43.66266" lon="1.0899">
        <ele>163.6</ele>
        <time>2023-10-31T14:45:26Z</time>
      </trkpt>
      <trkpt lat="43.6629" lon="1.09017">
        <ele>162</ele>
        <time>2023-10-31T14:45:29Z</time>
      </trkpt>
      <trkpt lat="43.66299" lon="1.09025">
        <ele>161.6</ele>
        <time>2023-10-31T14:45:30Z</time>
      </trkpt>
      <trkpt lat="43.66308" lon="1.09031">
        <ele>161</ele>
        <time>2023-10-31T14:45:31Z</time>
      </trkpt>
      <trkpt lat="43.66328" lon="1.09037">
        <ele>159.8</ele>
        <time>2023-10-31T14:45:33Z</time>
      </trkpt>
      <trkpt lat="43.66346" lon="1.09037">
        <ele>158.6</ele>
        <time>2023-10-31T14:45:35Z</time>
      </trkpt>
      <trkpt lat="43.66367" lon="1.09036">
        <ele>157.4</ele>
        <time>2023-10-31T14:45:37Z</time>
      </trkpt>
      <trkpt lat="43.66376" lon="1.09035">
        <ele>157</ele>
        <time>2023-10-31T14:45:38Z</time>
      </trkpt>
      <trkpt lat="43.66393" lon="1.09034">
        <ele>156.8</ele>
        <time>2023-10-31T14:45:40Z</time>
      </trkpt>
      <trkpt lat="43.66408" lon="1.09036">
        <ele>156.6</ele>
        <time>2023-10-31T14:45:42Z</time>
      </trkpt>
      <trkpt lat="43.66416" lon="1.09035">
        <ele>156.4</ele>
        <time>2023-10-31T14:45:43Z</time>
      </trkpt>
      <trkpt lat="43.66424" lon="1.09033">
        <ele>156.4</ele>
        <time>2023-10-31T14:45:44Z</time>
      </trkpt>
      <trkpt lat="43.66431" lon="1.0903">
        <ele>156.4</ele>
        <time>2023-10-31T14:45:45Z</time>
      </trkpt>
      <trkpt lat="43.66454" lon="1.09009">
        <ele>156.4</ele>
        <time>2023-10-31T14:45:49Z</time>
      </trkpt>
      <trkpt lat="43.66466" lon="1.09">
        <ele>156.6</ele>
        <time>2023-10-31T14:45:51Z</time>
      </trkpt>
      <trkpt lat="43.66477" lon="1.08996">
        <ele>156.8</ele>
        <time>2023-10-31T14:45:53Z</time>
      </trkpt>
      <trkpt lat="43.66494" lon="1.08992">
        <ele>157.6</ele>
        <time>2023-10-31T14:45:56Z</time>
      </trkpt>
      <trkpt lat="43.66503" lon="1.08991">
        <ele>158.2</ele>
        <time>2023-10-31T14:45:58Z</time>
      </trkpt>
      <trkpt lat="43.66507" lon="1.0899">
        <ele>158.6</ele>
        <time>2023-10-31T14:45:59Z</time>
      </trkpt>
      <trkpt lat="43.66522" lon="1.08992">
        <ele>160.4</ele>
        <time>2023-10-31T14:46:03Z</time>
      </trkpt>
      <trkpt lat="43.66525" lon="1.08994">
        <ele>160.8</ele>
        <time>2023-10-31T14:46:04Z</time>
      </trkpt>
      <trkpt lat="43.66528" lon="1.08996">
        <ele>161.6</ele>
        <time>2023-10-31T14:46:05Z</time>
      </trkpt>
      <trkpt lat="43.66536" lon="1.09003">
        <ele>163.2</ele>
        <time>2023-10-31T14:46:08Z</time>
      </trkpt>
      <trkpt lat="43.66541" lon="1.09014">
        <ele>164.4</ele>
        <time>2023-10-31T14:46:11Z</time>
      </trkpt>
      <trkpt lat="43.66543" lon="1.09023">
        <ele>165.2</ele>
        <time>2023-10-31T14:46:13Z</time>
      </trkpt>
      <trkpt lat="43.66544" lon="1.09027">
        <ele>165.8</ele>
        <time>2023-10-31T14:46:14Z</time>
      </trkpt>
      <trkpt lat="43.66545" lon="1.09047">
        <ele>166.8</ele>
        <time>2023-10-31T14:46:18Z</time>
      </trkpt>
      <trkpt lat="43.66555" lon="1.09074">
        <ele>167.6</ele>
        <time>2023-10-31T14:46:23Z</time>
      </trkpt>
      <trkpt lat="43.66572" lon="1.09106">
        <ele>167.4</ele>
        <time>2023-10-31T14:46:28Z</time>
      </trkpt>
      <trkpt lat="43.66599" lon="1.0915">
        <ele>166.2</ele>
        <time>2023-10-31T14:46:33Z</time>
      </trkpt>
      <trkpt lat="43.66613" lon="1.0917">
        <ele>165.4</ele>
        <time>2023-10-31T14:46:35Z</time>
      </trkpt>
      <trkpt lat="43.66626" lon="1.09192">
        <ele>164</ele>
        <time>2023-10-31T14:46:37Z</time>
      </trkpt>
      <trkpt lat="43.66633" lon="1.09203">
        <ele>162.8</ele>
        <time>2023-10-31T14:46:38Z</time>
      </trkpt>
      <trkpt lat="43.66645" lon="1.09222">
        <ele>161.2</ele>
        <time>2023-10-31T14:46:40Z</time>
      </trkpt>
      <trkpt lat="43.66659" lon="1.09245">
        <ele>160</ele>
        <time>2023-10-31T14:46:42Z</time>
      </trkpt>
      <trkpt lat="43.66671" lon="1.09262">
        <ele>158.6</ele>
        <time>2023-10-31T14:46:44Z</time>
      </trkpt>
      <trkpt lat="43.66686" lon="1.0928">
        <ele>158</ele>
        <time>2023-10-31T14:46:46Z</time>
      </trkpt>
      <trkpt lat="43.66693" lon="1.09287">
        <ele>157.6</ele>
        <time>2023-10-31T14:46:47Z</time>
      </trkpt>
      <trkpt lat="43.66718" lon="1.09311">
        <ele>156.8</ele>
        <time>2023-10-31T14:46:51Z</time>
      </trkpt>
      <trkpt lat="43.66729" lon="1.09319">
        <ele>156.8</ele>
        <time>2023-10-31T14:46:53Z</time>
      </trkpt>
      <trkpt lat="43.66743" lon="1.09324">
        <ele>156.6</ele>
        <time>2023-10-31T14:46:55Z</time>
      </trkpt>
      <trkpt lat="43.66766" lon="1.09338">
        <ele>156.6</ele>
        <time>2023-10-31T14:46:59Z</time>
      </trkpt>
      <trkpt lat="43.66771" lon="1.09342">
        <ele>156.6</ele>
        <time>2023-10-31T14:47:00Z</time>
      </trkpt>
      <trkpt lat="43.66789" lon="1.09362">
        <ele>157</ele>
        <time>2023-10-31T14:47:05Z</time>
      </trkpt>
      <trkpt lat="43.66801" lon="1.09376">
        <ele>157.8</ele>
        <time>2023-10-31T14:47:09Z</time>
      </trkpt>
      <trkpt lat="43.66806" lon="1.0938">
        <ele>158.4</ele>
        <time>2023-10-31T14:47:11Z</time>
      </trkpt>
      <trkpt lat="43.66813" lon="1.09385">
        <ele>159</ele>
        <time>2023-10-31T14:47:13Z</time>
      </trkpt>
      <trkpt lat="43.66821" lon="1.09392">
        <ele>160</ele>
        <time>2023-10-31T14:47:16Z</time>
      </trkpt>
      <trkpt lat="43.66823" lon="1.09393">
        <ele>160.6</ele>
        <time>2023-10-31T14:47:17Z</time>
      </trkpt>
      <trkpt lat="43.66829" lon="1.09396">
        <ele>161.6</ele>
        <time>2023-10-31T14:47:19Z</time>
      </trkpt>
      <trkpt lat="43.6684" lon="1.09401">
        <ele>162.6</ele>
        <time>2023-10-31T14:47:23Z</time>
      </trkpt>
      <trkpt lat="43.66843" lon="1.09402">
        <ele>162.8</ele>
        <time>2023-10-31T14:47:24Z</time>
      </trkpt>
      <trkpt lat="43.66851" lon="1.09406">
        <ele>163.8</ele>
        <time>2023-10-31T14:47:27Z</time>
      </trkpt>
      <trkpt lat="43.6686" lon="1.09411">
        <ele>164.8</ele>
        <time>2023-10-31T14:47:31Z</time>
      </trkpt>
      <trkpt lat="43.66868" lon="1.09415">
        <ele>165.8</ele>
        <time>2023-10-31T14:47:34Z</time>
      </trkpt>
      <trkpt lat="43.66876" lon="1.09422">
        <ele>167</ele>
        <time>2023-10-31T14:47:38Z</time>
      </trkpt>
      <trkpt lat="43.66881" lon="1.09426">
        <ele>167.4</ele>
        <time>2023-10-31T14:47:40Z</time>
      </trkpt>
      <trkpt lat="43.66885" lon="1.09431">
        <ele>168</ele>
        <time>2023-10-31T14:47:42Z</time>
      </trkpt>
      <trkpt lat="43.66892" lon="1.09435">
        <ele>168.6</ele>
        <time>2023-10-31T14:47:45Z</time>
      </trkpt>
      <trkpt lat="43.66901" lon="1.09443">
        <ele>169.4</ele>
        <time>2023-10-31T14:47:49Z</time>
      </trkpt>
      <trkpt lat="43.66908" lon="1.0945">
        <ele>169.8</ele>
        <time>2023-10-31T14:47:52Z</time>
      </trkpt>
      <trkpt lat="43.66915" lon="1.09456">
        <ele>170.6</ele>
        <time>2023-10-31T14:47:55Z</time>
      </trkpt>
      <trkpt lat="43.66928" lon="1.09469">
        <ele>171.8</ele>
        <time>2023-10-31T14:48:00Z</time>
      </trkpt>
      <trkpt lat="43.66931" lon="1.09471">
        <ele>171.8</ele>
        <time>2023-10-31T14:48:01Z</time>
      </trkpt>
      <trkpt lat="43.66957" lon="1.09494">
        <ele>172.8</ele>
        <time>2023-10-31T14:48:09Z</time>
      </trkpt>
      <trkpt lat="43.66968" lon="1.09502">
        <ele>173.4</ele>
        <time>2023-10-31T14:48:12Z</time>
      </trkpt>
      <trkpt lat="43.66992" lon="1.09522">
        <ele>174</ele>
        <time>2023-10-31T14:48:19Z</time>
      </trkpt>
      <trkpt lat="43.66999" lon="1.09528">
        <ele>174.2</ele>
        <time>2023-10-31T14:48:21Z</time>
      </trkpt>
      <trkpt lat="43.67015" lon="1.0954">
        <ele>175</ele>
        <time>2023-10-31T14:48:26Z</time>
      </trkpt>
      <trkpt lat="43.67026" lon="1.0955">
        <ele>176</ele>
        <time>2023-10-31T14:48:30Z</time>
      </trkpt>
      <trkpt lat="43.67041" lon="1.09562">
        <ele>177.2</ele>
        <time>2023-10-31T14:48:35Z</time>
      </trkpt>
      <trkpt lat="43.67053" lon="1.09573">
        <ele>177.6</ele>
        <time>2023-10-31T14:48:38Z</time>
      </trkpt>
      <trkpt lat="43.6708" lon="1.09603">
        <ele>177.4</ele>
        <time>2023-10-31T14:48:43Z</time>
      </trkpt>
      <trkpt lat="43.67105" lon="1.09633">
        <ele>176</ele>
        <time>2023-10-31T14:48:47Z</time>
      </trkpt>
      <trkpt lat="43.67121" lon="1.0965">
        <ele>175</ele>
        <time>2023-10-31T14:48:49Z</time>
      </trkpt>
      <trkpt lat="43.67127" lon="1.09658">
        <ele>174.6</ele>
        <time>2023-10-31T14:48:50Z</time>
      </trkpt>
      <trkpt lat="43.67147" lon="1.09679">
        <ele>173</ele>
        <time>2023-10-31T14:48:53Z</time>
      </trkpt>
      <trkpt lat="43.67158" lon="1.09702">
        <ele>172.6</ele>
        <time>2023-10-31T14:48:54Z</time>
      </trkpt>
      <trkpt lat="43.67163" lon="1.09715">
        <ele>172</ele>
        <time>2023-10-31T14:48:56Z</time>
      </trkpt>
      <trkpt lat="43.67163" lon="1.09722">
        <ele>171.8</ele>
        <time>2023-10-31T14:48:57Z</time>
      </trkpt>
      <trkpt lat="43.67164" lon="1.09728">
        <ele>171.8</ele>
        <time>2023-10-31T14:48:58Z</time>
      </trkpt>
      <trkpt lat="43.67165" lon="1.09776">
        <ele>171.8</ele>
        <time>2023-10-31T14:49:02Z</time>
      </trkpt>
      <trkpt lat="43.67172" lon="1.09827">
        <ele>172.4</ele>
        <time>2023-10-31T14:49:09Z</time>
      </trkpt>
      <trkpt lat="43.67177" lon="1.09855">
        <ele>172.6</ele>
        <time>2023-10-31T14:49:11Z</time>
      </trkpt>
      <trkpt lat="43.67178" lon="1.09872">
        <ele>173.2</ele>
        <time>2023-10-31T14:49:13Z</time>
      </trkpt>
      <trkpt lat="43.67177" lon="1.09881">
        <ele>173.6</ele>
        <time>2023-10-31T14:49:14Z</time>
      </trkpt>
      <trkpt lat="43.67174" lon="1.09896">
        <ele>174</ele>
        <time>2023-10-31T14:49:16Z</time>
      </trkpt>
      <trkpt lat="43.6717" lon="1.09911">
        <ele>174.4</ele>
        <time>2023-10-31T14:49:18Z</time>
      </trkpt>
      <trkpt lat="43.67168" lon="1.09918">
        <ele>174.6</ele>
        <time>2023-10-31T14:49:19Z</time>
      </trkpt>
      <trkpt lat="43.67159" lon="1.09944">
        <ele>175.4</ele>
        <time>2023-10-31T14:49:23Z</time>
      </trkpt>
      <trkpt lat="43.67154" lon="1.09958">
        <ele>176</ele>
        <time>2023-10-31T14:49:25Z</time>
      </trkpt>
      <trkpt lat="43.67151" lon="1.09968">
        <ele>176.6</ele>
        <time>2023-10-31T14:49:28Z</time>
      </trkpt>
      <trkpt lat="43.67145" lon="1.09987">
        <ele>177.6</ele>
        <time>2023-10-31T14:49:30Z</time>
      </trkpt>
      <trkpt lat="43.67142" lon="1.09996">
        <ele>178.6</ele>
        <time>2023-10-31T14:49:32Z</time>
      </trkpt>
      <trkpt lat="43.67142" lon="1.09996">
        <ele>179</ele>
        <time>2023-10-31T14:49:33Z</time>
      </trkpt>
      <trkpt lat="43.67135" lon="1.10019">
        <ele>180.2</ele>
        <time>2023-10-31T14:49:36Z</time>
      </trkpt>
      <trkpt lat="43.67132" lon="1.10028">
        <ele>181</ele>
        <time>2023-10-31T14:49:38Z</time>
      </trkpt>
      <trkpt lat="43.6713" lon="1.10035">
        <ele>181.6</ele>
        <time>2023-10-31T14:49:39Z</time>
      </trkpt>
      <trkpt lat="43.67127" lon="1.10045">
        <ele>182.4</ele>
        <time>2023-10-31T14:49:41Z</time>
      </trkpt>
      <trkpt lat="43.67123" lon="1.10056">
        <ele>182.8</ele>
        <time>2023-10-31T14:49:43Z</time>
      </trkpt>
      <trkpt lat="43.6712" lon="1.10066">
        <ele>183.4</ele>
        <time>2023-10-31T14:49:45Z</time>
      </trkpt>
      <trkpt lat="43.67118" lon="1.1007">
        <ele>183.8</ele>
        <time>2023-10-31T14:49:46Z</time>
      </trkpt>
      <trkpt lat="43.67113" lon="1.10086">
        <ele>184.8</ele>
        <time>2023-10-31T14:49:49Z</time>
      </trkpt>
      <trkpt lat="43.67113" lon="1.10086">
        <ele>185</ele>
        <time>2023-10-31T14:49:50Z</time>
      </trkpt>
      <trkpt lat="43.67106" lon="1.10111">
        <ele>186.2</ele>
        <time>2023-10-31T14:49:54Z</time>
      </trkpt>
      <trkpt lat="43.67098" lon="1.10134">
        <ele>187.6</ele>
        <time>2023-10-31T14:49:59Z</time>
      </trkpt>
      <trkpt lat="43.67097" lon="1.10138">
        <ele>188</ele>
        <time>2023-10-31T14:50:00Z</time>
      </trkpt>
      <trkpt lat="43.67093" lon="1.10147">
        <ele>188.8</ele>
        <time>2023-10-31T14:50:02Z</time>
      </trkpt>
      <trkpt lat="43.67089" lon="1.10159">
        <ele>189.8</ele>
        <time>2023-10-31T14:50:05Z</time>
      </trkpt>
      <trkpt lat="43.67086" lon="1.10168">
        <ele>190.2</ele>
        <time>2023-10-31T14:50:07Z</time>
      </trkpt>
      <trkpt lat="43.67082" lon="1.10175">
        <ele>191</ele>
        <time>2023-10-31T14:50:10Z</time>
      </trkpt>
      <trkpt lat="43.67077" lon="1.10194">
        <ele>192.2</ele>
        <time>2023-10-31T14:50:13Z</time>
      </trkpt>
      <trkpt lat="43.67076" lon="1.10198">
        <ele>192.4</ele>
        <time>2023-10-31T14:50:14Z</time>
      </trkpt>
      <trkpt lat="43.67073" lon="1.10221">
        <ele>192.6</ele>
        <time>2023-10-31T14:50:18Z</time>
      </trkpt>
      <trkpt lat="43.67073" lon="1.10239">
        <ele>192.8</ele>
        <time>2023-10-31T14:50:20Z</time>
      </trkpt>
      <trkpt lat="43.67076" lon="1.10257">
        <ele>192.4</ele>
        <time>2023-10-31T14:50:22Z</time>
      </trkpt>
      <trkpt lat="43.67094" lon="1.10314">
        <ele>191.2</ele>
        <time>2023-10-31T14:50:27Z</time>
      </trkpt>
      <trkpt lat="43.67105" lon="1.10341">
        <ele>189.6</ele>
        <time>2023-10-31T14:50:29Z</time>
      </trkpt>
      <trkpt lat="43.67114" lon="1.10371">
        <ele>187.8</ele>
        <time>2023-10-31T14:50:31Z</time>
      </trkpt>
      <trkpt lat="43.67118" lon="1.10384">
        <ele>186.6</ele>
        <time>2023-10-31T14:50:32Z</time>
      </trkpt>
      <trkpt lat="43.67126" lon="1.10415">
        <ele>184.2</ele>
        <time>2023-10-31T14:50:34Z</time>
      </trkpt>
      <trkpt lat="43.67134" lon="1.10449">
        <ele>182.2</ele>
        <time>2023-10-31T14:50:36Z</time>
      </trkpt>
      <trkpt lat="43.67137" lon="1.1046">
        <ele>181.2</ele>
        <time>2023-10-31T14:50:37Z</time>
      </trkpt>
      <trkpt lat="43.6714" lon="1.10474">
        <ele>180.2</ele>
        <time>2023-10-31T14:50:38Z</time>
      </trkpt>
      <trkpt lat="43.67147" lon="1.10502">
        <ele>178.8</ele>
        <time>2023-10-31T14:50:40Z</time>
      </trkpt>
      <trkpt lat="43.6715" lon="1.10512">
        <ele>178.2</ele>
        <time>2023-10-31T14:50:41Z</time>
      </trkpt>
      <trkpt lat="43.67153" lon="1.10523">
        <ele>177.6</ele>
        <time>2023-10-31T14:50:43Z</time>
      </trkpt>
      <trkpt lat="43.67162" lon="1.10562">
        <ele>177.8</ele>
        <time>2023-10-31T14:50:46Z</time>
      </trkpt>
      <trkpt lat="43.67173" lon="1.10602">
        <ele>179.2</ele>
        <time>2023-10-31T14:50:52Z</time>
      </trkpt>
      <trkpt lat="43.6718" lon="1.10631">
        <ele>180</ele>
        <time>2023-10-31T14:50:55Z</time>
      </trkpt>
      <trkpt lat="43.67181" lon="1.10637">
        <ele>180</ele>
        <time>2023-10-31T14:50:56Z</time>
      </trkpt>
      <trkpt lat="43.67184" lon="1.10649">
        <ele>180.4</ele>
        <time>2023-10-31T14:50:58Z</time>
      </trkpt>
      <trkpt lat="43.67186" lon="1.10655">
        <ele>181</ele>
        <time>2023-10-31T14:51:00Z</time>
      </trkpt>
      <trkpt lat="43.67189" lon="1.10665">
        <ele>181.4</ele>
        <time>2023-10-31T14:51:01Z</time>
      </trkpt>
      <trkpt lat="43.67191" lon="1.10672">
        <ele>182.2</ele>
        <time>2023-10-31T14:51:02Z</time>
      </trkpt>
      <trkpt lat="43.67195" lon="1.1069">
        <ele>183.2</ele>
        <time>2023-10-31T14:51:05Z</time>
      </trkpt>
      <trkpt lat="43.67202" lon="1.10719">
        <ele>184.2</ele>
        <time>2023-10-31T14:51:11Z</time>
      </trkpt>
      <trkpt lat="43.67205" lon="1.10739">
        <ele>184.4</ele>
        <time>2023-10-31T14:51:13Z</time>
      </trkpt>
      <trkpt lat="43.67205" lon="1.10744">
        <ele>184.4</ele>
        <time>2023-10-31T14:51:14Z</time>
      </trkpt>
      <trkpt lat="43.67207" lon="1.10766">
        <ele>185.4</ele>
        <time>2023-10-31T14:51:18Z</time>
      </trkpt>
      <trkpt lat="43.67207" lon="1.1078">
        <ele>186.4</ele>
        <time>2023-10-31T14:51:21Z</time>
      </trkpt>
      <trkpt lat="43.67207" lon="1.10787">
        <ele>186.6</ele>
        <time>2023-10-31T14:51:22Z</time>
      </trkpt>
      <trkpt lat="43.67209" lon="1.10809">
        <ele>187.6</ele>
        <time>2023-10-31T14:51:26Z</time>
      </trkpt>
      <trkpt lat="43.67209" lon="1.10814">
        <ele>187.8</ele>
        <time>2023-10-31T14:51:27Z</time>
      </trkpt>
      <trkpt lat="43.67211" lon="1.10825">
        <ele>188.6</ele>
        <time>2023-10-31T14:51:30Z</time>
      </trkpt>
      <trkpt lat="43.67213" lon="1.10836">
        <ele>189</ele>
        <time>2023-10-31T14:51:31Z</time>
      </trkpt>
      <trkpt lat="43.67217" lon="1.10852">
        <ele>189.8</ele>
        <time>2023-10-31T14:51:34Z</time>
      </trkpt>
      <trkpt lat="43.67222" lon="1.1087">
        <ele>191</ele>
        <time>2023-10-31T14:51:38Z</time>
      </trkpt>
      <trkpt lat="43.67224" lon="1.10875">
        <ele>191.2</ele>
        <time>2023-10-31T14:51:39Z</time>
      </trkpt>
      <trkpt lat="43.67229" lon="1.10889">
        <ele>192</ele>
        <time>2023-10-31T14:51:42Z</time>
      </trkpt>
      <trkpt lat="43.67238" lon="1.10907">
        <ele>193.2</ele>
        <time>2023-10-31T14:51:46Z</time>
      </trkpt>
      <trkpt lat="43.6724" lon="1.10911">
        <ele>193.4</ele>
        <time>2023-10-31T14:51:47Z</time>
      </trkpt>
      <trkpt lat="43.67248" lon="1.10928">
        <ele>194.2</ele>
        <time>2023-10-31T14:51:51Z</time>
      </trkpt>
      <trkpt lat="43.67256" lon="1.10944">
        <ele>195.4</ele>
        <time>2023-10-31T14:51:55Z</time>
      </trkpt>
      <trkpt lat="43.67258" lon="1.10949">
        <ele>195.6</ele>
        <time>2023-10-31T14:51:56Z</time>
      </trkpt>
      <trkpt lat="43.67262" lon="1.1096">
        <ele>196.4</ele>
        <time>2023-10-31T14:51:59Z</time>
      </trkpt>
      <trkpt lat="43.67264" lon="1.10969">
        <ele>197</ele>
        <time>2023-10-31T14:52:01Z</time>
      </trkpt>
      <trkpt lat="43.67267" lon="1.10982">
        <ele>197.6</ele>
        <time>2023-10-31T14:52:04Z</time>
      </trkpt>
      <trkpt lat="43.67269" lon="1.10993">
        <ele>198.6</ele>
        <time>2023-10-31T14:52:08Z</time>
      </trkpt>
      <trkpt lat="43.67268" lon="1.11001">
        <ele>198.8</ele>
        <time>2023-10-31T14:52:09Z</time>
      </trkpt>
      <trkpt lat="43.67268" lon="1.11006">
        <ele>199.6</ele>
        <time>2023-10-31T14:52:11Z</time>
      </trkpt>
      <trkpt lat="43.67269" lon="1.1103">
        <ele>200.2</ele>
        <time>2023-10-31T14:52:16Z</time>
      </trkpt>
      <trkpt lat="43.67269" lon="1.11034">
        <ele>200.8</ele>
        <time>2023-10-31T14:52:17Z</time>
      </trkpt>
      <trkpt lat="43.6727" lon="1.11051">
        <ele>201.8</ele>
        <time>2023-10-31T14:52:22Z</time>
      </trkpt>
      <trkpt lat="43.67272" lon="1.1107">
        <ele>202.4</ele>
        <time>2023-10-31T14:52:26Z</time>
      </trkpt>
      <trkpt lat="43.67273" lon="1.11082">
        <ele>203</ele>
        <time>2023-10-31T14:52:29Z</time>
      </trkpt>
      <trkpt lat="43.67276" lon="1.11106">
        <ele>204</ele>
        <time>2023-10-31T14:52:35Z</time>
      </trkpt>
      <trkpt lat="43.67276" lon="1.11106">
        <ele>204.4</ele>
        <time>2023-10-31T14:52:36Z</time>
      </trkpt>
      <trkpt lat="43.6728" lon="1.1113">
        <ele>205.4</ele>
        <time>2023-10-31T14:52:42Z</time>
      </trkpt>
      <trkpt lat="43.67281" lon="1.11134">
        <ele>205.6</ele>
        <time>2023-10-31T14:52:43Z</time>
      </trkpt>
      <trkpt lat="43.67284" lon="1.11147">
        <ele>206.6</ele>
        <time>2023-10-31T14:52:47Z</time>
      </trkpt>
      <trkpt lat="43.67288" lon="1.11159">
        <ele>207.4</ele>
        <time>2023-10-31T14:52:51Z</time>
      </trkpt>
      <trkpt lat="43.67289" lon="1.11162">
        <ele>207.6</ele>
        <time>2023-10-31T14:52:52Z</time>
      </trkpt>
      <trkpt lat="43.67294" lon="1.11185">
        <ele>208.8</ele>
        <time>2023-10-31T14:52:58Z</time>
      </trkpt>
      <trkpt lat="43.67295" lon="1.11204">
        <ele>210</ele>
        <time>2023-10-31T14:53:03Z</time>
      </trkpt>
      <trkpt lat="43.67294" lon="1.11212">
        <ele>210.2</ele>
        <time>2023-10-31T14:53:05Z</time>
      </trkpt>
      <trkpt lat="43.67292" lon="1.11235">
        <ele>211</ele>
        <time>2023-10-31T14:53:11Z</time>
      </trkpt>
      <trkpt lat="43.67291" lon="1.1125">
        <ele>211.8</ele>
        <time>2023-10-31T14:53:15Z</time>
      </trkpt>
      <trkpt lat="43.6729" lon="1.11257">
        <ele>212.2</ele>
        <time>2023-10-31T14:53:17Z</time>
      </trkpt>
      <trkpt lat="43.67287" lon="1.11283">
        <ele>213.4</ele>
        <time>2023-10-31T14:53:24Z</time>
      </trkpt>
      <trkpt lat="43.67285" lon="1.11302">
        <ele>214.4</ele>
        <time>2023-10-31T14:53:29Z</time>
      </trkpt>
      <trkpt lat="43.67284" lon="1.11319">
        <ele>215.2</ele>
        <time>2023-10-31T14:53:34Z</time>
      </trkpt>
      <trkpt lat="43.67283" lon="1.11322">
        <ele>215.6</ele>
        <time>2023-10-31T14:53:35Z</time>
      </trkpt>
      <trkpt lat="43.67282" lon="1.11338">
        <ele>216.6</ele>
        <time>2023-10-31T14:53:39Z</time>
      </trkpt>
      <trkpt lat="43.67281" lon="1.11352">
        <ele>217.6</ele>
        <time>2023-10-31T14:53:43Z</time>
      </trkpt>
      <trkpt lat="43.6728" lon="1.11356">
        <ele>217.6</ele>
        <time>2023-10-31T14:53:44Z</time>
      </trkpt>
      <trkpt lat="43.67278" lon="1.11373">
        <ele>219</ele>
        <time>2023-10-31T14:53:49Z</time>
      </trkpt>
      <trkpt lat="43.67277" lon="1.11383">
        <ele>220</ele>
        <time>2023-10-31T14:53:52Z</time>
      </trkpt>
      <trkpt lat="43.67275" lon="1.11399">
        <ele>221.2</ele>
        <time>2023-10-31T14:53:57Z</time>
      </trkpt>
      <trkpt lat="43.67274" lon="1.11406">
        <ele>221.8</ele>
        <time>2023-10-31T14:53:59Z</time>
      </trkpt>
      <trkpt lat="43.67274" lon="1.11415">
        <ele>222.4</ele>
        <time>2023-10-31T14:54:02Z</time>
      </trkpt>
      <trkpt lat="43.67272" lon="1.11428">
        <ele>223.8</ele>
        <time>2023-10-31T14:54:06Z</time>
      </trkpt>
      <trkpt lat="43.67272" lon="1.11435">
        <ele>224.2</ele>
        <time>2023-10-31T14:54:08Z</time>
      </trkpt>
      <trkpt lat="43.67271" lon="1.11441">
        <ele>224.8</ele>
        <time>2023-10-31T14:54:10Z</time>
      </trkpt>
      <trkpt lat="43.6727" lon="1.11454">
        <ele>225.8</ele>
        <time>2023-10-31T14:54:14Z</time>
      </trkpt>
      <trkpt lat="43.6727" lon="1.11464">
        <ele>226.6</ele>
        <time>2023-10-31T14:54:17Z</time>
      </trkpt>
      <trkpt lat="43.67271" lon="1.1147">
        <ele>227.2</ele>
        <time>2023-10-31T14:54:19Z</time>
      </trkpt>
      <trkpt lat="43.67277" lon="1.11476">
        <ele>228</ele>
        <time>2023-10-31T14:54:22Z</time>
      </trkpt>
      <trkpt lat="43.67283" lon="1.11478">
        <ele>228.6</ele>
        <time>2023-10-31T14:54:24Z</time>
      </trkpt>
      <trkpt lat="43.67293" lon="1.11482">
        <ele>229.4</ele>
        <time>2023-10-31T14:54:27Z</time>
      </trkpt>
      <trkpt lat="43.67296" lon="1.11483">
        <ele>229.6</ele>
        <time>2023-10-31T14:54:28Z</time>
      </trkpt>
      <trkpt lat="43.67321" lon="1.1149">
        <ele>230.6</ele>
        <time>2023-10-31T14:54:35Z</time>
      </trkpt>
      <trkpt lat="43.6733" lon="1.11493">
        <ele>230.8</ele>
        <time>2023-10-31T14:54:37Z</time>
      </trkpt>
      <trkpt lat="43.67351" lon="1.11499">
        <ele>231.2</ele>
        <time>2023-10-31T14:54:43Z</time>
      </trkpt>
      <trkpt lat="43.67369" lon="1.11506">
        <ele>231.8</ele>
        <time>2023-10-31T14:54:49Z</time>
      </trkpt>
      <trkpt lat="43.67373" lon="1.11511">
        <ele>232.6</ele>
        <time>2023-10-31T14:54:51Z</time>
      </trkpt>
      <trkpt lat="43.67375" lon="1.11514">
        <ele>233</ele>
        <time>2023-10-31T14:54:52Z</time>
      </trkpt>
      <trkpt lat="43.67377" lon="1.1153">
        <ele>233.6</ele>
        <time>2023-10-31T14:54:56Z</time>
      </trkpt>
      <trkpt lat="43.67377" lon="1.11545">
        <ele>234.2</ele>
        <time>2023-10-31T14:54:59Z</time>
      </trkpt>
      <trkpt lat="43.67377" lon="1.11556">
        <ele>234.6</ele>
        <time>2023-10-31T14:55:01Z</time>
      </trkpt>
      <trkpt lat="43.67381" lon="1.11593">
        <ele>234.8</ele>
        <time>2023-10-31T14:55:07Z</time>
      </trkpt>
      <trkpt lat="43.67383" lon="1.11626">
        <ele>235.2</ele>
        <time>2023-10-31T14:55:12Z</time>
      </trkpt>
      <trkpt lat="43.67383" lon="1.11638">
        <ele>235.4</ele>
        <time>2023-10-31T14:55:14Z</time>
      </trkpt>
      <trkpt lat="43.67381" lon="1.11676">
        <ele>236</ele>
        <time>2023-10-31T14:55:20Z</time>
      </trkpt>
      <trkpt lat="43.6738" lon="1.11681">
        <ele>236.4</ele>
        <time>2023-10-31T14:55:21Z</time>
      </trkpt>
      <trkpt lat="43.67379" lon="1.11687">
        <ele>236.4</ele>
        <time>2023-10-31T14:55:22Z</time>
      </trkpt>
      <trkpt lat="43.67372" lon="1.11717">
        <ele>237.4</ele>
        <time>2023-10-31T14:55:28Z</time>
      </trkpt>
      <trkpt lat="43.67368" lon="1.11727">
        <ele>238</ele>
        <time>2023-10-31T14:55:30Z</time>
      </trkpt>
      <trkpt lat="43.67365" lon="1.11736">
        <ele>238.8</ele>
        <time>2023-10-31T14:55:32Z</time>
      </trkpt>
      <trkpt lat="43.67359" lon="1.11756">
        <ele>239.8</ele>
        <time>2023-10-31T14:55:37Z</time>
      </trkpt>
      <trkpt lat="43.67355" lon="1.11773">
        <ele>240.4</ele>
        <time>2023-10-31T14:55:39Z</time>
      </trkpt>
      <trkpt lat="43.6735" lon="1.1179">
        <ele>241</ele>
        <time>2023-10-31T14:55:42Z</time>
      </trkpt>
      <trkpt lat="43.67339" lon="1.11837">
        <ele>242</ele>
        <time>2023-10-31T14:55:50Z</time>
      </trkpt>
      <trkpt lat="43.67323" lon="1.11884">
        <ele>243.2</ele>
        <time>2023-10-31T14:55:58Z</time>
      </trkpt>
      <trkpt lat="43.67319" lon="1.11894">
        <ele>243.4</ele>
        <time>2023-10-31T14:56:00Z</time>
      </trkpt>
      <trkpt lat="43.67309" lon="1.11923">
        <ele>244.4</ele>
        <time>2023-10-31T14:56:05Z</time>
      </trkpt>
      <trkpt lat="43.67296" lon="1.11969">
        <ele>245.4</ele>
        <time>2023-10-31T14:56:12Z</time>
      </trkpt>
      <trkpt lat="43.67294" lon="1.11975">
        <ele>245.4</ele>
        <time>2023-10-31T14:56:13Z</time>
      </trkpt>
      <trkpt lat="43.67286" lon="1.12014">
        <ele>246.6</ele>
        <time>2023-10-31T14:56:19Z</time>
      </trkpt>
      <trkpt lat="43.67284" lon="1.1203">
        <ele>246.8</ele>
        <time>2023-10-31T14:56:21Z</time>
      </trkpt>
      <trkpt lat="43.67281" lon="1.12066">
        <ele>247.6</ele>
        <time>2023-10-31T14:56:26Z</time>
      </trkpt>
      <trkpt lat="43.67279" lon="1.12097">
        <ele>247.8</ele>
        <time>2023-10-31T14:56:30Z</time>
      </trkpt>
      <trkpt lat="43.67272" lon="1.1215">
        <ele>248.6</ele>
        <time>2023-10-31T14:56:37Z</time>
      </trkpt>
      <trkpt lat="43.67268" lon="1.12181">
        <ele>249</ele>
        <time>2023-10-31T14:56:41Z</time>
      </trkpt>
      <trkpt lat="43.67265" lon="1.12213">
        <ele>249.6</ele>
        <time>2023-10-31T14:56:45Z</time>
      </trkpt>
      <trkpt lat="43.67265" lon="1.12236">
        <ele>250.2</ele>
        <time>2023-10-31T14:56:48Z</time>
      </trkpt>
      <trkpt lat="43.67269" lon="1.1228">
        <ele>250.4</ele>
        <time>2023-10-31T14:56:53Z</time>
      </trkpt>
      <trkpt lat="43.67273" lon="1.12297">
        <ele>250.6</ele>
        <time>2023-10-31T14:56:55Z</time>
      </trkpt>
      <trkpt lat="43.67287" lon="1.12348">
        <ele>250.8</ele>
        <time>2023-10-31T14:57:01Z</time>
      </trkpt>
      <trkpt lat="43.673" lon="1.12392">
        <ele>251</ele>
        <time>2023-10-31T14:57:06Z</time>
      </trkpt>
      <trkpt lat="43.67302" lon="1.12401">
        <ele>251</ele>
        <time>2023-10-31T14:57:07Z</time>
      </trkpt>
      <trkpt lat="43.67303" lon="1.12424">
        <ele>251</ele>
        <time>2023-10-31T14:57:09Z</time>
      </trkpt>
      <trkpt lat="43.67301" lon="1.12443">
        <ele>250.8</ele>
        <time>2023-10-31T14:57:11Z</time>
      </trkpt>
      <trkpt lat="43.67297" lon="1.12462">
        <ele>250.8</ele>
        <time>2023-10-31T14:57:13Z</time>
      </trkpt>
      <trkpt lat="43.6729" lon="1.1248">
        <ele>250.8</ele>
        <time>2023-10-31T14:57:15Z</time>
      </trkpt>
      <trkpt lat="43.67276" lon="1.1252">
        <ele>250.8</ele>
        <time>2023-10-31T14:57:20Z</time>
      </trkpt>
      <trkpt lat="43.67273" lon="1.12541">
        <ele>251.6</ele>
        <time>2023-10-31T14:57:23Z</time>
      </trkpt>
      <trkpt lat="43.67274" lon="1.12549">
        <ele>252</ele>
        <time>2023-10-31T14:57:24Z</time>
      </trkpt>
      <trkpt lat="43.67274" lon="1.12556">
        <ele>252.2</ele>
        <time>2023-10-31T14:57:25Z</time>
      </trkpt>
      <trkpt lat="43.67275" lon="1.12578">
        <ele>253</ele>
        <time>2023-10-31T14:57:28Z</time>
      </trkpt>
      <trkpt lat="43.67275" lon="1.12585">
        <ele>253.2</ele>
        <time>2023-10-31T14:57:29Z</time>
      </trkpt>
      <trkpt lat="43.67278" lon="1.12601">
        <ele>253.8</ele>
        <time>2023-10-31T14:57:31Z</time>
      </trkpt>
      <trkpt lat="43.6728" lon="1.1261">
        <ele>254</ele>
        <time>2023-10-31T14:57:32Z</time>
      </trkpt>
      <trkpt lat="43.67282" lon="1.12619">
        <ele>254</ele>
        <time>2023-10-31T14:57:33Z</time>
      </trkpt>
      <trkpt lat="43.67289" lon="1.12645">
        <ele>254.2</ele>
        <time>2023-10-31T14:57:37Z</time>
      </trkpt>
      <trkpt lat="43.67307" lon="1.12711">
        <ele>253.8</ele>
        <time>2023-10-31T14:57:44Z</time>
      </trkpt>
      <trkpt lat="43.67329" lon="1.12784">
        <ele>253.4</ele>
        <time>2023-10-31T14:57:53Z</time>
      </trkpt>
      <trkpt lat="43.67337" lon="1.12816">
        <ele>253.4</ele>
        <time>2023-10-31T14:57:57Z</time>
      </trkpt>
      <trkpt lat="43.67341" lon="1.12842">
        <ele>253.4</ele>
        <time>2023-10-31T14:58:00Z</time>
      </trkpt>
      <trkpt lat="43.6734" lon="1.1287">
        <ele>253.2</ele>
        <time>2023-10-31T14:58:03Z</time>
      </trkpt>
      <trkpt lat="43.67337" lon="1.12886">
        <ele>253.4</ele>
        <time>2023-10-31T14:58:05Z</time>
      </trkpt>
      <trkpt lat="43.67316" lon="1.12944">
        <ele>253.6</ele>
        <time>2023-10-31T14:58:12Z</time>
      </trkpt>
      <trkpt lat="43.67304" lon="1.12975">
        <ele>253</ele>
        <time>2023-10-31T14:58:16Z</time>
      </trkpt>
      <trkpt lat="43.67299" lon="1.1299">
        <ele>252.8</ele>
        <time>2023-10-31T14:58:18Z</time>
      </trkpt>
      <trkpt lat="43.67295" lon="1.13005">
        <ele>253.2</ele>
        <time>2023-10-31T14:58:20Z</time>
      </trkpt>
      <trkpt lat="43.67291" lon="1.13019">
        <ele>253.6</ele>
        <time>2023-10-31T14:58:22Z</time>
      </trkpt>
      <trkpt lat="43.67288" lon="1.13049">
        <ele>254.2</ele>
        <time>2023-10-31T14:58:26Z</time>
      </trkpt>
      <trkpt lat="43.67288" lon="1.13056">
        <ele>254.4</ele>
        <time>2023-10-31T14:58:27Z</time>
      </trkpt>
      <trkpt lat="43.67289" lon="1.13065">
        <ele>254.8</ele>
        <time>2023-10-31T14:58:28Z</time>
      </trkpt>
      <trkpt lat="43.67292" lon="1.13084">
        <ele>255.2</ele>
        <time>2023-10-31T14:58:31Z</time>
      </trkpt>
      <trkpt lat="43.67294" lon="1.13093">
        <ele>255.6</ele>
        <time>2023-10-31T14:58:32Z</time>
      </trkpt>
      <trkpt lat="43.67307" lon="1.13137">
        <ele>256.6</ele>
        <time>2023-10-31T14:58:38Z</time>
      </trkpt>
      <trkpt lat="43.67312" lon="1.13152">
        <ele>256.8</ele>
        <time>2023-10-31T14:58:40Z</time>
      </trkpt>
      <trkpt lat="43.67324" lon="1.13194">
        <ele>257.2</ele>
        <time>2023-10-31T14:58:45Z</time>
      </trkpt>
      <trkpt lat="43.67326" lon="1.13203">
        <ele>257.2</ele>
        <time>2023-10-31T14:58:46Z</time>
      </trkpt>
      <trkpt lat="43.67328" lon="1.13224">
        <ele>257.2</ele>
        <time>2023-10-31T14:58:48Z</time>
      </trkpt>
      <trkpt lat="43.67327" lon="1.13235">
        <ele>257.2</ele>
        <time>2023-10-31T14:58:49Z</time>
      </trkpt>
      <trkpt lat="43.67325" lon="1.13246">
        <ele>257.2</ele>
        <time>2023-10-31T14:58:50Z</time>
      </trkpt>
      <trkpt lat="43.67317" lon="1.13268">
        <ele>257.2</ele>
        <time>2023-10-31T14:58:52Z</time>
      </trkpt>
      <trkpt lat="43.67297" lon="1.13296">
        <ele>255.4</ele>
        <time>2023-10-31T14:58:55Z</time>
      </trkpt>
      <trkpt lat="43.67289" lon="1.13304">
        <ele>255</ele>
        <time>2023-10-31T14:58:56Z</time>
      </trkpt>
      <trkpt lat="43.67274" lon="1.13322">
        <ele>254</ele>
        <time>2023-10-31T14:58:58Z</time>
      </trkpt>
      <trkpt lat="43.6726" lon="1.13341">
        <ele>253</ele>
        <time>2023-10-31T14:59:00Z</time>
      </trkpt>
      <trkpt lat="43.67239" lon="1.13373">
        <ele>251.4</ele>
        <time>2023-10-31T14:59:03Z</time>
      </trkpt>
      <trkpt lat="43.67226" lon="1.13399">
        <ele>250.2</ele>
        <time>2023-10-31T14:59:05Z</time>
      </trkpt>
      <trkpt lat="43.67218" lon="1.13423">
        <ele>249.6</ele>
        <time>2023-10-31T14:59:07Z</time>
      </trkpt>
      <trkpt lat="43.67211" lon="1.13453">
        <ele>248.8</ele>
        <time>2023-10-31T14:59:09Z</time>
      </trkpt>
      <trkpt lat="43.672" lon="1.13504">
        <ele>247.6</ele>
        <time>2023-10-31T14:59:13Z</time>
      </trkpt>
      <trkpt lat="43.67198" lon="1.13516">
        <ele>247.2</ele>
        <time>2023-10-31T14:59:14Z</time>
      </trkpt>
      <trkpt lat="43.67191" lon="1.13547">
        <ele>246.6</ele>
        <time>2023-10-31T14:59:17Z</time>
      </trkpt>
      <trkpt lat="43.67181" lon="1.13576">
        <ele>246.6</ele>
        <time>2023-10-31T14:59:20Z</time>
      </trkpt>
      <trkpt lat="43.67163" lon="1.13621">
        <ele>247.8</ele>
        <time>2023-10-31T14:59:26Z</time>
      </trkpt>
      <trkpt lat="43.67155" lon="1.13641">
        <ele>248.8</ele>
        <time>2023-10-31T14:59:29Z</time>
      </trkpt>
      <trkpt lat="43.67149" lon="1.13662">
        <ele>250</ele>
        <time>2023-10-31T14:59:32Z</time>
      </trkpt>
      <trkpt lat="43.67147" lon="1.13682">
        <ele>251.4</ele>
        <time>2023-10-31T14:59:35Z</time>
      </trkpt>
      <trkpt lat="43.67147" lon="1.137">
        <ele>252</ele>
        <time>2023-10-31T14:59:38Z</time>
      </trkpt>
      <trkpt lat="43.67147" lon="1.13714">
        <ele>252.6</ele>
        <time>2023-10-31T14:59:40Z</time>
      </trkpt>
      <trkpt lat="43.67149" lon="1.1372">
        <ele>252.8</ele>
        <time>2023-10-31T14:59:41Z</time>
      </trkpt>
      <trkpt lat="43.67151" lon="1.13732">
        <ele>253</ele>
        <time>2023-10-31T14:59:43Z</time>
      </trkpt>
      <trkpt lat="43.67155" lon="1.13743">
        <ele>253.4</ele>
        <time>2023-10-31T14:59:45Z</time>
      </trkpt>
      <trkpt lat="43.67157" lon="1.13749">
        <ele>253.6</ele>
        <time>2023-10-31T14:59:46Z</time>
      </trkpt>
      <trkpt lat="43.67165" lon="1.13765">
        <ele>254.6</ele>
        <time>2023-10-31T14:59:49Z</time>
      </trkpt>
      <trkpt lat="43.67167" lon="1.1377">
        <ele>254.8</ele>
        <time>2023-10-31T14:59:50Z</time>
      </trkpt>
      <trkpt lat="43.67185" lon="1.13803">
        <ele>256</ele>
        <time>2023-10-31T14:59:56Z</time>
      </trkpt>
      <trkpt lat="43.67194" lon="1.13827">
        <ele>257</ele>
        <time>2023-10-31T15:00:00Z</time>
      </trkpt>
      <trkpt lat="43.67202" lon="1.13852">
        <ele>258.2</ele>
        <time>2023-10-31T15:00:04Z</time>
      </trkpt>
      <trkpt lat="43.67203" lon="1.13858">
        <ele>258.4</ele>
        <time>2023-10-31T15:00:05Z</time>
      </trkpt>
      <trkpt lat="43.6721" lon="1.13918">
        <ele>259.2</ele>
        <time>2023-10-31T15:00:14Z</time>
      </trkpt>
      <trkpt lat="43.67208" lon="1.13932">
        <ele>259.2</ele>
        <time>2023-10-31T15:00:16Z</time>
      </trkpt>
      <trkpt lat="43.67205" lon="1.13958">
        <ele>259</ele>
        <time>2023-10-31T15:00:19Z</time>
      </trkpt>
      <trkpt lat="43.67195" lon="1.14012">
        <ele>257.8</ele>
        <time>2023-10-31T15:00:24Z</time>
      </trkpt>
      <trkpt lat="43.67193" lon="1.14022">
        <ele>257.2</ele>
        <time>2023-10-31T15:00:25Z</time>
      </trkpt>
      <trkpt lat="43.67181" lon="1.1407">
        <ele>255.8</ele>
        <time>2023-10-31T15:00:29Z</time>
      </trkpt>
      <trkpt lat="43.67179" lon="1.14083">
        <ele>255.2</ele>
        <time>2023-10-31T15:00:30Z</time>
      </trkpt>
      <trkpt lat="43.67178" lon="1.14099">
        <ele>254.6</ele>
        <time>2023-10-31T15:00:31Z</time>
      </trkpt>
      <trkpt lat="43.67178" lon="1.14112">
        <ele>253.6</ele>
        <time>2023-10-31T15:00:32Z</time>
      </trkpt>
      <trkpt lat="43.67181" lon="1.14135">
        <ele>252.4</ele>
        <time>2023-10-31T15:00:34Z</time>
      </trkpt>
      <trkpt lat="43.67187" lon="1.14175">
        <ele>251.4</ele>
        <time>2023-10-31T15:00:37Z</time>
      </trkpt>
      <trkpt lat="43.67195" lon="1.14212">
        <ele>250.4</ele>
        <time>2023-10-31T15:00:40Z</time>
      </trkpt>
      <trkpt lat="43.67203" lon="1.14243">
        <ele>249.8</ele>
        <time>2023-10-31T15:00:43Z</time>
      </trkpt>
      <trkpt lat="43.67222" lon="1.14307">
        <ele>249.6</ele>
        <time>2023-10-31T15:00:49Z</time>
      </trkpt>
      <trkpt lat="43.67243" lon="1.14382">
        <ele>249.6</ele>
        <time>2023-10-31T15:00:56Z</time>
      </trkpt>
      <trkpt lat="43.67257" lon="1.14435">
        <ele>249.4</ele>
        <time>2023-10-31T15:01:01Z</time>
      </trkpt>
      <trkpt lat="43.67266" lon="1.14474">
        <ele>248.8</ele>
        <time>2023-10-31T15:01:04Z</time>
      </trkpt>
      <trkpt lat="43.6727" lon="1.14511">
        <ele>248.4</ele>
        <time>2023-10-31T15:01:07Z</time>
      </trkpt>
      <trkpt lat="43.6727" lon="1.14527">
        <ele>248.2</ele>
        <time>2023-10-31T15:01:08Z</time>
      </trkpt>
      <trkpt lat="43.67268" lon="1.14552">
        <ele>247.2</ele>
        <time>2023-10-31T15:01:10Z</time>
      </trkpt>
      <trkpt lat="43.67266" lon="1.14566">
        <ele>246.4</ele>
        <time>2023-10-31T15:01:12Z</time>
      </trkpt>
      <trkpt lat="43.67259" lon="1.14583">
        <ele>246</ele>
        <time>2023-10-31T15:01:13Z</time>
      </trkpt>
      <trkpt lat="43.67246" lon="1.14617">
        <ele>244.8</ele>
        <time>2023-10-31T15:01:15Z</time>
      </trkpt>
      <trkpt lat="43.67231" lon="1.14642">
        <ele>243.6</ele>
        <time>2023-10-31T15:01:17Z</time>
      </trkpt>
      <trkpt lat="43.67219" lon="1.14662">
        <ele>242.4</ele>
        <time>2023-10-31T15:01:19Z</time>
      </trkpt>
      <trkpt lat="43.67212" lon="1.14673">
        <ele>242</ele>
        <time>2023-10-31T15:01:20Z</time>
      </trkpt>
      <trkpt lat="43.67205" lon="1.14684">
        <ele>241.4</ele>
        <time>2023-10-31T15:01:21Z</time>
      </trkpt>
      <trkpt lat="43.67191" lon="1.14711">
        <ele>240</ele>
        <time>2023-10-31T15:01:23Z</time>
      </trkpt>
      <trkpt lat="43.67181" lon="1.14735">
        <ele>238.6</ele>
        <time>2023-10-31T15:01:25Z</time>
      </trkpt>
      <trkpt lat="43.67177" lon="1.14749">
        <ele>238.4</ele>
        <time>2023-10-31T15:01:26Z</time>
      </trkpt>
      <trkpt lat="43.67171" lon="1.14778">
        <ele>237.6</ele>
        <time>2023-10-31T15:01:28Z</time>
      </trkpt>
      <trkpt lat="43.67169" lon="1.14792">
        <ele>237</ele>
        <time>2023-10-31T15:01:29Z</time>
      </trkpt>
      <trkpt lat="43.67168" lon="1.14807">
        <ele>236.2</ele>
        <time>2023-10-31T15:01:30Z</time>
      </trkpt>
      <trkpt lat="43.67166" lon="1.14839">
        <ele>234.6</ele>
        <time>2023-10-31T15:01:32Z</time>
      </trkpt>
      <trkpt lat="43.67164" lon="1.14866">
        <ele>233.2</ele>
        <time>2023-10-31T15:01:34Z</time>
      </trkpt>
      <trkpt lat="43.67162" lon="1.14896">
        <ele>232.2</ele>
        <time>2023-10-31T15:01:36Z</time>
      </trkpt>
      <trkpt lat="43.67159" lon="1.14941">
        <ele>230.6</ele>
        <time>2023-10-31T15:01:39Z</time>
      </trkpt>
      <trkpt lat="43.67156" lon="1.14984">
        <ele>229.6</ele>
        <time>2023-10-31T15:01:42Z</time>
      </trkpt>
      <trkpt lat="43.67154" lon="1.15012">
        <ele>228.8</ele>
        <time>2023-10-31T15:01:44Z</time>
      </trkpt>
      <trkpt lat="43.67153" lon="1.15026">
        <ele>228.2</ele>
        <time>2023-10-31T15:01:45Z</time>
      </trkpt>
      <trkpt lat="43.67147" lon="1.15066">
        <ele>227.2</ele>
        <time>2023-10-31T15:01:48Z</time>
      </trkpt>
      <trkpt lat="43.6714" lon="1.15107">
        <ele>226.6</ele>
        <time>2023-10-31T15:01:51Z</time>
      </trkpt>
      <trkpt lat="43.67137" lon="1.15131">
        <ele>226</ele>
        <time>2023-10-31T15:01:53Z</time>
      </trkpt>
      <trkpt lat="43.67127" lon="1.15196">
        <ele>225.6</ele>
        <time>2023-10-31T15:01:58Z</time>
      </trkpt>
      <trkpt lat="43.67125" lon="1.15209">
        <ele>225.6</ele>
        <time>2023-10-31T15:01:59Z</time>
      </trkpt>
      <trkpt lat="43.67112" lon="1.1526">
        <ele>225</ele>
        <time>2023-10-31T15:02:03Z</time>
      </trkpt>
      <trkpt lat="43.67108" lon="1.15273">
        <ele>224.8</ele>
        <time>2023-10-31T15:02:04Z</time>
      </trkpt>
      <trkpt lat="43.67086" lon="1.15337">
        <ele>223.8</ele>
        <time>2023-10-31T15:02:09Z</time>
      </trkpt>
      <trkpt lat="43.67083" lon="1.1535">
        <ele>223.6</ele>
        <time>2023-10-31T15:02:10Z</time>
      </trkpt>
      <trkpt lat="43.67077" lon="1.15396">
        <ele>222.6</ele>
        <time>2023-10-31T15:02:13Z</time>
      </trkpt>
      <trkpt lat="43.67077" lon="1.15408">
        <ele>222.4</ele>
        <time>2023-10-31T15:02:14Z</time>
      </trkpt>
      <trkpt lat="43.67077" lon="1.15436">
        <ele>221.2</ele>
        <time>2023-10-31T15:02:16Z</time>
      </trkpt>
      <trkpt lat="43.67082" lon="1.15478">
        <ele>220.2</ele>
        <time>2023-10-31T15:02:19Z</time>
      </trkpt>
      <trkpt lat="43.67091" lon="1.15518">
        <ele>218.8</ele>
        <time>2023-10-31T15:02:22Z</time>
      </trkpt>
      <trkpt lat="43.67095" lon="1.1553">
        <ele>217.8</ele>
        <time>2023-10-31T15:02:23Z</time>
      </trkpt>
      <trkpt lat="43.67101" lon="1.15541">
        <ele>217.6</ele>
        <time>2023-10-31T15:02:24Z</time>
      </trkpt>
      <trkpt lat="43.67116" lon="1.15558">
        <ele>216.4</ele>
        <time>2023-10-31T15:02:26Z</time>
      </trkpt>
      <trkpt lat="43.67133" lon="1.15576">
        <ele>215.6</ele>
        <time>2023-10-31T15:02:28Z</time>
      </trkpt>
      <trkpt lat="43.67138" lon="1.15584">
        <ele>215.2</ele>
        <time>2023-10-31T15:02:29Z</time>
      </trkpt>
      <trkpt lat="43.67143" lon="1.15595">
        <ele>215.2</ele>
        <time>2023-10-31T15:02:30Z</time>
      </trkpt>
      <trkpt lat="43.67149" lon="1.15621">
        <ele>214.6</ele>
        <time>2023-10-31T15:02:32Z</time>
      </trkpt>
      <trkpt lat="43.67151" lon="1.15637">
        <ele>214.2</ele>
        <time>2023-10-31T15:02:33Z</time>
      </trkpt>
      <trkpt lat="43.67154" lon="1.15679">
        <ele>212.6</ele>
        <time>2023-10-31T15:02:36Z</time>
      </trkpt>
      <trkpt lat="43.67153" lon="1.15718">
        <ele>211.2</ele>
        <time>2023-10-31T15:02:39Z</time>
      </trkpt>
      <trkpt lat="43.6715" lon="1.15745">
        <ele>210.4</ele>
        <time>2023-10-31T15:02:41Z</time>
      </trkpt>
      <trkpt lat="43.67148" lon="1.15758">
        <ele>209.8</ele>
        <time>2023-10-31T15:02:42Z</time>
      </trkpt>
      <trkpt lat="43.67141" lon="1.15784">
        <ele>209</ele>
        <time>2023-10-31T15:02:44Z</time>
      </trkpt>
      <trkpt lat="43.67138" lon="1.15797">
        <ele>208.6</ele>
        <time>2023-10-31T15:02:45Z</time>
      </trkpt>
      <trkpt lat="43.67126" lon="1.15834">
        <ele>207.4</ele>
        <time>2023-10-31T15:02:48Z</time>
      </trkpt>
      <trkpt lat="43.67116" lon="1.15862">
        <ele>206.6</ele>
        <time>2023-10-31T15:02:50Z</time>
      </trkpt>
      <trkpt lat="43.67114" lon="1.15872">
        <ele>206.4</ele>
        <time>2023-10-31T15:02:51Z</time>
      </trkpt>
      <trkpt lat="43.67102" lon="1.15908">
        <ele>205</ele>
        <time>2023-10-31T15:02:54Z</time>
      </trkpt>
      <trkpt lat="43.67096" lon="1.1592">
        <ele>204</ele>
        <time>2023-10-31T15:02:55Z</time>
      </trkpt>
      <trkpt lat="43.6709" lon="1.15934">
        <ele>203.6</ele>
        <time>2023-10-31T15:02:56Z</time>
      </trkpt>
      <trkpt lat="43.67073" lon="1.15966">
        <ele>202.2</ele>
        <time>2023-10-31T15:02:59Z</time>
      </trkpt>
      <trkpt lat="43.67054" lon="1.16001">
        <ele>200.8</ele>
        <time>2023-10-31T15:03:02Z</time>
      </trkpt>
      <trkpt lat="43.67035" lon="1.16034">
        <ele>199.8</ele>
        <time>2023-10-31T15:03:05Z</time>
      </trkpt>
      <trkpt lat="43.6702" lon="1.16058">
        <ele>199</ele>
        <time>2023-10-31T15:03:07Z</time>
      </trkpt>
      <trkpt lat="43.67012" lon="1.16068">
        <ele>198.6</ele>
        <time>2023-10-31T15:03:08Z</time>
      </trkpt>
      <trkpt lat="43.67003" lon="1.16077">
        <ele>198.6</ele>
        <time>2023-10-31T15:03:09Z</time>
      </trkpt>
      <trkpt lat="43.66978" lon="1.16101">
        <ele>197.8</ele>
        <time>2023-10-31T15:03:12Z</time>
      </trkpt>
      <trkpt lat="43.66971" lon="1.16112">
        <ele>197</ele>
        <time>2023-10-31T15:03:13Z</time>
      </trkpt>
      <trkpt lat="43.6695" lon="1.16144">
        <ele>195.8</ele>
        <time>2023-10-31T15:03:16Z</time>
      </trkpt>
      <trkpt lat="43.66944" lon="1.16156">
        <ele>195.4</ele>
        <time>2023-10-31T15:03:17Z</time>
      </trkpt>
      <trkpt lat="43.66932" lon="1.16179">
        <ele>194.6</ele>
        <time>2023-10-31T15:03:19Z</time>
      </trkpt>
      <trkpt lat="43.66912" lon="1.16214">
        <ele>193.6</ele>
        <time>2023-10-31T15:03:22Z</time>
      </trkpt>
      <trkpt lat="43.66905" lon="1.16225">
        <ele>193.4</ele>
        <time>2023-10-31T15:03:23Z</time>
      </trkpt>
      <trkpt lat="43.6689" lon="1.16247">
        <ele>192.4</ele>
        <time>2023-10-31T15:03:25Z</time>
      </trkpt>
      <trkpt lat="43.66869" lon="1.16281">
        <ele>191.2</ele>
        <time>2023-10-31T15:03:28Z</time>
      </trkpt>
      <trkpt lat="43.66856" lon="1.16304">
        <ele>190.2</ele>
        <time>2023-10-31T15:03:30Z</time>
      </trkpt>
      <trkpt lat="43.6685" lon="1.16316">
        <ele>189.2</ele>
        <time>2023-10-31T15:03:31Z</time>
      </trkpt>
      <trkpt lat="43.66843" lon="1.1633">
        <ele>188.8</ele>
        <time>2023-10-31T15:03:32Z</time>
      </trkpt>
      <trkpt lat="43.66839" lon="1.1634">
        <ele>188.2</ele>
        <time>2023-10-31T15:03:33Z</time>
      </trkpt>
      <trkpt lat="43.66834" lon="1.16354">
        <ele>188</ele>
        <time>2023-10-31T15:03:34Z</time>
      </trkpt>
      <trkpt lat="43.6683" lon="1.16367">
        <ele>187</ele>
        <time>2023-10-31T15:03:36Z</time>
      </trkpt>
      <trkpt lat="43.66814" lon="1.16423">
        <ele>185.8</ele>
        <time>2023-10-31T15:03:39Z</time>
      </trkpt>
      <trkpt lat="43.66806" lon="1.16453">
        <ele>184.6</ele>
        <time>2023-10-31T15:03:41Z</time>
      </trkpt>
      <trkpt lat="43.66799" lon="1.16477">
        <ele>183.4</ele>
        <time>2023-10-31T15:03:43Z</time>
      </trkpt>
      <trkpt lat="43.66788" lon="1.16517">
        <ele>182</ele>
        <time>2023-10-31T15:03:46Z</time>
      </trkpt>
      <trkpt lat="43.66777" lon="1.16557">
        <ele>180.6</ele>
        <time>2023-10-31T15:03:49Z</time>
      </trkpt>
      <trkpt lat="43.66773" lon="1.1657">
        <ele>180.4</ele>
        <time>2023-10-31T15:03:50Z</time>
      </trkpt>
      <trkpt lat="43.66757" lon="1.16624">
        <ele>179.4</ele>
        <time>2023-10-31T15:03:54Z</time>
      </trkpt>
      <trkpt lat="43.66742" lon="1.16693">
        <ele>178.6</ele>
        <time>2023-10-31T15:03:59Z</time>
      </trkpt>
      <trkpt lat="43.66738" lon="1.16722">
        <ele>178.4</ele>
        <time>2023-10-31T15:04:01Z</time>
      </trkpt>
      <trkpt lat="43.66736" lon="1.16751">
        <ele>178</ele>
        <time>2023-10-31T15:04:03Z</time>
      </trkpt>
      <trkpt lat="43.66736" lon="1.16784">
        <ele>177</ele>
        <time>2023-10-31T15:04:06Z</time>
      </trkpt>
      <trkpt lat="43.66735" lon="1.16855">
        <ele>175.8</ele>
        <time>2023-10-31T15:04:10Z</time>
      </trkpt>
      <trkpt lat="43.66735" lon="1.16869">
        <ele>175.4</ele>
        <time>2023-10-31T15:04:11Z</time>
      </trkpt>
      <trkpt lat="43.66734" lon="1.16883">
        <ele>174.6</ele>
        <time>2023-10-31T15:04:12Z</time>
      </trkpt>
      <trkpt lat="43.66727" lon="1.16926">
        <ele>173.4</ele>
        <time>2023-10-31T15:04:15Z</time>
      </trkpt>
      <trkpt lat="43.66725" lon="1.16939">
        <ele>173.2</ele>
        <time>2023-10-31T15:04:16Z</time>
      </trkpt>
      <trkpt lat="43.66718" lon="1.16981">
        <ele>171.8</ele>
        <time>2023-10-31T15:04:19Z</time>
      </trkpt>
      <trkpt lat="43.66716" lon="1.16995">
        <ele>171</ele>
        <time>2023-10-31T15:04:20Z</time>
      </trkpt>
      <trkpt lat="43.66715" lon="1.17008">
        <ele>170.4</ele>
        <time>2023-10-31T15:04:21Z</time>
      </trkpt>
      <trkpt lat="43.66714" lon="1.17022">
        <ele>169.4</ele>
        <time>2023-10-31T15:04:22Z</time>
      </trkpt>
      <trkpt lat="43.66714" lon="1.17035">
        <ele>169.2</ele>
        <time>2023-10-31T15:04:23Z</time>
      </trkpt>
      <trkpt lat="43.66714" lon="1.17062">
        <ele>168</ele>
        <time>2023-10-31T15:04:25Z</time>
      </trkpt>
      <trkpt lat="43.66717" lon="1.17105">
        <ele>166.8</ele>
        <time>2023-10-31T15:04:28Z</time>
      </trkpt>
      <trkpt lat="43.66722" lon="1.17155">
        <ele>165.4</ele>
        <time>2023-10-31T15:04:32Z</time>
      </trkpt>
      <trkpt lat="43.66724" lon="1.17195">
        <ele>164.4</ele>
        <time>2023-10-31T15:04:35Z</time>
      </trkpt>
      <trkpt lat="43.66726" lon="1.17222">
        <ele>164</ele>
        <time>2023-10-31T15:04:37Z</time>
      </trkpt>
      <trkpt lat="43.66727" lon="1.17236">
        <ele>163.2</ele>
        <time>2023-10-31T15:04:38Z</time>
      </trkpt>
      <trkpt lat="43.66731" lon="1.17293">
        <ele>162</ele>
        <time>2023-10-31T15:04:42Z</time>
      </trkpt>
      <trkpt lat="43.66734" lon="1.17336">
        <ele>160.4</ele>
        <time>2023-10-31T15:04:45Z</time>
      </trkpt>
      <trkpt lat="43.66734" lon="1.1735">
        <ele>160.2</ele>
        <time>2023-10-31T15:04:46Z</time>
      </trkpt>
      <trkpt lat="43.66734" lon="1.17393">
        <ele>158.8</ele>
        <time>2023-10-31T15:04:49Z</time>
      </trkpt>
      <trkpt lat="43.66733" lon="1.17436">
        <ele>157.4</ele>
        <time>2023-10-31T15:04:52Z</time>
      </trkpt>
      <trkpt lat="43.66732" lon="1.17451">
        <ele>157</ele>
        <time>2023-10-31T15:04:53Z</time>
      </trkpt>
      <trkpt lat="43.6673" lon="1.1748">
        <ele>156</ele>
        <time>2023-10-31T15:04:55Z</time>
      </trkpt>
      <trkpt lat="43.6673" lon="1.17509">
        <ele>155</ele>
        <time>2023-10-31T15:04:57Z</time>
      </trkpt>
      <trkpt lat="43.66729" lon="1.17538">
        <ele>153.6</ele>
        <time>2023-10-31T15:04:59Z</time>
      </trkpt>
      <trkpt lat="43.66729" lon="1.17552">
        <ele>153.4</ele>
        <time>2023-10-31T15:05:00Z</time>
      </trkpt>
      <trkpt lat="43.66727" lon="1.17582">
        <ele>152.4</ele>
        <time>2023-10-31T15:05:02Z</time>
      </trkpt>
      <trkpt lat="43.66725" lon="1.17626">
        <ele>151.4</ele>
        <time>2023-10-31T15:05:05Z</time>
      </trkpt>
      <trkpt lat="43.66718" lon="1.1767">
        <ele>149.8</ele>
        <time>2023-10-31T15:05:08Z</time>
      </trkpt>
      <trkpt lat="43.66708" lon="1.17713">
        <ele>148.2</ele>
        <time>2023-10-31T15:05:11Z</time>
      </trkpt>
      <trkpt lat="43.66701" lon="1.17742">
        <ele>147</ele>
        <time>2023-10-31T15:05:13Z</time>
      </trkpt>
      <trkpt lat="43.6669" lon="1.17785">
        <ele>146</ele>
        <time>2023-10-31T15:05:16Z</time>
      </trkpt>
      <trkpt lat="43.66685" lon="1.17814">
        <ele>145</ele>
        <time>2023-10-31T15:05:18Z</time>
      </trkpt>
      <trkpt lat="43.66682" lon="1.17829">
        <ele>144.4</ele>
        <time>2023-10-31T15:05:19Z</time>
      </trkpt>
      <trkpt lat="43.6668" lon="1.17878">
        <ele>143.2</ele>
        <time>2023-10-31T15:05:22Z</time>
      </trkpt>
      <trkpt lat="43.66681" lon="1.17906">
        <ele>141.8</ele>
        <time>2023-10-31T15:05:24Z</time>
      </trkpt>
      <trkpt lat="43.66684" lon="1.17936">
        <ele>140.6</ele>
        <time>2023-10-31T15:05:26Z</time>
      </trkpt>
      <trkpt lat="43.66685" lon="1.1795">
        <ele>140.2</ele>
        <time>2023-10-31T15:05:27Z</time>
      </trkpt>
      <trkpt lat="43.66688" lon="1.17965">
        <ele>139.2</ele>
        <time>2023-10-31T15:05:28Z</time>
      </trkpt>
      <trkpt lat="43.66695" lon="1.18007">
        <ele>138</ele>
        <time>2023-10-31T15:05:31Z</time>
      </trkpt>
      <trkpt lat="43.667" lon="1.18034">
        <ele>137.8</ele>
        <time>2023-10-31T15:05:33Z</time>
      </trkpt>
      <trkpt lat="43.66707" lon="1.18075">
        <ele>137</ele>
        <time>2023-10-31T15:05:36Z</time>
      </trkpt>
      <trkpt lat="43.66719" lon="1.18139">
        <ele>136</ele>
        <time>2023-10-31T15:05:41Z</time>
      </trkpt>
      <trkpt lat="43.66721" lon="1.18152">
        <ele>135.8</ele>
        <time>2023-10-31T15:05:42Z</time>
      </trkpt>
      <trkpt lat="43.66734" lon="1.18229">
        <ele>135.2</ele>
        <time>2023-10-31T15:05:48Z</time>
      </trkpt>
      <trkpt lat="43.66748" lon="1.18306">
        <ele>135.2</ele>
        <time>2023-10-31T15:05:54Z</time>
      </trkpt>
      <trkpt lat="43.66752" lon="1.18331">
        <ele>135.2</ele>
        <time>2023-10-31T15:05:56Z</time>
      </trkpt>
      <trkpt lat="43.66765" lon="1.18408">
        <ele>135</ele>
        <time>2023-10-31T15:06:02Z</time>
      </trkpt>
      <trkpt lat="43.66772" lon="1.18447">
        <ele>134.8</ele>
        <time>2023-10-31T15:06:05Z</time>
      </trkpt>
      <trkpt lat="43.66783" lon="1.1851">
        <ele>134.8</ele>
        <time>2023-10-31T15:06:10Z</time>
      </trkpt>
      <trkpt lat="43.66796" lon="1.18585">
        <ele>134.2</ele>
        <time>2023-10-31T15:06:16Z</time>
      </trkpt>
      <trkpt lat="43.66801" lon="1.1861">
        <ele>134.2</ele>
        <time>2023-10-31T15:06:18Z</time>
      </trkpt>
      <trkpt lat="43.66805" lon="1.18635">
        <ele>134</ele>
        <time>2023-10-31T15:06:20Z</time>
      </trkpt>
      <trkpt lat="43.66811" lon="1.18671">
        <ele>133.6</ele>
        <time>2023-10-31T15:06:23Z</time>
      </trkpt>
      <trkpt lat="43.66823" lon="1.18742">
        <ele>133.4</ele>
        <time>2023-10-31T15:06:29Z</time>
      </trkpt>
      <trkpt lat="43.66837" lon="1.18822">
        <ele>133.6</ele>
        <time>2023-10-31T15:06:36Z</time>
      </trkpt>
      <trkpt lat="43.66842" lon="1.18845">
        <ele>133.6</ele>
        <time>2023-10-31T15:06:38Z</time>
      </trkpt>
      <trkpt lat="43.66853" lon="1.1892">
        <ele>133.6</ele>
        <time>2023-10-31T15:06:45Z</time>
      </trkpt>
      <trkpt lat="43.66866" lon="1.18992">
        <ele>133.8</ele>
        <time>2023-10-31T15:06:52Z</time>
      </trkpt>
      <trkpt lat="43.66866" lon="1.19032">
        <ele>133.8</ele>
        <time>2023-10-31T15:06:56Z</time>
      </trkpt>
      <trkpt lat="43.66865" lon="1.19041">
        <ele>134</ele>
        <time>2023-10-31T15:06:57Z</time>
      </trkpt>
      <trkpt lat="43.6686" lon="1.19059">
        <ele>134.2</ele>
        <time>2023-10-31T15:06:59Z</time>
      </trkpt>
      <trkpt lat="43.66842" lon="1.19098">
        <ele>134.4</ele>
        <time>2023-10-31T15:07:04Z</time>
      </trkpt>
      <trkpt lat="43.66837" lon="1.19105">
        <ele>134.4</ele>
        <time>2023-10-31T15:07:05Z</time>
      </trkpt>
      <trkpt lat="43.66831" lon="1.1911">
        <ele>134.4</ele>
        <time>2023-10-31T15:07:06Z</time>
      </trkpt>
      <trkpt lat="43.66807" lon="1.19131">
        <ele>134.6</ele>
        <time>2023-10-31T15:07:10Z</time>
      </trkpt>
      <trkpt lat="43.66772" lon="1.19163">
        <ele>134.8</ele>
        <time>2023-10-31T15:07:16Z</time>
      </trkpt>
      <trkpt lat="43.66768" lon="1.19167">
        <ele>134.8</ele>
        <time>2023-10-31T15:07:17Z</time>
      </trkpt>
      <trkpt lat="43.66728" lon="1.19209">
        <ele>135</ele>
        <time>2023-10-31T15:07:24Z</time>
      </trkpt>
      <trkpt lat="43.66689" lon="1.19262">
        <ele>134.8</ele>
        <time>2023-10-31T15:07:32Z</time>
      </trkpt>
      <trkpt lat="43.66684" lon="1.19269">
        <ele>134.8</ele>
        <time>2023-10-31T15:07:33Z</time>
      </trkpt>
      <trkpt lat="43.66651" lon="1.19319">
        <ele>135.8</ele>
        <time>2023-10-31T15:07:41Z</time>
      </trkpt>
      <trkpt lat="43.66648" lon="1.19324">
        <ele>136</ele>
        <time>2023-10-31T15:07:42Z</time>
      </trkpt>
      <trkpt lat="43.6664" lon="1.19332">
        <ele>136.2</ele>
        <time>2023-10-31T15:07:44Z</time>
      </trkpt>
      <trkpt lat="43.66636" lon="1.19336">
        <ele>136.4</ele>
        <time>2023-10-31T15:07:45Z</time>
      </trkpt>
      <trkpt lat="43.6663" lon="1.19342">
        <ele>136.8</ele>
        <time>2023-10-31T15:07:47Z</time>
      </trkpt>
      <trkpt lat="43.66622" lon="1.1935">
        <ele>137.8</ele>
        <time>2023-10-31T15:07:50Z</time>
      </trkpt>
      <trkpt lat="43.66617" lon="1.19355">
        <ele>138</ele>
        <time>2023-10-31T15:07:52Z</time>
      </trkpt>
      <trkpt lat="43.66614" lon="1.19359">
        <ele>138.8</ele>
        <time>2023-10-31T15:07:55Z</time>
      </trkpt>
      <trkpt lat="43.66613" lon="1.19359">
        <ele>139.2</ele>
        <time>2023-10-31T15:07:57Z</time>
      </trkpt>
      <trkpt lat="43.66613" lon="1.19359">
        <ele>139.2</ele>
        <time>2023-10-31T15:07:58Z</time>
      </trkpt>
      <trkpt lat="43.6661" lon="1.1936">
        <ele>139.6</ele>
        <time>2023-10-31T15:08:27Z</time>
      </trkpt>
      <trkpt lat="43.66608" lon="1.19358">
        <ele>139.6</ele>
        <time>2023-10-31T15:08:28Z</time>
      </trkpt>
      <trkpt lat="43.66599" lon="1.19353">
        <ele>139.8</ele>
        <time>2023-10-31T15:08:31Z</time>
      </trkpt>
      <trkpt lat="43.66595" lon="1.19353">
        <ele>139.8</ele>
        <time>2023-10-31T15:08:32Z</time>
      </trkpt>
      <trkpt lat="43.66582" lon="1.19357">
        <ele>140</ele>
        <time>2023-10-31T15:08:35Z</time>
      </trkpt>
      <trkpt lat="43.66575" lon="1.19363">
        <ele>140</ele>
        <time>2023-10-31T15:08:37Z</time>
      </trkpt>
      <trkpt lat="43.66548" lon="1.19376">
        <ele>140.8</ele>
        <time>2023-10-31T15:08:43Z</time>
      </trkpt>
      <trkpt lat="43.66539" lon="1.19379">
        <ele>141</ele>
        <time>2023-10-31T15:08:45Z</time>
      </trkpt>
      <trkpt lat="43.66528" lon="1.19384">
        <ele>141.6</ele>
        <time>2023-10-31T15:08:47Z</time>
      </trkpt>
      <trkpt lat="43.66521" lon="1.19388">
        <ele>142</ele>
        <time>2023-10-31T15:08:49Z</time>
      </trkpt>
      <trkpt lat="43.66516" lon="1.1939">
        <ele>142.2</ele>
        <time>2023-10-31T15:08:50Z</time>
      </trkpt>
      <trkpt lat="43.66504" lon="1.19394">
        <ele>142.6</ele>
        <time>2023-10-31T15:08:53Z</time>
      </trkpt>
      <trkpt lat="43.66494" lon="1.19392">
        <ele>143</ele>
        <time>2023-10-31T15:08:55Z</time>
      </trkpt>
      <trkpt lat="43.6649" lon="1.1939">
        <ele>143.2</ele>
        <time>2023-10-31T15:08:56Z</time>
      </trkpt>
      <trkpt lat="43.66486" lon="1.19388">
        <ele>143.6</ele>
        <time>2023-10-31T15:08:57Z</time>
      </trkpt>
      <trkpt lat="43.66473" lon="1.19375">
        <ele>144</ele>
        <time>2023-10-31T15:09:00Z</time>
      </trkpt>
      <trkpt lat="43.66467" lon="1.1937">
        <ele>144.2</ele>
        <time>2023-10-31T15:09:01Z</time>
      </trkpt>
      <trkpt lat="43.66442" lon="1.19345">
        <ele>145.2</ele>
        <time>2023-10-31T15:09:07Z</time>
      </trkpt>
      <trkpt lat="43.66437" lon="1.19341">
        <ele>145.4</ele>
        <time>2023-10-31T15:09:08Z</time>
      </trkpt>
      <trkpt lat="43.66416" lon="1.19319">
        <ele>146.4</ele>
        <time>2023-10-31T15:09:13Z</time>
      </trkpt>
      <trkpt lat="43.66405" lon="1.19309">
        <ele>147</ele>
        <time>2023-10-31T15:09:16Z</time>
      </trkpt>
      <trkpt lat="43.66397" lon="1.19301">
        <ele>147.8</ele>
        <time>2023-10-31T15:09:18Z</time>
      </trkpt>
      <trkpt lat="43.66388" lon="1.19292">
        <ele>148.8</ele>
        <time>2023-10-31T15:09:21Z</time>
      </trkpt>
      <trkpt lat="43.66376" lon="1.19281">
        <ele>149.6</ele>
        <time>2023-10-31T15:09:24Z</time>
      </trkpt>
      <trkpt lat="43.66369" lon="1.19277">
        <ele>150</ele>
        <time>2023-10-31T15:09:26Z</time>
      </trkpt>
      <trkpt lat="43.66355" lon="1.1927">
        <ele>150.8</ele>
        <time>2023-10-31T15:09:29Z</time>
      </trkpt>
      <trkpt lat="43.66351" lon="1.19268">
        <ele>150.8</ele>
        <time>2023-10-31T15:09:30Z</time>
      </trkpt>
      <trkpt lat="43.66343" lon="1.19262">
        <ele>151.2</ele>
        <time>2023-10-31T15:09:32Z</time>
      </trkpt>
      <trkpt lat="43.66337" lon="1.19258">
        <ele>151.4</ele>
        <time>2023-10-31T15:09:33Z</time>
      </trkpt>
      <trkpt lat="43.66327" lon="1.19253">
        <ele>151.6</ele>
        <time>2023-10-31T15:09:35Z</time>
      </trkpt>
      <trkpt lat="43.66283" lon="1.19245">
        <ele>151.4</ele>
        <time>2023-10-31T15:09:42Z</time>
      </trkpt>
      <trkpt lat="43.66239" lon="1.19237">
        <ele>150.8</ele>
        <time>2023-10-31T15:09:49Z</time>
      </trkpt>
      <trkpt lat="43.66181" lon="1.19226">
        <ele>150.8</ele>
        <time>2023-10-31T15:09:58Z</time>
      </trkpt>
      <trkpt lat="43.66135" lon="1.19224">
        <ele>151</ele>
        <time>2023-10-31T15:10:05Z</time>
      </trkpt>
      <trkpt lat="43.66096" lon="1.1923">
        <ele>151.8</ele>
        <time>2023-10-31T15:10:12Z</time>
      </trkpt>
      <trkpt lat="43.66067" lon="1.19244">
        <ele>152.2</ele>
        <time>2023-10-31T15:10:17Z</time>
      </trkpt>
      <trkpt lat="43.66061" lon="1.19248">
        <ele>152.2</ele>
        <time>2023-10-31T15:10:18Z</time>
      </trkpt>
      <trkpt lat="43.6604" lon="1.19259">
        <ele>152.4</ele>
        <time>2023-10-31T15:10:22Z</time>
      </trkpt>
      <trkpt lat="43.66031" lon="1.19261">
        <ele>152.4</ele>
        <time>2023-10-31T15:10:24Z</time>
      </trkpt>
      <trkpt lat="43.66008" lon="1.19258">
        <ele>153.4</ele>
        <time>2023-10-31T15:10:30Z</time>
      </trkpt>
      <trkpt lat="43.65997" lon="1.19256">
        <ele>155</ele>
        <time>2023-10-31T15:10:33Z</time>
      </trkpt>
      <trkpt lat="43.65982" lon="1.19253">
        <ele>156.4</ele>
        <time>2023-10-31T15:10:38Z</time>
      </trkpt>
      <trkpt lat="43.65979" lon="1.19252">
        <ele>156.6</ele>
        <time>2023-10-31T15:10:39Z</time>
      </trkpt>
      <trkpt lat="43.65967" lon="1.1925">
        <ele>157.6</ele>
        <time>2023-10-31T15:10:42Z</time>
      </trkpt>
      <trkpt lat="43.65953" lon="1.19248">
        <ele>159</ele>
        <time>2023-10-31T15:10:46Z</time>
      </trkpt>
      <trkpt lat="43.65931" lon="1.19244">
        <ele>160.2</ele>
        <time>2023-10-31T15:10:53Z</time>
      </trkpt>
      <trkpt lat="43.65924" lon="1.19243">
        <ele>160.8</ele>
        <time>2023-10-31T15:10:55Z</time>
      </trkpt>
      <trkpt lat="43.65921" lon="1.19243">
        <ele>161.2</ele>
        <time>2023-10-31T15:10:56Z</time>
      </trkpt>
      <trkpt lat="43.65913" lon="1.19241">
        <ele>162.2</ele>
        <time>2023-10-31T15:10:59Z</time>
      </trkpt>
      <trkpt lat="43.65907" lon="1.19237">
        <ele>163</ele>
        <time>2023-10-31T15:11:01Z</time>
      </trkpt>
      <trkpt lat="43.65905" lon="1.19236">
        <ele>163.4</ele>
        <time>2023-10-31T15:11:02Z</time>
      </trkpt>
      <trkpt lat="43.65889" lon="1.19224">
        <ele>164.4</ele>
        <time>2023-10-31T15:11:08Z</time>
      </trkpt>
      <trkpt lat="43.65886" lon="1.19222">
        <ele>164.8</ele>
        <time>2023-10-31T15:11:09Z</time>
      </trkpt>
      <trkpt lat="43.6588" lon="1.19215">
        <ele>165.6</ele>
        <time>2023-10-31T15:11:12Z</time>
      </trkpt>
      <trkpt lat="43.65871" lon="1.19206">
        <ele>166.8</ele>
        <time>2023-10-31T15:11:16Z</time>
      </trkpt>
      <trkpt lat="43.65852" lon="1.19194">
        <ele>168</ele>
        <time>2023-10-31T15:11:23Z</time>
      </trkpt>
      <trkpt lat="43.65842" lon="1.19193">
        <ele>169.2</ele>
        <time>2023-10-31T15:11:27Z</time>
      </trkpt>
      <trkpt lat="43.65835" lon="1.19194">
        <ele>170</ele>
        <time>2023-10-31T15:11:30Z</time>
      </trkpt>
      <trkpt lat="43.65829" lon="1.19196">
        <ele>170.6</ele>
        <time>2023-10-31T15:11:32Z</time>
      </trkpt>
      <trkpt lat="43.65816" lon="1.192">
        <ele>171.4</ele>
        <time>2023-10-31T15:11:37Z</time>
      </trkpt>
      <trkpt lat="43.65811" lon="1.192">
        <ele>171.8</ele>
        <time>2023-10-31T15:11:39Z</time>
      </trkpt>
      <trkpt lat="43.65798" lon="1.19197">
        <ele>172.8</ele>
        <time>2023-10-31T15:11:44Z</time>
      </trkpt>
      <trkpt lat="43.65795" lon="1.19195">
        <ele>173</ele>
        <time>2023-10-31T15:11:45Z</time>
      </trkpt>
      <trkpt lat="43.65784" lon="1.19189">
        <ele>174</ele>
        <time>2023-10-31T15:11:50Z</time>
      </trkpt>
      <trkpt lat="43.65774" lon="1.19184">
        <ele>175.2</ele>
        <time>2023-10-31T15:11:55Z</time>
      </trkpt>
      <trkpt lat="43.6577" lon="1.19182">
        <ele>175.6</ele>
        <time>2023-10-31T15:11:57Z</time>
      </trkpt>
      <trkpt lat="43.65764" lon="1.19177">
        <ele>176.4</ele>
        <time>2023-10-31T15:12:00Z</time>
      </trkpt>
      <trkpt lat="43.65753" lon="1.19171">
        <ele>177.4</ele>
        <time>2023-10-31T15:12:05Z</time>
      </trkpt>
      <trkpt lat="43.65751" lon="1.1917">
        <ele>177.8</ele>
        <time>2023-10-31T15:12:06Z</time>
      </trkpt>
      <trkpt lat="43.65744" lon="1.19167">
        <ele>178.4</ele>
        <time>2023-10-31T15:12:09Z</time>
      </trkpt>
      <trkpt lat="43.65733" lon="1.19162">
        <ele>179.4</ele>
        <time>2023-10-31T15:12:14Z</time>
      </trkpt>
      <trkpt lat="43.65731" lon="1.19161">
        <ele>180</ele>
        <time>2023-10-31T15:12:15Z</time>
      </trkpt>
      <trkpt lat="43.65725" lon="1.19157">
        <ele>180.6</ele>
        <time>2023-10-31T15:12:18Z</time>
      </trkpt>
      <trkpt lat="43.65716" lon="1.19152">
        <ele>181.6</ele>
        <time>2023-10-31T15:12:22Z</time>
      </trkpt>
      <trkpt lat="43.65714" lon="1.19151">
        <ele>181.8</ele>
        <time>2023-10-31T15:12:23Z</time>
      </trkpt>
      <trkpt lat="43.65705" lon="1.19147">
        <ele>182.8</ele>
        <time>2023-10-31T15:12:27Z</time>
      </trkpt>
      <trkpt lat="43.65697" lon="1.19142">
        <ele>184</ele>
        <time>2023-10-31T15:12:31Z</time>
      </trkpt>
      <trkpt lat="43.6569" lon="1.19139">
        <ele>184.8</ele>
        <time>2023-10-31T15:12:34Z</time>
      </trkpt>
      <trkpt lat="43.65683" lon="1.19135">
        <ele>185.2</ele>
        <time>2023-10-31T15:12:37Z</time>
      </trkpt>
      <trkpt lat="43.65673" lon="1.1913">
        <ele>186.2</ele>
        <time>2023-10-31T15:12:41Z</time>
      </trkpt>
      <trkpt lat="43.65662" lon="1.19124">
        <ele>187</ele>
        <time>2023-10-31T15:12:46Z</time>
      </trkpt>
      <trkpt lat="43.65657" lon="1.19123">
        <ele>187.4</ele>
        <time>2023-10-31T15:12:48Z</time>
      </trkpt>
      <trkpt lat="43.65648" lon="1.19118">
        <ele>188</ele>
        <time>2023-10-31T15:12:52Z</time>
      </trkpt>
      <trkpt lat="43.65642" lon="1.19116">
        <ele>188.4</ele>
        <time>2023-10-31T15:12:54Z</time>
      </trkpt>
      <trkpt lat="43.65624" lon="1.19108">
        <ele>189.6</ele>
        <time>2023-10-31T15:13:02Z</time>
      </trkpt>
      <trkpt lat="43.65615" lon="1.19104">
        <ele>190.8</ele>
        <time>2023-10-31T15:13:06Z</time>
      </trkpt>
      <trkpt lat="43.65604" lon="1.19098">
        <ele>191.8</ele>
        <time>2023-10-31T15:13:11Z</time>
      </trkpt>
      <trkpt lat="43.65602" lon="1.19096">
        <ele>192</ele>
        <time>2023-10-31T15:13:12Z</time>
      </trkpt>
      <trkpt lat="43.6559" lon="1.19093">
        <ele>193</ele>
        <time>2023-10-31T15:13:17Z</time>
      </trkpt>
      <trkpt lat="43.65582" lon="1.19089">
        <ele>194</ele>
        <time>2023-10-31T15:13:21Z</time>
      </trkpt>
      <trkpt lat="43.65568" lon="1.19085">
        <ele>195.2</ele>
        <time>2023-10-31T15:13:27Z</time>
      </trkpt>
      <trkpt lat="43.6556" lon="1.19082">
        <ele>196.4</ele>
        <time>2023-10-31T15:13:31Z</time>
      </trkpt>
      <trkpt lat="43.65549" lon="1.19079">
        <ele>197.4</ele>
        <time>2023-10-31T15:13:36Z</time>
      </trkpt>
      <trkpt lat="43.65543" lon="1.19077">
        <ele>198</ele>
        <time>2023-10-31T15:13:39Z</time>
      </trkpt>
      <trkpt lat="43.65536" lon="1.19076">
        <ele>198.6</ele>
        <time>2023-10-31T15:13:42Z</time>
      </trkpt>
      <trkpt lat="43.65527" lon="1.19073">
        <ele>199.8</ele>
        <time>2023-10-31T15:13:46Z</time>
      </trkpt>
      <trkpt lat="43.65525" lon="1.19072">
        <ele>200</ele>
        <time>2023-10-31T15:13:47Z</time>
      </trkpt>
      <trkpt lat="43.65516" lon="1.1907">
        <ele>201</ele>
        <time>2023-10-31T15:13:51Z</time>
      </trkpt>
      <trkpt lat="43.65505" lon="1.19067">
        <ele>202</ele>
        <time>2023-10-31T15:13:56Z</time>
      </trkpt>
      <trkpt lat="43.65503" lon="1.19066">
        <ele>202</ele>
        <time>2023-10-31T15:13:57Z</time>
      </trkpt>
      <trkpt lat="43.65491" lon="1.19064">
        <ele>203.2</ele>
        <time>2023-10-31T15:14:02Z</time>
      </trkpt>
      <trkpt lat="43.65484" lon="1.19062">
        <ele>204</ele>
        <time>2023-10-31T15:14:05Z</time>
      </trkpt>
      <trkpt lat="43.6548" lon="1.1906">
        <ele>204.2</ele>
        <time>2023-10-31T15:14:07Z</time>
      </trkpt>
      <trkpt lat="43.6547" lon="1.19058">
        <ele>205.2</ele>
        <time>2023-10-31T15:14:11Z</time>
      </trkpt>
      <trkpt lat="43.65458" lon="1.19054">
        <ele>206.4</ele>
        <time>2023-10-31T15:14:16Z</time>
      </trkpt>
      <trkpt lat="43.6545" lon="1.19051">
        <ele>207.2</ele>
        <time>2023-10-31T15:14:20Z</time>
      </trkpt>
      <trkpt lat="43.65447" lon="1.19051">
        <ele>207.8</ele>
        <time>2023-10-31T15:14:21Z</time>
      </trkpt>
      <trkpt lat="43.65437" lon="1.19048">
        <ele>209</ele>
        <time>2023-10-31T15:14:26Z</time>
      </trkpt>
      <trkpt lat="43.65435" lon="1.19047">
        <ele>209.2</ele>
        <time>2023-10-31T15:14:27Z</time>
      </trkpt>
      <trkpt lat="43.65429" lon="1.19045">
        <ele>210.2</ele>
        <time>2023-10-31T15:14:30Z</time>
      </trkpt>
      <trkpt lat="43.6542" lon="1.19043">
        <ele>211.4</ele>
        <time>2023-10-31T15:14:35Z</time>
      </trkpt>
      <trkpt lat="43.6541" lon="1.1904">
        <ele>212.6</ele>
        <time>2023-10-31T15:14:40Z</time>
      </trkpt>
      <trkpt lat="43.65407" lon="1.19039">
        <ele>213.4</ele>
        <time>2023-10-31T15:14:42Z</time>
      </trkpt>
      <trkpt lat="43.65403" lon="1.19038">
        <ele>214</ele>
        <time>2023-10-31T15:14:44Z</time>
      </trkpt>
      <trkpt lat="43.65397" lon="1.19036">
        <ele>215.2</ele>
        <time>2023-10-31T15:14:48Z</time>
      </trkpt>
      <trkpt lat="43.65392" lon="1.19035">
        <ele>216</ele>
        <time>2023-10-31T15:14:51Z</time>
      </trkpt>
      <trkpt lat="43.65388" lon="1.19033">
        <ele>216.6</ele>
        <time>2023-10-31T15:14:53Z</time>
      </trkpt>
      <trkpt lat="43.65379" lon="1.1903">
        <ele>217.8</ele>
        <time>2023-10-31T15:14:58Z</time>
      </trkpt>
      <trkpt lat="43.65378" lon="1.1903">
        <ele>218</ele>
        <time>2023-10-31T15:14:59Z</time>
      </trkpt>
      <trkpt lat="43.65373" lon="1.19029">
        <ele>218.8</ele>
        <time>2023-10-31T15:15:02Z</time>
      </trkpt>
      <trkpt lat="43.65371" lon="1.19028">
        <ele>219</ele>
        <time>2023-10-31T15:15:03Z</time>
      </trkpt>
      <trkpt lat="43.65365" lon="1.19027">
        <ele>220.2</ele>
        <time>2023-10-31T15:15:07Z</time>
      </trkpt>
      <trkpt lat="43.65364" lon="1.19026">
        <ele>220.4</ele>
        <time>2023-10-31T15:15:08Z</time>
      </trkpt>
      <trkpt lat="43.65358" lon="1.19025">
        <ele>221.4</ele>
        <time>2023-10-31T15:15:11Z</time>
      </trkpt>
      <trkpt lat="43.65352" lon="1.19022">
        <ele>222.4</ele>
        <time>2023-10-31T15:15:15Z</time>
      </trkpt>
      <trkpt lat="43.65346" lon="1.1902">
        <ele>223.4</ele>
        <time>2023-10-31T15:15:18Z</time>
      </trkpt>
      <trkpt lat="43.65336" lon="1.19018">
        <ele>224.4</ele>
        <time>2023-10-31T15:15:23Z</time>
      </trkpt>
      <trkpt lat="43.65324" lon="1.19016">
        <ele>225.6</ele>
        <time>2023-10-31T15:15:29Z</time>
      </trkpt>
      <trkpt lat="43.65314" lon="1.19012">
        <ele>226.8</ele>
        <time>2023-10-31T15:15:34Z</time>
      </trkpt>
      <trkpt lat="43.65306" lon="1.19011">
        <ele>227.4</ele>
        <time>2023-10-31T15:15:38Z</time>
      </trkpt>
      <trkpt lat="43.65301" lon="1.1901">
        <ele>227.8</ele>
        <time>2023-10-31T15:15:40Z</time>
      </trkpt>
      <trkpt lat="43.65291" lon="1.19007">
        <ele>229</ele>
        <time>2023-10-31T15:15:45Z</time>
      </trkpt>
      <trkpt lat="43.65285" lon="1.19006">
        <ele>229.6</ele>
        <time>2023-10-31T15:15:48Z</time>
      </trkpt>
      <trkpt lat="43.65281" lon="1.19005">
        <ele>230</ele>
        <time>2023-10-31T15:15:50Z</time>
      </trkpt>
      <trkpt lat="43.65265" lon="1.19004">
        <ele>231.2</ele>
        <time>2023-10-31T15:15:57Z</time>
      </trkpt>
      <trkpt lat="43.65243" lon="1.19004">
        <ele>232.2</ele>
        <time>2023-10-31T15:16:04Z</time>
      </trkpt>
      <trkpt lat="43.65214" lon="1.19002">
        <ele>233.2</ele>
        <time>2023-10-31T15:16:12Z</time>
      </trkpt>
      <trkpt lat="43.6521" lon="1.19001">
        <ele>233.4</ele>
        <time>2023-10-31T15:16:13Z</time>
      </trkpt>
      <trkpt lat="43.65188" lon="1.18992">
        <ele>233.8</ele>
        <time>2023-10-31T15:16:18Z</time>
      </trkpt>
      <trkpt lat="43.65162" lon="1.18983">
        <ele>233.8</ele>
        <time>2023-10-31T15:16:23Z</time>
      </trkpt>
      <trkpt lat="43.6515" lon="1.1898">
        <ele>233.6</ele>
        <time>2023-10-31T15:16:25Z</time>
      </trkpt>
      <trkpt lat="43.65142" lon="1.18977">
        <ele>233.6</ele>
        <time>2023-10-31T15:16:26Z</time>
      </trkpt>
      <trkpt lat="43.65121" lon="1.18972">
        <ele>233</ele>
        <time>2023-10-31T15:16:29Z</time>
      </trkpt>
      <trkpt lat="43.65084" lon="1.18969">
        <ele>232.2</ele>
        <time>2023-10-31T15:16:34Z</time>
      </trkpt>
      <trkpt lat="43.65077" lon="1.1897">
        <ele>232.2</ele>
        <time>2023-10-31T15:16:35Z</time>
      </trkpt>
      <trkpt lat="43.65032" lon="1.18968">
        <ele>232</ele>
        <time>2023-10-31T15:16:41Z</time>
      </trkpt>
      <trkpt lat="43.64986" lon="1.18973">
        <ele>232.2</ele>
        <time>2023-10-31T15:16:48Z</time>
      </trkpt>
      <trkpt lat="43.64972" lon="1.1898">
        <ele>232.2</ele>
        <time>2023-10-31T15:16:50Z</time>
      </trkpt>
      <trkpt lat="43.64961" lon="1.18991">
        <ele>232.2</ele>
        <time>2023-10-31T15:16:52Z</time>
      </trkpt>
      <trkpt lat="43.64945" lon="1.18999">
        <ele>232</ele>
        <time>2023-10-31T15:16:54Z</time>
      </trkpt>
      <trkpt lat="43.6494" lon="1.18999">
        <ele>232</ele>
        <time>2023-10-31T15:16:55Z</time>
      </trkpt>
      <trkpt lat="43.64917" lon="1.18996">
        <ele>230.8</ele>
        <time>2023-10-31T15:16:58Z</time>
      </trkpt>
      <trkpt lat="43.6489" lon="1.18994">
        <ele>230.4</ele>
        <time>2023-10-31T15:17:02Z</time>
      </trkpt>
      <trkpt lat="43.64854" lon="1.18996">
        <ele>232</ele>
        <time>2023-10-31T15:17:08Z</time>
      </trkpt>
      <trkpt lat="43.64826" lon="1.19003">
        <ele>233.2</ele>
        <time>2023-10-31T15:17:13Z</time>
      </trkpt>
      <trkpt lat="43.64802" lon="1.1901">
        <ele>234.2</ele>
        <time>2023-10-31T15:17:17Z</time>
      </trkpt>
      <trkpt lat="43.64792" lon="1.19013">
        <ele>234.4</ele>
        <time>2023-10-31T15:17:19Z</time>
      </trkpt>
      <trkpt lat="43.6475" lon="1.19027">
        <ele>235</ele>
        <time>2023-10-31T15:17:26Z</time>
      </trkpt>
      <trkpt lat="43.64713" lon="1.19029">
        <ele>235.2</ele>
        <time>2023-10-31T15:17:32Z</time>
      </trkpt>
      <trkpt lat="43.64668" lon="1.19037">
        <ele>235.4</ele>
        <time>2023-10-31T15:17:39Z</time>
      </trkpt>
      <trkpt lat="43.64612" lon="1.19056">
        <ele>236.2</ele>
        <time>2023-10-31T15:17:48Z</time>
      </trkpt>
      <trkpt lat="43.64594" lon="1.19062">
        <ele>236.4</ele>
        <time>2023-10-31T15:17:51Z</time>
      </trkpt>
      <trkpt lat="43.64537" lon="1.19074">
        <ele>236.8</ele>
        <time>2023-10-31T15:18:00Z</time>
      </trkpt>
      <trkpt lat="43.64492" lon="1.19076">
        <ele>237.4</ele>
        <time>2023-10-31T15:18:07Z</time>
      </trkpt>
      <trkpt lat="43.64465" lon="1.1908">
        <ele>237.4</ele>
        <time>2023-10-31T15:18:11Z</time>
      </trkpt>
      <trkpt lat="43.64409" lon="1.19094">
        <ele>237.2</ele>
        <time>2023-10-31T15:18:19Z</time>
      </trkpt>
      <trkpt lat="43.64402" lon="1.19096">
        <ele>237</ele>
        <time>2023-10-31T15:18:20Z</time>
      </trkpt>
      <trkpt lat="43.64371" lon="1.19101">
        <ele>236.2</ele>
        <time>2023-10-31T15:18:24Z</time>
      </trkpt>
      <trkpt lat="43.64332" lon="1.19106">
        <ele>235.2</ele>
        <time>2023-10-31T15:18:29Z</time>
      </trkpt>
      <trkpt lat="43.64294" lon="1.19103">
        <ele>234</ele>
        <time>2023-10-31T15:18:34Z</time>
      </trkpt>
      <trkpt lat="43.64279" lon="1.19101">
        <ele>233.8</ele>
        <time>2023-10-31T15:18:36Z</time>
      </trkpt>
      <trkpt lat="43.64243" lon="1.191">
        <ele>233.6</ele>
        <time>2023-10-31T15:18:41Z</time>
      </trkpt>
      <trkpt lat="43.64237" lon="1.19097">
        <ele>233.6</ele>
        <time>2023-10-31T15:18:42Z</time>
      </trkpt>
      <trkpt lat="43.64232" lon="1.19092">
        <ele>233.6</ele>
        <time>2023-10-31T15:18:43Z</time>
      </trkpt>
      <trkpt lat="43.64222" lon="1.19082">
        <ele>233.8</ele>
        <time>2023-10-31T15:18:45Z</time>
      </trkpt>
      <trkpt lat="43.6421" lon="1.19074">
        <ele>233.8</ele>
        <time>2023-10-31T15:18:47Z</time>
      </trkpt>
      <trkpt lat="43.6416" lon="1.19054">
        <ele>234.6</ele>
        <time>2023-10-31T15:18:55Z</time>
      </trkpt>
      <trkpt lat="43.64137" lon="1.1904">
        <ele>235</ele>
        <time>2023-10-31T15:18:59Z</time>
      </trkpt>
      <trkpt lat="43.64106" lon="1.19024">
        <ele>236</ele>
        <time>2023-10-31T15:19:04Z</time>
      </trkpt>
      <trkpt lat="43.64094" lon="1.1902">
        <ele>236.2</ele>
        <time>2023-10-31T15:19:06Z</time>
      </trkpt>
      <trkpt lat="43.64054" lon="1.1901">
        <ele>236.6</ele>
        <time>2023-10-31T15:19:12Z</time>
      </trkpt>
      <trkpt lat="43.64009" lon="1.18988">
        <ele>237.2</ele>
        <time>2023-10-31T15:19:19Z</time>
      </trkpt>
      <trkpt lat="43.64003" lon="1.18984">
        <ele>237.4</ele>
        <time>2023-10-31T15:19:20Z</time>
      </trkpt>
      <trkpt lat="43.63954" lon="1.1895">
        <ele>238.2</ele>
        <time>2023-10-31T15:19:28Z</time>
      </trkpt>
      <trkpt lat="43.63904" lon="1.18919">
        <ele>238.4</ele>
        <time>2023-10-31T15:19:36Z</time>
      </trkpt>
      <trkpt lat="43.63898" lon="1.18914">
        <ele>238.4</ele>
        <time>2023-10-31T15:19:37Z</time>
      </trkpt>
      <trkpt lat="43.63864" lon="1.18878">
        <ele>237.8</ele>
        <time>2023-10-31T15:19:43Z</time>
      </trkpt>
      <trkpt lat="43.63829" lon="1.18841">
        <ele>237.4</ele>
        <time>2023-10-31T15:19:49Z</time>
      </trkpt>
      <trkpt lat="43.63791" lon="1.18814">
        <ele>237.4</ele>
        <time>2023-10-31T15:19:55Z</time>
      </trkpt>
      <trkpt lat="43.63742" lon="1.18796">
        <ele>237.6</ele>
        <time>2023-10-31T15:20:02Z</time>
      </trkpt>
      <trkpt lat="43.6369" lon="1.18786">
        <ele>237.8</ele>
        <time>2023-10-31T15:20:09Z</time>
      </trkpt>
      <trkpt lat="43.63633" lon="1.18776">
        <ele>238.2</ele>
        <time>2023-10-31T15:20:17Z</time>
      </trkpt>
      <trkpt lat="43.63578" lon="1.18766">
        <ele>238.2</ele>
        <time>2023-10-31T15:20:25Z</time>
      </trkpt>
      <trkpt lat="43.63551" lon="1.1876">
        <ele>238.2</ele>
        <time>2023-10-31T15:20:29Z</time>
      </trkpt>
      <trkpt lat="43.63541" lon="1.18751">
        <ele>238.4</ele>
        <time>2023-10-31T15:20:31Z</time>
      </trkpt>
      <trkpt lat="43.63538" lon="1.18735">
        <ele>238.4</ele>
        <time>2023-10-31T15:20:33Z</time>
      </trkpt>
      <trkpt lat="43.63538" lon="1.18726">
        <ele>238.4</ele>
        <time>2023-10-31T15:20:34Z</time>
      </trkpt>
      <trkpt lat="43.63538" lon="1.18671">
        <ele>238.4</ele>
        <time>2023-10-31T15:20:40Z</time>
      </trkpt>
      <trkpt lat="43.63537" lon="1.18624">
        <ele>238.6</ele>
        <time>2023-10-31T15:20:45Z</time>
      </trkpt>
      <trkpt lat="43.63535" lon="1.18549">
        <ele>239.2</ele>
        <time>2023-10-31T15:20:53Z</time>
      </trkpt>
      <trkpt lat="43.63535" lon="1.1853">
        <ele>239.2</ele>
        <time>2023-10-31T15:20:55Z</time>
      </trkpt>
      <trkpt lat="43.63534" lon="1.18502">
        <ele>239.4</ele>
        <time>2023-10-31T15:20:58Z</time>
      </trkpt>
      <trkpt lat="43.63533" lon="1.18449">
        <ele>239.8</ele>
        <time>2023-10-31T15:21:04Z</time>
      </trkpt>
      <trkpt lat="43.6353" lon="1.18391">
        <ele>240.6</ele>
        <time>2023-10-31T15:21:11Z</time>
      </trkpt>
      <trkpt lat="43.6353" lon="1.18338">
        <ele>241.8</ele>
        <time>2023-10-31T15:21:18Z</time>
      </trkpt>
      <trkpt lat="43.6353" lon="1.18331">
        <ele>242</ele>
        <time>2023-10-31T15:21:19Z</time>
      </trkpt>
      <trkpt lat="43.63531" lon="1.18294">
        <ele>242.8</ele>
        <time>2023-10-31T15:21:24Z</time>
      </trkpt>
      <trkpt lat="43.63531" lon="1.18273">
        <ele>243.2</ele>
        <time>2023-10-31T15:21:27Z</time>
      </trkpt>
      <trkpt lat="43.63532" lon="1.18254">
        <ele>244</ele>
        <time>2023-10-31T15:21:30Z</time>
      </trkpt>
      <trkpt lat="43.63532" lon="1.18248">
        <ele>244</ele>
        <time>2023-10-31T15:21:31Z</time>
      </trkpt>
      <trkpt lat="43.63532" lon="1.18235">
        <ele>244.6</ele>
        <time>2023-10-31T15:21:33Z</time>
      </trkpt>
      <trkpt lat="43.63531" lon="1.18223">
        <ele>245.2</ele>
        <time>2023-10-31T15:21:35Z</time>
      </trkpt>
      <trkpt lat="43.63528" lon="1.18201">
        <ele>245.8</ele>
        <time>2023-10-31T15:21:39Z</time>
      </trkpt>
      <trkpt lat="43.63524" lon="1.18191">
        <ele>246.4</ele>
        <time>2023-10-31T15:21:41Z</time>
      </trkpt>
      <trkpt lat="43.63518" lon="1.18183">
        <ele>247</ele>
        <time>2023-10-31T15:21:43Z</time>
      </trkpt>
      <trkpt lat="43.63514" lon="1.1818">
        <ele>247.2</ele>
        <time>2023-10-31T15:21:44Z</time>
      </trkpt>
      <trkpt lat="43.6351" lon="1.18178">
        <ele>247.4</ele>
        <time>2023-10-31T15:21:45Z</time>
      </trkpt>
      <trkpt lat="43.63506" lon="1.18176">
        <ele>247.6</ele>
        <time>2023-10-31T15:21:46Z</time>
      </trkpt>
      <trkpt lat="43.63498" lon="1.18172">
        <ele>248</ele>
        <time>2023-10-31T15:21:48Z</time>
      </trkpt>
      <trkpt lat="43.63494" lon="1.18171">
        <ele>248</ele>
        <time>2023-10-31T15:21:49Z</time>
      </trkpt>
      <trkpt lat="43.63486" lon="1.18168">
        <ele>248.6</ele>
        <time>2023-10-31T15:21:51Z</time>
      </trkpt>
      <trkpt lat="43.63474" lon="1.18162">
        <ele>249.4</ele>
        <time>2023-10-31T15:21:54Z</time>
      </trkpt>
      <trkpt lat="43.6347" lon="1.18159">
        <ele>249.6</ele>
        <time>2023-10-31T15:21:55Z</time>
      </trkpt>
      <trkpt lat="43.63465" lon="1.18156">
        <ele>249.8</ele>
        <time>2023-10-31T15:21:56Z</time>
      </trkpt>
      <trkpt lat="43.63459" lon="1.18145">
        <ele>249.8</ele>
        <time>2023-10-31T15:21:58Z</time>
      </trkpt>
      <trkpt lat="43.63456" lon="1.1814">
        <ele>250</ele>
        <time>2023-10-31T15:21:59Z</time>
      </trkpt>
      <trkpt lat="43.63451" lon="1.18128">
        <ele>250.2</ele>
        <time>2023-10-31T15:22:01Z</time>
      </trkpt>
      <trkpt lat="43.63442" lon="1.18118">
        <ele>250.2</ele>
        <time>2023-10-31T15:22:03Z</time>
      </trkpt>
      <trkpt lat="43.63431" lon="1.18113">
        <ele>250.4</ele>
        <time>2023-10-31T15:22:05Z</time>
      </trkpt>
      <trkpt lat="43.63419" lon="1.1811">
        <ele>250.4</ele>
        <time>2023-10-31T15:22:07Z</time>
      </trkpt>
      <trkpt lat="43.63375" lon="1.18099">
        <ele>250</ele>
        <time>2023-10-31T15:22:14Z</time>
      </trkpt>
      <trkpt lat="43.63333" lon="1.18087">
        <ele>249</ele>
        <time>2023-10-31T15:22:21Z</time>
      </trkpt>
      <trkpt lat="43.6332" lon="1.18075">
        <ele>249</ele>
        <time>2023-10-31T15:22:24Z</time>
      </trkpt>
      <trkpt lat="43.63309" lon="1.18071">
        <ele>249</ele>
        <time>2023-10-31T15:22:26Z</time>
      </trkpt>
      <trkpt lat="43.63304" lon="1.18071">
        <ele>248.8</ele>
        <time>2023-10-31T15:22:27Z</time>
      </trkpt>
      <trkpt lat="43.63293" lon="1.18071">
        <ele>248.8</ele>
        <time>2023-10-31T15:22:29Z</time>
      </trkpt>
      <trkpt lat="43.63284" lon="1.18074">
        <ele>248.8</ele>
        <time>2023-10-31T15:22:31Z</time>
      </trkpt>
      <trkpt lat="43.63272" lon="1.18079">
        <ele>249</ele>
        <time>2023-10-31T15:22:34Z</time>
      </trkpt>
      <trkpt lat="43.63262" lon="1.18081">
        <ele>249.4</ele>
        <time>2023-10-31T15:22:36Z</time>
      </trkpt>
      <trkpt lat="43.63213" lon="1.18093">
        <ele>250.6</ele>
        <time>2023-10-31T15:22:45Z</time>
      </trkpt>
      <trkpt lat="43.63201" lon="1.18097">
        <ele>250.8</ele>
        <time>2023-10-31T15:22:47Z</time>
      </trkpt>
      <trkpt lat="43.63164" lon="1.18106">
        <ele>250.8</ele>
        <time>2023-10-31T15:22:53Z</time>
      </trkpt>
      <trkpt lat="43.63105" lon="1.18121">
        <ele>250.8</ele>
        <time>2023-10-31T15:23:02Z</time>
      </trkpt>
      <trkpt lat="43.6306" lon="1.18143">
        <ele>251.2</ele>
        <time>2023-10-31T15:23:09Z</time>
      </trkpt>
      <trkpt lat="43.63028" lon="1.18169">
        <ele>251</ele>
        <time>2023-10-31T15:23:14Z</time>
      </trkpt>
      <trkpt lat="43.62981" lon="1.18206">
        <ele>249.8</ele>
        <time>2023-10-31T15:23:21Z</time>
      </trkpt>
      <trkpt lat="43.6293" lon="1.18246">
        <ele>248.8</ele>
        <time>2023-10-31T15:23:28Z</time>
      </trkpt>
      <trkpt lat="43.62915" lon="1.18259">
        <ele>248.6</ele>
        <time>2023-10-31T15:23:30Z</time>
      </trkpt>
      <trkpt lat="43.62878" lon="1.18291">
        <ele>247.6</ele>
        <time>2023-10-31T15:23:35Z</time>
      </trkpt>
      <trkpt lat="43.62844" lon="1.18324">
        <ele>246.8</ele>
        <time>2023-10-31T15:23:40Z</time>
      </trkpt>
      <trkpt lat="43.62799" lon="1.18368">
        <ele>246.8</ele>
        <time>2023-10-31T15:23:47Z</time>
      </trkpt>
      <trkpt lat="43.62759" lon="1.18395">
        <ele>247.2</ele>
        <time>2023-10-31T15:23:53Z</time>
      </trkpt>
      <trkpt lat="43.62711" lon="1.18418">
        <ele>247.8</ele>
        <time>2023-10-31T15:24:00Z</time>
      </trkpt>
      <trkpt lat="43.62674" lon="1.18436">
        <ele>248.8</ele>
        <time>2023-10-31T15:24:06Z</time>
      </trkpt>
      <trkpt lat="43.62662" lon="1.18443">
        <ele>249</ele>
        <time>2023-10-31T15:24:08Z</time>
      </trkpt>
      <trkpt lat="43.6264" lon="1.18457">
        <ele>249.8</ele>
        <time>2023-10-31T15:24:12Z</time>
      </trkpt>
      <trkpt lat="43.6262" lon="1.18473">
        <ele>250.8</ele>
        <time>2023-10-31T15:24:16Z</time>
      </trkpt>
      <trkpt lat="43.62615" lon="1.18478">
        <ele>251</ele>
        <time>2023-10-31T15:24:17Z</time>
      </trkpt>
      <trkpt lat="43.62595" lon="1.18496">
        <ele>252.2</ele>
        <time>2023-10-31T15:24:21Z</time>
      </trkpt>
      <trkpt lat="43.62577" lon="1.18517">
        <ele>252.6</ele>
        <time>2023-10-31T15:24:25Z</time>
      </trkpt>
      <trkpt lat="43.62567" lon="1.18528">
        <ele>253</ele>
        <time>2023-10-31T15:24:27Z</time>
      </trkpt>
      <trkpt lat="43.62531" lon="1.18574">
        <ele>253.4</ele>
        <time>2023-10-31T15:24:35Z</time>
      </trkpt>
      <trkpt lat="43.62486" lon="1.18622">
        <ele>254</ele>
        <time>2023-10-31T15:24:44Z</time>
      </trkpt>
      <trkpt lat="43.6248" lon="1.18626">
        <ele>254.2</ele>
        <time>2023-10-31T15:24:45Z</time>
      </trkpt>
      <trkpt lat="43.62443" lon="1.18657">
        <ele>254.6</ele>
        <time>2023-10-31T15:24:52Z</time>
      </trkpt>
      <trkpt lat="43.62393" lon="1.187">
        <ele>254.8</ele>
        <time>2023-10-31T15:25:01Z</time>
      </trkpt>
      <trkpt lat="43.62388" lon="1.18705">
        <ele>254.8</ele>
        <time>2023-10-31T15:25:02Z</time>
      </trkpt>
      <trkpt lat="43.62367" lon="1.18731">
        <ele>254.4</ele>
        <time>2023-10-31T15:25:06Z</time>
      </trkpt>
      <trkpt lat="43.62362" lon="1.1874">
        <ele>254.2</ele>
        <time>2023-10-31T15:25:07Z</time>
      </trkpt>
      <trkpt lat="43.62326" lon="1.18792">
        <ele>252.8</ele>
        <time>2023-10-31T15:25:13Z</time>
      </trkpt>
      <trkpt lat="43.62305" lon="1.18817">
        <ele>251.8</ele>
        <time>2023-10-31T15:25:16Z</time>
      </trkpt>
      <trkpt lat="43.6229" lon="1.18835">
        <ele>251.2</ele>
        <time>2023-10-31T15:25:18Z</time>
      </trkpt>
      <trkpt lat="43.62283" lon="1.18843">
        <ele>251.2</ele>
        <time>2023-10-31T15:25:19Z</time>
      </trkpt>
      <trkpt lat="43.62276" lon="1.18853">
        <ele>250.4</ele>
        <time>2023-10-31T15:25:20Z</time>
      </trkpt>
      <trkpt lat="43.62262" lon="1.18869">
        <ele>249.2</ele>
        <time>2023-10-31T15:25:22Z</time>
      </trkpt>
      <trkpt lat="43.62241" lon="1.18893">
        <ele>247.8</ele>
        <time>2023-10-31T15:25:25Z</time>
      </trkpt>
      <trkpt lat="43.62234" lon="1.18902">
        <ele>247.6</ele>
        <time>2023-10-31T15:25:26Z</time>
      </trkpt>
      <trkpt lat="43.62214" lon="1.18924">
        <ele>246.6</ele>
        <time>2023-10-31T15:25:29Z</time>
      </trkpt>
      <trkpt lat="43.62192" lon="1.18942">
        <ele>246</ele>
        <time>2023-10-31T15:25:32Z</time>
      </trkpt>
      <trkpt lat="43.6216" lon="1.18962">
        <ele>245.4</ele>
        <time>2023-10-31T15:25:36Z</time>
      </trkpt>
      <trkpt lat="43.62143" lon="1.18972">
        <ele>245.2</ele>
        <time>2023-10-31T15:25:38Z</time>
      </trkpt>
      <trkpt lat="43.62126" lon="1.18981">
        <ele>244.6</ele>
        <time>2023-10-31T15:25:40Z</time>
      </trkpt>
      <trkpt lat="43.62117" lon="1.18984">
        <ele>244.4</ele>
        <time>2023-10-31T15:25:41Z</time>
      </trkpt>
      <trkpt lat="43.62081" lon="1.18992">
        <ele>243.2</ele>
        <time>2023-10-31T15:25:45Z</time>
      </trkpt>
      <trkpt lat="43.62071" lon="1.18993">
        <ele>242.8</ele>
        <time>2023-10-31T15:25:46Z</time>
      </trkpt>
      <trkpt lat="43.62043" lon="1.18987">
        <ele>241.8</ele>
        <time>2023-10-31T15:25:49Z</time>
      </trkpt>
      <trkpt lat="43.62014" lon="1.18982">
        <ele>240.8</ele>
        <time>2023-10-31T15:25:52Z</time>
      </trkpt>
      <trkpt lat="43.62004" lon="1.18982">
        <ele>240.8</ele>
        <time>2023-10-31T15:25:53Z</time>
      </trkpt>
      <trkpt lat="43.61995" lon="1.18984">
        <ele>240</ele>
        <time>2023-10-31T15:25:54Z</time>
      </trkpt>
      <trkpt lat="43.61985" lon="1.18987">
        <ele>239.2</ele>
        <time>2023-10-31T15:25:55Z</time>
      </trkpt>
      <trkpt lat="43.61976" lon="1.18992">
        <ele>238.8</ele>
        <time>2023-10-31T15:25:56Z</time>
      </trkpt>
      <trkpt lat="43.61968" lon="1.18999">
        <ele>238</ele>
        <time>2023-10-31T15:25:57Z</time>
      </trkpt>
      <trkpt lat="43.6196" lon="1.19007">
        <ele>237.8</ele>
        <time>2023-10-31T15:25:58Z</time>
      </trkpt>
      <trkpt lat="43.61946" lon="1.19026">
        <ele>237.2</ele>
        <time>2023-10-31T15:26:00Z</time>
      </trkpt>
      <trkpt lat="43.6194" lon="1.19037">
        <ele>236.6</ele>
        <time>2023-10-31T15:26:01Z</time>
      </trkpt>
      <trkpt lat="43.61926" lon="1.19071">
        <ele>235.6</ele>
        <time>2023-10-31T15:26:04Z</time>
      </trkpt>
      <trkpt lat="43.61921" lon="1.19082">
        <ele>235.2</ele>
        <time>2023-10-31T15:26:05Z</time>
      </trkpt>
      <trkpt lat="43.61913" lon="1.19105">
        <ele>234.4</ele>
        <time>2023-10-31T15:26:07Z</time>
      </trkpt>
      <trkpt lat="43.61901" lon="1.19142">
        <ele>233.2</ele>
        <time>2023-10-31T15:26:10Z</time>
      </trkpt>
      <trkpt lat="43.61892" lon="1.19162">
        <ele>232.4</ele>
        <time>2023-10-31T15:26:12Z</time>
      </trkpt>
      <trkpt lat="43.61886" lon="1.19172">
        <ele>232</ele>
        <time>2023-10-31T15:26:13Z</time>
      </trkpt>
      <trkpt lat="43.61861" lon="1.1921">
        <ele>231</ele>
        <time>2023-10-31T15:26:17Z</time>
      </trkpt>
      <trkpt lat="43.61848" lon="1.19229">
        <ele>230.8</ele>
        <time>2023-10-31T15:26:19Z</time>
      </trkpt>
      <trkpt lat="43.61811" lon="1.19285">
        <ele>230</ele>
        <time>2023-10-31T15:26:25Z</time>
      </trkpt>
      <trkpt lat="43.61804" lon="1.19294">
        <ele>230</ele>
        <time>2023-10-31T15:26:26Z</time>
      </trkpt>
      <trkpt lat="43.61786" lon="1.19321">
        <ele>229.8</ele>
        <time>2023-10-31T15:26:29Z</time>
      </trkpt>
      <trkpt lat="43.61748" lon="1.19378">
        <ele>229</ele>
        <time>2023-10-31T15:26:35Z</time>
      </trkpt>
      <trkpt lat="43.61736" lon="1.19398">
        <ele>228.6</ele>
        <time>2023-10-31T15:26:37Z</time>
      </trkpt>
      <trkpt lat="43.61713" lon="1.1944">
        <ele>227.8</ele>
        <time>2023-10-31T15:26:41Z</time>
      </trkpt>
      <trkpt lat="43.61707" lon="1.19451">
        <ele>227.6</ele>
        <time>2023-10-31T15:26:42Z</time>
      </trkpt>
      <trkpt lat="43.61674" lon="1.19518">
        <ele>226.4</ele>
        <time>2023-10-31T15:26:48Z</time>
      </trkpt>
      <trkpt lat="43.61664" lon="1.19543">
        <ele>225.8</ele>
        <time>2023-10-31T15:26:50Z</time>
      </trkpt>
      <trkpt lat="43.61655" lon="1.19567">
        <ele>225.4</ele>
        <time>2023-10-31T15:26:52Z</time>
      </trkpt>
      <trkpt lat="43.61644" lon="1.19608">
        <ele>224.8</ele>
        <time>2023-10-31T15:26:55Z</time>
      </trkpt>
      <trkpt lat="43.61641" lon="1.19618">
        <ele>224.6</ele>
        <time>2023-10-31T15:26:56Z</time>
      </trkpt>
      <trkpt lat="43.61631" lon="1.19656">
        <ele>224</ele>
        <time>2023-10-31T15:26:59Z</time>
      </trkpt>
      <trkpt lat="43.61613" lon="1.19729">
        <ele>223.2</ele>
        <time>2023-10-31T15:27:05Z</time>
      </trkpt>
      <trkpt lat="43.61599" lon="1.19778">
        <ele>223</ele>
        <time>2023-10-31T15:27:09Z</time>
      </trkpt>
      <trkpt lat="43.6158" lon="1.19837">
        <ele>222.2</ele>
        <time>2023-10-31T15:27:14Z</time>
      </trkpt>
      <trkpt lat="43.61567" lon="1.19873">
        <ele>221.8</ele>
        <time>2023-10-31T15:27:17Z</time>
      </trkpt>
      <trkpt lat="43.61542" lon="1.19943">
        <ele>221</ele>
        <time>2023-10-31T15:27:23Z</time>
      </trkpt>
      <trkpt lat="43.61533" lon="1.19969">
        <ele>220.6</ele>
        <time>2023-10-31T15:27:25Z</time>
      </trkpt>
      <trkpt lat="43.6153" lon="1.19978">
        <ele>220.2</ele>
        <time>2023-10-31T15:27:26Z</time>
      </trkpt>
      <trkpt lat="43.61503" lon="1.20056">
        <ele>219.8</ele>
        <time>2023-10-31T15:27:33Z</time>
      </trkpt>
      <trkpt lat="43.61478" lon="1.20129">
        <ele>219.2</ele>
        <time>2023-10-31T15:27:39Z</time>
      </trkpt>
      <trkpt lat="43.61467" lon="1.20161">
        <ele>218.4</ele>
        <time>2023-10-31T15:27:42Z</time>
      </trkpt>
      <trkpt lat="43.61457" lon="1.20187">
        <ele>218</ele>
        <time>2023-10-31T15:27:44Z</time>
      </trkpt>
      <trkpt lat="43.61437" lon="1.20255">
        <ele>217.2</ele>
        <time>2023-10-31T15:27:50Z</time>
      </trkpt>
      <trkpt lat="43.61427" lon="1.20294">
        <ele>216.8</ele>
        <time>2023-10-31T15:27:53Z</time>
      </trkpt>
      <trkpt lat="43.61409" lon="1.20362">
        <ele>216</ele>
        <time>2023-10-31T15:27:59Z</time>
      </trkpt>
      <trkpt lat="43.61394" lon="1.2042">
        <ele>215.6</ele>
        <time>2023-10-31T15:28:04Z</time>
      </trkpt>
      <trkpt lat="43.61384" lon="1.20456">
        <ele>215.2</ele>
        <time>2023-10-31T15:28:07Z</time>
      </trkpt>
      <trkpt lat="43.61366" lon="1.20506">
        <ele>214.4</ele>
        <time>2023-10-31T15:28:11Z</time>
      </trkpt>
      <trkpt lat="43.61357" lon="1.20526">
        <ele>214</ele>
        <time>2023-10-31T15:28:13Z</time>
      </trkpt>
      <trkpt lat="43.61339" lon="1.20561">
        <ele>213.4</ele>
        <time>2023-10-31T15:28:16Z</time>
      </trkpt>
      <trkpt lat="43.61321" lon="1.20588">
        <ele>213.2</ele>
        <time>2023-10-31T15:28:19Z</time>
      </trkpt>
      <trkpt lat="43.61291" lon="1.20626">
        <ele>212.2</ele>
        <time>2023-10-31T15:28:23Z</time>
      </trkpt>
      <trkpt lat="43.61262" lon="1.2066">
        <ele>211.8</ele>
        <time>2023-10-31T15:28:27Z</time>
      </trkpt>
      <trkpt lat="43.61241" lon="1.20684">
        <ele>211</ele>
        <time>2023-10-31T15:28:30Z</time>
      </trkpt>
      <trkpt lat="43.61213" lon="1.20716">
        <ele>209.8</ele>
        <time>2023-10-31T15:28:34Z</time>
      </trkpt>
      <trkpt lat="43.61182" lon="1.20751">
        <ele>209.4</ele>
        <time>2023-10-31T15:28:38Z</time>
      </trkpt>
      <trkpt lat="43.61153" lon="1.20785">
        <ele>208.6</ele>
        <time>2023-10-31T15:28:43Z</time>
      </trkpt>
      <trkpt lat="43.61116" lon="1.20827">
        <ele>208</ele>
        <time>2023-10-31T15:28:48Z</time>
      </trkpt>
      <trkpt lat="43.61094" lon="1.20852">
        <ele>207.6</ele>
        <time>2023-10-31T15:28:50Z</time>
      </trkpt>
      <trkpt lat="43.6105" lon="1.20903">
        <ele>207</ele>
        <time>2023-10-31T15:28:56Z</time>
      </trkpt>
      <trkpt lat="43.61042" lon="1.20912">
        <ele>206.8</ele>
        <time>2023-10-31T15:28:57Z</time>
      </trkpt>
      <trkpt lat="43.61042" lon="1.20912">
        <ele>206.6</ele>
        <time>2023-10-31T15:28:58Z</time>
      </trkpt>
      <trkpt lat="43.61" lon="1.20964">
        <ele>206.2</ele>
        <time>2023-10-31T15:29:03Z</time>
      </trkpt>
      <trkpt lat="43.60979" lon="1.20991">
        <ele>205.8</ele>
        <time>2023-10-31T15:29:06Z</time>
      </trkpt>
      <trkpt lat="43.60962" lon="1.21021">
        <ele>205.6</ele>
        <time>2023-10-31T15:29:09Z</time>
      </trkpt>
      <trkpt lat="43.60952" lon="1.21043">
        <ele>205</ele>
        <time>2023-10-31T15:29:11Z</time>
      </trkpt>
      <trkpt lat="43.60939" lon="1.21078">
        <ele>204.6</ele>
        <time>2023-10-31T15:29:14Z</time>
      </trkpt>
      <trkpt lat="43.60922" lon="1.21124">
        <ele>204.2</ele>
        <time>2023-10-31T15:29:18Z</time>
      </trkpt>
      <trkpt lat="43.609" lon="1.21183">
        <ele>203.6</ele>
        <time>2023-10-31T15:29:23Z</time>
      </trkpt>
      <trkpt lat="43.60887" lon="1.21217">
        <ele>203.2</ele>
        <time>2023-10-31T15:29:26Z</time>
      </trkpt>
      <trkpt lat="43.60866" lon="1.21275">
        <ele>202.4</ele>
        <time>2023-10-31T15:29:31Z</time>
      </trkpt>
      <trkpt lat="43.6084" lon="1.21343">
        <ele>202</ele>
        <time>2023-10-31T15:29:37Z</time>
      </trkpt>
      <trkpt lat="43.60824" lon="1.21389">
        <ele>201.2</ele>
        <time>2023-10-31T15:29:41Z</time>
      </trkpt>
      <trkpt lat="43.60798" lon="1.21457">
        <ele>200.8</ele>
        <time>2023-10-31T15:29:47Z</time>
      </trkpt>
      <trkpt lat="43.60773" lon="1.21525">
        <ele>200.4</ele>
        <time>2023-10-31T15:29:53Z</time>
      </trkpt>
      <trkpt lat="43.60765" lon="1.21548">
        <ele>200.4</ele>
        <time>2023-10-31T15:29:55Z</time>
      </trkpt>
      <trkpt lat="43.60757" lon="1.2157">
        <ele>200.2</ele>
        <time>2023-10-31T15:29:57Z</time>
      </trkpt>
      <trkpt lat="43.60732" lon="1.21638">
        <ele>199.4</ele>
        <time>2023-10-31T15:30:03Z</time>
      </trkpt>
      <trkpt lat="43.60706" lon="1.21703">
        <ele>199.4</ele>
        <time>2023-10-31T15:30:09Z</time>
      </trkpt>
      <trkpt lat="43.60684" lon="1.21758">
        <ele>199.2</ele>
        <time>2023-10-31T15:30:14Z</time>
      </trkpt>
      <trkpt lat="43.60671" lon="1.2179">
        <ele>199.2</ele>
        <time>2023-10-31T15:30:17Z</time>
      </trkpt>
      <trkpt lat="43.60641" lon="1.21863">
        <ele>199.2</ele>
        <time>2023-10-31T15:30:24Z</time>
      </trkpt>
      <trkpt lat="43.60637" lon="1.21873">
        <ele>199.2</ele>
        <time>2023-10-31T15:30:25Z</time>
      </trkpt>
      <trkpt lat="43.60606" lon="1.21945">
        <ele>199.2</ele>
        <time>2023-10-31T15:30:32Z</time>
      </trkpt>
      <trkpt lat="43.60581" lon="1.22006">
        <ele>198.8</ele>
        <time>2023-10-31T15:30:38Z</time>
      </trkpt>
      <trkpt lat="43.60556" lon="1.22078">
        <ele>198.6</ele>
        <time>2023-10-31T15:30:45Z</time>
      </trkpt>
      <trkpt lat="43.60553" lon="1.22089">
        <ele>198.6</ele>
        <time>2023-10-31T15:30:46Z</time>
      </trkpt>
      <trkpt lat="43.60529" lon="1.2216">
        <ele>198.4</ele>
        <time>2023-10-31T15:30:53Z</time>
      </trkpt>
      <trkpt lat="43.60498" lon="1.22223">
        <ele>198.4</ele>
        <time>2023-10-31T15:31:00Z</time>
      </trkpt>
      <trkpt lat="43.60471" lon="1.22274">
        <ele>198.2</ele>
        <time>2023-10-31T15:31:06Z</time>
      </trkpt>
      <trkpt lat="43.60453" lon="1.22308">
        <ele>198</ele>
        <time>2023-10-31T15:31:10Z</time>
      </trkpt>
      <trkpt lat="43.60419" lon="1.22366">
        <ele>198.2</ele>
        <time>2023-10-31T15:31:17Z</time>
      </trkpt>
      <trkpt lat="43.60373" lon="1.22423">
        <ele>198.2</ele>
        <time>2023-10-31T15:31:25Z</time>
      </trkpt>
      <trkpt lat="43.60361" lon="1.2244">
        <ele>198.4</ele>
        <time>2023-10-31T15:31:27Z</time>
      </trkpt>
      <trkpt lat="43.60358" lon="1.22447">
        <ele>198.6</ele>
        <time>2023-10-31T15:31:28Z</time>
      </trkpt>
      <trkpt lat="43.6033" lon="1.22512">
        <ele>198.6</ele>
        <time>2023-10-31T15:31:35Z</time>
      </trkpt>
      <trkpt lat="43.60304" lon="1.22583">
        <ele>198.6</ele>
        <time>2023-10-31T15:31:43Z</time>
      </trkpt>
      <trkpt lat="43.60298" lon="1.22598">
        <ele>198.6</ele>
        <time>2023-10-31T15:31:45Z</time>
      </trkpt>
      <trkpt lat="43.60289" lon="1.2261">
        <ele>198.8</ele>
        <time>2023-10-31T15:31:47Z</time>
      </trkpt>
      <trkpt lat="43.60285" lon="1.22615">
        <ele>198.8</ele>
        <time>2023-10-31T15:31:48Z</time>
      </trkpt>
      <trkpt lat="43.6028" lon="1.22631">
        <ele>199</ele>
        <time>2023-10-31T15:31:50Z</time>
      </trkpt>
      <trkpt lat="43.60279" lon="1.2264">
        <ele>199.2</ele>
        <time>2023-10-31T15:31:51Z</time>
      </trkpt>
      <trkpt lat="43.60276" lon="1.22658">
        <ele>199.4</ele>
        <time>2023-10-31T15:31:53Z</time>
      </trkpt>
      <trkpt lat="43.60269" lon="1.22676">
        <ele>199.4</ele>
        <time>2023-10-31T15:31:55Z</time>
      </trkpt>
      <trkpt lat="43.60243" lon="1.22743">
        <ele>199.2</ele>
        <time>2023-10-31T15:32:02Z</time>
      </trkpt>
      <trkpt lat="43.60217" lon="1.22811">
        <ele>198.8</ele>
        <time>2023-10-31T15:32:09Z</time>
      </trkpt>
      <trkpt lat="43.60205" lon="1.2284">
        <ele>198.4</ele>
        <time>2023-10-31T15:32:12Z</time>
      </trkpt>
      <trkpt lat="43.60179" lon="1.22909">
        <ele>198.2</ele>
        <time>2023-10-31T15:32:19Z</time>
      </trkpt>
      <trkpt lat="43.60171" lon="1.22929">
        <ele>198.2</ele>
        <time>2023-10-31T15:32:21Z</time>
      </trkpt>
      <trkpt lat="43.60167" lon="1.22939">
        <ele>198.2</ele>
        <time>2023-10-31T15:32:22Z</time>
      </trkpt>
      <trkpt lat="43.6014" lon="1.23009">
        <ele>197.2</ele>
        <time>2023-10-31T15:32:28Z</time>
      </trkpt>
      <trkpt lat="43.60136" lon="1.23019">
        <ele>197</ele>
        <time>2023-10-31T15:32:29Z</time>
      </trkpt>
      <trkpt lat="43.60122" lon="1.23056">
        <ele>195.4</ele>
        <time>2023-10-31T15:32:32Z</time>
      </trkpt>
      <trkpt lat="43.60111" lon="1.23082">
        <ele>194.2</ele>
        <time>2023-10-31T15:32:34Z</time>
      </trkpt>
      <trkpt lat="43.601" lon="1.23107">
        <ele>193</ele>
        <time>2023-10-31T15:32:36Z</time>
      </trkpt>
      <trkpt lat="43.60087" lon="1.23129">
        <ele>191.8</ele>
        <time>2023-10-31T15:32:38Z</time>
      </trkpt>
      <trkpt lat="43.60075" lon="1.2315">
        <ele>190.6</ele>
        <time>2023-10-31T15:32:40Z</time>
      </trkpt>
      <trkpt lat="43.60069" lon="1.23159">
        <ele>190.2</ele>
        <time>2023-10-31T15:32:41Z</time>
      </trkpt>
      <trkpt lat="43.60047" lon="1.2319">
        <ele>190</ele>
        <time>2023-10-31T15:32:45Z</time>
      </trkpt>
      <trkpt lat="43.60042" lon="1.23195">
        <ele>190</ele>
        <time>2023-10-31T15:32:46Z</time>
      </trkpt>
      <trkpt lat="43.60037" lon="1.232">
        <ele>190.2</ele>
        <time>2023-10-31T15:32:47Z</time>
      </trkpt>
      <trkpt lat="43.6003" lon="1.2321">
        <ele>190.4</ele>
        <time>2023-10-31T15:32:49Z</time>
      </trkpt>
      <trkpt lat="43.60024" lon="1.2322">
        <ele>191</ele>
        <time>2023-10-31T15:32:51Z</time>
      </trkpt>
      <trkpt lat="43.60017" lon="1.23228">
        <ele>192.2</ele>
        <time>2023-10-31T15:32:53Z</time>
      </trkpt>
      <trkpt lat="43.6001" lon="1.23235">
        <ele>193</ele>
        <time>2023-10-31T15:32:55Z</time>
      </trkpt>
      <trkpt lat="43.60002" lon="1.23239">
        <ele>193.6</ele>
        <time>2023-10-31T15:32:57Z</time>
      </trkpt>
      <trkpt lat="43.59999" lon="1.23242">
        <ele>193.6</ele>
        <time>2023-10-31T15:32:58Z</time>
      </trkpt>
      <trkpt lat="43.59993" lon="1.23248">
        <ele>194.6</ele>
        <time>2023-10-31T15:33:01Z</time>
      </trkpt>
      <trkpt lat="43.59992" lon="1.2325">
        <ele>195</ele>
        <time>2023-10-31T15:33:02Z</time>
      </trkpt>
      <trkpt lat="43.59988" lon="1.23255">
        <ele>195.8</ele>
        <time>2023-10-31T15:33:04Z</time>
      </trkpt>
      <trkpt lat="43.59979" lon="1.23262">
        <ele>197</ele>
        <time>2023-10-31T15:33:08Z</time>
      </trkpt>
      <trkpt lat="43.59968" lon="1.2327">
        <ele>197.4</ele>
        <time>2023-10-31T15:33:11Z</time>
      </trkpt>
      <trkpt lat="43.59963" lon="1.23272">
        <ele>197.4</ele>
        <time>2023-10-31T15:33:12Z</time>
      </trkpt>
      <trkpt lat="43.59946" lon="1.23283">
        <ele>197.8</ele>
        <time>2023-10-31T15:33:16Z</time>
      </trkpt>
      <trkpt lat="43.59945" lon="1.23287">
        <ele>198</ele>
        <time>2023-10-31T15:33:17Z</time>
      </trkpt>
      <trkpt lat="43.59948" lon="1.23298">
        <ele>198</ele>
        <time>2023-10-31T15:33:19Z</time>
      </trkpt>
      <trkpt lat="43.59955" lon="1.23312">
        <ele>198.2</ele>
        <time>2023-10-31T15:33:21Z</time>
      </trkpt>
      <trkpt lat="43.59973" lon="1.23355">
        <ele>198.2</ele>
        <time>2023-10-31T15:33:27Z</time>
      </trkpt>
      <trkpt lat="43.59975" lon="1.23364">
        <ele>198.2</ele>
        <time>2023-10-31T15:33:28Z</time>
      </trkpt>
      <trkpt lat="43.59976" lon="1.23373">
        <ele>198.2</ele>
        <time>2023-10-31T15:33:29Z</time>
      </trkpt>
      <trkpt lat="43.59974" lon="1.23378">
        <ele>198.2</ele>
        <time>2023-10-31T15:33:30Z</time>
      </trkpt>
      <trkpt lat="43.59969" lon="1.23382">
        <ele>198.4</ele>
        <time>2023-10-31T15:33:31Z</time>
      </trkpt>
      <trkpt lat="43.59964" lon="1.23384">
        <ele>198.4</ele>
        <time>2023-10-31T15:33:32Z</time>
      </trkpt>
      <trkpt lat="43.59937" lon="1.23397">
        <ele>198.4</ele>
        <time>2023-10-31T15:33:38Z</time>
      </trkpt>
      <trkpt lat="43.59938" lon="1.23414">
        <ele>198.4</ele>
        <time>2023-10-31T15:33:40Z</time>
      </trkpt>
      <trkpt lat="43.5994" lon="1.23423">
        <ele>198.2</ele>
        <time>2023-10-31T15:33:41Z</time>
      </trkpt>
      <trkpt lat="43.5995" lon="1.23478">
        <ele>198.4</ele>
        <time>2023-10-31T15:33:47Z</time>
      </trkpt>
      <trkpt lat="43.59958" lon="1.23555">
        <ele>198.6</ele>
        <time>2023-10-31T15:33:55Z</time>
      </trkpt>
      <trkpt lat="43.5996" lon="1.23575">
        <ele>198.6</ele>
        <time>2023-10-31T15:33:57Z</time>
      </trkpt>
      <trkpt lat="43.59964" lon="1.23614">
        <ele>198</ele>
        <time>2023-10-31T15:34:01Z</time>
      </trkpt>
      <trkpt lat="43.5996" lon="1.23627">
        <ele>197.6</ele>
        <time>2023-10-31T15:34:03Z</time>
      </trkpt>
      <trkpt lat="43.5994" lon="1.23631">
        <ele>197</ele>
        <time>2023-10-31T15:34:06Z</time>
      </trkpt>
      <trkpt lat="43.59931" lon="1.23635">
        <ele>197</ele>
        <time>2023-10-31T15:34:07Z</time>
      </trkpt>
      <trkpt lat="43.59916" lon="1.23645">
        <ele>196.4</ele>
        <time>2023-10-31T15:34:09Z</time>
      </trkpt>
      <trkpt lat="43.59908" lon="1.23652">
        <ele>196</ele>
        <time>2023-10-31T15:34:10Z</time>
      </trkpt>
      <trkpt lat="43.59892" lon="1.23669">
        <ele>194.8</ele>
        <time>2023-10-31T15:34:12Z</time>
      </trkpt>
      <trkpt lat="43.59884" lon="1.23678">
        <ele>194.4</ele>
        <time>2023-10-31T15:34:13Z</time>
      </trkpt>
      <trkpt lat="43.59876" lon="1.23687">
        <ele>193.6</ele>
        <time>2023-10-31T15:34:14Z</time>
      </trkpt>
      <trkpt lat="43.59868" lon="1.23695">
        <ele>192.2</ele>
        <time>2023-10-31T15:34:15Z</time>
      </trkpt>
      <trkpt lat="43.5986" lon="1.23702">
        <ele>191.6</ele>
        <time>2023-10-31T15:34:16Z</time>
      </trkpt>
      <trkpt lat="43.59852" lon="1.23708">
        <ele>190.2</ele>
        <time>2023-10-31T15:34:17Z</time>
      </trkpt>
      <trkpt lat="43.59845" lon="1.23714">
        <ele>189.8</ele>
        <time>2023-10-31T15:34:18Z</time>
      </trkpt>
      <trkpt lat="43.59837" lon="1.23719">
        <ele>189.2</ele>
        <time>2023-10-31T15:34:19Z</time>
      </trkpt>
      <trkpt lat="43.59798" lon="1.23747">
        <ele>188.8</ele>
        <time>2023-10-31T15:34:25Z</time>
      </trkpt>
      <trkpt lat="43.59774" lon="1.23767">
        <ele>189.6</ele>
        <time>2023-10-31T15:34:30Z</time>
      </trkpt>
      <trkpt lat="43.5977" lon="1.2377">
        <ele>190.4</ele>
        <time>2023-10-31T15:34:31Z</time>
      </trkpt>
      <trkpt lat="43.59756" lon="1.23778">
        <ele>191.4</ele>
        <time>2023-10-31T15:34:34Z</time>
      </trkpt>
      <trkpt lat="43.59744" lon="1.23787">
        <ele>192.8</ele>
        <time>2023-10-31T15:34:37Z</time>
      </trkpt>
      <trkpt lat="43.59736" lon="1.23793">
        <ele>193.6</ele>
        <time>2023-10-31T15:34:39Z</time>
      </trkpt>
      <trkpt lat="43.59733" lon="1.23796">
        <ele>194.2</ele>
        <time>2023-10-31T15:34:40Z</time>
      </trkpt>
      <trkpt lat="43.59721" lon="1.23804">
        <ele>195</ele>
        <time>2023-10-31T15:34:43Z</time>
      </trkpt>
      <trkpt lat="43.59718" lon="1.23807">
        <ele>195.4</ele>
        <time>2023-10-31T15:34:44Z</time>
      </trkpt>
      <trkpt lat="43.5971" lon="1.23811">
        <ele>196</ele>
        <time>2023-10-31T15:34:46Z</time>
      </trkpt>
      <trkpt lat="43.59707" lon="1.23813">
        <ele>196.4</ele>
        <time>2023-10-31T15:34:47Z</time>
      </trkpt>
      <trkpt lat="43.59699" lon="1.23815">
        <ele>197</ele>
        <time>2023-10-31T15:34:49Z</time>
      </trkpt>
      <trkpt lat="43.59689" lon="1.23822">
        <ele>197.4</ele>
        <time>2023-10-31T15:34:52Z</time>
      </trkpt>
      <trkpt lat="43.59688" lon="1.23827">
        <ele>197.8</ele>
        <time>2023-10-31T15:34:53Z</time>
      </trkpt>
      <trkpt lat="43.59695" lon="1.23849">
        <ele>198.6</ele>
        <time>2023-10-31T15:34:57Z</time>
      </trkpt>
      <trkpt lat="43.59697" lon="1.23855">
        <ele>198.6</ele>
        <time>2023-10-31T15:34:58Z</time>
      </trkpt>
      <trkpt lat="43.59713" lon="1.23894">
        <ele>199.2</ele>
        <time>2023-10-31T15:35:04Z</time>
      </trkpt>
      <trkpt lat="43.59737" lon="1.23949">
        <ele>199.4</ele>
        <time>2023-10-31T15:35:12Z</time>
      </trkpt>
      <trkpt lat="43.59748" lon="1.23977">
        <ele>199.4</ele>
        <time>2023-10-31T15:35:16Z</time>
      </trkpt>
      <trkpt lat="43.59748" lon="1.23989">
        <ele>199.4</ele>
        <time>2023-10-31T15:35:18Z</time>
      </trkpt>
      <trkpt lat="43.59747" lon="1.24005">
        <ele>199.4</ele>
        <time>2023-10-31T15:35:21Z</time>
      </trkpt>
      <trkpt lat="43.59749" lon="1.24012">
        <ele>199.4</ele>
        <time>2023-10-31T15:35:22Z</time>
      </trkpt>
      <trkpt lat="43.59762" lon="1.24056">
        <ele>199</ele>
        <time>2023-10-31T15:35:28Z</time>
      </trkpt>
      <trkpt lat="43.59783" lon="1.24123">
        <ele>198.8</ele>
        <time>2023-10-31T15:35:36Z</time>
      </trkpt>
      <trkpt lat="43.59788" lon="1.24142">
        <ele>198.8</ele>
        <time>2023-10-31T15:35:38Z</time>
      </trkpt>
      <trkpt lat="43.59787" lon="1.24161">
        <ele>198.6</ele>
        <time>2023-10-31T15:35:40Z</time>
      </trkpt>
      <trkpt lat="43.59781" lon="1.242">
        <ele>198.2</ele>
        <time>2023-10-31T15:35:44Z</time>
      </trkpt>
      <trkpt lat="43.5978" lon="1.24209">
        <ele>198</ele>
        <time>2023-10-31T15:35:45Z</time>
      </trkpt>
      <trkpt lat="43.59781" lon="1.24219">
        <ele>197.8</ele>
        <time>2023-10-31T15:35:46Z</time>
      </trkpt>
      <trkpt lat="43.59787" lon="1.24248">
        <ele>197.8</ele>
        <time>2023-10-31T15:35:49Z</time>
      </trkpt>
      <trkpt lat="43.59808" lon="1.24311">
        <ele>197.8</ele>
        <time>2023-10-31T15:35:56Z</time>
      </trkpt>
      <trkpt lat="43.59832" lon="1.2438">
        <ele>198</ele>
        <time>2023-10-31T15:36:04Z</time>
      </trkpt>
      <trkpt lat="43.59834" lon="1.24387">
        <ele>198</ele>
        <time>2023-10-31T15:36:05Z</time>
      </trkpt>
      <trkpt lat="43.59834" lon="1.24394">
        <ele>198.2</ele>
        <time>2023-10-31T15:36:06Z</time>
      </trkpt>
      <trkpt lat="43.59832" lon="1.24401">
        <ele>198.2</ele>
        <time>2023-10-31T15:36:07Z</time>
      </trkpt>
      <trkpt lat="43.59824" lon="1.24413">
        <ele>198.4</ele>
        <time>2023-10-31T15:36:09Z</time>
      </trkpt>
      <trkpt lat="43.59784" lon="1.24458">
        <ele>198.6</ele>
        <time>2023-10-31T15:36:17Z</time>
      </trkpt>
      <trkpt lat="43.59736" lon="1.24509">
        <ele>199</ele>
        <time>2023-10-31T15:36:26Z</time>
      </trkpt>
      <trkpt lat="43.5973" lon="1.24514">
        <ele>199.2</ele>
        <time>2023-10-31T15:36:27Z</time>
      </trkpt>
      <trkpt lat="43.59685" lon="1.24559">
        <ele>199.4</ele>
        <time>2023-10-31T15:36:35Z</time>
      </trkpt>
      <trkpt lat="43.59642" lon="1.24599">
        <ele>199.6</ele>
        <time>2023-10-31T15:36:42Z</time>
      </trkpt>
      <trkpt lat="43.5959" lon="1.24641">
        <ele>199.4</ele>
        <time>2023-10-31T15:36:50Z</time>
      </trkpt>
      <trkpt lat="43.59583" lon="1.24646">
        <ele>199.4</ele>
        <time>2023-10-31T15:36:51Z</time>
      </trkpt>
      <trkpt lat="43.59529" lon="1.24683">
        <ele>199.4</ele>
        <time>2023-10-31T15:36:59Z</time>
      </trkpt>
      <trkpt lat="43.59509" lon="1.24695">
        <ele>199.4</ele>
        <time>2023-10-31T15:37:02Z</time>
      </trkpt>
      <trkpt lat="43.59495" lon="1.24702">
        <ele>199.6</ele>
        <time>2023-10-31T15:37:04Z</time>
      </trkpt>
      <trkpt lat="43.59454" lon="1.24724">
        <ele>200</ele>
        <time>2023-10-31T15:37:10Z</time>
      </trkpt>
      <trkpt lat="43.59421" lon="1.24747">
        <ele>200.2</ele>
        <time>2023-10-31T15:37:15Z</time>
      </trkpt>
      <trkpt lat="43.59416" lon="1.24754">
        <ele>200.2</ele>
        <time>2023-10-31T15:37:16Z</time>
      </trkpt>
      <trkpt lat="43.59372" lon="1.24807">
        <ele>200.6</ele>
        <time>2023-10-31T15:37:24Z</time>
      </trkpt>
      <trkpt lat="43.59356" lon="1.24828">
        <ele>200.6</ele>
        <time>2023-10-31T15:37:27Z</time>
      </trkpt>
      <trkpt lat="43.59314" lon="1.24886">
        <ele>200.8</ele>
        <time>2023-10-31T15:37:35Z</time>
      </trkpt>
      <trkpt lat="43.59304" lon="1.24902">
        <ele>200.8</ele>
        <time>2023-10-31T15:37:37Z</time>
      </trkpt>
      <trkpt lat="43.59292" lon="1.24919">
        <ele>200.8</ele>
        <time>2023-10-31T15:37:39Z</time>
      </trkpt>
      <trkpt lat="43.59253" lon="1.24972">
        <ele>200.6</ele>
        <time>2023-10-31T15:37:46Z</time>
      </trkpt>
      <trkpt lat="43.59247" lon="1.24979">
        <ele>200.6</ele>
        <time>2023-10-31T15:37:47Z</time>
      </trkpt>
      <trkpt lat="43.59204" lon="1.25033">
        <ele>200.2</ele>
        <time>2023-10-31T15:37:54Z</time>
      </trkpt>
      <trkpt lat="43.59193" lon="1.25046">
        <ele>200.2</ele>
        <time>2023-10-31T15:37:56Z</time>
      </trkpt>
      <trkpt lat="43.59152" lon="1.25095">
        <ele>200.2</ele>
        <time>2023-10-31T15:38:03Z</time>
      </trkpt>
      <trkpt lat="43.59123" lon="1.25131">
        <ele>200.2</ele>
        <time>2023-10-31T15:38:08Z</time>
      </trkpt>
      <trkpt lat="43.59083" lon="1.25179">
        <ele>200.4</ele>
        <time>2023-10-31T15:38:15Z</time>
      </trkpt>
      <trkpt lat="43.59042" lon="1.25229">
        <ele>200.4</ele>
        <time>2023-10-31T15:38:22Z</time>
      </trkpt>
      <trkpt lat="43.59036" lon="1.25237">
        <ele>200.4</ele>
        <time>2023-10-31T15:38:23Z</time>
      </trkpt>
      <trkpt lat="43.58997" lon="1.25294">
        <ele>200</ele>
        <time>2023-10-31T15:38:30Z</time>
      </trkpt>
      <trkpt lat="43.58993" lon="1.25302">
        <ele>200</ele>
        <time>2023-10-31T15:38:31Z</time>
      </trkpt>
      <trkpt lat="43.58958" lon="1.25368">
        <ele>199.8</ele>
        <time>2023-10-31T15:38:38Z</time>
      </trkpt>
      <trkpt lat="43.58949" lon="1.25385">
        <ele>199.8</ele>
        <time>2023-10-31T15:38:40Z</time>
      </trkpt>
      <trkpt lat="43.58927" lon="1.25425">
        <ele>199.6</ele>
        <time>2023-10-31T15:38:44Z</time>
      </trkpt>
      <trkpt lat="43.58898" lon="1.2548">
        <ele>199</ele>
        <time>2023-10-31T15:38:50Z</time>
      </trkpt>
      <trkpt lat="43.58879" lon="1.25514">
        <ele>198.6</ele>
        <time>2023-10-31T15:38:54Z</time>
      </trkpt>
      <trkpt lat="43.58864" lon="1.25539">
        <ele>198.4</ele>
        <time>2023-10-31T15:38:57Z</time>
      </trkpt>
      <trkpt lat="43.58826" lon="1.25594">
        <ele>198.4</ele>
        <time>2023-10-31T15:39:04Z</time>
      </trkpt>
      <trkpt lat="43.58783" lon="1.2564">
        <ele>197.8</ele>
        <time>2023-10-31T15:39:10Z</time>
      </trkpt>
      <trkpt lat="43.58773" lon="1.25659">
        <ele>197.8</ele>
        <time>2023-10-31T15:39:12Z</time>
      </trkpt>
      <trkpt lat="43.5877" lon="1.2567">
        <ele>197.6</ele>
        <time>2023-10-31T15:39:13Z</time>
      </trkpt>
      <trkpt lat="43.58758" lon="1.25726">
        <ele>196.8</ele>
        <time>2023-10-31T15:39:18Z</time>
      </trkpt>
      <trkpt lat="43.5875" lon="1.2577">
        <ele>196.4</ele>
        <time>2023-10-31T15:39:22Z</time>
      </trkpt>
      <trkpt lat="43.58739" lon="1.25833">
        <ele>196</ele>
        <time>2023-10-31T15:39:28Z</time>
      </trkpt>
      <trkpt lat="43.58725" lon="1.2591">
        <ele>195.6</ele>
        <time>2023-10-31T15:39:35Z</time>
      </trkpt>
      <trkpt lat="43.58717" lon="1.25953">
        <ele>195.6</ele>
        <time>2023-10-31T15:39:39Z</time>
      </trkpt>
      <trkpt lat="43.58703" lon="1.26029">
        <ele>195.4</ele>
        <time>2023-10-31T15:39:46Z</time>
      </trkpt>
      <trkpt lat="43.58697" lon="1.26061">
        <ele>195.4</ele>
        <time>2023-10-31T15:39:49Z</time>
      </trkpt>
      <trkpt lat="43.5868" lon="1.26137">
        <ele>195</ele>
        <time>2023-10-31T15:39:56Z</time>
      </trkpt>
      <trkpt lat="43.58671" lon="1.26168">
        <ele>194.8</ele>
        <time>2023-10-31T15:39:59Z</time>
      </trkpt>
      <trkpt lat="43.58654" lon="1.26243">
        <ele>194.6</ele>
        <time>2023-10-31T15:40:06Z</time>
      </trkpt>
      <trkpt lat="43.58651" lon="1.26264">
        <ele>194.6</ele>
        <time>2023-10-31T15:40:08Z</time>
      </trkpt>
      <trkpt lat="43.58651" lon="1.26316">
        <ele>194.6</ele>
        <time>2023-10-31T15:40:13Z</time>
      </trkpt>
      <trkpt lat="43.58658" lon="1.26374">
        <ele>195.2</ele>
        <time>2023-10-31T15:40:19Z</time>
      </trkpt>
      <trkpt lat="43.58676" lon="1.26441">
        <ele>195.6</ele>
        <time>2023-10-31T15:40:26Z</time>
      </trkpt>
      <trkpt lat="43.58708" lon="1.26505">
        <ele>194</ele>
        <time>2023-10-31T15:40:33Z</time>
      </trkpt>
      <trkpt lat="43.58713" lon="1.26514">
        <ele>194</ele>
        <time>2023-10-31T15:40:34Z</time>
      </trkpt>
      <trkpt lat="43.58728" lon="1.26542">
        <ele>192.8</ele>
        <time>2023-10-31T15:40:37Z</time>
      </trkpt>
      <trkpt lat="43.58748" lon="1.26578">
        <ele>191.4</ele>
        <time>2023-10-31T15:40:41Z</time>
      </trkpt>
      <trkpt lat="43.58755" lon="1.2659">
        <ele>191</ele>
        <time>2023-10-31T15:40:42Z</time>
      </trkpt>
      <trkpt lat="43.58766" lon="1.26611">
        <ele>190.2</ele>
        <time>2023-10-31T15:40:44Z</time>
      </trkpt>
      <trkpt lat="43.58788" lon="1.26653">
        <ele>188.2</ele>
        <time>2023-10-31T15:40:48Z</time>
      </trkpt>
      <trkpt lat="43.58798" lon="1.26673">
        <ele>187.2</ele>
        <time>2023-10-31T15:40:50Z</time>
      </trkpt>
      <trkpt lat="43.58814" lon="1.2671">
        <ele>185.6</ele>
        <time>2023-10-31T15:40:53Z</time>
      </trkpt>
      <trkpt lat="43.58823" lon="1.26734">
        <ele>184.4</ele>
        <time>2023-10-31T15:40:55Z</time>
      </trkpt>
      <trkpt lat="43.58832" lon="1.26757">
        <ele>183.6</ele>
        <time>2023-10-31T15:40:57Z</time>
      </trkpt>
      <trkpt lat="43.58836" lon="1.26769">
        <ele>183</ele>
        <time>2023-10-31T15:40:58Z</time>
      </trkpt>
      <trkpt lat="43.58846" lon="1.26804">
        <ele>182.2</ele>
        <time>2023-10-31T15:41:01Z</time>
      </trkpt>
      <trkpt lat="43.58847" lon="1.26815">
        <ele>181.8</ele>
        <time>2023-10-31T15:41:02Z</time>
      </trkpt>
      <trkpt lat="43.58846" lon="1.26837">
        <ele>181.8</ele>
        <time>2023-10-31T15:41:04Z</time>
      </trkpt>
      <trkpt lat="43.58852" lon="1.26858">
        <ele>181.8</ele>
        <time>2023-10-31T15:41:06Z</time>
      </trkpt>
      <trkpt lat="43.58866" lon="1.2687">
        <ele>181.4</ele>
        <time>2023-10-31T15:41:08Z</time>
      </trkpt>
      <trkpt lat="43.58883" lon="1.26877">
        <ele>181.2</ele>
        <time>2023-10-31T15:41:10Z</time>
      </trkpt>
      <trkpt lat="43.58899" lon="1.26889">
        <ele>181.2</ele>
        <time>2023-10-31T15:41:12Z</time>
      </trkpt>
      <trkpt lat="43.58912" lon="1.26904">
        <ele>181</ele>
        <time>2023-10-31T15:41:14Z</time>
      </trkpt>
      <trkpt lat="43.58938" lon="1.26939">
        <ele>179.8</ele>
        <time>2023-10-31T15:41:18Z</time>
      </trkpt>
      <trkpt lat="43.58944" lon="1.26949">
        <ele>179.8</ele>
        <time>2023-10-31T15:41:19Z</time>
      </trkpt>
      <trkpt lat="43.58949" lon="1.26959">
        <ele>179.6</ele>
        <time>2023-10-31T15:41:20Z</time>
      </trkpt>
      <trkpt lat="43.58957" lon="1.26982">
        <ele>179.4</ele>
        <time>2023-10-31T15:41:22Z</time>
      </trkpt>
      <trkpt lat="43.58963" lon="1.27018">
        <ele>178.6</ele>
        <time>2023-10-31T15:41:25Z</time>
      </trkpt>
      <trkpt lat="43.58964" lon="1.2703">
        <ele>178.6</ele>
        <time>2023-10-31T15:41:26Z</time>
      </trkpt>
      <trkpt lat="43.58967" lon="1.27114">
        <ele>178</ele>
        <time>2023-10-31T15:41:33Z</time>
      </trkpt>
      <trkpt lat="43.58975" lon="1.27159">
        <ele>177.8</ele>
        <time>2023-10-31T15:41:37Z</time>
      </trkpt>
      <trkpt lat="43.58979" lon="1.2717">
        <ele>177.8</ele>
        <time>2023-10-31T15:41:38Z</time>
      </trkpt>
      <trkpt lat="43.58983" lon="1.2718">
        <ele>177.8</ele>
        <time>2023-10-31T15:41:39Z</time>
      </trkpt>
      <trkpt lat="43.58993" lon="1.27199">
        <ele>177.6</ele>
        <time>2023-10-31T15:41:41Z</time>
      </trkpt>
      <trkpt lat="43.59" lon="1.27207">
        <ele>177.6</ele>
        <time>2023-10-31T15:41:42Z</time>
      </trkpt>
      <trkpt lat="43.59034" lon="1.27241">
        <ele>177.6</ele>
        <time>2023-10-31T15:41:47Z</time>
      </trkpt>
      <trkpt lat="43.59083" lon="1.27281">
        <ele>177</ele>
        <time>2023-10-31T15:41:54Z</time>
      </trkpt>
      <trkpt lat="43.59107" lon="1.273">
        <ele>176.8</ele>
        <time>2023-10-31T15:41:57Z</time>
      </trkpt>
      <trkpt lat="43.59115" lon="1.27306">
        <ele>176.6</ele>
        <time>2023-10-31T15:41:58Z</time>
      </trkpt>
      <trkpt lat="43.59166" lon="1.27347">
        <ele>175.6</ele>
        <time>2023-10-31T15:42:05Z</time>
      </trkpt>
      <trkpt lat="43.59173" lon="1.27352">
        <ele>175.6</ele>
        <time>2023-10-31T15:42:06Z</time>
      </trkpt>
      <trkpt lat="43.59188" lon="1.27363">
        <ele>175.4</ele>
        <time>2023-10-31T15:42:08Z</time>
      </trkpt>
      <trkpt lat="43.59237" lon="1.27402">
        <ele>174.8</ele>
        <time>2023-10-31T15:42:15Z</time>
      </trkpt>
      <trkpt lat="43.59252" lon="1.27413">
        <ele>174.8</ele>
        <time>2023-10-31T15:42:17Z</time>
      </trkpt>
      <trkpt lat="43.59266" lon="1.27424">
        <ele>174.6</ele>
        <time>2023-10-31T15:42:19Z</time>
      </trkpt>
      <trkpt lat="43.59317" lon="1.27463">
        <ele>174</ele>
        <time>2023-10-31T15:42:26Z</time>
      </trkpt>
      <trkpt lat="43.59325" lon="1.27469">
        <ele>174</ele>
        <time>2023-10-31T15:42:27Z</time>
      </trkpt>
      <trkpt lat="43.59372" lon="1.27506">
        <ele>174.2</ele>
        <time>2023-10-31T15:42:34Z</time>
      </trkpt>
      <trkpt lat="43.59385" lon="1.27516">
        <ele>174.2</ele>
        <time>2023-10-31T15:42:36Z</time>
      </trkpt>
      <trkpt lat="43.59436" lon="1.27556">
        <ele>174.8</ele>
        <time>2023-10-31T15:42:44Z</time>
      </trkpt>
      <trkpt lat="43.59456" lon="1.27571">
        <ele>174.8</ele>
        <time>2023-10-31T15:42:47Z</time>
      </trkpt>
      <trkpt lat="43.59504" lon="1.27608">
        <ele>174.6</ele>
        <time>2023-10-31T15:42:54Z</time>
      </trkpt>
      <trkpt lat="43.59517" lon="1.27619">
        <ele>174.4</ele>
        <time>2023-10-31T15:42:56Z</time>
      </trkpt>
      <trkpt lat="43.59558" lon="1.27643">
        <ele>174</ele>
        <time>2023-10-31T15:43:02Z</time>
      </trkpt>
      <trkpt lat="43.596" lon="1.27667">
        <ele>173.8</ele>
        <time>2023-10-31T15:43:08Z</time>
      </trkpt>
      <trkpt lat="43.59605" lon="1.27674">
        <ele>173.6</ele>
        <time>2023-10-31T15:43:09Z</time>
      </trkpt>
      <trkpt lat="43.59607" lon="1.27683">
        <ele>173.4</ele>
        <time>2023-10-31T15:43:10Z</time>
      </trkpt>
      <trkpt lat="43.59606" lon="1.27693">
        <ele>173.4</ele>
        <time>2023-10-31T15:43:11Z</time>
      </trkpt>
      <trkpt lat="43.59604" lon="1.27703">
        <ele>173.2</ele>
        <time>2023-10-31T15:43:12Z</time>
      </trkpt>
      <trkpt lat="43.59592" lon="1.27736">
        <ele>172.8</ele>
        <time>2023-10-31T15:43:15Z</time>
      </trkpt>
      <trkpt lat="43.59584" lon="1.27758">
        <ele>172.4</ele>
        <time>2023-10-31T15:43:17Z</time>
      </trkpt>
      <trkpt lat="43.59572" lon="1.27793">
        <ele>171.8</ele>
        <time>2023-10-31T15:43:20Z</time>
      </trkpt>
      <trkpt lat="43.59568" lon="1.27804">
        <ele>171.4</ele>
        <time>2023-10-31T15:43:21Z</time>
      </trkpt>
      <trkpt lat="43.5955" lon="1.2785">
        <ele>170</ele>
        <time>2023-10-31T15:43:25Z</time>
      </trkpt>
      <trkpt lat="43.59528" lon="1.27896">
        <ele>169.2</ele>
        <time>2023-10-31T15:43:29Z</time>
      </trkpt>
      <trkpt lat="43.59518" lon="1.27917">
        <ele>169</ele>
        <time>2023-10-31T15:43:31Z</time>
      </trkpt>
      <trkpt lat="43.595" lon="1.27957">
        <ele>168.8</ele>
        <time>2023-10-31T15:43:35Z</time>
      </trkpt>
      <trkpt lat="43.59491" lon="1.28">
        <ele>169</ele>
        <time>2023-10-31T15:43:39Z</time>
      </trkpt>
      <trkpt lat="43.59483" lon="1.28075">
        <ele>169.6</ele>
        <time>2023-10-31T15:43:46Z</time>
      </trkpt>
      <trkpt lat="43.5948" lon="1.28095">
        <ele>169.6</ele>
        <time>2023-10-31T15:43:48Z</time>
      </trkpt>
      <trkpt lat="43.59477" lon="1.28123">
        <ele>170</ele>
        <time>2023-10-31T15:43:51Z</time>
      </trkpt>
      <trkpt lat="43.59473" lon="1.28147">
        <ele>170.4</ele>
        <time>2023-10-31T15:43:54Z</time>
      </trkpt>
      <trkpt lat="43.59465" lon="1.28179">
        <ele>171.2</ele>
        <time>2023-10-31T15:43:58Z</time>
      </trkpt>
      <trkpt lat="43.5946" lon="1.28198">
        <ele>172</ele>
        <time>2023-10-31T15:44:01Z</time>
      </trkpt>
      <trkpt lat="43.59458" lon="1.28205">
        <ele>172.6</ele>
        <time>2023-10-31T15:44:02Z</time>
      </trkpt>
      <trkpt lat="43.59455" lon="1.28212">
        <ele>172.6</ele>
        <time>2023-10-31T15:44:03Z</time>
      </trkpt>
      <trkpt lat="43.59448" lon="1.28231">
        <ele>173.4</ele>
        <time>2023-10-31T15:44:06Z</time>
      </trkpt>
      <trkpt lat="43.59445" lon="1.28237">
        <ele>174</ele>
        <time>2023-10-31T15:44:07Z</time>
      </trkpt>
      <trkpt lat="43.59434" lon="1.28261">
        <ele>175.4</ele>
        <time>2023-10-31T15:44:11Z</time>
      </trkpt>
      <trkpt lat="43.59428" lon="1.28274">
        <ele>176</ele>
        <time>2023-10-31T15:44:13Z</time>
      </trkpt>
      <trkpt lat="43.59421" lon="1.28286">
        <ele>176.6</ele>
        <time>2023-10-31T15:44:15Z</time>
      </trkpt>
      <trkpt lat="43.59407" lon="1.2831">
        <ele>177.6</ele>
        <time>2023-10-31T15:44:19Z</time>
      </trkpt>
      <trkpt lat="43.59403" lon="1.28315">
        <ele>178</ele>
        <time>2023-10-31T15:44:20Z</time>
      </trkpt>
      <trkpt lat="43.59389" lon="1.28336">
        <ele>179</ele>
        <time>2023-10-31T15:44:24Z</time>
      </trkpt>
      <trkpt lat="43.59373" lon="1.28355">
        <ele>180</ele>
        <time>2023-10-31T15:44:28Z</time>
      </trkpt>
      <trkpt lat="43.59358" lon="1.28376">
        <ele>181.2</ele>
        <time>2023-10-31T15:44:32Z</time>
      </trkpt>
      <trkpt lat="43.59345" lon="1.28392">
        <ele>181.8</ele>
        <time>2023-10-31T15:44:35Z</time>
      </trkpt>
      <trkpt lat="43.59342" lon="1.28398">
        <ele>182.4</ele>
        <time>2023-10-31T15:44:36Z</time>
      </trkpt>
      <trkpt lat="43.59321" lon="1.28427">
        <ele>183.2</ele>
        <time>2023-10-31T15:44:41Z</time>
      </trkpt>
      <trkpt lat="43.59314" lon="1.28437">
        <ele>183.6</ele>
        <time>2023-10-31T15:44:43Z</time>
      </trkpt>
      <trkpt lat="43.59306" lon="1.28448">
        <ele>184.4</ele>
        <time>2023-10-31T15:44:45Z</time>
      </trkpt>
      <trkpt lat="43.59302" lon="1.28453">
        <ele>184.6</ele>
        <time>2023-10-31T15:44:46Z</time>
      </trkpt>
      <trkpt lat="43.59285" lon="1.2847">
        <ele>185.4</ele>
        <time>2023-10-31T15:44:50Z</time>
      </trkpt>
      <trkpt lat="43.59268" lon="1.28487">
        <ele>186.6</ele>
        <time>2023-10-31T15:44:54Z</time>
      </trkpt>
      <trkpt lat="43.59256" lon="1.28498">
        <ele>188</ele>
        <time>2023-10-31T15:44:57Z</time>
      </trkpt>
      <trkpt lat="43.59252" lon="1.28503">
        <ele>188.2</ele>
        <time>2023-10-31T15:44:58Z</time>
      </trkpt>
      <trkpt lat="43.59249" lon="1.28507">
        <ele>188.6</ele>
        <time>2023-10-31T15:44:59Z</time>
      </trkpt>
      <trkpt lat="43.59242" lon="1.28516">
        <ele>189</ele>
        <time>2023-10-31T15:45:01Z</time>
      </trkpt>
      <trkpt lat="43.59239" lon="1.2852">
        <ele>189.2</ele>
        <time>2023-10-31T15:45:02Z</time>
      </trkpt>
      <trkpt lat="43.59235" lon="1.28522">
        <ele>189.4</ele>
        <time>2023-10-31T15:45:03Z</time>
      </trkpt>
      <trkpt lat="43.59222" lon="1.2853">
        <ele>190.2</ele>
        <time>2023-10-31T15:45:06Z</time>
      </trkpt>
      <trkpt lat="43.59216" lon="1.28537">
        <ele>190.8</ele>
        <time>2023-10-31T15:45:08Z</time>
      </trkpt>
      <trkpt lat="43.59213" lon="1.28548">
        <ele>191</ele>
        <time>2023-10-31T15:45:10Z</time>
      </trkpt>
      <trkpt lat="43.59213" lon="1.28555">
        <ele>191</ele>
        <time>2023-10-31T15:45:11Z</time>
      </trkpt>
      <trkpt lat="43.59214" lon="1.28561">
        <ele>191.2</ele>
        <time>2023-10-31T15:45:12Z</time>
      </trkpt>
      <trkpt lat="43.59221" lon="1.28571">
        <ele>191.8</ele>
        <time>2023-10-31T15:45:14Z</time>
      </trkpt>
      <trkpt lat="43.59231" lon="1.28575">
        <ele>192.2</ele>
        <time>2023-10-31T15:45:16Z</time>
      </trkpt>
      <trkpt lat="43.59237" lon="1.28574">
        <ele>192.2</ele>
        <time>2023-10-31T15:45:17Z</time>
      </trkpt>
      <trkpt lat="43.59249" lon="1.2857">
        <ele>192.4</ele>
        <time>2023-10-31T15:45:19Z</time>
      </trkpt>
      <trkpt lat="43.59261" lon="1.28571">
        <ele>192.6</ele>
        <time>2023-10-31T15:45:21Z</time>
      </trkpt>
      <trkpt lat="43.59303" lon="1.28583">
        <ele>192.4</ele>
        <time>2023-10-31T15:45:28Z</time>
      </trkpt>
      <trkpt lat="43.5936" lon="1.28603">
        <ele>192.6</ele>
        <time>2023-10-31T15:45:37Z</time>
      </trkpt>
      <trkpt lat="43.59371" lon="1.28609">
        <ele>192.6</ele>
        <time>2023-10-31T15:45:39Z</time>
      </trkpt>
      <trkpt lat="43.59416" lon="1.2864">
        <ele>192.2</ele>
        <time>2023-10-31T15:45:46Z</time>
      </trkpt>
      <trkpt lat="43.59463" lon="1.28686">
        <ele>191.8</ele>
        <time>2023-10-31T15:45:54Z</time>
      </trkpt>
      <trkpt lat="43.59504" lon="1.28743">
        <ele>191.6</ele>
        <time>2023-10-31T15:46:02Z</time>
      </trkpt>
      <trkpt lat="43.59537" lon="1.28804">
        <ele>191.6</ele>
        <time>2023-10-31T15:46:10Z</time>
      </trkpt>
      <trkpt lat="43.59572" lon="1.28866">
        <ele>192.2</ele>
        <time>2023-10-31T15:46:18Z</time>
      </trkpt>
      <trkpt lat="43.59577" lon="1.28873">
        <ele>192</ele>
        <time>2023-10-31T15:46:19Z</time>
      </trkpt>
      <trkpt lat="43.59617" lon="1.28932">
        <ele>191.8</ele>
        <time>2023-10-31T15:46:27Z</time>
      </trkpt>
      <trkpt lat="43.59622" lon="1.28939">
        <ele>191.6</ele>
        <time>2023-10-31T15:46:28Z</time>
      </trkpt>
      <trkpt lat="43.59657" lon="1.28987">
        <ele>191.4</ele>
        <time>2023-10-31T15:46:35Z</time>
      </trkpt>
      <trkpt lat="43.5966" lon="1.28994">
        <ele>191.4</ele>
        <time>2023-10-31T15:46:36Z</time>
      </trkpt>
      <trkpt lat="43.59663" lon="1.29001">
        <ele>191.4</ele>
        <time>2023-10-31T15:46:37Z</time>
      </trkpt>
      <trkpt lat="43.59671" lon="1.29015">
        <ele>191.4</ele>
        <time>2023-10-31T15:46:39Z</time>
      </trkpt>
      <trkpt lat="43.59674" lon="1.29023">
        <ele>191.4</ele>
        <time>2023-10-31T15:46:40Z</time>
      </trkpt>
      <trkpt lat="43.59676" lon="1.29031">
        <ele>191.4</ele>
        <time>2023-10-31T15:46:41Z</time>
      </trkpt>
      <trkpt lat="43.59678" lon="1.29058">
        <ele>191.6</ele>
        <time>2023-10-31T15:46:44Z</time>
      </trkpt>
      <trkpt lat="43.59674" lon="1.29076">
        <ele>191.6</ele>
        <time>2023-10-31T15:46:46Z</time>
      </trkpt>
      <trkpt lat="43.59671" lon="1.29085">
        <ele>191.6</ele>
        <time>2023-10-31T15:46:47Z</time>
      </trkpt>
      <trkpt lat="43.59655" lon="1.29127">
        <ele>191.4</ele>
        <time>2023-10-31T15:46:52Z</time>
      </trkpt>
      <trkpt lat="43.59647" lon="1.29143">
        <ele>191</ele>
        <time>2023-10-31T15:46:54Z</time>
      </trkpt>
      <trkpt lat="43.59617" lon="1.29212">
        <ele>190.8</ele>
        <time>2023-10-31T15:47:02Z</time>
      </trkpt>
      <trkpt lat="43.5961" lon="1.29229">
        <ele>190.6</ele>
        <time>2023-10-31T15:47:04Z</time>
      </trkpt>
      <trkpt lat="43.59581" lon="1.2929">
        <ele>190.6</ele>
        <time>2023-10-31T15:47:11Z</time>
      </trkpt>
      <trkpt lat="43.59559" lon="1.29324">
        <ele>190.8</ele>
        <time>2023-10-31T15:47:16Z</time>
      </trkpt>
      <trkpt lat="43.59523" lon="1.29365">
        <ele>190.8</ele>
        <time>2023-10-31T15:47:23Z</time>
      </trkpt>
      <trkpt lat="43.59479" lon="1.29395">
        <ele>190.8</ele>
        <time>2023-10-31T15:47:30Z</time>
      </trkpt>
      <trkpt lat="43.59444" lon="1.29402">
        <ele>190.8</ele>
        <time>2023-10-31T15:47:35Z</time>
      </trkpt>
      <trkpt lat="43.59436" lon="1.29402">
        <ele>190.8</ele>
        <time>2023-10-31T15:47:36Z</time>
      </trkpt>
      <trkpt lat="43.5938" lon="1.29386">
        <ele>191.2</ele>
        <time>2023-10-31T15:47:44Z</time>
      </trkpt>
      <trkpt lat="43.59322" lon="1.29369">
        <ele>191.4</ele>
        <time>2023-10-31T15:47:52Z</time>
      </trkpt>
      <trkpt lat="43.59264" lon="1.29353">
        <ele>191.8</ele>
        <time>2023-10-31T15:48:00Z</time>
      </trkpt>
      <trkpt lat="43.59245" lon="1.29341">
        <ele>191.8</ele>
        <time>2023-10-31T15:48:03Z</time>
      </trkpt>
      <trkpt lat="43.59233" lon="1.29331">
        <ele>191.4</ele>
        <time>2023-10-31T15:48:05Z</time>
      </trkpt>
      <trkpt lat="43.59224" lon="1.29319">
        <ele>191.4</ele>
        <time>2023-10-31T15:48:07Z</time>
      </trkpt>
      <trkpt lat="43.59219" lon="1.29305">
        <ele>191.4</ele>
        <time>2023-10-31T15:48:09Z</time>
      </trkpt>
      <trkpt lat="43.59214" lon="1.29288">
        <ele>191.4</ele>
        <time>2023-10-31T15:48:11Z</time>
      </trkpt>
      <trkpt lat="43.59209" lon="1.29274">
        <ele>191.4</ele>
        <time>2023-10-31T15:48:13Z</time>
      </trkpt>
      <trkpt lat="43.59206" lon="1.29264">
        <ele>191.4</ele>
        <time>2023-10-31T15:48:15Z</time>
      </trkpt>
      <trkpt lat="43.59203" lon="1.29262">
        <ele>191.4</ele>
        <time>2023-10-31T15:48:16Z</time>
      </trkpt>
      <trkpt lat="43.592" lon="1.29263">
        <ele>191.4</ele>
        <time>2023-10-31T15:48:17Z</time>
      </trkpt>
      <trkpt lat="43.59199" lon="1.29266">
        <ele>191.4</ele>
        <time>2023-10-31T15:48:18Z</time>
      </trkpt>
      <trkpt lat="43.59188" lon="1.29283">
        <ele>191.4</ele>
        <time>2023-10-31T15:48:22Z</time>
      </trkpt>
      <trkpt lat="43.59184" lon="1.29288">
        <ele>191.4</ele>
        <time>2023-10-31T15:48:23Z</time>
      </trkpt>
      <trkpt lat="43.59179" lon="1.29302">
        <ele>191.4</ele>
        <time>2023-10-31T15:48:25Z</time>
      </trkpt>
      <trkpt lat="43.59179" lon="1.29318">
        <ele>191.4</ele>
        <time>2023-10-31T15:48:27Z</time>
      </trkpt>
      <trkpt lat="43.59181" lon="1.29326">
        <ele>191.4</ele>
        <time>2023-10-31T15:48:28Z</time>
      </trkpt>
      <trkpt lat="43.59184" lon="1.29334">
        <ele>191.4</ele>
        <time>2023-10-31T15:48:29Z</time>
      </trkpt>
      <trkpt lat="43.59187" lon="1.2935">
        <ele>191.6</ele>
        <time>2023-10-31T15:48:31Z</time>
      </trkpt>
      <trkpt lat="43.59183" lon="1.29386">
        <ele>191.4</ele>
        <time>2023-10-31T15:48:35Z</time>
      </trkpt>
      <trkpt lat="43.59171" lon="1.29465">
        <ele>191.4</ele>
        <time>2023-10-31T15:48:43Z</time>
      </trkpt>
      <trkpt lat="43.59159" lon="1.29546">
        <ele>191.4</ele>
        <time>2023-10-31T15:48:51Z</time>
      </trkpt>
      <trkpt lat="43.59148" lon="1.29621">
        <ele>191.4</ele>
        <time>2023-10-31T15:48:58Z</time>
      </trkpt>
      <trkpt lat="43.59143" lon="1.29654">
        <ele>191.4</ele>
        <time>2023-10-31T15:49:01Z</time>
      </trkpt>
      <trkpt lat="43.59137" lon="1.29731">
        <ele>191.2</ele>
        <time>2023-10-31T15:49:08Z</time>
      </trkpt>
      <trkpt lat="43.59132" lon="1.29808">
        <ele>191.2</ele>
        <time>2023-10-31T15:49:15Z</time>
      </trkpt>
      <trkpt lat="43.59131" lon="1.29829">
        <ele>191.2</ele>
        <time>2023-10-31T15:49:17Z</time>
      </trkpt>
      <trkpt lat="43.5913" lon="1.29868">
        <ele>191.4</ele>
        <time>2023-10-31T15:49:21Z</time>
      </trkpt>
      <trkpt lat="43.59128" lon="1.29876">
        <ele>191.4</ele>
        <time>2023-10-31T15:49:22Z</time>
      </trkpt>
      <trkpt lat="43.59124" lon="1.29883">
        <ele>191.6</ele>
        <time>2023-10-31T15:49:23Z</time>
      </trkpt>
      <trkpt lat="43.59118" lon="1.29887">
        <ele>191.6</ele>
        <time>2023-10-31T15:49:24Z</time>
      </trkpt>
      <trkpt lat="43.59112" lon="1.29888">
        <ele>191.6</ele>
        <time>2023-10-31T15:49:25Z</time>
      </trkpt>
      <trkpt lat="43.59098" lon="1.29886">
        <ele>191.6</ele>
        <time>2023-10-31T15:49:27Z</time>
      </trkpt>
      <trkpt lat="43.59044" lon="1.29885">
        <ele>191.8</ele>
        <time>2023-10-31T15:49:35Z</time>
      </trkpt>
      <trkpt lat="43.59037" lon="1.29885">
        <ele>191.6</ele>
        <time>2023-10-31T15:49:36Z</time>
      </trkpt>
      <trkpt lat="43.58977" lon="1.29886">
        <ele>191.6</ele>
        <time>2023-10-31T15:49:44Z</time>
      </trkpt>
      <trkpt lat="43.5897" lon="1.29887">
        <ele>191.6</ele>
        <time>2023-10-31T15:49:45Z</time>
      </trkpt>
      <trkpt lat="43.58955" lon="1.2989">
        <ele>191.8</ele>
        <time>2023-10-31T15:49:47Z</time>
      </trkpt>
      <trkpt lat="43.58942" lon="1.29899">
        <ele>191.8</ele>
        <time>2023-10-31T15:49:49Z</time>
      </trkpt>
      <trkpt lat="43.58931" lon="1.29914">
        <ele>192.2</ele>
        <time>2023-10-31T15:49:51Z</time>
      </trkpt>
      <trkpt lat="43.58926" lon="1.29926">
        <ele>192.2</ele>
        <time>2023-10-31T15:49:52Z</time>
      </trkpt>
      <trkpt lat="43.58923" lon="1.29936">
        <ele>192.2</ele>
        <time>2023-10-31T15:49:53Z</time>
      </trkpt>
      <trkpt lat="43.58919" lon="1.29969">
        <ele>192.4</ele>
        <time>2023-10-31T15:49:56Z</time>
      </trkpt>
      <trkpt lat="43.58915" lon="1.30048">
        <ele>192.2</ele>
        <time>2023-10-31T15:50:03Z</time>
      </trkpt>
      <trkpt lat="43.58913" lon="1.30081">
        <ele>192.2</ele>
        <time>2023-10-31T15:50:06Z</time>
      </trkpt>
      <trkpt lat="43.58907" lon="1.30158">
        <ele>192.2</ele>
        <time>2023-10-31T15:50:13Z</time>
      </trkpt>
      <trkpt lat="43.58903" lon="1.30188">
        <ele>192.2</ele>
        <time>2023-10-31T15:50:16Z</time>
      </trkpt>
      <trkpt lat="43.58892" lon="1.30262">
        <ele>192</ele>
        <time>2023-10-31T15:50:23Z</time>
      </trkpt>
      <trkpt lat="43.58884" lon="1.30316">
        <ele>192.2</ele>
        <time>2023-10-31T15:50:28Z</time>
      </trkpt>
      <trkpt lat="43.58872" lon="1.304">
        <ele>192.4</ele>
        <time>2023-10-31T15:50:36Z</time>
      </trkpt>
      <trkpt lat="43.58868" lon="1.30421">
        <ele>192.4</ele>
        <time>2023-10-31T15:50:38Z</time>
      </trkpt>
      <trkpt lat="43.58856" lon="1.30503">
        <ele>191.8</ele>
        <time>2023-10-31T15:50:46Z</time>
      </trkpt>
      <trkpt lat="43.58854" lon="1.30513">
        <ele>191.8</ele>
        <time>2023-10-31T15:50:47Z</time>
      </trkpt>
      <trkpt lat="43.58841" lon="1.30598">
        <ele>191.2</ele>
        <time>2023-10-31T15:50:55Z</time>
      </trkpt>
      <trkpt lat="43.58839" lon="1.30608">
        <ele>191.2</ele>
        <time>2023-10-31T15:50:56Z</time>
      </trkpt>
      <trkpt lat="43.58831" lon="1.30635">
        <ele>191.4</ele>
        <time>2023-10-31T15:50:59Z</time>
      </trkpt>
      <trkpt lat="43.58803" lon="1.30698">
        <ele>191.2</ele>
        <time>2023-10-31T15:51:06Z</time>
      </trkpt>
      <trkpt lat="43.58778" lon="1.30769">
        <ele>191.6</ele>
        <time>2023-10-31T15:51:14Z</time>
      </trkpt>
      <trkpt lat="43.58768" lon="1.30793">
        <ele>191.8</ele>
        <time>2023-10-31T15:51:17Z</time>
      </trkpt>
      <trkpt lat="43.58743" lon="1.30865">
        <ele>192.2</ele>
        <time>2023-10-31T15:51:25Z</time>
      </trkpt>
      <trkpt lat="43.5874" lon="1.30872">
        <ele>192.2</ele>
        <time>2023-10-31T15:51:26Z</time>
      </trkpt>
      <trkpt lat="43.58722" lon="1.30939">
        <ele>192.2</ele>
        <time>2023-10-31T15:51:33Z</time>
      </trkpt>
      <trkpt lat="43.58711" lon="1.3101">
        <ele>192.2</ele>
        <time>2023-10-31T15:51:40Z</time>
      </trkpt>
      <trkpt lat="43.58708" lon="1.31066">
        <ele>192.4</ele>
        <time>2023-10-31T15:51:46Z</time>
      </trkpt>
      <trkpt lat="43.58708" lon="1.31146">
        <ele>192.2</ele>
        <time>2023-10-31T15:51:54Z</time>
      </trkpt>
      <trkpt lat="43.58706" lon="1.31224">
        <ele>191.6</ele>
        <time>2023-10-31T15:52:01Z</time>
      </trkpt>
      <trkpt lat="43.58699" lon="1.31299">
        <ele>191.4</ele>
        <time>2023-10-31T15:52:08Z</time>
      </trkpt>
      <trkpt lat="43.58697" lon="1.31331">
        <ele>191.6</ele>
        <time>2023-10-31T15:52:11Z</time>
      </trkpt>
      <trkpt lat="43.58691" lon="1.31409">
        <ele>191.8</ele>
        <time>2023-10-31T15:52:18Z</time>
      </trkpt>
      <trkpt lat="43.58688" lon="1.31428">
        <ele>191.8</ele>
        <time>2023-10-31T15:52:20Z</time>
      </trkpt>
      <trkpt lat="43.58678" lon="1.31503">
        <ele>191.6</ele>
        <time>2023-10-31T15:52:27Z</time>
      </trkpt>
      <trkpt lat="43.58675" lon="1.31531">
        <ele>191.4</ele>
        <time>2023-10-31T15:52:30Z</time>
      </trkpt>
      <trkpt lat="43.58672" lon="1.3158">
        <ele>191.4</ele>
        <time>2023-10-31T15:52:35Z</time>
      </trkpt>
      <trkpt lat="43.58661" lon="1.31651">
        <ele>191.4</ele>
        <time>2023-10-31T15:52:42Z</time>
      </trkpt>
      <trkpt lat="43.58652" lon="1.31716">
        <ele>191</ele>
        <time>2023-10-31T15:52:49Z</time>
      </trkpt>
      <trkpt lat="43.58648" lon="1.31736">
        <ele>191.2</ele>
        <time>2023-10-31T15:52:51Z</time>
      </trkpt>
      <trkpt lat="43.58649" lon="1.31752">
        <ele>191.2</ele>
        <time>2023-10-31T15:52:53Z</time>
      </trkpt>
      <trkpt lat="43.58661" lon="1.31829">
        <ele>190.4</ele>
        <time>2023-10-31T15:53:01Z</time>
      </trkpt>
      <trkpt lat="43.58663" lon="1.31837">
        <ele>190.4</ele>
        <time>2023-10-31T15:53:02Z</time>
      </trkpt>
      <trkpt lat="43.58671" lon="1.31854">
        <ele>190.2</ele>
        <time>2023-10-31T15:53:05Z</time>
      </trkpt>
      <trkpt lat="43.58672" lon="1.31865">
        <ele>190.2</ele>
        <time>2023-10-31T15:53:07Z</time>
      </trkpt>
      <trkpt lat="43.58672" lon="1.31872">
        <ele>190.2</ele>
        <time>2023-10-31T15:53:08Z</time>
      </trkpt>
      <trkpt lat="43.58671" lon="1.31881">
        <ele>190.2</ele>
        <time>2023-10-31T15:53:09Z</time>
      </trkpt>
      <trkpt lat="43.58674" lon="1.31911">
        <ele>190</ele>
        <time>2023-10-31T15:53:13Z</time>
      </trkpt>
      <trkpt lat="43.58678" lon="1.31931">
        <ele>190.2</ele>
        <time>2023-10-31T15:53:16Z</time>
      </trkpt>
      <trkpt lat="43.58679" lon="1.31939">
        <ele>189.8</ele>
        <time>2023-10-31T15:53:18Z</time>
      </trkpt>
      <trkpt lat="43.58679" lon="1.31941">
        <ele>189.6</ele>
        <time>2023-10-31T15:53:19Z</time>
      </trkpt>
      <trkpt lat="43.58673" lon="1.31946">
        <ele>189.6</ele>
        <time>2023-10-31T15:53:22Z</time>
      </trkpt>
      <trkpt lat="43.58665" lon="1.3196">
        <ele>189.6</ele>
        <time>2023-10-31T15:53:26Z</time>
      </trkpt>
      <trkpt lat="43.58672" lon="1.31972">
        <ele>189.4</ele>
        <time>2023-10-31T15:53:29Z</time>
      </trkpt>
      <trkpt lat="43.58675" lon="1.31977">
        <ele>189.6</ele>
        <time>2023-10-31T15:53:30Z</time>
      </trkpt>
      <trkpt lat="43.58678" lon="1.31982">
        <ele>189.4</ele>
        <time>2023-10-31T15:53:31Z</time>
      </trkpt>
      <trkpt lat="43.58682" lon="1.31988">
        <ele>189.4</ele>
        <time>2023-10-31T15:53:32Z</time>
      </trkpt>
      <trkpt lat="43.58684" lon="1.31995">
        <ele>189.2</ele>
        <time>2023-10-31T15:53:33Z</time>
      </trkpt>
      <trkpt lat="43.58686" lon="1.32013">
        <ele>189</ele>
        <time>2023-10-31T15:53:35Z</time>
      </trkpt>
      <trkpt lat="43.58686" lon="1.32031">
        <ele>188.6</ele>
        <time>2023-10-31T15:53:37Z</time>
      </trkpt>
      <trkpt lat="43.58687" lon="1.3206">
        <ele>188.2</ele>
        <time>2023-10-31T15:53:40Z</time>
      </trkpt>
      <trkpt lat="43.58686" lon="1.32088">
        <ele>187.8</ele>
        <time>2023-10-31T15:53:43Z</time>
      </trkpt>
      <trkpt lat="43.5868" lon="1.32168">
        <ele>188.4</ele>
        <time>2023-10-31T15:53:52Z</time>
      </trkpt>
      <trkpt lat="43.58679" lon="1.32176">
        <ele>188.6</ele>
        <time>2023-10-31T15:53:53Z</time>
      </trkpt>
      <trkpt lat="43.58676" lon="1.32212">
        <ele>188.8</ele>
        <time>2023-10-31T15:53:58Z</time>
      </trkpt>
      <trkpt lat="43.58675" lon="1.32228">
        <ele>188.6</ele>
        <time>2023-10-31T15:54:02Z</time>
      </trkpt>
      <trkpt lat="43.58678" lon="1.32227">
        <ele>188.4</ele>
        <time>2023-10-31T15:54:05Z</time>
      </trkpt>
      <trkpt lat="43.58678" lon="1.32225">
        <ele>188.2</ele>
        <time>2023-10-31T15:54:08Z</time>
      </trkpt>
    </trkseg>
  </trk>
</gpx>